<?xml version="1.0" encoding="UTF-8" standalone="no" ?>
<gpx xmlns="http://www.topografix.com/GPX/1/1" xmlns:xsi="http://www.w3.org/2001/XMLSchema-instance" xsi:schemaLocation="http://www.topografix.com/GPX/1/1 http://www.topografix.com/GPX/1/1/gpx.xsd" version="1.1" creator="VisuGPX - https://www.visugpx.com">
  <metadata>
    <name>Sp4 Spéciale &quot;Serre de Rapheu&quot;</name>
    <desc><![CDATA[

En départ de Oust. Niveau piste: Rouge]]></desc>
  </metadata>
  <wpt lat="42.86577" lon="1.18802">
    <ele>542.4</ele>
    <name><![CDATA[Ravitaillement]]></name>
    <desc><![CDATA[N\'oubliez pas de remplir vos bidons !]]></desc>
    <type><![CDATA[person]]></type>
  </wpt>
  <wpt lat="42.89414" lon="1.16818">
    <ele>886.3</ele>
    <name><![CDATA[Ravitaillement]]></name>
    <desc><![CDATA[N\'oubliez pas de remplir vos bidons !]]></desc>
    <type><![CDATA[person]]></type>
  </wpt>
  <wpt lat="42.87511" lon="1.215">
    <ele>500.6</ele>
    <name><![CDATA[Attention ! Ravine, Goulet]]></name>
    <desc><![CDATA[Ralentir dans cette zone, passage d\'une ravine formant un goulet]]></desc>
    <type><![CDATA[danger]]></type>
  </wpt>
  <wpt lat="42.87854" lon="1.24339">
    <ele>763.8</ele>
    <name><![CDATA[Descente ravine de Serre de Rapheu]]></name>
    <desc><![CDATA[La ravine présente quelques flaques de boue facile à éviter.]]></desc>
    <type><![CDATA[danger]]></type>
  </wpt>
  <trk>
    <name><![CDATA[Sp4 Spéciale "Serre de Rapheu"]]></name>
    <desc><![CDATA[En départ de Oust. Niveau piste: Rouge]]></desc>
    <extensions>
      <line xmlns="http://www.topografix.com/GPX/gpx_style/0/2">
        <color>ff0000</color>
        <width>4</width>
          <extensions>
            <sens>1</sens>
          </extensions>
      </line>
    </extensions>
    <trkseg>
      <trkpt lat="42.87456" lon="1.21786">
        <ele>511.439</ele>
        <time>2023-05-29T10:26:56Z</time>
      </trkpt>
      <trkpt lat="42.87456" lon="1.21786">
        <ele>511.538</ele>
        <time>2023-05-29T10:26:57Z</time>
      </trkpt>
      <trkpt lat="42.87456" lon="1.21786">
        <ele>511.549</ele>
        <time>2023-05-29T10:26:58Z</time>
      </trkpt>
      <trkpt lat="42.87456" lon="1.21786">
        <ele>511.661</ele>
        <time>2023-05-29T10:26:59Z</time>
      </trkpt>
      <trkpt lat="42.87456" lon="1.21786">
        <ele>511.457</ele>
        <time>2023-05-29T10:27:00Z</time>
      </trkpt>
      <trkpt lat="42.87456" lon="1.21786">
        <ele>511.462</ele>
        <time>2023-05-29T10:27:01Z</time>
      </trkpt>
      <trkpt lat="42.87456" lon="1.21786">
        <ele>511.475</ele>
        <time>2023-05-29T10:27:02Z</time>
      </trkpt>
      <trkpt lat="42.87456" lon="1.21786">
        <ele>511.47</ele>
        <time>2023-05-29T10:27:03Z</time>
      </trkpt>
      <trkpt lat="42.87456" lon="1.21786">
        <ele>511.478</ele>
        <time>2023-05-29T10:27:04Z</time>
      </trkpt>
      <trkpt lat="42.87456" lon="1.21786">
        <ele>511.501</ele>
        <time>2023-05-29T10:27:05Z</time>
      </trkpt>
      <trkpt lat="42.87456" lon="1.21786">
        <ele>511.5</ele>
        <time>2023-05-29T10:27:06Z</time>
      </trkpt>
      <trkpt lat="42.87456" lon="1.21786">
        <ele>511.501</ele>
        <time>2023-05-29T10:27:07Z</time>
      </trkpt>
      <trkpt lat="42.87456" lon="1.21786">
        <ele>511.496</ele>
        <time>2023-05-29T10:27:08Z</time>
      </trkpt>
      <trkpt lat="42.87456" lon="1.21786">
        <ele>511.5</ele>
        <time>2023-05-29T10:27:09Z</time>
      </trkpt>
      <trkpt lat="42.87456" lon="1.21786">
        <ele>511.491</ele>
        <time>2023-05-29T10:27:10Z</time>
      </trkpt>
      <trkpt lat="42.87456" lon="1.21786">
        <ele>511.492</ele>
        <time>2023-05-29T10:27:11Z</time>
      </trkpt>
      <trkpt lat="42.87456" lon="1.21786">
        <ele>511.49</ele>
        <time>2023-05-29T10:27:12Z</time>
      </trkpt>
      <trkpt lat="42.87456" lon="1.21786">
        <ele>511.489</ele>
        <time>2023-05-29T10:27:13Z</time>
      </trkpt>
      <trkpt lat="42.87456" lon="1.21786">
        <ele>511.483</ele>
        <time>2023-05-29T10:27:14Z</time>
      </trkpt>
      <trkpt lat="42.87456" lon="1.21786">
        <ele>511.484</ele>
        <time>2023-05-29T10:27:15Z</time>
      </trkpt>
      <trkpt lat="42.87456" lon="1.21786">
        <ele>511.491</ele>
        <time>2023-05-29T10:27:16Z</time>
      </trkpt>
      <trkpt lat="42.87456" lon="1.21786">
        <ele>511.492</ele>
        <time>2023-05-29T10:27:17Z</time>
      </trkpt>
      <trkpt lat="42.87456" lon="1.21786">
        <ele>511.488</ele>
        <time>2023-05-29T10:27:18Z</time>
      </trkpt>
      <trkpt lat="42.87456" lon="1.21786">
        <ele>511.489</ele>
        <time>2023-05-29T10:27:19Z</time>
      </trkpt>
      <trkpt lat="42.87456" lon="1.21786">
        <ele>511.489</ele>
        <time>2023-05-29T10:27:20Z</time>
      </trkpt>
      <trkpt lat="42.87456" lon="1.21786">
        <ele>511.482</ele>
        <time>2023-05-29T10:27:21Z</time>
      </trkpt>
      <trkpt lat="42.87456" lon="1.21786">
        <ele>511.465</ele>
        <time>2023-05-29T10:27:22Z</time>
      </trkpt>
      <trkpt lat="42.87456" lon="1.21786">
        <ele>511.461</ele>
        <time>2023-05-29T10:27:23Z</time>
      </trkpt>
      <trkpt lat="42.87456" lon="1.21786">
        <ele>511.461</ele>
        <time>2023-05-29T10:27:24Z</time>
      </trkpt>
      <trkpt lat="42.87456" lon="1.21786">
        <ele>511.682</ele>
        <time>2023-05-29T10:27:25Z</time>
      </trkpt>
      <trkpt lat="42.87457" lon="1.21787">
        <ele>510.597</ele>
        <time>2023-05-29T10:27:26Z</time>
      </trkpt>
      <trkpt lat="42.87457" lon="1.21786">
        <ele>510.29</ele>
        <time>2023-05-29T10:27:27Z</time>
      </trkpt>
      <trkpt lat="42.87457" lon="1.21785">
        <ele>510.257</ele>
        <time>2023-05-29T10:27:28Z</time>
      </trkpt>
      <trkpt lat="42.87457" lon="1.21785">
        <ele>510.231</ele>
        <time>2023-05-29T10:27:29Z</time>
      </trkpt>
      <trkpt lat="42.87458" lon="1.21785">
        <ele>509.866</ele>
        <time>2023-05-29T10:27:30Z</time>
      </trkpt>
      <trkpt lat="42.87458" lon="1.21785">
        <ele>509.324</ele>
        <time>2023-05-29T10:27:31Z</time>
      </trkpt>
      <trkpt lat="42.87458" lon="1.21786">
        <ele>508.856</ele>
        <time>2023-05-29T10:27:32Z</time>
      </trkpt>
      <trkpt lat="42.87458" lon="1.21786">
        <ele>508.598</ele>
        <time>2023-05-29T10:27:33Z</time>
      </trkpt>
      <trkpt lat="42.87459" lon="1.21786">
        <ele>508.679</ele>
        <time>2023-05-29T10:27:34Z</time>
      </trkpt>
      <trkpt lat="42.87459" lon="1.21786">
        <ele>508.496</ele>
        <time>2023-05-29T10:27:35Z</time>
      </trkpt>
      <trkpt lat="42.87459" lon="1.21786">
        <ele>508.624</ele>
        <time>2023-05-29T10:27:36Z</time>
      </trkpt>
      <trkpt lat="42.87459" lon="1.21786">
        <ele>508.588</ele>
        <time>2023-05-29T10:27:37Z</time>
      </trkpt>
      <trkpt lat="42.87459" lon="1.21786">
        <ele>508.568</ele>
        <time>2023-05-29T10:27:38Z</time>
      </trkpt>
      <trkpt lat="42.87459" lon="1.21786">
        <ele>508.65</ele>
        <time>2023-05-29T10:27:39Z</time>
      </trkpt>
      <trkpt lat="42.87459" lon="1.21786">
        <ele>508.208</ele>
        <time>2023-05-29T10:27:40Z</time>
      </trkpt>
      <trkpt lat="42.87458" lon="1.21786">
        <ele>508.604</ele>
        <time>2023-05-29T10:27:41Z</time>
      </trkpt>
      <trkpt lat="42.87458" lon="1.21785">
        <ele>508.497</ele>
        <time>2023-05-29T10:27:42Z</time>
      </trkpt>
      <trkpt lat="42.87458" lon="1.21786">
        <ele>508.238</ele>
        <time>2023-05-29T10:27:43Z</time>
      </trkpt>
      <trkpt lat="42.87458" lon="1.21786">
        <ele>508.239</ele>
        <time>2023-05-29T10:27:44Z</time>
      </trkpt>
      <trkpt lat="42.87458" lon="1.21785">
        <ele>508.11</ele>
        <time>2023-05-29T10:27:45Z</time>
      </trkpt>
      <trkpt lat="42.87458" lon="1.21785">
        <ele>508.177</ele>
        <time>2023-05-29T10:27:46Z</time>
      </trkpt>
      <trkpt lat="42.87458" lon="1.21785">
        <ele>508.175</ele>
        <time>2023-05-29T10:27:47Z</time>
      </trkpt>
      <trkpt lat="42.87457" lon="1.21785">
        <ele>507.877</ele>
        <time>2023-05-29T10:27:48Z</time>
      </trkpt>
      <trkpt lat="42.87457" lon="1.21785">
        <ele>507.778</ele>
        <time>2023-05-29T10:27:49Z</time>
      </trkpt>
      <trkpt lat="42.87457" lon="1.21785">
        <ele>507.642</ele>
        <time>2023-05-29T10:27:50Z</time>
      </trkpt>
      <trkpt lat="42.87457" lon="1.21785">
        <ele>507.633</ele>
        <time>2023-05-29T10:27:51Z</time>
      </trkpt>
      <trkpt lat="42.87457" lon="1.21785">
        <ele>507.454</ele>
        <time>2023-05-29T10:27:52Z</time>
      </trkpt>
      <trkpt lat="42.87456" lon="1.21785">
        <ele>507.636</ele>
        <time>2023-05-29T10:27:53Z</time>
      </trkpt>
      <trkpt lat="42.87456" lon="1.21785">
        <ele>507.535</ele>
        <time>2023-05-29T10:27:54Z</time>
      </trkpt>
      <trkpt lat="42.87456" lon="1.21785">
        <ele>507.531</ele>
        <time>2023-05-29T10:27:55Z</time>
      </trkpt>
      <trkpt lat="42.87456" lon="1.21785">
        <ele>507.61</ele>
        <time>2023-05-29T10:27:56Z</time>
      </trkpt>
      <trkpt lat="42.87456" lon="1.21784">
        <ele>507.342</ele>
        <time>2023-05-29T10:27:57Z</time>
      </trkpt>
      <trkpt lat="42.87456" lon="1.21784">
        <ele>507.262</ele>
        <time>2023-05-29T10:27:58Z</time>
      </trkpt>
      <trkpt lat="42.87456" lon="1.21784">
        <ele>507.144</ele>
        <time>2023-05-29T10:27:59Z</time>
      </trkpt>
      <trkpt lat="42.87456" lon="1.21784">
        <ele>507.035</ele>
        <time>2023-05-29T10:28:00Z</time>
      </trkpt>
      <trkpt lat="42.87456" lon="1.21784">
        <ele>506.852</ele>
        <time>2023-05-29T10:28:01Z</time>
      </trkpt>
      <trkpt lat="42.87456" lon="1.21785">
        <ele>506.99</ele>
        <time>2023-05-29T10:28:02Z</time>
      </trkpt>
      <trkpt lat="42.87456" lon="1.21786">
        <ele>507.756</ele>
        <time>2023-05-29T10:28:03Z</time>
      </trkpt>
      <trkpt lat="42.87456" lon="1.21787">
        <ele>508.214</ele>
        <time>2023-05-29T10:28:04Z</time>
      </trkpt>
      <trkpt lat="42.87456" lon="1.2179">
        <ele>509.96</ele>
        <time>2023-05-29T10:28:05Z</time>
      </trkpt>
      <trkpt lat="42.87455" lon="1.21794">
        <ele>510.209</ele>
        <time>2023-05-29T10:28:06Z</time>
      </trkpt>
      <trkpt lat="42.87453" lon="1.21799">
        <ele>510.018</ele>
        <time>2023-05-29T10:28:07Z</time>
      </trkpt>
      <trkpt lat="42.87451" lon="1.21803">
        <ele>509.986</ele>
        <time>2023-05-29T10:28:08Z</time>
      </trkpt>
      <trkpt lat="42.87449" lon="1.21808">
        <ele>510.207</ele>
        <time>2023-05-29T10:28:09Z</time>
      </trkpt>
      <trkpt lat="42.87446" lon="1.21812">
        <ele>509.983</ele>
        <time>2023-05-29T10:28:10Z</time>
      </trkpt>
      <trkpt lat="42.87445" lon="1.21817">
        <ele>510.457</ele>
        <time>2023-05-29T10:28:11Z</time>
      </trkpt>
      <trkpt lat="42.8745" lon="1.21826">
        <ele>510.045</ele>
        <time>2023-05-29T10:28:12Z</time>
      </trkpt>
      <trkpt lat="42.87451" lon="1.21833">
        <ele>509.497</ele>
        <time>2023-05-29T10:28:13Z</time>
      </trkpt>
      <trkpt lat="42.87453" lon="1.21838">
        <ele>509.572</ele>
        <time>2023-05-29T10:28:14Z</time>
      </trkpt>
      <trkpt lat="42.87454" lon="1.21845">
        <ele>509.013</ele>
        <time>2023-05-29T10:28:15Z</time>
      </trkpt>
      <trkpt lat="42.87455" lon="1.21852">
        <ele>509.385</ele>
        <time>2023-05-29T10:28:16Z</time>
      </trkpt>
      <trkpt lat="42.87457" lon="1.21858">
        <ele>510.792</ele>
        <time>2023-05-29T10:28:17Z</time>
      </trkpt>
      <trkpt lat="42.87458" lon="1.21864">
        <ele>511.044</ele>
        <time>2023-05-29T10:28:18Z</time>
      </trkpt>
      <trkpt lat="42.8746" lon="1.2187">
        <ele>510.81</ele>
        <time>2023-05-29T10:28:19Z</time>
      </trkpt>
      <trkpt lat="42.87461" lon="1.21877">
        <ele>510.761</ele>
        <time>2023-05-29T10:28:20Z</time>
      </trkpt>
      <trkpt lat="42.87463" lon="1.21883">
        <ele>510.659</ele>
        <time>2023-05-29T10:28:21Z</time>
      </trkpt>
      <trkpt lat="42.87463" lon="1.2189">
        <ele>510.528</ele>
        <time>2023-05-29T10:28:22Z</time>
      </trkpt>
      <trkpt lat="42.87465" lon="1.21896">
        <ele>510.086</ele>
        <time>2023-05-29T10:28:23Z</time>
      </trkpt>
      <trkpt lat="42.87465" lon="1.21904">
        <ele>509.599</ele>
        <time>2023-05-29T10:28:24Z</time>
      </trkpt>
      <trkpt lat="42.87467" lon="1.21911">
        <ele>509.422</ele>
        <time>2023-05-29T10:28:25Z</time>
      </trkpt>
      <trkpt lat="42.87468" lon="1.21918">
        <ele>508.565</ele>
        <time>2023-05-29T10:28:26Z</time>
      </trkpt>
      <trkpt lat="42.8747" lon="1.21924">
        <ele>507.378</ele>
        <time>2023-05-29T10:28:27Z</time>
      </trkpt>
      <trkpt lat="42.87471" lon="1.21931">
        <ele>507.127</ele>
        <time>2023-05-29T10:28:28Z</time>
      </trkpt>
      <trkpt lat="42.87473" lon="1.21937">
        <ele>506.03</ele>
        <time>2023-05-29T10:28:29Z</time>
      </trkpt>
      <trkpt lat="42.87475" lon="1.21943">
        <ele>505.825</ele>
        <time>2023-05-29T10:28:30Z</time>
      </trkpt>
      <trkpt lat="42.87476" lon="1.21951">
        <ele>506.947</ele>
        <time>2023-05-29T10:28:31Z</time>
      </trkpt>
      <trkpt lat="42.87477" lon="1.21958">
        <ele>507.649</ele>
        <time>2023-05-29T10:28:32Z</time>
      </trkpt>
      <trkpt lat="42.87478" lon="1.21966">
        <ele>507.31</ele>
        <time>2023-05-29T10:28:33Z</time>
      </trkpt>
      <trkpt lat="42.87478" lon="1.21973">
        <ele>507.1</ele>
        <time>2023-05-29T10:28:34Z</time>
      </trkpt>
      <trkpt lat="42.87475" lon="1.21978">
        <ele>508.8</ele>
        <time>2023-05-29T10:28:35Z</time>
      </trkpt>
      <trkpt lat="42.87471" lon="1.21983">
        <ele>509.54</ele>
        <time>2023-05-29T10:28:36Z</time>
      </trkpt>
      <trkpt lat="42.87466" lon="1.21986">
        <ele>509.438</ele>
        <time>2023-05-29T10:28:37Z</time>
      </trkpt>
      <trkpt lat="42.87462" lon="1.2199">
        <ele>508.831</ele>
        <time>2023-05-29T10:28:38Z</time>
      </trkpt>
      <trkpt lat="42.87458" lon="1.21993">
        <ele>507.465</ele>
        <time>2023-05-29T10:28:39Z</time>
      </trkpt>
      <trkpt lat="42.87455" lon="1.21996">
        <ele>508.052</ele>
        <time>2023-05-29T10:28:40Z</time>
      </trkpt>
      <trkpt lat="42.87451" lon="1.21998">
        <ele>508.694</ele>
        <time>2023-05-29T10:28:41Z</time>
      </trkpt>
      <trkpt lat="42.87448" lon="1.22">
        <ele>509.189</ele>
        <time>2023-05-29T10:28:42Z</time>
      </trkpt>
      <trkpt lat="42.87445" lon="1.22003">
        <ele>509.747</ele>
        <time>2023-05-29T10:28:43Z</time>
      </trkpt>
      <trkpt lat="42.87441" lon="1.22005">
        <ele>510.088</ele>
        <time>2023-05-29T10:28:44Z</time>
      </trkpt>
      <trkpt lat="42.87437" lon="1.22006">
        <ele>510.076</ele>
        <time>2023-05-29T10:28:45Z</time>
      </trkpt>
      <trkpt lat="42.87433" lon="1.22008">
        <ele>509.769</ele>
        <time>2023-05-29T10:28:46Z</time>
      </trkpt>
      <trkpt lat="42.87429" lon="1.22011">
        <ele>511.792</ele>
        <time>2023-05-29T10:28:47Z</time>
      </trkpt>
      <trkpt lat="42.87426" lon="1.22013">
        <ele>511.903</ele>
        <time>2023-05-29T10:28:48Z</time>
      </trkpt>
      <trkpt lat="42.87422" lon="1.22015">
        <ele>511.236</ele>
        <time>2023-05-29T10:28:49Z</time>
      </trkpt>
      <trkpt lat="42.87419" lon="1.22017">
        <ele>511.152</ele>
        <time>2023-05-29T10:28:50Z</time>
      </trkpt>
      <trkpt lat="42.87416" lon="1.2202">
        <ele>511.135</ele>
        <time>2023-05-29T10:28:51Z</time>
      </trkpt>
      <trkpt lat="42.87413" lon="1.22024">
        <ele>511.557</ele>
        <time>2023-05-29T10:28:52Z</time>
      </trkpt>
      <trkpt lat="42.8741" lon="1.22027">
        <ele>512.836</ele>
        <time>2023-05-29T10:28:53Z</time>
      </trkpt>
      <trkpt lat="42.87408" lon="1.22031">
        <ele>513.34</ele>
        <time>2023-05-29T10:28:54Z</time>
      </trkpt>
      <trkpt lat="42.87406" lon="1.22036">
        <ele>513.776</ele>
        <time>2023-05-29T10:28:55Z</time>
      </trkpt>
      <trkpt lat="42.87405" lon="1.2204">
        <ele>515.484</ele>
        <time>2023-05-29T10:28:56Z</time>
      </trkpt>
      <trkpt lat="42.87404" lon="1.22045">
        <ele>516.005</ele>
        <time>2023-05-29T10:28:57Z</time>
      </trkpt>
      <trkpt lat="42.87402" lon="1.22049">
        <ele>517.822</ele>
        <time>2023-05-29T10:28:58Z</time>
      </trkpt>
      <trkpt lat="42.87401" lon="1.22054">
        <ele>518.513</ele>
        <time>2023-05-29T10:28:59Z</time>
      </trkpt>
      <trkpt lat="42.87399" lon="1.22058">
        <ele>519.675</ele>
        <time>2023-05-29T10:29:00Z</time>
      </trkpt>
      <trkpt lat="42.87398" lon="1.22062">
        <ele>520.558</ele>
        <time>2023-05-29T10:29:01Z</time>
      </trkpt>
      <trkpt lat="42.87397" lon="1.22066">
        <ele>521.037</ele>
        <time>2023-05-29T10:29:02Z</time>
      </trkpt>
      <trkpt lat="42.87396" lon="1.22069">
        <ele>522.096</ele>
        <time>2023-05-29T10:29:03Z</time>
      </trkpt>
      <trkpt lat="42.87396" lon="1.22072">
        <ele>521.588</ele>
        <time>2023-05-29T10:29:04Z</time>
      </trkpt>
      <trkpt lat="42.87395" lon="1.22075">
        <ele>521.768</ele>
        <time>2023-05-29T10:29:05Z</time>
      </trkpt>
      <trkpt lat="42.87394" lon="1.22079">
        <ele>521.915</ele>
        <time>2023-05-29T10:29:06Z</time>
      </trkpt>
      <trkpt lat="42.87393" lon="1.22083">
        <ele>523.728</ele>
        <time>2023-05-29T10:29:07Z</time>
      </trkpt>
      <trkpt lat="42.87392" lon="1.22087">
        <ele>524.925</ele>
        <time>2023-05-29T10:29:08Z</time>
      </trkpt>
      <trkpt lat="42.8739" lon="1.22091">
        <ele>524.927</ele>
        <time>2023-05-29T10:29:09Z</time>
      </trkpt>
      <trkpt lat="42.87389" lon="1.22094">
        <ele>525.082</ele>
        <time>2023-05-29T10:29:10Z</time>
      </trkpt>
      <trkpt lat="42.87388" lon="1.22097">
        <ele>524.923</ele>
        <time>2023-05-29T10:29:11Z</time>
      </trkpt>
      <trkpt lat="42.87388" lon="1.221">
        <ele>524.522</ele>
        <time>2023-05-29T10:29:12Z</time>
      </trkpt>
      <trkpt lat="42.87388" lon="1.22103">
        <ele>525.092</ele>
        <time>2023-05-29T10:29:13Z</time>
      </trkpt>
      <trkpt lat="42.87387" lon="1.22106">
        <ele>525.269</ele>
        <time>2023-05-29T10:29:14Z</time>
      </trkpt>
      <trkpt lat="42.87386" lon="1.22109">
        <ele>526.203</ele>
        <time>2023-05-29T10:29:15Z</time>
      </trkpt>
      <trkpt lat="42.87385" lon="1.22111">
        <ele>526.449</ele>
        <time>2023-05-29T10:29:16Z</time>
      </trkpt>
      <trkpt lat="42.87384" lon="1.22114">
        <ele>527.422</ele>
        <time>2023-05-29T10:29:17Z</time>
      </trkpt>
      <trkpt lat="42.87383" lon="1.22117">
        <ele>527.703</ele>
        <time>2023-05-29T10:29:18Z</time>
      </trkpt>
      <trkpt lat="42.87382" lon="1.2212">
        <ele>527.428</ele>
        <time>2023-05-29T10:29:19Z</time>
      </trkpt>
      <trkpt lat="42.87382" lon="1.22122">
        <ele>528.8</ele>
        <time>2023-05-29T10:29:20Z</time>
      </trkpt>
      <trkpt lat="42.87381" lon="1.22125">
        <ele>529.955</ele>
        <time>2023-05-29T10:29:21Z</time>
      </trkpt>
      <trkpt lat="42.8738" lon="1.22128">
        <ele>530.995</ele>
        <time>2023-05-29T10:29:22Z</time>
      </trkpt>
      <trkpt lat="42.87378" lon="1.22131">
        <ele>530.54</ele>
        <time>2023-05-29T10:29:23Z</time>
      </trkpt>
      <trkpt lat="42.87376" lon="1.22135">
        <ele>530.15</ele>
        <time>2023-05-29T10:29:24Z</time>
      </trkpt>
      <trkpt lat="42.87373" lon="1.22138">
        <ele>530.393</ele>
        <time>2023-05-29T10:29:25Z</time>
      </trkpt>
      <trkpt lat="42.87371" lon="1.2214">
        <ele>529.105</ele>
        <time>2023-05-29T10:29:26Z</time>
      </trkpt>
      <trkpt lat="42.87369" lon="1.22142">
        <ele>529.074</ele>
        <time>2023-05-29T10:29:27Z</time>
      </trkpt>
      <trkpt lat="42.87366" lon="1.22142">
        <ele>529.775</ele>
        <time>2023-05-29T10:29:28Z</time>
      </trkpt>
      <trkpt lat="42.87363" lon="1.22142">
        <ele>528.803</ele>
        <time>2023-05-29T10:29:29Z</time>
      </trkpt>
      <trkpt lat="42.8736" lon="1.22142">
        <ele>528.619</ele>
        <time>2023-05-29T10:29:30Z</time>
      </trkpt>
      <trkpt lat="42.87358" lon="1.2214">
        <ele>529.41</ele>
        <time>2023-05-29T10:29:31Z</time>
      </trkpt>
      <trkpt lat="42.87356" lon="1.22138">
        <ele>530.819</ele>
        <time>2023-05-29T10:29:32Z</time>
      </trkpt>
      <trkpt lat="42.87354" lon="1.22137">
        <ele>531.11</ele>
        <time>2023-05-29T10:29:33Z</time>
      </trkpt>
      <trkpt lat="42.87352" lon="1.22135">
        <ele>530.837</ele>
        <time>2023-05-29T10:29:34Z</time>
      </trkpt>
      <trkpt lat="42.8735" lon="1.22133">
        <ele>531.805</ele>
        <time>2023-05-29T10:29:35Z</time>
      </trkpt>
      <trkpt lat="42.87348" lon="1.22131">
        <ele>532.069</ele>
        <time>2023-05-29T10:29:36Z</time>
      </trkpt>
      <trkpt lat="42.87346" lon="1.22129">
        <ele>532.701</ele>
        <time>2023-05-29T10:29:37Z</time>
      </trkpt>
      <trkpt lat="42.87344" lon="1.22128">
        <ele>534.319</ele>
        <time>2023-05-29T10:29:38Z</time>
      </trkpt>
      <trkpt lat="42.87341" lon="1.22129">
        <ele>535.054</ele>
        <time>2023-05-29T10:29:39Z</time>
      </trkpt>
      <trkpt lat="42.87338" lon="1.22131">
        <ele>534.578</ele>
        <time>2023-05-29T10:29:40Z</time>
      </trkpt>
      <trkpt lat="42.87335" lon="1.22132">
        <ele>535.783</ele>
        <time>2023-05-29T10:29:41Z</time>
      </trkpt>
      <trkpt lat="42.87332" lon="1.22134">
        <ele>536.871</ele>
        <time>2023-05-29T10:29:42Z</time>
      </trkpt>
      <trkpt lat="42.87329" lon="1.22134">
        <ele>538.098</ele>
        <time>2023-05-29T10:29:43Z</time>
      </trkpt>
      <trkpt lat="42.87327" lon="1.22135">
        <ele>539.047</ele>
        <time>2023-05-29T10:29:44Z</time>
      </trkpt>
      <trkpt lat="42.87324" lon="1.22137">
        <ele>539.165</ele>
        <time>2023-05-29T10:29:45Z</time>
      </trkpt>
      <trkpt lat="42.87322" lon="1.2214">
        <ele>539.167</ele>
        <time>2023-05-29T10:29:46Z</time>
      </trkpt>
      <trkpt lat="42.8732" lon="1.22143">
        <ele>539.267</ele>
        <time>2023-05-29T10:29:47Z</time>
      </trkpt>
      <trkpt lat="42.87319" lon="1.22146">
        <ele>537.988</ele>
        <time>2023-05-29T10:29:48Z</time>
      </trkpt>
      <trkpt lat="42.87317" lon="1.2215">
        <ele>537.238</ele>
        <time>2023-05-29T10:29:49Z</time>
      </trkpt>
      <trkpt lat="42.87315" lon="1.22153">
        <ele>538.395</ele>
        <time>2023-05-29T10:29:50Z</time>
      </trkpt>
      <trkpt lat="42.87313" lon="1.22156">
        <ele>539.089</ele>
        <time>2023-05-29T10:29:51Z</time>
      </trkpt>
      <trkpt lat="42.87312" lon="1.2216">
        <ele>539.231</ele>
        <time>2023-05-29T10:29:52Z</time>
      </trkpt>
      <trkpt lat="42.8731" lon="1.22163">
        <ele>541.033</ele>
        <time>2023-05-29T10:29:53Z</time>
      </trkpt>
      <trkpt lat="42.87309" lon="1.22167">
        <ele>542.224</ele>
        <time>2023-05-29T10:29:54Z</time>
      </trkpt>
      <trkpt lat="42.87307" lon="1.22171">
        <ele>541.76</ele>
        <time>2023-05-29T10:29:55Z</time>
      </trkpt>
      <trkpt lat="42.87305" lon="1.22174">
        <ele>541.776</ele>
        <time>2023-05-29T10:29:56Z</time>
      </trkpt>
      <trkpt lat="42.87304" lon="1.22178">
        <ele>541.358</ele>
        <time>2023-05-29T10:29:57Z</time>
      </trkpt>
      <trkpt lat="42.87303" lon="1.22182">
        <ele>541.284</ele>
        <time>2023-05-29T10:29:58Z</time>
      </trkpt>
      <trkpt lat="42.87302" lon="1.22185">
        <ele>541.754</ele>
        <time>2023-05-29T10:29:59Z</time>
      </trkpt>
      <trkpt lat="42.873" lon="1.22189">
        <ele>542.548</ele>
        <time>2023-05-29T10:30:00Z</time>
      </trkpt>
      <trkpt lat="42.87299" lon="1.22192">
        <ele>542.827</ele>
        <time>2023-05-29T10:30:01Z</time>
      </trkpt>
      <trkpt lat="42.87297" lon="1.22195">
        <ele>543.284</ele>
        <time>2023-05-29T10:30:02Z</time>
      </trkpt>
      <trkpt lat="42.87296" lon="1.22198">
        <ele>543.239</ele>
        <time>2023-05-29T10:30:03Z</time>
      </trkpt>
      <trkpt lat="42.87294" lon="1.22202">
        <ele>543.755</ele>
        <time>2023-05-29T10:30:04Z</time>
      </trkpt>
      <trkpt lat="42.87293" lon="1.22206">
        <ele>543.151</ele>
        <time>2023-05-29T10:30:05Z</time>
      </trkpt>
      <trkpt lat="42.87292" lon="1.2221">
        <ele>545.068</ele>
        <time>2023-05-29T10:30:06Z</time>
      </trkpt>
      <trkpt lat="42.87291" lon="1.22214">
        <ele>545</ele>
        <time>2023-05-29T10:30:07Z</time>
      </trkpt>
      <trkpt lat="42.87291" lon="1.22218">
        <ele>546.143</ele>
        <time>2023-05-29T10:30:08Z</time>
      </trkpt>
      <trkpt lat="42.8729" lon="1.22222">
        <ele>546.156</ele>
        <time>2023-05-29T10:30:09Z</time>
      </trkpt>
      <trkpt lat="42.8729" lon="1.22226">
        <ele>546.46</ele>
        <time>2023-05-29T10:30:10Z</time>
      </trkpt>
      <trkpt lat="42.87291" lon="1.2223">
        <ele>546.362</ele>
        <time>2023-05-29T10:30:11Z</time>
      </trkpt>
      <trkpt lat="42.87291" lon="1.22234">
        <ele>547.1</ele>
        <time>2023-05-29T10:30:12Z</time>
      </trkpt>
      <trkpt lat="42.87293" lon="1.22237">
        <ele>547.113</ele>
        <time>2023-05-29T10:30:13Z</time>
      </trkpt>
      <trkpt lat="42.87294" lon="1.2224">
        <ele>547.213</ele>
        <time>2023-05-29T10:30:14Z</time>
      </trkpt>
      <trkpt lat="42.87296" lon="1.22243">
        <ele>546.991</ele>
        <time>2023-05-29T10:30:15Z</time>
      </trkpt>
      <trkpt lat="42.87297" lon="1.22246">
        <ele>547.249</ele>
        <time>2023-05-29T10:30:16Z</time>
      </trkpt>
      <trkpt lat="42.87299" lon="1.22249">
        <ele>546.751</ele>
        <time>2023-05-29T10:30:17Z</time>
      </trkpt>
      <trkpt lat="42.873" lon="1.22252">
        <ele>546.554</ele>
        <time>2023-05-29T10:30:18Z</time>
      </trkpt>
      <trkpt lat="42.87301" lon="1.22255">
        <ele>546.42</ele>
        <time>2023-05-29T10:30:19Z</time>
      </trkpt>
      <trkpt lat="42.87302" lon="1.22259">
        <ele>547.026</ele>
        <time>2023-05-29T10:30:20Z</time>
      </trkpt>
      <trkpt lat="42.87304" lon="1.22262">
        <ele>548.086</ele>
        <time>2023-05-29T10:30:21Z</time>
      </trkpt>
      <trkpt lat="42.87305" lon="1.22265">
        <ele>548.276</ele>
        <time>2023-05-29T10:30:22Z</time>
      </trkpt>
      <trkpt lat="42.87307" lon="1.22268">
        <ele>548.86</ele>
        <time>2023-05-29T10:30:23Z</time>
      </trkpt>
      <trkpt lat="42.87308" lon="1.22272">
        <ele>549.814</ele>
        <time>2023-05-29T10:30:24Z</time>
      </trkpt>
      <trkpt lat="42.87309" lon="1.22275">
        <ele>550.284</ele>
        <time>2023-05-29T10:30:25Z</time>
      </trkpt>
      <trkpt lat="42.87311" lon="1.22278">
        <ele>550.995</ele>
        <time>2023-05-29T10:30:26Z</time>
      </trkpt>
      <trkpt lat="42.87312" lon="1.22282">
        <ele>551.877</ele>
        <time>2023-05-29T10:30:27Z</time>
      </trkpt>
      <trkpt lat="42.87313" lon="1.22285">
        <ele>552.189</ele>
        <time>2023-05-29T10:30:28Z</time>
      </trkpt>
      <trkpt lat="42.87315" lon="1.22287">
        <ele>552.265</ele>
        <time>2023-05-29T10:30:29Z</time>
      </trkpt>
      <trkpt lat="42.87318" lon="1.22289">
        <ele>552.703</ele>
        <time>2023-05-29T10:30:30Z</time>
      </trkpt>
      <trkpt lat="42.8732" lon="1.22291">
        <ele>553.675</ele>
        <time>2023-05-29T10:30:31Z</time>
      </trkpt>
      <trkpt lat="42.87323" lon="1.22293">
        <ele>553.478</ele>
        <time>2023-05-29T10:30:32Z</time>
      </trkpt>
      <trkpt lat="42.87325" lon="1.22294">
        <ele>553.523</ele>
        <time>2023-05-29T10:30:33Z</time>
      </trkpt>
      <trkpt lat="42.87329" lon="1.22294">
        <ele>554.146</ele>
        <time>2023-05-29T10:30:34Z</time>
      </trkpt>
      <trkpt lat="42.87333" lon="1.22293">
        <ele>555.752</ele>
        <time>2023-05-29T10:30:35Z</time>
      </trkpt>
      <trkpt lat="42.87336" lon="1.22291">
        <ele>555.993</ele>
        <time>2023-05-29T10:30:36Z</time>
      </trkpt>
      <trkpt lat="42.87339" lon="1.22289">
        <ele>555.125</ele>
        <time>2023-05-29T10:30:37Z</time>
      </trkpt>
      <trkpt lat="42.87342" lon="1.22286">
        <ele>555.053</ele>
        <time>2023-05-29T10:30:38Z</time>
      </trkpt>
      <trkpt lat="42.87345" lon="1.22284">
        <ele>555.583</ele>
        <time>2023-05-29T10:30:39Z</time>
      </trkpt>
      <trkpt lat="42.87348" lon="1.22282">
        <ele>555.746</ele>
        <time>2023-05-29T10:30:40Z</time>
      </trkpt>
      <trkpt lat="42.87351" lon="1.22281">
        <ele>555.772</ele>
        <time>2023-05-29T10:30:41Z</time>
      </trkpt>
      <trkpt lat="42.87354" lon="1.22279">
        <ele>556.68</ele>
        <time>2023-05-29T10:30:42Z</time>
      </trkpt>
      <trkpt lat="42.87357" lon="1.22277">
        <ele>556.894</ele>
        <time>2023-05-29T10:30:43Z</time>
      </trkpt>
      <trkpt lat="42.87359" lon="1.22275">
        <ele>556.659</ele>
        <time>2023-05-29T10:30:44Z</time>
      </trkpt>
      <trkpt lat="42.87362" lon="1.22274">
        <ele>558.012</ele>
        <time>2023-05-29T10:30:45Z</time>
      </trkpt>
      <trkpt lat="42.87365" lon="1.22272">
        <ele>558.106</ele>
        <time>2023-05-29T10:30:46Z</time>
      </trkpt>
      <trkpt lat="42.87368" lon="1.2227">
        <ele>557.614</ele>
        <time>2023-05-29T10:30:47Z</time>
      </trkpt>
      <trkpt lat="42.8737" lon="1.22269">
        <ele>559.372</ele>
        <time>2023-05-29T10:30:48Z</time>
      </trkpt>
      <trkpt lat="42.87373" lon="1.22268">
        <ele>559.446</ele>
        <time>2023-05-29T10:30:49Z</time>
      </trkpt>
      <trkpt lat="42.87375" lon="1.22267">
        <ele>559.338</ele>
        <time>2023-05-29T10:30:50Z</time>
      </trkpt>
      <trkpt lat="42.87378" lon="1.22267">
        <ele>559.326</ele>
        <time>2023-05-29T10:30:51Z</time>
      </trkpt>
      <trkpt lat="42.87381" lon="1.22266">
        <ele>559.482</ele>
        <time>2023-05-29T10:30:52Z</time>
      </trkpt>
      <trkpt lat="42.87384" lon="1.22266">
        <ele>559.595</ele>
        <time>2023-05-29T10:30:53Z</time>
      </trkpt>
      <trkpt lat="42.87387" lon="1.22264">
        <ele>562.805</ele>
        <time>2023-05-29T10:30:54Z</time>
      </trkpt>
      <trkpt lat="42.87389" lon="1.22263">
        <ele>563.93</ele>
        <time>2023-05-29T10:30:55Z</time>
      </trkpt>
      <trkpt lat="42.87392" lon="1.22263">
        <ele>565.096</ele>
        <time>2023-05-29T10:30:56Z</time>
      </trkpt>
      <trkpt lat="42.87394" lon="1.22262">
        <ele>564.87</ele>
        <time>2023-05-29T10:30:57Z</time>
      </trkpt>
      <trkpt lat="42.87396" lon="1.22261">
        <ele>564.846</ele>
        <time>2023-05-29T10:30:58Z</time>
      </trkpt>
      <trkpt lat="42.87399" lon="1.22261">
        <ele>564.816</ele>
        <time>2023-05-29T10:30:59Z</time>
      </trkpt>
      <trkpt lat="42.87401" lon="1.22261">
        <ele>564.499</ele>
        <time>2023-05-29T10:31:00Z</time>
      </trkpt>
      <trkpt lat="42.87404" lon="1.22261">
        <ele>564.106</ele>
        <time>2023-05-29T10:31:01Z</time>
      </trkpt>
      <trkpt lat="42.87406" lon="1.22261">
        <ele>565.538</ele>
        <time>2023-05-29T10:31:02Z</time>
      </trkpt>
      <trkpt lat="42.87409" lon="1.22261">
        <ele>565.933</ele>
        <time>2023-05-29T10:31:03Z</time>
      </trkpt>
      <trkpt lat="42.87411" lon="1.22261">
        <ele>565.74</ele>
        <time>2023-05-29T10:31:04Z</time>
      </trkpt>
      <trkpt lat="42.87413" lon="1.22261">
        <ele>565.93</ele>
        <time>2023-05-29T10:31:05Z</time>
      </trkpt>
      <trkpt lat="42.87416" lon="1.22261">
        <ele>567.654</ele>
        <time>2023-05-29T10:31:06Z</time>
      </trkpt>
      <trkpt lat="42.87418" lon="1.2226">
        <ele>567.06</ele>
        <time>2023-05-29T10:31:07Z</time>
      </trkpt>
      <trkpt lat="42.87421" lon="1.22258">
        <ele>567.651</ele>
        <time>2023-05-29T10:31:08Z</time>
      </trkpt>
      <trkpt lat="42.87424" lon="1.22256">
        <ele>568.879</ele>
        <time>2023-05-29T10:31:09Z</time>
      </trkpt>
      <trkpt lat="42.87426" lon="1.22254">
        <ele>569.7</ele>
        <time>2023-05-29T10:31:10Z</time>
      </trkpt>
      <trkpt lat="42.87429" lon="1.22252">
        <ele>569.958</ele>
        <time>2023-05-29T10:31:11Z</time>
      </trkpt>
      <trkpt lat="42.87432" lon="1.2225">
        <ele>569.978</ele>
        <time>2023-05-29T10:31:12Z</time>
      </trkpt>
      <trkpt lat="42.87435" lon="1.22248">
        <ele>569.374</ele>
        <time>2023-05-29T10:31:13Z</time>
      </trkpt>
      <trkpt lat="42.87437" lon="1.22245">
        <ele>569.308</ele>
        <time>2023-05-29T10:31:14Z</time>
      </trkpt>
      <trkpt lat="42.87439" lon="1.22242">
        <ele>569.698</ele>
        <time>2023-05-29T10:31:15Z</time>
      </trkpt>
      <trkpt lat="42.87442" lon="1.22241">
        <ele>570.871</ele>
        <time>2023-05-29T10:31:16Z</time>
      </trkpt>
      <trkpt lat="42.87445" lon="1.22239">
        <ele>571.884</ele>
        <time>2023-05-29T10:31:17Z</time>
      </trkpt>
      <trkpt lat="42.87448" lon="1.22238">
        <ele>572.943</ele>
        <time>2023-05-29T10:31:18Z</time>
      </trkpt>
      <trkpt lat="42.8745" lon="1.22236">
        <ele>573.118</ele>
        <time>2023-05-29T10:31:19Z</time>
      </trkpt>
      <trkpt lat="42.87453" lon="1.22235">
        <ele>573.12</ele>
        <time>2023-05-29T10:31:20Z</time>
      </trkpt>
      <trkpt lat="42.87456" lon="1.22233">
        <ele>572.941</ele>
        <time>2023-05-29T10:31:21Z</time>
      </trkpt>
      <trkpt lat="42.87459" lon="1.22232">
        <ele>572.632</ele>
        <time>2023-05-29T10:31:22Z</time>
      </trkpt>
      <trkpt lat="42.87462" lon="1.22232">
        <ele>572.431</ele>
        <time>2023-05-29T10:31:23Z</time>
      </trkpt>
      <trkpt lat="42.87465" lon="1.22231">
        <ele>573.632</ele>
        <time>2023-05-29T10:31:24Z</time>
      </trkpt>
      <trkpt lat="42.87467" lon="1.2223">
        <ele>573.902</ele>
        <time>2023-05-29T10:31:25Z</time>
      </trkpt>
      <trkpt lat="42.87469" lon="1.22229">
        <ele>575.129</ele>
        <time>2023-05-29T10:31:26Z</time>
      </trkpt>
      <trkpt lat="42.87471" lon="1.22229">
        <ele>574.627</ele>
        <time>2023-05-29T10:31:27Z</time>
      </trkpt>
      <trkpt lat="42.87473" lon="1.22228">
        <ele>575.491</ele>
        <time>2023-05-29T10:31:28Z</time>
      </trkpt>
      <trkpt lat="42.87475" lon="1.22228">
        <ele>576.901</ele>
        <time>2023-05-29T10:31:29Z</time>
      </trkpt>
      <trkpt lat="42.87477" lon="1.22227">
        <ele>576.499</ele>
        <time>2023-05-29T10:31:30Z</time>
      </trkpt>
      <trkpt lat="42.87479" lon="1.22227">
        <ele>577.296</ele>
        <time>2023-05-29T10:31:31Z</time>
      </trkpt>
      <trkpt lat="42.87481" lon="1.22227">
        <ele>577.405</ele>
        <time>2023-05-29T10:31:32Z</time>
      </trkpt>
      <trkpt lat="42.87483" lon="1.22227">
        <ele>577.47</ele>
        <time>2023-05-29T10:31:33Z</time>
      </trkpt>
      <trkpt lat="42.87485" lon="1.22229">
        <ele>577.886</ele>
        <time>2023-05-29T10:31:34Z</time>
      </trkpt>
      <trkpt lat="42.87485" lon="1.22231">
        <ele>577.677</ele>
        <time>2023-05-29T10:31:35Z</time>
      </trkpt>
      <trkpt lat="42.87483" lon="1.22233">
        <ele>578.311</ele>
        <time>2023-05-29T10:31:36Z</time>
      </trkpt>
      <trkpt lat="42.87481" lon="1.22235">
        <ele>578.242</ele>
        <time>2023-05-29T10:31:37Z</time>
      </trkpt>
      <trkpt lat="42.8748" lon="1.22235">
        <ele>578.788</ele>
        <time>2023-05-29T10:31:38Z</time>
      </trkpt>
      <trkpt lat="42.87478" lon="1.22235">
        <ele>579.519</ele>
        <time>2023-05-29T10:31:39Z</time>
      </trkpt>
      <trkpt lat="42.87477" lon="1.22237">
        <ele>579.88</ele>
        <time>2023-05-29T10:31:40Z</time>
      </trkpt>
      <trkpt lat="42.87476" lon="1.22237">
        <ele>581.732</ele>
        <time>2023-05-29T10:31:41Z</time>
      </trkpt>
      <trkpt lat="42.87475" lon="1.22239">
        <ele>582.743</ele>
        <time>2023-05-29T10:31:42Z</time>
      </trkpt>
      <trkpt lat="42.87473" lon="1.22241">
        <ele>582.354</ele>
        <time>2023-05-29T10:31:43Z</time>
      </trkpt>
      <trkpt lat="42.87472" lon="1.22242">
        <ele>583.724</ele>
        <time>2023-05-29T10:31:44Z</time>
      </trkpt>
      <trkpt lat="42.87471" lon="1.22245">
        <ele>583.349</ele>
        <time>2023-05-29T10:31:45Z</time>
      </trkpt>
      <trkpt lat="42.8747" lon="1.22247">
        <ele>583.909</ele>
        <time>2023-05-29T10:31:46Z</time>
      </trkpt>
      <trkpt lat="42.87469" lon="1.22249">
        <ele>585.155</ele>
        <time>2023-05-29T10:31:47Z</time>
      </trkpt>
      <trkpt lat="42.87467" lon="1.22251">
        <ele>585.999</ele>
        <time>2023-05-29T10:31:48Z</time>
      </trkpt>
      <trkpt lat="42.87466" lon="1.22254">
        <ele>586.417</ele>
        <time>2023-05-29T10:31:49Z</time>
      </trkpt>
      <trkpt lat="42.87464" lon="1.22257">
        <ele>585.6</ele>
        <time>2023-05-29T10:31:50Z</time>
      </trkpt>
      <trkpt lat="42.87462" lon="1.2226">
        <ele>586.123</ele>
        <time>2023-05-29T10:31:51Z</time>
      </trkpt>
      <trkpt lat="42.8746" lon="1.22263">
        <ele>586.583</ele>
        <time>2023-05-29T10:31:52Z</time>
      </trkpt>
      <trkpt lat="42.87459" lon="1.22266">
        <ele>587.214</ele>
        <time>2023-05-29T10:31:53Z</time>
      </trkpt>
      <trkpt lat="42.87458" lon="1.22268">
        <ele>588.004</ele>
        <time>2023-05-29T10:31:54Z</time>
      </trkpt>
      <trkpt lat="42.87457" lon="1.22271">
        <ele>588.688</ele>
        <time>2023-05-29T10:31:55Z</time>
      </trkpt>
      <trkpt lat="42.87455" lon="1.22273">
        <ele>589.644</ele>
        <time>2023-05-29T10:31:56Z</time>
      </trkpt>
      <trkpt lat="42.87453" lon="1.22276">
        <ele>589.588</ele>
        <time>2023-05-29T10:31:57Z</time>
      </trkpt>
      <trkpt lat="42.87452" lon="1.2228">
        <ele>588.918</ele>
        <time>2023-05-29T10:31:58Z</time>
      </trkpt>
      <trkpt lat="42.87451" lon="1.22283">
        <ele>590.719</ele>
        <time>2023-05-29T10:31:59Z</time>
      </trkpt>
      <trkpt lat="42.8745" lon="1.22286">
        <ele>589.806</ele>
        <time>2023-05-29T10:32:00Z</time>
      </trkpt>
      <trkpt lat="42.87449" lon="1.2229">
        <ele>589.127</ele>
        <time>2023-05-29T10:32:01Z</time>
      </trkpt>
      <trkpt lat="42.87447" lon="1.22294">
        <ele>587.668</ele>
        <time>2023-05-29T10:32:02Z</time>
      </trkpt>
      <trkpt lat="42.87446" lon="1.22298">
        <ele>586.949</ele>
        <time>2023-05-29T10:32:03Z</time>
      </trkpt>
      <trkpt lat="42.87444" lon="1.22303">
        <ele>586.007</ele>
        <time>2023-05-29T10:32:04Z</time>
      </trkpt>
      <trkpt lat="42.87443" lon="1.22308">
        <ele>586.915</ele>
        <time>2023-05-29T10:32:05Z</time>
      </trkpt>
      <trkpt lat="42.87441" lon="1.22312">
        <ele>587.373</ele>
        <time>2023-05-29T10:32:06Z</time>
      </trkpt>
      <trkpt lat="42.8744" lon="1.22315">
        <ele>587.72</ele>
        <time>2023-05-29T10:32:07Z</time>
      </trkpt>
      <trkpt lat="42.87438" lon="1.22319">
        <ele>588.053</ele>
        <time>2023-05-29T10:32:08Z</time>
      </trkpt>
      <trkpt lat="42.87437" lon="1.22323">
        <ele>588.705</ele>
        <time>2023-05-29T10:32:09Z</time>
      </trkpt>
      <trkpt lat="42.87435" lon="1.22327">
        <ele>588.795</ele>
        <time>2023-05-29T10:32:10Z</time>
      </trkpt>
      <trkpt lat="42.87433" lon="1.22332">
        <ele>588.941</ele>
        <time>2023-05-29T10:32:11Z</time>
      </trkpt>
      <trkpt lat="42.87431" lon="1.22335">
        <ele>589.585</ele>
        <time>2023-05-29T10:32:12Z</time>
      </trkpt>
      <trkpt lat="42.8743" lon="1.22339">
        <ele>590.716</ele>
        <time>2023-05-29T10:32:13Z</time>
      </trkpt>
      <trkpt lat="42.87429" lon="1.22343">
        <ele>590.21</ele>
        <time>2023-05-29T10:32:14Z</time>
      </trkpt>
      <trkpt lat="42.8743" lon="1.22347">
        <ele>590.619</ele>
        <time>2023-05-29T10:32:15Z</time>
      </trkpt>
      <trkpt lat="42.87431" lon="1.22351">
        <ele>590.605</ele>
        <time>2023-05-29T10:32:16Z</time>
      </trkpt>
      <trkpt lat="42.87433" lon="1.22354">
        <ele>589.84</ele>
        <time>2023-05-29T10:32:17Z</time>
      </trkpt>
      <trkpt lat="42.87437" lon="1.22353">
        <ele>589.127</ele>
        <time>2023-05-29T10:32:18Z</time>
      </trkpt>
      <trkpt lat="42.8744" lon="1.22351">
        <ele>589.03</ele>
        <time>2023-05-29T10:32:19Z</time>
      </trkpt>
      <trkpt lat="42.87442" lon="1.22348">
        <ele>589.686</ele>
        <time>2023-05-29T10:32:20Z</time>
      </trkpt>
      <trkpt lat="42.87444" lon="1.22345">
        <ele>590.19</ele>
        <time>2023-05-29T10:32:21Z</time>
      </trkpt>
      <trkpt lat="42.87445" lon="1.22343">
        <ele>591.162</ele>
        <time>2023-05-29T10:32:22Z</time>
      </trkpt>
      <trkpt lat="42.87447" lon="1.22339">
        <ele>591.21</ele>
        <time>2023-05-29T10:32:23Z</time>
      </trkpt>
      <trkpt lat="42.87449" lon="1.22336">
        <ele>591.053</ele>
        <time>2023-05-29T10:32:24Z</time>
      </trkpt>
      <trkpt lat="42.87451" lon="1.22333">
        <ele>591.498</ele>
        <time>2023-05-29T10:32:25Z</time>
      </trkpt>
      <trkpt lat="42.87453" lon="1.22329">
        <ele>591.095</ele>
        <time>2023-05-29T10:32:26Z</time>
      </trkpt>
      <trkpt lat="42.87456" lon="1.22326">
        <ele>591.49</ele>
        <time>2023-05-29T10:32:27Z</time>
      </trkpt>
      <trkpt lat="42.87458" lon="1.22323">
        <ele>591.461</ele>
        <time>2023-05-29T10:32:28Z</time>
      </trkpt>
      <trkpt lat="42.87461" lon="1.22319">
        <ele>590.91</ele>
        <time>2023-05-29T10:32:29Z</time>
      </trkpt>
      <trkpt lat="42.87464" lon="1.22317">
        <ele>591.205</ele>
        <time>2023-05-29T10:32:30Z</time>
      </trkpt>
      <trkpt lat="42.87466" lon="1.22314">
        <ele>591.486</ele>
        <time>2023-05-29T10:32:31Z</time>
      </trkpt>
      <trkpt lat="42.87468" lon="1.22312">
        <ele>593.263</ele>
        <time>2023-05-29T10:32:32Z</time>
      </trkpt>
      <trkpt lat="42.87471" lon="1.22309">
        <ele>593.511</ele>
        <time>2023-05-29T10:32:33Z</time>
      </trkpt>
      <trkpt lat="42.87474" lon="1.22307">
        <ele>593.13</ele>
        <time>2023-05-29T10:32:34Z</time>
      </trkpt>
      <trkpt lat="42.87476" lon="1.22304">
        <ele>592.929</ele>
        <time>2023-05-29T10:32:35Z</time>
      </trkpt>
      <trkpt lat="42.87479" lon="1.22302">
        <ele>593.463</ele>
        <time>2023-05-29T10:32:36Z</time>
      </trkpt>
      <trkpt lat="42.87482" lon="1.223">
        <ele>592.716</ele>
        <time>2023-05-29T10:32:37Z</time>
      </trkpt>
      <trkpt lat="42.87485" lon="1.22298">
        <ele>591.897</ele>
        <time>2023-05-29T10:32:38Z</time>
      </trkpt>
      <trkpt lat="42.87488" lon="1.22297">
        <ele>592.943</ele>
        <time>2023-05-29T10:32:39Z</time>
      </trkpt>
      <trkpt lat="42.87491" lon="1.22296">
        <ele>591.735</ele>
        <time>2023-05-29T10:32:40Z</time>
      </trkpt>
      <trkpt lat="42.87494" lon="1.22294">
        <ele>592.733</ele>
        <time>2023-05-29T10:32:41Z</time>
      </trkpt>
      <trkpt lat="42.87497" lon="1.22294">
        <ele>593.097</ele>
        <time>2023-05-29T10:32:42Z</time>
      </trkpt>
      <trkpt lat="42.87501" lon="1.22295">
        <ele>593.358</ele>
        <time>2023-05-29T10:32:43Z</time>
      </trkpt>
      <trkpt lat="42.87504" lon="1.22295">
        <ele>593.384</ele>
        <time>2023-05-29T10:32:44Z</time>
      </trkpt>
      <trkpt lat="42.87507" lon="1.22296">
        <ele>592.793</ele>
        <time>2023-05-29T10:32:45Z</time>
      </trkpt>
      <trkpt lat="42.8751" lon="1.22297">
        <ele>593.25</ele>
        <time>2023-05-29T10:32:46Z</time>
      </trkpt>
      <trkpt lat="42.87513" lon="1.22298">
        <ele>593.369</ele>
        <time>2023-05-29T10:32:47Z</time>
      </trkpt>
      <trkpt lat="42.87516" lon="1.22299">
        <ele>594.38</ele>
        <time>2023-05-29T10:32:48Z</time>
      </trkpt>
      <trkpt lat="42.87519" lon="1.223">
        <ele>594.5</ele>
        <time>2023-05-29T10:32:49Z</time>
      </trkpt>
      <trkpt lat="42.87523" lon="1.22303">
        <ele>593.484</ele>
        <time>2023-05-29T10:32:50Z</time>
      </trkpt>
      <trkpt lat="42.87525" lon="1.22305">
        <ele>593.911</ele>
        <time>2023-05-29T10:32:51Z</time>
      </trkpt>
      <trkpt lat="42.87528" lon="1.22308">
        <ele>594.155</ele>
        <time>2023-05-29T10:32:52Z</time>
      </trkpt>
      <trkpt lat="42.87529" lon="1.22312">
        <ele>593.118</ele>
        <time>2023-05-29T10:32:53Z</time>
      </trkpt>
      <trkpt lat="42.87532" lon="1.22314">
        <ele>592.432</ele>
        <time>2023-05-29T10:32:54Z</time>
      </trkpt>
      <trkpt lat="42.87534" lon="1.22317">
        <ele>592.593</ele>
        <time>2023-05-29T10:32:55Z</time>
      </trkpt>
      <trkpt lat="42.87535" lon="1.22321">
        <ele>593.388</ele>
        <time>2023-05-29T10:32:56Z</time>
      </trkpt>
      <trkpt lat="42.87537" lon="1.22324">
        <ele>592.599</ele>
        <time>2023-05-29T10:32:57Z</time>
      </trkpt>
      <trkpt lat="42.87539" lon="1.22327">
        <ele>593.049</ele>
        <time>2023-05-29T10:32:58Z</time>
      </trkpt>
      <trkpt lat="42.87541" lon="1.2233">
        <ele>593.466</ele>
        <time>2023-05-29T10:32:59Z</time>
      </trkpt>
      <trkpt lat="42.87543" lon="1.22333">
        <ele>593.051</ele>
        <time>2023-05-29T10:33:00Z</time>
      </trkpt>
      <trkpt lat="42.87545" lon="1.22334">
        <ele>592.934</ele>
        <time>2023-05-29T10:33:01Z</time>
      </trkpt>
      <trkpt lat="42.87547" lon="1.22336">
        <ele>593.828</ele>
        <time>2023-05-29T10:33:02Z</time>
      </trkpt>
      <trkpt lat="42.87549" lon="1.22339">
        <ele>593.866</ele>
        <time>2023-05-29T10:33:03Z</time>
      </trkpt>
      <trkpt lat="42.8755" lon="1.22342">
        <ele>595.018</ele>
        <time>2023-05-29T10:33:04Z</time>
      </trkpt>
      <trkpt lat="42.87551" lon="1.22346">
        <ele>595.69</ele>
        <time>2023-05-29T10:33:05Z</time>
      </trkpt>
      <trkpt lat="42.87551" lon="1.2235">
        <ele>596.253</ele>
        <time>2023-05-29T10:33:06Z</time>
      </trkpt>
      <trkpt lat="42.8755" lon="1.22354">
        <ele>596.602</ele>
        <time>2023-05-29T10:33:07Z</time>
      </trkpt>
      <trkpt lat="42.87549" lon="1.22358">
        <ele>597.144</ele>
        <time>2023-05-29T10:33:08Z</time>
      </trkpt>
      <trkpt lat="42.87547" lon="1.22361">
        <ele>598.402</ele>
        <time>2023-05-29T10:33:09Z</time>
      </trkpt>
      <trkpt lat="42.87545" lon="1.22364">
        <ele>599.195</ele>
        <time>2023-05-29T10:33:10Z</time>
      </trkpt>
      <trkpt lat="42.87542" lon="1.22365">
        <ele>600.038</ele>
        <time>2023-05-29T10:33:11Z</time>
      </trkpt>
      <trkpt lat="42.8754" lon="1.22366">
        <ele>601.158</ele>
        <time>2023-05-29T10:33:12Z</time>
      </trkpt>
      <trkpt lat="42.87537" lon="1.22367">
        <ele>601.78</ele>
        <time>2023-05-29T10:33:13Z</time>
      </trkpt>
      <trkpt lat="42.87535" lon="1.22367">
        <ele>602.973</ele>
        <time>2023-05-29T10:33:14Z</time>
      </trkpt>
      <trkpt lat="42.87533" lon="1.22368">
        <ele>604.748</ele>
        <time>2023-05-29T10:33:15Z</time>
      </trkpt>
      <trkpt lat="42.8753" lon="1.22368">
        <ele>605.201</ele>
        <time>2023-05-29T10:33:16Z</time>
      </trkpt>
      <trkpt lat="42.87528" lon="1.22369">
        <ele>605.763</ele>
        <time>2023-05-29T10:33:17Z</time>
      </trkpt>
      <trkpt lat="42.87526" lon="1.22369">
        <ele>605.381</ele>
        <time>2023-05-29T10:33:18Z</time>
      </trkpt>
      <trkpt lat="42.87524" lon="1.2237">
        <ele>605.076</ele>
        <time>2023-05-29T10:33:19Z</time>
      </trkpt>
      <trkpt lat="42.87522" lon="1.2237">
        <ele>604.3</ele>
        <time>2023-05-29T10:33:20Z</time>
      </trkpt>
      <trkpt lat="42.87521" lon="1.22371">
        <ele>603.39</ele>
        <time>2023-05-29T10:33:21Z</time>
      </trkpt>
      <trkpt lat="42.87519" lon="1.22372">
        <ele>603.988</ele>
        <time>2023-05-29T10:33:22Z</time>
      </trkpt>
      <trkpt lat="42.87516" lon="1.22374">
        <ele>604.39</ele>
        <time>2023-05-29T10:33:23Z</time>
      </trkpt>
      <trkpt lat="42.87515" lon="1.22377">
        <ele>606.938</ele>
        <time>2023-05-29T10:33:24Z</time>
      </trkpt>
      <trkpt lat="42.87513" lon="1.2238">
        <ele>607.571</ele>
        <time>2023-05-29T10:33:25Z</time>
      </trkpt>
      <trkpt lat="42.87513" lon="1.22385">
        <ele>606.983</ele>
        <time>2023-05-29T10:33:26Z</time>
      </trkpt>
      <trkpt lat="42.87512" lon="1.22389">
        <ele>606.965</ele>
        <time>2023-05-29T10:33:27Z</time>
      </trkpt>
      <trkpt lat="42.87513" lon="1.22393">
        <ele>606.899</ele>
        <time>2023-05-29T10:33:28Z</time>
      </trkpt>
      <trkpt lat="42.87513" lon="1.22397">
        <ele>606.913</ele>
        <time>2023-05-29T10:33:29Z</time>
      </trkpt>
      <trkpt lat="42.87514" lon="1.224">
        <ele>607.346</ele>
        <time>2023-05-29T10:33:30Z</time>
      </trkpt>
      <trkpt lat="42.87515" lon="1.22403">
        <ele>606.734</ele>
        <time>2023-05-29T10:33:31Z</time>
      </trkpt>
      <trkpt lat="42.87515" lon="1.22405">
        <ele>606.33</ele>
        <time>2023-05-29T10:33:32Z</time>
      </trkpt>
      <trkpt lat="42.87517" lon="1.22407">
        <ele>606.4</ele>
        <time>2023-05-29T10:33:33Z</time>
      </trkpt>
      <trkpt lat="42.87519" lon="1.22409">
        <ele>606.311</ele>
        <time>2023-05-29T10:33:34Z</time>
      </trkpt>
      <trkpt lat="42.87521" lon="1.22411">
        <ele>606.874</ele>
        <time>2023-05-29T10:33:35Z</time>
      </trkpt>
      <trkpt lat="42.87524" lon="1.22413">
        <ele>606.576</ele>
        <time>2023-05-29T10:33:36Z</time>
      </trkpt>
      <trkpt lat="42.87527" lon="1.22415">
        <ele>606.91</ele>
        <time>2023-05-29T10:33:37Z</time>
      </trkpt>
      <trkpt lat="42.8753" lon="1.22417">
        <ele>606.438</ele>
        <time>2023-05-29T10:33:38Z</time>
      </trkpt>
      <trkpt lat="42.87532" lon="1.2242">
        <ele>605.663</ele>
        <time>2023-05-29T10:33:39Z</time>
      </trkpt>
      <trkpt lat="42.87535" lon="1.22423">
        <ele>603.897</ele>
        <time>2023-05-29T10:33:40Z</time>
      </trkpt>
      <trkpt lat="42.87537" lon="1.22426">
        <ele>603.739</ele>
        <time>2023-05-29T10:33:41Z</time>
      </trkpt>
      <trkpt lat="42.87539" lon="1.22429">
        <ele>603.327</ele>
        <time>2023-05-29T10:33:42Z</time>
      </trkpt>
      <trkpt lat="42.87541" lon="1.22433">
        <ele>604.23</ele>
        <time>2023-05-29T10:33:43Z</time>
      </trkpt>
      <trkpt lat="42.87542" lon="1.22437">
        <ele>605.006</ele>
        <time>2023-05-29T10:33:44Z</time>
      </trkpt>
      <trkpt lat="42.87543" lon="1.2244">
        <ele>606.035</ele>
        <time>2023-05-29T10:33:45Z</time>
      </trkpt>
      <trkpt lat="42.87544" lon="1.22443">
        <ele>607.023</ele>
        <time>2023-05-29T10:33:46Z</time>
      </trkpt>
      <trkpt lat="42.87545" lon="1.22445">
        <ele>606.773</ele>
        <time>2023-05-29T10:33:47Z</time>
      </trkpt>
      <trkpt lat="42.87546" lon="1.22449">
        <ele>607.726</ele>
        <time>2023-05-29T10:33:48Z</time>
      </trkpt>
      <trkpt lat="42.87548" lon="1.22451">
        <ele>607.459</ele>
        <time>2023-05-29T10:33:49Z</time>
      </trkpt>
      <trkpt lat="42.8755" lon="1.22454">
        <ele>608.832</ele>
        <time>2023-05-29T10:33:50Z</time>
      </trkpt>
      <trkpt lat="42.87552" lon="1.22457">
        <ele>610.421</ele>
        <time>2023-05-29T10:33:51Z</time>
      </trkpt>
      <trkpt lat="42.87554" lon="1.22459">
        <ele>610.175</ele>
        <time>2023-05-29T10:33:52Z</time>
      </trkpt>
      <trkpt lat="42.87556" lon="1.22462">
        <ele>610.471</ele>
        <time>2023-05-29T10:33:53Z</time>
      </trkpt>
      <trkpt lat="42.87558" lon="1.22464">
        <ele>610.779</ele>
        <time>2023-05-29T10:33:54Z</time>
      </trkpt>
      <trkpt lat="42.8756" lon="1.22467">
        <ele>611.159</ele>
        <time>2023-05-29T10:33:55Z</time>
      </trkpt>
      <trkpt lat="42.87562" lon="1.22468">
        <ele>611.094</ele>
        <time>2023-05-29T10:33:56Z</time>
      </trkpt>
      <trkpt lat="42.87565" lon="1.22469">
        <ele>610.878</ele>
        <time>2023-05-29T10:33:57Z</time>
      </trkpt>
      <trkpt lat="42.87568" lon="1.2247">
        <ele>611.629</ele>
        <time>2023-05-29T10:33:58Z</time>
      </trkpt>
      <trkpt lat="42.8757" lon="1.22472">
        <ele>613.99</ele>
        <time>2023-05-29T10:33:59Z</time>
      </trkpt>
      <trkpt lat="42.87572" lon="1.22473">
        <ele>613.77</ele>
        <time>2023-05-29T10:34:00Z</time>
      </trkpt>
      <trkpt lat="42.87575" lon="1.22476">
        <ele>613.732</ele>
        <time>2023-05-29T10:34:01Z</time>
      </trkpt>
      <trkpt lat="42.87577" lon="1.22477">
        <ele>613.566</ele>
        <time>2023-05-29T10:34:02Z</time>
      </trkpt>
      <trkpt lat="42.87579" lon="1.22478">
        <ele>615.652</ele>
        <time>2023-05-29T10:34:03Z</time>
      </trkpt>
      <trkpt lat="42.87582" lon="1.2248">
        <ele>615.481</ele>
        <time>2023-05-29T10:34:04Z</time>
      </trkpt>
      <trkpt lat="42.87584" lon="1.22481">
        <ele>616.718</ele>
        <time>2023-05-29T10:34:05Z</time>
      </trkpt>
      <trkpt lat="42.87587" lon="1.22483">
        <ele>617.596</ele>
        <time>2023-05-29T10:34:06Z</time>
      </trkpt>
      <trkpt lat="42.8759" lon="1.22484">
        <ele>618.021</ele>
        <time>2023-05-29T10:34:07Z</time>
      </trkpt>
      <trkpt lat="42.87592" lon="1.22485">
        <ele>619.286</ele>
        <time>2023-05-29T10:34:08Z</time>
      </trkpt>
      <trkpt lat="42.87595" lon="1.22486">
        <ele>620.022</ele>
        <time>2023-05-29T10:34:09Z</time>
      </trkpt>
      <trkpt lat="42.87597" lon="1.22488">
        <ele>620.763</ele>
        <time>2023-05-29T10:34:10Z</time>
      </trkpt>
      <trkpt lat="42.876" lon="1.2249">
        <ele>620.882</ele>
        <time>2023-05-29T10:34:11Z</time>
      </trkpt>
      <trkpt lat="42.87602" lon="1.22492">
        <ele>621.047</ele>
        <time>2023-05-29T10:34:12Z</time>
      </trkpt>
      <trkpt lat="42.87605" lon="1.22493">
        <ele>621.079</ele>
        <time>2023-05-29T10:34:13Z</time>
      </trkpt>
      <trkpt lat="42.87608" lon="1.22495">
        <ele>620.664</ele>
        <time>2023-05-29T10:34:14Z</time>
      </trkpt>
      <trkpt lat="42.8761" lon="1.22497">
        <ele>620.006</ele>
        <time>2023-05-29T10:34:15Z</time>
      </trkpt>
      <trkpt lat="42.87613" lon="1.22498">
        <ele>619.428</ele>
        <time>2023-05-29T10:34:16Z</time>
      </trkpt>
      <trkpt lat="42.87615" lon="1.22499">
        <ele>619.884</ele>
        <time>2023-05-29T10:34:17Z</time>
      </trkpt>
      <trkpt lat="42.87618" lon="1.22499">
        <ele>618.927</ele>
        <time>2023-05-29T10:34:18Z</time>
      </trkpt>
      <trkpt lat="42.87621" lon="1.22498">
        <ele>618.411</ele>
        <time>2023-05-29T10:34:19Z</time>
      </trkpt>
      <trkpt lat="42.87624" lon="1.22496">
        <ele>618.498</ele>
        <time>2023-05-29T10:34:20Z</time>
      </trkpt>
      <trkpt lat="42.87627" lon="1.22496">
        <ele>618.279</ele>
        <time>2023-05-29T10:34:21Z</time>
      </trkpt>
      <trkpt lat="42.87629" lon="1.22495">
        <ele>618.619</ele>
        <time>2023-05-29T10:34:22Z</time>
      </trkpt>
      <trkpt lat="42.87632" lon="1.22496">
        <ele>618.725</ele>
        <time>2023-05-29T10:34:23Z</time>
      </trkpt>
      <trkpt lat="42.87635" lon="1.22497">
        <ele>619.337</ele>
        <time>2023-05-29T10:34:24Z</time>
      </trkpt>
      <trkpt lat="42.87637" lon="1.22498">
        <ele>620.298</ele>
        <time>2023-05-29T10:34:25Z</time>
      </trkpt>
      <trkpt lat="42.87639" lon="1.225">
        <ele>619.517</ele>
        <time>2023-05-29T10:34:26Z</time>
      </trkpt>
      <trkpt lat="42.87639" lon="1.22502">
        <ele>620.456</ele>
        <time>2023-05-29T10:34:27Z</time>
      </trkpt>
      <trkpt lat="42.87639" lon="1.22505">
        <ele>620.575</ele>
        <time>2023-05-29T10:34:28Z</time>
      </trkpt>
      <trkpt lat="42.87639" lon="1.22508">
        <ele>620.453</ele>
        <time>2023-05-29T10:34:29Z</time>
      </trkpt>
      <trkpt lat="42.87637" lon="1.2251">
        <ele>623</ele>
        <time>2023-05-29T10:34:30Z</time>
      </trkpt>
      <trkpt lat="42.87635" lon="1.22513">
        <ele>623.873</ele>
        <time>2023-05-29T10:34:31Z</time>
      </trkpt>
      <trkpt lat="42.87634" lon="1.22515">
        <ele>625.605</ele>
        <time>2023-05-29T10:34:32Z</time>
      </trkpt>
      <trkpt lat="42.87632" lon="1.22517">
        <ele>626.461</ele>
        <time>2023-05-29T10:34:33Z</time>
      </trkpt>
      <trkpt lat="42.8763" lon="1.22518">
        <ele>626.24</ele>
        <time>2023-05-29T10:34:34Z</time>
      </trkpt>
      <trkpt lat="42.87628" lon="1.22519">
        <ele>626.016</ele>
        <time>2023-05-29T10:34:35Z</time>
      </trkpt>
      <trkpt lat="42.87625" lon="1.2252">
        <ele>626.419</ele>
        <time>2023-05-29T10:34:36Z</time>
      </trkpt>
      <trkpt lat="42.87623" lon="1.22522">
        <ele>628.174</ele>
        <time>2023-05-29T10:34:37Z</time>
      </trkpt>
      <trkpt lat="42.87621" lon="1.22525">
        <ele>628.771</ele>
        <time>2023-05-29T10:34:38Z</time>
      </trkpt>
      <trkpt lat="42.87619" lon="1.22527">
        <ele>628.776</ele>
        <time>2023-05-29T10:34:39Z</time>
      </trkpt>
      <trkpt lat="42.87617" lon="1.22529">
        <ele>629.525</ele>
        <time>2023-05-29T10:34:40Z</time>
      </trkpt>
      <trkpt lat="42.87615" lon="1.2253">
        <ele>630.135</ele>
        <time>2023-05-29T10:34:41Z</time>
      </trkpt>
      <trkpt lat="42.87612" lon="1.22533">
        <ele>630.324</ele>
        <time>2023-05-29T10:34:42Z</time>
      </trkpt>
      <trkpt lat="42.8761" lon="1.22535">
        <ele>631.866</ele>
        <time>2023-05-29T10:34:43Z</time>
      </trkpt>
      <trkpt lat="42.87608" lon="1.22537">
        <ele>631.979</ele>
        <time>2023-05-29T10:34:44Z</time>
      </trkpt>
      <trkpt lat="42.87606" lon="1.22539">
        <ele>632.598</ele>
        <time>2023-05-29T10:34:45Z</time>
      </trkpt>
      <trkpt lat="42.87604" lon="1.22541">
        <ele>633.146</ele>
        <time>2023-05-29T10:34:46Z</time>
      </trkpt>
      <trkpt lat="42.87601" lon="1.22543">
        <ele>632.988</ele>
        <time>2023-05-29T10:34:47Z</time>
      </trkpt>
      <trkpt lat="42.87599" lon="1.22544">
        <ele>634.236</ele>
        <time>2023-05-29T10:34:48Z</time>
      </trkpt>
      <trkpt lat="42.87597" lon="1.22545">
        <ele>635.263</ele>
        <time>2023-05-29T10:34:49Z</time>
      </trkpt>
      <trkpt lat="42.87595" lon="1.22547">
        <ele>635.078</ele>
        <time>2023-05-29T10:34:50Z</time>
      </trkpt>
      <trkpt lat="42.87593" lon="1.22549">
        <ele>636.27</ele>
        <time>2023-05-29T10:34:51Z</time>
      </trkpt>
      <trkpt lat="42.87591" lon="1.2255">
        <ele>635.99</ele>
        <time>2023-05-29T10:34:52Z</time>
      </trkpt>
      <trkpt lat="42.87589" lon="1.22551">
        <ele>636.594</ele>
        <time>2023-05-29T10:34:53Z</time>
      </trkpt>
      <trkpt lat="42.87587" lon="1.22554">
        <ele>636.987</ele>
        <time>2023-05-29T10:34:54Z</time>
      </trkpt>
      <trkpt lat="42.87584" lon="1.22556">
        <ele>638.093</ele>
        <time>2023-05-29T10:34:55Z</time>
      </trkpt>
      <trkpt lat="42.87582" lon="1.22557">
        <ele>638.87</ele>
        <time>2023-05-29T10:34:56Z</time>
      </trkpt>
      <trkpt lat="42.8758" lon="1.22559">
        <ele>639.839</ele>
        <time>2023-05-29T10:34:57Z</time>
      </trkpt>
      <trkpt lat="42.87577" lon="1.22561">
        <ele>639.927</ele>
        <time>2023-05-29T10:34:58Z</time>
      </trkpt>
      <trkpt lat="42.87575" lon="1.22563">
        <ele>639.709</ele>
        <time>2023-05-29T10:34:59Z</time>
      </trkpt>
      <trkpt lat="42.87573" lon="1.22564">
        <ele>640.763</ele>
        <time>2023-05-29T10:35:00Z</time>
      </trkpt>
      <trkpt lat="42.87571" lon="1.22566">
        <ele>641.278</ele>
        <time>2023-05-29T10:35:01Z</time>
      </trkpt>
      <trkpt lat="42.87569" lon="1.22568">
        <ele>642.173</ele>
        <time>2023-05-29T10:35:02Z</time>
      </trkpt>
      <trkpt lat="42.87567" lon="1.22569">
        <ele>644.177</ele>
        <time>2023-05-29T10:35:03Z</time>
      </trkpt>
      <trkpt lat="42.87565" lon="1.22571">
        <ele>644.465</ele>
        <time>2023-05-29T10:35:04Z</time>
      </trkpt>
      <trkpt lat="42.87562" lon="1.22573">
        <ele>644.777</ele>
        <time>2023-05-29T10:35:05Z</time>
      </trkpt>
      <trkpt lat="42.87561" lon="1.22575">
        <ele>645.584</ele>
        <time>2023-05-29T10:35:06Z</time>
      </trkpt>
      <trkpt lat="42.87559" lon="1.22578">
        <ele>646.058</ele>
        <time>2023-05-29T10:35:07Z</time>
      </trkpt>
      <trkpt lat="42.87557" lon="1.2258">
        <ele>647.257</ele>
        <time>2023-05-29T10:35:08Z</time>
      </trkpt>
      <trkpt lat="42.87555" lon="1.22582">
        <ele>648.247</ele>
        <time>2023-05-29T10:35:09Z</time>
      </trkpt>
      <trkpt lat="42.87554" lon="1.22585">
        <ele>649.32</ele>
        <time>2023-05-29T10:35:10Z</time>
      </trkpt>
      <trkpt lat="42.87553" lon="1.22588">
        <ele>649.911</ele>
        <time>2023-05-29T10:35:11Z</time>
      </trkpt>
      <trkpt lat="42.87551" lon="1.22591">
        <ele>650.758</ele>
        <time>2023-05-29T10:35:12Z</time>
      </trkpt>
      <trkpt lat="42.87549" lon="1.22593">
        <ele>650.564</ele>
        <time>2023-05-29T10:35:13Z</time>
      </trkpt>
      <trkpt lat="42.87548" lon="1.22596">
        <ele>651.26</ele>
        <time>2023-05-29T10:35:14Z</time>
      </trkpt>
      <trkpt lat="42.87547" lon="1.226">
        <ele>651.31</ele>
        <time>2023-05-29T10:35:15Z</time>
      </trkpt>
      <trkpt lat="42.87547" lon="1.22604">
        <ele>650.447</ele>
        <time>2023-05-29T10:35:16Z</time>
      </trkpt>
      <trkpt lat="42.87547" lon="1.22608">
        <ele>649.742</ele>
        <time>2023-05-29T10:35:17Z</time>
      </trkpt>
      <trkpt lat="42.87548" lon="1.22612">
        <ele>650.309</ele>
        <time>2023-05-29T10:35:18Z</time>
      </trkpt>
      <trkpt lat="42.87551" lon="1.22614">
        <ele>650.486</ele>
        <time>2023-05-29T10:35:19Z</time>
      </trkpt>
      <trkpt lat="42.87554" lon="1.22615">
        <ele>650.657</ele>
        <time>2023-05-29T10:35:20Z</time>
      </trkpt>
      <trkpt lat="42.87557" lon="1.22616">
        <ele>650.328</ele>
        <time>2023-05-29T10:35:21Z</time>
      </trkpt>
      <trkpt lat="42.8756" lon="1.22617">
        <ele>650.147</ele>
        <time>2023-05-29T10:35:22Z</time>
      </trkpt>
      <trkpt lat="42.87562" lon="1.22616">
        <ele>649.426</ele>
        <time>2023-05-29T10:35:23Z</time>
      </trkpt>
      <trkpt lat="42.87565" lon="1.22616">
        <ele>649.51</ele>
        <time>2023-05-29T10:35:24Z</time>
      </trkpt>
      <trkpt lat="42.87568" lon="1.22616">
        <ele>649.473</ele>
        <time>2023-05-29T10:35:25Z</time>
      </trkpt>
      <trkpt lat="42.87571" lon="1.22615">
        <ele>648.901</ele>
        <time>2023-05-29T10:35:26Z</time>
      </trkpt>
      <trkpt lat="42.87574" lon="1.22614">
        <ele>650.332</ele>
        <time>2023-05-29T10:35:27Z</time>
      </trkpt>
      <trkpt lat="42.87576" lon="1.22613">
        <ele>651.429</ele>
        <time>2023-05-29T10:35:28Z</time>
      </trkpt>
      <trkpt lat="42.87579" lon="1.22613">
        <ele>651.998</ele>
        <time>2023-05-29T10:35:29Z</time>
      </trkpt>
      <trkpt lat="42.87582" lon="1.22612">
        <ele>652.199</ele>
        <time>2023-05-29T10:35:30Z</time>
      </trkpt>
      <trkpt lat="42.87585" lon="1.2261">
        <ele>653.304</ele>
        <time>2023-05-29T10:35:31Z</time>
      </trkpt>
      <trkpt lat="42.87588" lon="1.2261">
        <ele>653.213</ele>
        <time>2023-05-29T10:35:32Z</time>
      </trkpt>
      <trkpt lat="42.8759" lon="1.22609">
        <ele>654.486</ele>
        <time>2023-05-29T10:35:33Z</time>
      </trkpt>
      <trkpt lat="42.87593" lon="1.22608">
        <ele>654.526</ele>
        <time>2023-05-29T10:35:34Z</time>
      </trkpt>
      <trkpt lat="42.87596" lon="1.22608">
        <ele>653.932</ele>
        <time>2023-05-29T10:35:35Z</time>
      </trkpt>
      <trkpt lat="42.87598" lon="1.22608">
        <ele>653.314</ele>
        <time>2023-05-29T10:35:36Z</time>
      </trkpt>
      <trkpt lat="42.87601" lon="1.22608">
        <ele>653.303</ele>
        <time>2023-05-29T10:35:37Z</time>
      </trkpt>
      <trkpt lat="42.87603" lon="1.22609">
        <ele>654.017</ele>
        <time>2023-05-29T10:35:38Z</time>
      </trkpt>
      <trkpt lat="42.87605" lon="1.2261">
        <ele>654.626</ele>
        <time>2023-05-29T10:35:39Z</time>
      </trkpt>
      <trkpt lat="42.87606" lon="1.22612">
        <ele>651.525</ele>
        <time>2023-05-29T10:35:40Z</time>
      </trkpt>
      <trkpt lat="42.87606" lon="1.22616">
        <ele>650.94</ele>
        <time>2023-05-29T10:35:41Z</time>
      </trkpt>
      <trkpt lat="42.87605" lon="1.22619">
        <ele>651.866</ele>
        <time>2023-05-29T10:35:42Z</time>
      </trkpt>
      <trkpt lat="42.87603" lon="1.22621">
        <ele>652.082</ele>
        <time>2023-05-29T10:35:43Z</time>
      </trkpt>
      <trkpt lat="42.87601" lon="1.22622">
        <ele>653.427</ele>
        <time>2023-05-29T10:35:44Z</time>
      </trkpt>
      <trkpt lat="42.87599" lon="1.22623">
        <ele>653.819</ele>
        <time>2023-05-29T10:35:45Z</time>
      </trkpt>
      <trkpt lat="42.87597" lon="1.22624">
        <ele>654.289</ele>
        <time>2023-05-29T10:35:46Z</time>
      </trkpt>
      <trkpt lat="42.87595" lon="1.22625">
        <ele>656.057</ele>
        <time>2023-05-29T10:35:47Z</time>
      </trkpt>
      <trkpt lat="42.87593" lon="1.22626">
        <ele>655.911</ele>
        <time>2023-05-29T10:35:48Z</time>
      </trkpt>
      <trkpt lat="42.87591" lon="1.22628">
        <ele>656.3</ele>
        <time>2023-05-29T10:35:49Z</time>
      </trkpt>
      <trkpt lat="42.87589" lon="1.2263">
        <ele>657.171</ele>
        <time>2023-05-29T10:35:50Z</time>
      </trkpt>
      <trkpt lat="42.87587" lon="1.22632">
        <ele>658.53</ele>
        <time>2023-05-29T10:35:51Z</time>
      </trkpt>
      <trkpt lat="42.87586" lon="1.22634">
        <ele>658.699</ele>
        <time>2023-05-29T10:35:52Z</time>
      </trkpt>
      <trkpt lat="42.87584" lon="1.22637">
        <ele>660.225</ele>
        <time>2023-05-29T10:35:53Z</time>
      </trkpt>
      <trkpt lat="42.87583" lon="1.22639">
        <ele>659.576</ele>
        <time>2023-05-29T10:35:54Z</time>
      </trkpt>
      <trkpt lat="42.87582" lon="1.2264">
        <ele>661.187</ele>
        <time>2023-05-29T10:35:55Z</time>
      </trkpt>
      <trkpt lat="42.87581" lon="1.22641">
        <ele>660.021</ele>
        <time>2023-05-29T10:35:56Z</time>
      </trkpt>
      <trkpt lat="42.8758" lon="1.22643">
        <ele>660.008</ele>
        <time>2023-05-29T10:35:57Z</time>
      </trkpt>
      <trkpt lat="42.87579" lon="1.22646">
        <ele>659.601</ele>
        <time>2023-05-29T10:35:58Z</time>
      </trkpt>
      <trkpt lat="42.87578" lon="1.22649">
        <ele>658.949</ele>
        <time>2023-05-29T10:35:59Z</time>
      </trkpt>
      <trkpt lat="42.87577" lon="1.22651">
        <ele>658.838</ele>
        <time>2023-05-29T10:36:00Z</time>
      </trkpt>
      <trkpt lat="42.87574" lon="1.22654">
        <ele>658.514</ele>
        <time>2023-05-29T10:36:01Z</time>
      </trkpt>
      <trkpt lat="42.87572" lon="1.22657">
        <ele>658.368</ele>
        <time>2023-05-29T10:36:02Z</time>
      </trkpt>
      <trkpt lat="42.87571" lon="1.22661">
        <ele>657.726</ele>
        <time>2023-05-29T10:36:03Z</time>
      </trkpt>
      <trkpt lat="42.87568" lon="1.22663">
        <ele>656.669</ele>
        <time>2023-05-29T10:36:04Z</time>
      </trkpt>
      <trkpt lat="42.87566" lon="1.22666">
        <ele>655.918</ele>
        <time>2023-05-29T10:36:05Z</time>
      </trkpt>
      <trkpt lat="42.87564" lon="1.2267">
        <ele>657.076</ele>
        <time>2023-05-29T10:36:06Z</time>
      </trkpt>
      <trkpt lat="42.87562" lon="1.22673">
        <ele>658.336</ele>
        <time>2023-05-29T10:36:07Z</time>
      </trkpt>
      <trkpt lat="42.87559" lon="1.22675">
        <ele>658.978</ele>
        <time>2023-05-29T10:36:08Z</time>
      </trkpt>
      <trkpt lat="42.87556" lon="1.22678">
        <ele>658.2</ele>
        <time>2023-05-29T10:36:09Z</time>
      </trkpt>
      <trkpt lat="42.87554" lon="1.22681">
        <ele>658.548</ele>
        <time>2023-05-29T10:36:10Z</time>
      </trkpt>
      <trkpt lat="42.87552" lon="1.22684">
        <ele>658.262</ele>
        <time>2023-05-29T10:36:11Z</time>
      </trkpt>
      <trkpt lat="42.8755" lon="1.22686">
        <ele>657.884</ele>
        <time>2023-05-29T10:36:12Z</time>
      </trkpt>
      <trkpt lat="42.87547" lon="1.22689">
        <ele>657.305</ele>
        <time>2023-05-29T10:36:13Z</time>
      </trkpt>
      <trkpt lat="42.87545" lon="1.22692">
        <ele>658.613</ele>
        <time>2023-05-29T10:36:14Z</time>
      </trkpt>
      <trkpt lat="42.87543" lon="1.22694">
        <ele>660.205</ele>
        <time>2023-05-29T10:36:15Z</time>
      </trkpt>
      <trkpt lat="42.87541" lon="1.22697">
        <ele>660.722</ele>
        <time>2023-05-29T10:36:16Z</time>
      </trkpt>
      <trkpt lat="42.87539" lon="1.227">
        <ele>661.498</ele>
        <time>2023-05-29T10:36:17Z</time>
      </trkpt>
      <trkpt lat="42.87537" lon="1.22703">
        <ele>659.801</ele>
        <time>2023-05-29T10:36:18Z</time>
      </trkpt>
      <trkpt lat="42.87535" lon="1.22706">
        <ele>660.369</ele>
        <time>2023-05-29T10:36:19Z</time>
      </trkpt>
      <trkpt lat="42.87533" lon="1.22709">
        <ele>660.471</ele>
        <time>2023-05-29T10:36:20Z</time>
      </trkpt>
      <trkpt lat="42.87531" lon="1.22712">
        <ele>660.352</ele>
        <time>2023-05-29T10:36:21Z</time>
      </trkpt>
      <trkpt lat="42.8753" lon="1.22716">
        <ele>660.732</ele>
        <time>2023-05-29T10:36:22Z</time>
      </trkpt>
      <trkpt lat="42.87527" lon="1.2272">
        <ele>661.96</ele>
        <time>2023-05-29T10:36:23Z</time>
      </trkpt>
      <trkpt lat="42.87526" lon="1.22723">
        <ele>661.751</ele>
        <time>2023-05-29T10:36:24Z</time>
      </trkpt>
      <trkpt lat="42.87524" lon="1.22726">
        <ele>661.505</ele>
        <time>2023-05-29T10:36:25Z</time>
      </trkpt>
      <trkpt lat="42.87523" lon="1.22729">
        <ele>660.804</ele>
        <time>2023-05-29T10:36:26Z</time>
      </trkpt>
      <trkpt lat="42.87521" lon="1.22733">
        <ele>659.921</ele>
        <time>2023-05-29T10:36:27Z</time>
      </trkpt>
      <trkpt lat="42.87519" lon="1.22736">
        <ele>660.026</ele>
        <time>2023-05-29T10:36:28Z</time>
      </trkpt>
      <trkpt lat="42.87517" lon="1.22739">
        <ele>660.563</ele>
        <time>2023-05-29T10:36:29Z</time>
      </trkpt>
      <trkpt lat="42.87515" lon="1.22742">
        <ele>660.636</ele>
        <time>2023-05-29T10:36:30Z</time>
      </trkpt>
      <trkpt lat="42.87513" lon="1.22745">
        <ele>660.778</ele>
        <time>2023-05-29T10:36:31Z</time>
      </trkpt>
      <trkpt lat="42.8751" lon="1.22748">
        <ele>661.917</ele>
        <time>2023-05-29T10:36:32Z</time>
      </trkpt>
      <trkpt lat="42.87507" lon="1.22751">
        <ele>663.726</ele>
        <time>2023-05-29T10:36:33Z</time>
      </trkpt>
      <trkpt lat="42.87505" lon="1.22753">
        <ele>663.498</ele>
        <time>2023-05-29T10:36:34Z</time>
      </trkpt>
      <trkpt lat="42.87502" lon="1.22756">
        <ele>663.146</ele>
        <time>2023-05-29T10:36:35Z</time>
      </trkpt>
      <trkpt lat="42.875" lon="1.22759">
        <ele>662.885</ele>
        <time>2023-05-29T10:36:36Z</time>
      </trkpt>
      <trkpt lat="42.87497" lon="1.22761">
        <ele>662.56</ele>
        <time>2023-05-29T10:36:37Z</time>
      </trkpt>
      <trkpt lat="42.87494" lon="1.22764">
        <ele>662.48</ele>
        <time>2023-05-29T10:36:38Z</time>
      </trkpt>
      <trkpt lat="42.87492" lon="1.22766">
        <ele>663.047</ele>
        <time>2023-05-29T10:36:39Z</time>
      </trkpt>
      <trkpt lat="42.8749" lon="1.22769">
        <ele>662.423</ele>
        <time>2023-05-29T10:36:40Z</time>
      </trkpt>
      <trkpt lat="42.87488" lon="1.22771">
        <ele>662.939</ele>
        <time>2023-05-29T10:36:41Z</time>
      </trkpt>
      <trkpt lat="42.87485" lon="1.22773">
        <ele>662.318</ele>
        <time>2023-05-29T10:36:42Z</time>
      </trkpt>
      <trkpt lat="42.87483" lon="1.22776">
        <ele>662.519</ele>
        <time>2023-05-29T10:36:43Z</time>
      </trkpt>
      <trkpt lat="42.8748" lon="1.2278">
        <ele>662.408</ele>
        <time>2023-05-29T10:36:44Z</time>
      </trkpt>
      <trkpt lat="42.87478" lon="1.22782">
        <ele>662.861</ele>
        <time>2023-05-29T10:36:45Z</time>
      </trkpt>
      <trkpt lat="42.87476" lon="1.22784">
        <ele>662.087</ele>
        <time>2023-05-29T10:36:46Z</time>
      </trkpt>
      <trkpt lat="42.87474" lon="1.22786">
        <ele>660.915</ele>
        <time>2023-05-29T10:36:47Z</time>
      </trkpt>
      <trkpt lat="42.87472" lon="1.22788">
        <ele>659.988</ele>
        <time>2023-05-29T10:36:48Z</time>
      </trkpt>
      <trkpt lat="42.8747" lon="1.2279">
        <ele>659.502</ele>
        <time>2023-05-29T10:36:49Z</time>
      </trkpt>
      <trkpt lat="42.87468" lon="1.22793">
        <ele>659.267</ele>
        <time>2023-05-29T10:36:50Z</time>
      </trkpt>
      <trkpt lat="42.87467" lon="1.22797">
        <ele>658.048</ele>
        <time>2023-05-29T10:36:51Z</time>
      </trkpt>
      <trkpt lat="42.87465" lon="1.22801">
        <ele>658.871</ele>
        <time>2023-05-29T10:36:52Z</time>
      </trkpt>
      <trkpt lat="42.87463" lon="1.22806">
        <ele>659.047</ele>
        <time>2023-05-29T10:36:53Z</time>
      </trkpt>
      <trkpt lat="42.87462" lon="1.22811">
        <ele>659.386</ele>
        <time>2023-05-29T10:36:54Z</time>
      </trkpt>
      <trkpt lat="42.87461" lon="1.22816">
        <ele>659.705</ele>
        <time>2023-05-29T10:36:55Z</time>
      </trkpt>
      <trkpt lat="42.87461" lon="1.22821">
        <ele>659.698</ele>
        <time>2023-05-29T10:36:56Z</time>
      </trkpt>
      <trkpt lat="42.8746" lon="1.22826">
        <ele>660.74</ele>
        <time>2023-05-29T10:36:57Z</time>
      </trkpt>
      <trkpt lat="42.8746" lon="1.22831">
        <ele>661.164</ele>
        <time>2023-05-29T10:36:58Z</time>
      </trkpt>
      <trkpt lat="42.8746" lon="1.22835">
        <ele>661.799</ele>
        <time>2023-05-29T10:36:59Z</time>
      </trkpt>
      <trkpt lat="42.8746" lon="1.2284">
        <ele>662.332</ele>
        <time>2023-05-29T10:37:00Z</time>
      </trkpt>
      <trkpt lat="42.87461" lon="1.22845">
        <ele>662.806</ele>
        <time>2023-05-29T10:37:01Z</time>
      </trkpt>
      <trkpt lat="42.87461" lon="1.2285">
        <ele>663.621</ele>
        <time>2023-05-29T10:37:02Z</time>
      </trkpt>
      <trkpt lat="42.87462" lon="1.22854">
        <ele>664.167</ele>
        <time>2023-05-29T10:37:03Z</time>
      </trkpt>
      <trkpt lat="42.87462" lon="1.22859">
        <ele>665.102</ele>
        <time>2023-05-29T10:37:04Z</time>
      </trkpt>
      <trkpt lat="42.87463" lon="1.22863">
        <ele>665.828</ele>
        <time>2023-05-29T10:37:05Z</time>
      </trkpt>
      <trkpt lat="42.87464" lon="1.22867">
        <ele>665.866</ele>
        <time>2023-05-29T10:37:06Z</time>
      </trkpt>
      <trkpt lat="42.87465" lon="1.22871">
        <ele>667.453</ele>
        <time>2023-05-29T10:37:07Z</time>
      </trkpt>
      <trkpt lat="42.87466" lon="1.22875">
        <ele>668.531</ele>
        <time>2023-05-29T10:37:08Z</time>
      </trkpt>
      <trkpt lat="42.87466" lon="1.22879">
        <ele>668.764</ele>
        <time>2023-05-29T10:37:09Z</time>
      </trkpt>
      <trkpt lat="42.87467" lon="1.22883">
        <ele>669.228</ele>
        <time>2023-05-29T10:37:10Z</time>
      </trkpt>
      <trkpt lat="42.87468" lon="1.22887">
        <ele>669.37</ele>
        <time>2023-05-29T10:37:11Z</time>
      </trkpt>
      <trkpt lat="42.87468" lon="1.22891">
        <ele>670.147</ele>
        <time>2023-05-29T10:37:12Z</time>
      </trkpt>
      <trkpt lat="42.87468" lon="1.22895">
        <ele>670.326</ele>
        <time>2023-05-29T10:37:13Z</time>
      </trkpt>
      <trkpt lat="42.87469" lon="1.22898">
        <ele>670.131</ele>
        <time>2023-05-29T10:37:14Z</time>
      </trkpt>
      <trkpt lat="42.87468" lon="1.22902">
        <ele>669.772</ele>
        <time>2023-05-29T10:37:15Z</time>
      </trkpt>
      <trkpt lat="42.87468" lon="1.22906">
        <ele>669.232</ele>
        <time>2023-05-29T10:37:16Z</time>
      </trkpt>
      <trkpt lat="42.87467" lon="1.2291">
        <ele>670.053</ele>
        <time>2023-05-29T10:37:17Z</time>
      </trkpt>
      <trkpt lat="42.87467" lon="1.22914">
        <ele>670.307</ele>
        <time>2023-05-29T10:37:18Z</time>
      </trkpt>
      <trkpt lat="42.87465" lon="1.22917">
        <ele>672.019</ele>
        <time>2023-05-29T10:37:19Z</time>
      </trkpt>
      <trkpt lat="42.87464" lon="1.22921">
        <ele>672.652</ele>
        <time>2023-05-29T10:37:20Z</time>
      </trkpt>
      <trkpt lat="42.87462" lon="1.22925">
        <ele>673.246</ele>
        <time>2023-05-29T10:37:21Z</time>
      </trkpt>
      <trkpt lat="42.87461" lon="1.22928">
        <ele>674.541</ele>
        <time>2023-05-29T10:37:22Z</time>
      </trkpt>
      <trkpt lat="42.87459" lon="1.22931">
        <ele>674.877</ele>
        <time>2023-05-29T10:37:23Z</time>
      </trkpt>
      <trkpt lat="42.87457" lon="1.22934">
        <ele>675.944</ele>
        <time>2023-05-29T10:37:24Z</time>
      </trkpt>
      <trkpt lat="42.87455" lon="1.22937">
        <ele>675.54</ele>
        <time>2023-05-29T10:37:25Z</time>
      </trkpt>
      <trkpt lat="42.87453" lon="1.2294">
        <ele>675.287</ele>
        <time>2023-05-29T10:37:26Z</time>
      </trkpt>
      <trkpt lat="42.87451" lon="1.22943">
        <ele>676.69</ele>
        <time>2023-05-29T10:37:27Z</time>
      </trkpt>
      <trkpt lat="42.87449" lon="1.22947">
        <ele>676.944</ele>
        <time>2023-05-29T10:37:28Z</time>
      </trkpt>
      <trkpt lat="42.87447" lon="1.22951">
        <ele>677.166</ele>
        <time>2023-05-29T10:37:29Z</time>
      </trkpt>
      <trkpt lat="42.87445" lon="1.22954">
        <ele>677.855</ele>
        <time>2023-05-29T10:37:30Z</time>
      </trkpt>
      <trkpt lat="42.87443" lon="1.22958">
        <ele>677.815</ele>
        <time>2023-05-29T10:37:31Z</time>
      </trkpt>
      <trkpt lat="42.87441" lon="1.22962">
        <ele>677.281</ele>
        <time>2023-05-29T10:37:32Z</time>
      </trkpt>
      <trkpt lat="42.8744" lon="1.22965">
        <ele>677.51</ele>
        <time>2023-05-29T10:37:33Z</time>
      </trkpt>
      <trkpt lat="42.87438" lon="1.2297">
        <ele>677.513</ele>
        <time>2023-05-29T10:37:34Z</time>
      </trkpt>
      <trkpt lat="42.87436" lon="1.22973">
        <ele>677.658</ele>
        <time>2023-05-29T10:37:35Z</time>
      </trkpt>
      <trkpt lat="42.87436" lon="1.22977">
        <ele>677.674</ele>
        <time>2023-05-29T10:37:36Z</time>
      </trkpt>
      <trkpt lat="42.87435" lon="1.22982">
        <ele>678.412</ele>
        <time>2023-05-29T10:37:37Z</time>
      </trkpt>
      <trkpt lat="42.87435" lon="1.22987">
        <ele>679.081</ele>
        <time>2023-05-29T10:37:38Z</time>
      </trkpt>
      <trkpt lat="42.87436" lon="1.22991">
        <ele>679.927</ele>
        <time>2023-05-29T10:37:39Z</time>
      </trkpt>
      <trkpt lat="42.87437" lon="1.22995">
        <ele>680.01</ele>
        <time>2023-05-29T10:37:40Z</time>
      </trkpt>
      <trkpt lat="42.87437" lon="1.22999">
        <ele>680.758</ele>
        <time>2023-05-29T10:37:41Z</time>
      </trkpt>
      <trkpt lat="42.87438" lon="1.23003">
        <ele>680.237</ele>
        <time>2023-05-29T10:37:42Z</time>
      </trkpt>
      <trkpt lat="42.8744" lon="1.23006">
        <ele>680.431</ele>
        <time>2023-05-29T10:37:43Z</time>
      </trkpt>
      <trkpt lat="42.87441" lon="1.2301">
        <ele>679.992</ele>
        <time>2023-05-29T10:37:44Z</time>
      </trkpt>
      <trkpt lat="42.87443" lon="1.23012">
        <ele>679.879</ele>
        <time>2023-05-29T10:37:45Z</time>
      </trkpt>
      <trkpt lat="42.87446" lon="1.23013">
        <ele>680.479</ele>
        <time>2023-05-29T10:37:46Z</time>
      </trkpt>
      <trkpt lat="42.87449" lon="1.23014">
        <ele>681.516</ele>
        <time>2023-05-29T10:37:47Z</time>
      </trkpt>
      <trkpt lat="42.87451" lon="1.23015">
        <ele>682.029</ele>
        <time>2023-05-29T10:37:48Z</time>
      </trkpt>
      <trkpt lat="42.87453" lon="1.23017">
        <ele>682.265</ele>
        <time>2023-05-29T10:37:49Z</time>
      </trkpt>
      <trkpt lat="42.87456" lon="1.23019">
        <ele>682.065</ele>
        <time>2023-05-29T10:37:50Z</time>
      </trkpt>
      <trkpt lat="42.87457" lon="1.23022">
        <ele>682.429</ele>
        <time>2023-05-29T10:37:51Z</time>
      </trkpt>
      <trkpt lat="42.87459" lon="1.23025">
        <ele>682.291</ele>
        <time>2023-05-29T10:37:52Z</time>
      </trkpt>
      <trkpt lat="42.87461" lon="1.23028">
        <ele>682.989</ele>
        <time>2023-05-29T10:37:53Z</time>
      </trkpt>
      <trkpt lat="42.87463" lon="1.23031">
        <ele>683.322</ele>
        <time>2023-05-29T10:37:54Z</time>
      </trkpt>
      <trkpt lat="42.87465" lon="1.23034">
        <ele>683.556</ele>
        <time>2023-05-29T10:37:55Z</time>
      </trkpt>
      <trkpt lat="42.87466" lon="1.23037">
        <ele>683.819</ele>
        <time>2023-05-29T10:37:56Z</time>
      </trkpt>
      <trkpt lat="42.87468" lon="1.23041">
        <ele>684.133</ele>
        <time>2023-05-29T10:37:57Z</time>
      </trkpt>
      <trkpt lat="42.87469" lon="1.23045">
        <ele>685.358</ele>
        <time>2023-05-29T10:37:58Z</time>
      </trkpt>
      <trkpt lat="42.87471" lon="1.23048">
        <ele>684.564</ele>
        <time>2023-05-29T10:37:59Z</time>
      </trkpt>
      <trkpt lat="42.87472" lon="1.23053">
        <ele>684.875</ele>
        <time>2023-05-29T10:38:00Z</time>
      </trkpt>
      <trkpt lat="42.87472" lon="1.23057">
        <ele>685.364</ele>
        <time>2023-05-29T10:38:01Z</time>
      </trkpt>
      <trkpt lat="42.87473" lon="1.23061">
        <ele>686.309</ele>
        <time>2023-05-29T10:38:02Z</time>
      </trkpt>
      <trkpt lat="42.87475" lon="1.23065">
        <ele>685.435</ele>
        <time>2023-05-29T10:38:03Z</time>
      </trkpt>
      <trkpt lat="42.87477" lon="1.23068">
        <ele>685.092</ele>
        <time>2023-05-29T10:38:04Z</time>
      </trkpt>
      <trkpt lat="42.87479" lon="1.23071">
        <ele>686.543</ele>
        <time>2023-05-29T10:38:05Z</time>
      </trkpt>
      <trkpt lat="42.87481" lon="1.23075">
        <ele>686.401</ele>
        <time>2023-05-29T10:38:06Z</time>
      </trkpt>
      <trkpt lat="42.87483" lon="1.23078">
        <ele>686.856</ele>
        <time>2023-05-29T10:38:07Z</time>
      </trkpt>
      <trkpt lat="42.87485" lon="1.23082">
        <ele>687.599</ele>
        <time>2023-05-29T10:38:08Z</time>
      </trkpt>
      <trkpt lat="42.87487" lon="1.23085">
        <ele>688.816</ele>
        <time>2023-05-29T10:38:09Z</time>
      </trkpt>
      <trkpt lat="42.87489" lon="1.23089">
        <ele>689.228</ele>
        <time>2023-05-29T10:38:10Z</time>
      </trkpt>
      <trkpt lat="42.87492" lon="1.23092">
        <ele>689.517</ele>
        <time>2023-05-29T10:38:11Z</time>
      </trkpt>
      <trkpt lat="42.87494" lon="1.23096">
        <ele>690.488</ele>
        <time>2023-05-29T10:38:12Z</time>
      </trkpt>
      <trkpt lat="42.87495" lon="1.231">
        <ele>691.844</ele>
        <time>2023-05-29T10:38:13Z</time>
      </trkpt>
      <trkpt lat="42.87496" lon="1.23104">
        <ele>692.541</ele>
        <time>2023-05-29T10:38:14Z</time>
      </trkpt>
      <trkpt lat="42.87497" lon="1.23108">
        <ele>692.816</ele>
        <time>2023-05-29T10:38:15Z</time>
      </trkpt>
      <trkpt lat="42.87497" lon="1.23113">
        <ele>693.072</ele>
        <time>2023-05-29T10:38:16Z</time>
      </trkpt>
      <trkpt lat="42.87498" lon="1.23117">
        <ele>693.533</ele>
        <time>2023-05-29T10:38:17Z</time>
      </trkpt>
      <trkpt lat="42.87498" lon="1.23122">
        <ele>693.455</ele>
        <time>2023-05-29T10:38:18Z</time>
      </trkpt>
      <trkpt lat="42.87497" lon="1.23126">
        <ele>693.269</ele>
        <time>2023-05-29T10:38:19Z</time>
      </trkpt>
      <trkpt lat="42.87497" lon="1.23131">
        <ele>693.416</ele>
        <time>2023-05-29T10:38:20Z</time>
      </trkpt>
      <trkpt lat="42.87496" lon="1.23135">
        <ele>694.025</ele>
        <time>2023-05-29T10:38:21Z</time>
      </trkpt>
      <trkpt lat="42.87496" lon="1.23139">
        <ele>694.306</ele>
        <time>2023-05-29T10:38:22Z</time>
      </trkpt>
      <trkpt lat="42.87495" lon="1.23143">
        <ele>694.323</ele>
        <time>2023-05-29T10:38:23Z</time>
      </trkpt>
      <trkpt lat="42.87494" lon="1.23147">
        <ele>694.855</ele>
        <time>2023-05-29T10:38:24Z</time>
      </trkpt>
      <trkpt lat="42.87494" lon="1.23151">
        <ele>694.725</ele>
        <time>2023-05-29T10:38:25Z</time>
      </trkpt>
      <trkpt lat="42.87493" lon="1.23155">
        <ele>695.306</ele>
        <time>2023-05-29T10:38:26Z</time>
      </trkpt>
      <trkpt lat="42.87492" lon="1.23159">
        <ele>695.362</ele>
        <time>2023-05-29T10:38:27Z</time>
      </trkpt>
      <trkpt lat="42.87491" lon="1.23163">
        <ele>696.272</ele>
        <time>2023-05-29T10:38:28Z</time>
      </trkpt>
      <trkpt lat="42.8749" lon="1.23167">
        <ele>697.564</ele>
        <time>2023-05-29T10:38:29Z</time>
      </trkpt>
      <trkpt lat="42.8749" lon="1.23171">
        <ele>697.67</ele>
        <time>2023-05-29T10:38:30Z</time>
      </trkpt>
      <trkpt lat="42.87489" lon="1.23174">
        <ele>698.326</ele>
        <time>2023-05-29T10:38:31Z</time>
      </trkpt>
      <trkpt lat="42.87487" lon="1.23178">
        <ele>698.598</ele>
        <time>2023-05-29T10:38:32Z</time>
      </trkpt>
      <trkpt lat="42.87486" lon="1.23182">
        <ele>699.14</ele>
        <time>2023-05-29T10:38:33Z</time>
      </trkpt>
      <trkpt lat="42.87485" lon="1.23186">
        <ele>699.325</ele>
        <time>2023-05-29T10:38:34Z</time>
      </trkpt>
      <trkpt lat="42.87485" lon="1.2319">
        <ele>699.174</ele>
        <time>2023-05-29T10:38:35Z</time>
      </trkpt>
      <trkpt lat="42.87485" lon="1.23194">
        <ele>699.559</ele>
        <time>2023-05-29T10:38:36Z</time>
      </trkpt>
      <trkpt lat="42.87485" lon="1.23197">
        <ele>699.386</ele>
        <time>2023-05-29T10:38:37Z</time>
      </trkpt>
      <trkpt lat="42.87485" lon="1.23201">
        <ele>698.796</ele>
        <time>2023-05-29T10:38:38Z</time>
      </trkpt>
      <trkpt lat="42.87485" lon="1.23205">
        <ele>699.58</ele>
        <time>2023-05-29T10:38:39Z</time>
      </trkpt>
      <trkpt lat="42.87485" lon="1.23209">
        <ele>699.18</ele>
        <time>2023-05-29T10:38:40Z</time>
      </trkpt>
      <trkpt lat="42.87484" lon="1.23213">
        <ele>699.808</ele>
        <time>2023-05-29T10:38:41Z</time>
      </trkpt>
      <trkpt lat="42.87483" lon="1.23217">
        <ele>699.4</ele>
        <time>2023-05-29T10:38:42Z</time>
      </trkpt>
      <trkpt lat="42.87482" lon="1.23221">
        <ele>699.467</ele>
        <time>2023-05-29T10:38:43Z</time>
      </trkpt>
      <trkpt lat="42.8748" lon="1.23224">
        <ele>699.506</ele>
        <time>2023-05-29T10:38:44Z</time>
      </trkpt>
      <trkpt lat="42.87479" lon="1.23228">
        <ele>700.755</ele>
        <time>2023-05-29T10:38:45Z</time>
      </trkpt>
      <trkpt lat="42.87478" lon="1.23231">
        <ele>700.987</ele>
        <time>2023-05-29T10:38:46Z</time>
      </trkpt>
      <trkpt lat="42.87476" lon="1.23235">
        <ele>701.655</ele>
        <time>2023-05-29T10:38:47Z</time>
      </trkpt>
      <trkpt lat="42.87474" lon="1.23238">
        <ele>702.121</ele>
        <time>2023-05-29T10:38:48Z</time>
      </trkpt>
      <trkpt lat="42.87473" lon="1.23242">
        <ele>701.749</ele>
        <time>2023-05-29T10:38:49Z</time>
      </trkpt>
      <trkpt lat="42.87471" lon="1.23245">
        <ele>702.008</ele>
        <time>2023-05-29T10:38:50Z</time>
      </trkpt>
      <trkpt lat="42.8747" lon="1.23249">
        <ele>702.963</ele>
        <time>2023-05-29T10:38:51Z</time>
      </trkpt>
      <trkpt lat="42.87468" lon="1.23252">
        <ele>703.097</ele>
        <time>2023-05-29T10:38:52Z</time>
      </trkpt>
      <trkpt lat="42.87467" lon="1.23256">
        <ele>704.33</ele>
        <time>2023-05-29T10:38:53Z</time>
      </trkpt>
      <trkpt lat="42.87466" lon="1.2326">
        <ele>704.654</ele>
        <time>2023-05-29T10:38:54Z</time>
      </trkpt>
      <trkpt lat="42.87464" lon="1.23263">
        <ele>704.729</ele>
        <time>2023-05-29T10:38:55Z</time>
      </trkpt>
      <trkpt lat="42.87462" lon="1.23267">
        <ele>704.639</ele>
        <time>2023-05-29T10:38:56Z</time>
      </trkpt>
      <trkpt lat="42.8746" lon="1.2327">
        <ele>705.776</ele>
        <time>2023-05-29T10:38:57Z</time>
      </trkpt>
      <trkpt lat="42.87458" lon="1.23273">
        <ele>706.247</ele>
        <time>2023-05-29T10:38:58Z</time>
      </trkpt>
      <trkpt lat="42.87457" lon="1.23276">
        <ele>707.182</ele>
        <time>2023-05-29T10:38:59Z</time>
      </trkpt>
      <trkpt lat="42.87455" lon="1.23279">
        <ele>707.89</ele>
        <time>2023-05-29T10:39:00Z</time>
      </trkpt>
      <trkpt lat="42.87453" lon="1.23283">
        <ele>707.846</ele>
        <time>2023-05-29T10:39:01Z</time>
      </trkpt>
      <trkpt lat="42.87452" lon="1.23286">
        <ele>708.299</ele>
        <time>2023-05-29T10:39:02Z</time>
      </trkpt>
      <trkpt lat="42.87451" lon="1.2329">
        <ele>708.15</ele>
        <time>2023-05-29T10:39:03Z</time>
      </trkpt>
      <trkpt lat="42.87449" lon="1.23293">
        <ele>709.398</ele>
        <time>2023-05-29T10:39:04Z</time>
      </trkpt>
      <trkpt lat="42.87447" lon="1.23296">
        <ele>710.609</ele>
        <time>2023-05-29T10:39:05Z</time>
      </trkpt>
      <trkpt lat="42.87445" lon="1.23299">
        <ele>712.114</ele>
        <time>2023-05-29T10:39:06Z</time>
      </trkpt>
      <trkpt lat="42.87443" lon="1.23303">
        <ele>711.908</ele>
        <time>2023-05-29T10:39:07Z</time>
      </trkpt>
      <trkpt lat="42.87442" lon="1.23307">
        <ele>712.409</ele>
        <time>2023-05-29T10:39:08Z</time>
      </trkpt>
      <trkpt lat="42.87441" lon="1.23312">
        <ele>712.981</ele>
        <time>2023-05-29T10:39:09Z</time>
      </trkpt>
      <trkpt lat="42.87441" lon="1.23315">
        <ele>713.044</ele>
        <time>2023-05-29T10:39:10Z</time>
      </trkpt>
      <trkpt lat="42.87441" lon="1.23319">
        <ele>713.148</ele>
        <time>2023-05-29T10:39:11Z</time>
      </trkpt>
      <trkpt lat="42.87442" lon="1.23323">
        <ele>713.302</ele>
        <time>2023-05-29T10:39:12Z</time>
      </trkpt>
      <trkpt lat="42.87442" lon="1.23327">
        <ele>712.664</ele>
        <time>2023-05-29T10:39:13Z</time>
      </trkpt>
      <trkpt lat="42.87444" lon="1.23331">
        <ele>712.725</ele>
        <time>2023-05-29T10:39:14Z</time>
      </trkpt>
      <trkpt lat="42.87446" lon="1.23335">
        <ele>712.343</ele>
        <time>2023-05-29T10:39:15Z</time>
      </trkpt>
      <trkpt lat="42.87448" lon="1.23338">
        <ele>711.321</ele>
        <time>2023-05-29T10:39:16Z</time>
      </trkpt>
      <trkpt lat="42.8745" lon="1.23341">
        <ele>710.801</ele>
        <time>2023-05-29T10:39:17Z</time>
      </trkpt>
      <trkpt lat="42.87453" lon="1.23344">
        <ele>712.17</ele>
        <time>2023-05-29T10:39:18Z</time>
      </trkpt>
      <trkpt lat="42.87455" lon="1.23346">
        <ele>712.834</ele>
        <time>2023-05-29T10:39:19Z</time>
      </trkpt>
      <trkpt lat="42.87458" lon="1.23349">
        <ele>713.526</ele>
        <time>2023-05-29T10:39:20Z</time>
      </trkpt>
      <trkpt lat="42.87459" lon="1.23352">
        <ele>713.896</ele>
        <time>2023-05-29T10:39:21Z</time>
      </trkpt>
      <trkpt lat="42.87461" lon="1.23355">
        <ele>713.785</ele>
        <time>2023-05-29T10:39:22Z</time>
      </trkpt>
      <trkpt lat="42.87463" lon="1.23359">
        <ele>714.072</ele>
        <time>2023-05-29T10:39:23Z</time>
      </trkpt>
      <trkpt lat="42.87466" lon="1.23362">
        <ele>714.161</ele>
        <time>2023-05-29T10:39:24Z</time>
      </trkpt>
      <trkpt lat="42.87468" lon="1.23365">
        <ele>714.834</ele>
        <time>2023-05-29T10:39:25Z</time>
      </trkpt>
      <trkpt lat="42.8747" lon="1.2337">
        <ele>715.668</ele>
        <time>2023-05-29T10:39:26Z</time>
      </trkpt>
      <trkpt lat="42.87472" lon="1.23374">
        <ele>715.343</ele>
        <time>2023-05-29T10:39:27Z</time>
      </trkpt>
      <trkpt lat="42.87473" lon="1.23377">
        <ele>714.809</ele>
        <time>2023-05-29T10:39:28Z</time>
      </trkpt>
      <trkpt lat="42.87474" lon="1.23381">
        <ele>715.023</ele>
        <time>2023-05-29T10:39:29Z</time>
      </trkpt>
      <trkpt lat="42.87474" lon="1.23386">
        <ele>714.692</ele>
        <time>2023-05-29T10:39:30Z</time>
      </trkpt>
      <trkpt lat="42.87476" lon="1.2339">
        <ele>713.666</ele>
        <time>2023-05-29T10:39:31Z</time>
      </trkpt>
      <trkpt lat="42.87477" lon="1.23395">
        <ele>713.616</ele>
        <time>2023-05-29T10:39:32Z</time>
      </trkpt>
      <trkpt lat="42.87477" lon="1.234">
        <ele>712.866</ele>
        <time>2023-05-29T10:39:33Z</time>
      </trkpt>
      <trkpt lat="42.87479" lon="1.23404">
        <ele>711.319</ele>
        <time>2023-05-29T10:39:34Z</time>
      </trkpt>
      <trkpt lat="42.8748" lon="1.23409">
        <ele>711.645</ele>
        <time>2023-05-29T10:39:35Z</time>
      </trkpt>
      <trkpt lat="42.8748" lon="1.23413">
        <ele>712.172</ele>
        <time>2023-05-29T10:39:36Z</time>
      </trkpt>
      <trkpt lat="42.87481" lon="1.23418">
        <ele>712.127</ele>
        <time>2023-05-29T10:39:37Z</time>
      </trkpt>
      <trkpt lat="42.87482" lon="1.23423">
        <ele>711.128</ele>
        <time>2023-05-29T10:39:38Z</time>
      </trkpt>
      <trkpt lat="42.87482" lon="1.2343">
        <ele>711.442</ele>
        <time>2023-05-29T10:39:39Z</time>
      </trkpt>
      <trkpt lat="42.87482" lon="1.23436">
        <ele>711.388</ele>
        <time>2023-05-29T10:39:40Z</time>
      </trkpt>
      <trkpt lat="42.87482" lon="1.23443">
        <ele>711.692</ele>
        <time>2023-05-29T10:39:41Z</time>
      </trkpt>
      <trkpt lat="42.87482" lon="1.23448">
        <ele>711.655</ele>
        <time>2023-05-29T10:39:42Z</time>
      </trkpt>
      <trkpt lat="42.87483" lon="1.23453">
        <ele>711.391</ele>
        <time>2023-05-29T10:39:43Z</time>
      </trkpt>
      <trkpt lat="42.87483" lon="1.23458">
        <ele>712.576</ele>
        <time>2023-05-29T10:39:44Z</time>
      </trkpt>
      <trkpt lat="42.87482" lon="1.23464">
        <ele>713.828</ele>
        <time>2023-05-29T10:39:45Z</time>
      </trkpt>
      <trkpt lat="42.87482" lon="1.23469">
        <ele>714.626</ele>
        <time>2023-05-29T10:39:46Z</time>
      </trkpt>
      <trkpt lat="42.87483" lon="1.23474">
        <ele>714.898</ele>
        <time>2023-05-29T10:39:47Z</time>
      </trkpt>
      <trkpt lat="42.87483" lon="1.23478">
        <ele>714.776</ele>
        <time>2023-05-29T10:39:48Z</time>
      </trkpt>
      <trkpt lat="42.87484" lon="1.23483">
        <ele>714.746</ele>
        <time>2023-05-29T10:39:49Z</time>
      </trkpt>
      <trkpt lat="42.87485" lon="1.23488">
        <ele>715.124</ele>
        <time>2023-05-29T10:39:50Z</time>
      </trkpt>
      <trkpt lat="42.87487" lon="1.23492">
        <ele>714.562</ele>
        <time>2023-05-29T10:39:51Z</time>
      </trkpt>
      <trkpt lat="42.87489" lon="1.23495">
        <ele>714.801</ele>
        <time>2023-05-29T10:39:52Z</time>
      </trkpt>
      <trkpt lat="42.87491" lon="1.23498">
        <ele>715.177</ele>
        <time>2023-05-29T10:39:53Z</time>
      </trkpt>
      <trkpt lat="42.87494" lon="1.235">
        <ele>715.954</ele>
        <time>2023-05-29T10:39:54Z</time>
      </trkpt>
      <trkpt lat="42.87497" lon="1.23502">
        <ele>716.252</ele>
        <time>2023-05-29T10:39:55Z</time>
      </trkpt>
      <trkpt lat="42.87499" lon="1.23505">
        <ele>716.947</ele>
        <time>2023-05-29T10:39:56Z</time>
      </trkpt>
      <trkpt lat="42.87501" lon="1.23509">
        <ele>717.474</ele>
        <time>2023-05-29T10:39:57Z</time>
      </trkpt>
      <trkpt lat="42.87502" lon="1.23514">
        <ele>716.819</ele>
        <time>2023-05-29T10:39:58Z</time>
      </trkpt>
      <trkpt lat="42.87502" lon="1.23519">
        <ele>716.454</ele>
        <time>2023-05-29T10:39:59Z</time>
      </trkpt>
      <trkpt lat="42.87503" lon="1.23523">
        <ele>716.514</ele>
        <time>2023-05-29T10:40:00Z</time>
      </trkpt>
      <trkpt lat="42.87504" lon="1.23527">
        <ele>716.572</ele>
        <time>2023-05-29T10:40:01Z</time>
      </trkpt>
      <trkpt lat="42.87505" lon="1.23531">
        <ele>717.026</ele>
        <time>2023-05-29T10:40:02Z</time>
      </trkpt>
      <trkpt lat="42.87505" lon="1.23535">
        <ele>717.775</ele>
        <time>2023-05-29T10:40:03Z</time>
      </trkpt>
      <trkpt lat="42.87507" lon="1.23539">
        <ele>717.814</ele>
        <time>2023-05-29T10:40:04Z</time>
      </trkpt>
      <trkpt lat="42.87507" lon="1.23543">
        <ele>718.911</ele>
        <time>2023-05-29T10:40:05Z</time>
      </trkpt>
      <trkpt lat="42.87509" lon="1.23547">
        <ele>716.314</ele>
        <time>2023-05-29T10:40:06Z</time>
      </trkpt>
      <trkpt lat="42.8751" lon="1.23551">
        <ele>715.664</ele>
        <time>2023-05-29T10:40:07Z</time>
      </trkpt>
      <trkpt lat="42.87511" lon="1.23555">
        <ele>715.002</ele>
        <time>2023-05-29T10:40:08Z</time>
      </trkpt>
      <trkpt lat="42.87512" lon="1.23559">
        <ele>715.645</ele>
        <time>2023-05-29T10:40:09Z</time>
      </trkpt>
      <trkpt lat="42.87512" lon="1.23562">
        <ele>717.164</ele>
        <time>2023-05-29T10:40:10Z</time>
      </trkpt>
      <trkpt lat="42.87512" lon="1.23565">
        <ele>718.528</ele>
        <time>2023-05-29T10:40:11Z</time>
      </trkpt>
      <trkpt lat="42.87512" lon="1.23569">
        <ele>718.952</ele>
        <time>2023-05-29T10:40:12Z</time>
      </trkpt>
      <trkpt lat="42.87513" lon="1.23572">
        <ele>719.753</ele>
        <time>2023-05-29T10:40:13Z</time>
      </trkpt>
      <trkpt lat="42.87513" lon="1.23577">
        <ele>720.954</ele>
        <time>2023-05-29T10:40:14Z</time>
      </trkpt>
      <trkpt lat="42.87515" lon="1.2358">
        <ele>721.447</ele>
        <time>2023-05-29T10:40:15Z</time>
      </trkpt>
      <trkpt lat="42.87516" lon="1.23584">
        <ele>721.853</ele>
        <time>2023-05-29T10:40:16Z</time>
      </trkpt>
      <trkpt lat="42.87517" lon="1.23588">
        <ele>723.065</ele>
        <time>2023-05-29T10:40:17Z</time>
      </trkpt>
      <trkpt lat="42.87518" lon="1.23591">
        <ele>722.942</ele>
        <time>2023-05-29T10:40:18Z</time>
      </trkpt>
      <trkpt lat="42.87519" lon="1.23594">
        <ele>723.446</ele>
        <time>2023-05-29T10:40:19Z</time>
      </trkpt>
      <trkpt lat="42.8752" lon="1.23596">
        <ele>723.77</ele>
        <time>2023-05-29T10:40:20Z</time>
      </trkpt>
      <trkpt lat="42.87521" lon="1.23598">
        <ele>724.147</ele>
        <time>2023-05-29T10:40:21Z</time>
      </trkpt>
      <trkpt lat="42.87522" lon="1.236">
        <ele>723.275</ele>
        <time>2023-05-29T10:40:22Z</time>
      </trkpt>
      <trkpt lat="42.87523" lon="1.23602">
        <ele>723.071</ele>
        <time>2023-05-29T10:40:23Z</time>
      </trkpt>
      <trkpt lat="42.87525" lon="1.23605">
        <ele>723.111</ele>
        <time>2023-05-29T10:40:24Z</time>
      </trkpt>
      <trkpt lat="42.87526" lon="1.23608">
        <ele>722.882</ele>
        <time>2023-05-29T10:40:25Z</time>
      </trkpt>
      <trkpt lat="42.87526" lon="1.23611">
        <ele>724.296</ele>
        <time>2023-05-29T10:40:26Z</time>
      </trkpt>
      <trkpt lat="42.87528" lon="1.23613">
        <ele>724.229</ele>
        <time>2023-05-29T10:40:27Z</time>
      </trkpt>
      <trkpt lat="42.8753" lon="1.23615">
        <ele>724.539</ele>
        <time>2023-05-29T10:40:28Z</time>
      </trkpt>
      <trkpt lat="42.87531" lon="1.23618">
        <ele>725.63</ele>
        <time>2023-05-29T10:40:29Z</time>
      </trkpt>
      <trkpt lat="42.87534" lon="1.2362">
        <ele>726.194</ele>
        <time>2023-05-29T10:40:30Z</time>
      </trkpt>
      <trkpt lat="42.87537" lon="1.23623">
        <ele>726.428</ele>
        <time>2023-05-29T10:40:31Z</time>
      </trkpt>
      <trkpt lat="42.87539" lon="1.23626">
        <ele>725.464</ele>
        <time>2023-05-29T10:40:32Z</time>
      </trkpt>
      <trkpt lat="42.8754" lon="1.23629">
        <ele>725.494</ele>
        <time>2023-05-29T10:40:33Z</time>
      </trkpt>
      <trkpt lat="42.87541" lon="1.23632">
        <ele>725.483</ele>
        <time>2023-05-29T10:40:34Z</time>
      </trkpt>
      <trkpt lat="42.87541" lon="1.23634">
        <ele>725.428</ele>
        <time>2023-05-29T10:40:35Z</time>
      </trkpt>
      <trkpt lat="42.87542" lon="1.23637">
        <ele>726.997</ele>
        <time>2023-05-29T10:40:36Z</time>
      </trkpt>
      <trkpt lat="42.87543" lon="1.23641">
        <ele>727.218</ele>
        <time>2023-05-29T10:40:37Z</time>
      </trkpt>
      <trkpt lat="42.87544" lon="1.23645">
        <ele>727.56</ele>
        <time>2023-05-29T10:40:38Z</time>
      </trkpt>
      <trkpt lat="42.87545" lon="1.23648">
        <ele>728.217</ele>
        <time>2023-05-29T10:40:39Z</time>
      </trkpt>
      <trkpt lat="42.87545" lon="1.23651">
        <ele>729.342</ele>
        <time>2023-05-29T10:40:40Z</time>
      </trkpt>
      <trkpt lat="42.87546" lon="1.23654">
        <ele>729.935</ele>
        <time>2023-05-29T10:40:41Z</time>
      </trkpt>
      <trkpt lat="42.87547" lon="1.23656">
        <ele>730.259</ele>
        <time>2023-05-29T10:40:42Z</time>
      </trkpt>
      <trkpt lat="42.87548" lon="1.23659">
        <ele>730.806</ele>
        <time>2023-05-29T10:40:43Z</time>
      </trkpt>
      <trkpt lat="42.87548" lon="1.23661">
        <ele>730.927</ele>
        <time>2023-05-29T10:40:44Z</time>
      </trkpt>
      <trkpt lat="42.87549" lon="1.23664">
        <ele>731.949</ele>
        <time>2023-05-29T10:40:45Z</time>
      </trkpt>
      <trkpt lat="42.87549" lon="1.23666">
        <ele>732.203</ele>
        <time>2023-05-29T10:40:46Z</time>
      </trkpt>
      <trkpt lat="42.8755" lon="1.23669">
        <ele>732.974</ele>
        <time>2023-05-29T10:40:47Z</time>
      </trkpt>
      <trkpt lat="42.8755" lon="1.23672">
        <ele>732.957</ele>
        <time>2023-05-29T10:40:48Z</time>
      </trkpt>
      <trkpt lat="42.87551" lon="1.23675">
        <ele>732.175</ele>
        <time>2023-05-29T10:40:49Z</time>
      </trkpt>
      <trkpt lat="42.87551" lon="1.23679">
        <ele>732.432</ele>
        <time>2023-05-29T10:40:50Z</time>
      </trkpt>
      <trkpt lat="42.87552" lon="1.23682">
        <ele>732.876</ele>
        <time>2023-05-29T10:40:51Z</time>
      </trkpt>
      <trkpt lat="42.87553" lon="1.23686">
        <ele>733.093</ele>
        <time>2023-05-29T10:40:52Z</time>
      </trkpt>
      <trkpt lat="42.87553" lon="1.2369">
        <ele>733.949</ele>
        <time>2023-05-29T10:40:53Z</time>
      </trkpt>
      <trkpt lat="42.87553" lon="1.23693">
        <ele>735.064</ele>
        <time>2023-05-29T10:40:54Z</time>
      </trkpt>
      <trkpt lat="42.87553" lon="1.23696">
        <ele>734.798</ele>
        <time>2023-05-29T10:40:55Z</time>
      </trkpt>
      <trkpt lat="42.87554" lon="1.23698">
        <ele>734.69</ele>
        <time>2023-05-29T10:40:56Z</time>
      </trkpt>
      <trkpt lat="42.87554" lon="1.237">
        <ele>734.776</ele>
        <time>2023-05-29T10:40:57Z</time>
      </trkpt>
      <trkpt lat="42.87553" lon="1.23703">
        <ele>735.444</ele>
        <time>2023-05-29T10:40:58Z</time>
      </trkpt>
      <trkpt lat="42.87553" lon="1.23705">
        <ele>734.917</ele>
        <time>2023-05-29T10:40:59Z</time>
      </trkpt>
      <trkpt lat="42.87553" lon="1.23707">
        <ele>736.517</ele>
        <time>2023-05-29T10:41:00Z</time>
      </trkpt>
      <trkpt lat="42.87552" lon="1.2371">
        <ele>737.617</ele>
        <time>2023-05-29T10:41:01Z</time>
      </trkpt>
      <trkpt lat="42.87552" lon="1.23712">
        <ele>738.044</ele>
        <time>2023-05-29T10:41:02Z</time>
      </trkpt>
      <trkpt lat="42.87551" lon="1.23715">
        <ele>738.306</ele>
        <time>2023-05-29T10:41:03Z</time>
      </trkpt>
      <trkpt lat="42.87551" lon="1.23717">
        <ele>738.442</ele>
        <time>2023-05-29T10:41:04Z</time>
      </trkpt>
      <trkpt lat="42.8755" lon="1.23719">
        <ele>738.564</ele>
        <time>2023-05-29T10:41:05Z</time>
      </trkpt>
      <trkpt lat="42.87549" lon="1.23721">
        <ele>740.151</ele>
        <time>2023-05-29T10:41:06Z</time>
      </trkpt>
      <trkpt lat="42.87548" lon="1.23723">
        <ele>740.956</ele>
        <time>2023-05-29T10:41:07Z</time>
      </trkpt>
      <trkpt lat="42.87547" lon="1.23726">
        <ele>740.393</ele>
        <time>2023-05-29T10:41:08Z</time>
      </trkpt>
      <trkpt lat="42.87545" lon="1.23729">
        <ele>739.987</ele>
        <time>2023-05-29T10:41:09Z</time>
      </trkpt>
      <trkpt lat="42.87544" lon="1.23732">
        <ele>740.692</ele>
        <time>2023-05-29T10:41:10Z</time>
      </trkpt>
      <trkpt lat="42.87542" lon="1.23734">
        <ele>741.254</ele>
        <time>2023-05-29T10:41:11Z</time>
      </trkpt>
      <trkpt lat="42.87541" lon="1.23737">
        <ele>742.166</ele>
        <time>2023-05-29T10:41:12Z</time>
      </trkpt>
      <trkpt lat="42.8754" lon="1.23741">
        <ele>743.292</ele>
        <time>2023-05-29T10:41:13Z</time>
      </trkpt>
      <trkpt lat="42.87538" lon="1.23745">
        <ele>744.382</ele>
        <time>2023-05-29T10:41:14Z</time>
      </trkpt>
      <trkpt lat="42.87536" lon="1.23749">
        <ele>744.485</ele>
        <time>2023-05-29T10:41:15Z</time>
      </trkpt>
      <trkpt lat="42.87535" lon="1.23752">
        <ele>744.953</ele>
        <time>2023-05-29T10:41:16Z</time>
      </trkpt>
      <trkpt lat="42.87534" lon="1.23756">
        <ele>746.074</ele>
        <time>2023-05-29T10:41:17Z</time>
      </trkpt>
      <trkpt lat="42.87533" lon="1.23759">
        <ele>745.948</ele>
        <time>2023-05-29T10:41:18Z</time>
      </trkpt>
      <trkpt lat="42.87532" lon="1.23763">
        <ele>746.585</ele>
        <time>2023-05-29T10:41:19Z</time>
      </trkpt>
      <trkpt lat="42.87531" lon="1.23766">
        <ele>747.683</ele>
        <time>2023-05-29T10:41:20Z</time>
      </trkpt>
      <trkpt lat="42.8753" lon="1.23769">
        <ele>748.816</ele>
        <time>2023-05-29T10:41:21Z</time>
      </trkpt>
      <trkpt lat="42.87529" lon="1.23772">
        <ele>750.124</ele>
        <time>2023-05-29T10:41:22Z</time>
      </trkpt>
      <trkpt lat="42.87527" lon="1.23775">
        <ele>750.694</ele>
        <time>2023-05-29T10:41:23Z</time>
      </trkpt>
      <trkpt lat="42.87526" lon="1.23777">
        <ele>749.846</ele>
        <time>2023-05-29T10:41:24Z</time>
      </trkpt>
      <trkpt lat="42.87524" lon="1.2378">
        <ele>750.282</ele>
        <time>2023-05-29T10:41:25Z</time>
      </trkpt>
      <trkpt lat="42.87523" lon="1.23782">
        <ele>751.051</ele>
        <time>2023-05-29T10:41:26Z</time>
      </trkpt>
      <trkpt lat="42.87522" lon="1.23786">
        <ele>751.62</ele>
        <time>2023-05-29T10:41:27Z</time>
      </trkpt>
      <trkpt lat="42.87522" lon="1.23789">
        <ele>751.093</ele>
        <time>2023-05-29T10:41:28Z</time>
      </trkpt>
      <trkpt lat="42.87521" lon="1.23791">
        <ele>751.309</ele>
        <time>2023-05-29T10:41:29Z</time>
      </trkpt>
      <trkpt lat="42.8752" lon="1.23794">
        <ele>751.788</ele>
        <time>2023-05-29T10:41:30Z</time>
      </trkpt>
      <trkpt lat="42.87519" lon="1.23797">
        <ele>751.617</ele>
        <time>2023-05-29T10:41:31Z</time>
      </trkpt>
      <trkpt lat="42.87519" lon="1.238">
        <ele>750.664</ele>
        <time>2023-05-29T10:41:32Z</time>
      </trkpt>
      <trkpt lat="42.87519" lon="1.23802">
        <ele>750.832</ele>
        <time>2023-05-29T10:41:33Z</time>
      </trkpt>
      <trkpt lat="42.87519" lon="1.23805">
        <ele>751.294</ele>
        <time>2023-05-29T10:41:34Z</time>
      </trkpt>
      <trkpt lat="42.87518" lon="1.23809">
        <ele>751.162</ele>
        <time>2023-05-29T10:41:35Z</time>
      </trkpt>
      <trkpt lat="42.87518" lon="1.23813">
        <ele>751.555</ele>
        <time>2023-05-29T10:41:36Z</time>
      </trkpt>
      <trkpt lat="42.87517" lon="1.23816">
        <ele>750.4</ele>
        <time>2023-05-29T10:41:37Z</time>
      </trkpt>
      <trkpt lat="42.87517" lon="1.23819">
        <ele>750.984</ele>
        <time>2023-05-29T10:41:38Z</time>
      </trkpt>
      <trkpt lat="42.87517" lon="1.23823">
        <ele>751.135</ele>
        <time>2023-05-29T10:41:39Z</time>
      </trkpt>
      <trkpt lat="42.87517" lon="1.23826">
        <ele>750.512</ele>
        <time>2023-05-29T10:41:40Z</time>
      </trkpt>
      <trkpt lat="42.87517" lon="1.23829">
        <ele>750.259</ele>
        <time>2023-05-29T10:41:41Z</time>
      </trkpt>
      <trkpt lat="42.87518" lon="1.23833">
        <ele>750.344</ele>
        <time>2023-05-29T10:41:42Z</time>
      </trkpt>
      <trkpt lat="42.87519" lon="1.23835">
        <ele>750.724</ele>
        <time>2023-05-29T10:41:43Z</time>
      </trkpt>
      <trkpt lat="42.8752" lon="1.23838">
        <ele>751.606</ele>
        <time>2023-05-29T10:41:44Z</time>
      </trkpt>
      <trkpt lat="42.87521" lon="1.2384">
        <ele>752.445</ele>
        <time>2023-05-29T10:41:45Z</time>
      </trkpt>
      <trkpt lat="42.87522" lon="1.23842">
        <ele>754.3</ele>
        <time>2023-05-29T10:41:46Z</time>
      </trkpt>
      <trkpt lat="42.87524" lon="1.23844">
        <ele>754.51</ele>
        <time>2023-05-29T10:41:47Z</time>
      </trkpt>
      <trkpt lat="42.87525" lon="1.23845">
        <ele>753.847</ele>
        <time>2023-05-29T10:41:48Z</time>
      </trkpt>
      <trkpt lat="42.87527" lon="1.23847">
        <ele>753.23</ele>
        <time>2023-05-29T10:41:49Z</time>
      </trkpt>
      <trkpt lat="42.87529" lon="1.23849">
        <ele>754.763</ele>
        <time>2023-05-29T10:41:50Z</time>
      </trkpt>
      <trkpt lat="42.87531" lon="1.23851">
        <ele>755.99</ele>
        <time>2023-05-29T10:41:51Z</time>
      </trkpt>
      <trkpt lat="42.87532" lon="1.23854">
        <ele>756.762</ele>
        <time>2023-05-29T10:41:52Z</time>
      </trkpt>
      <trkpt lat="42.87534" lon="1.23856">
        <ele>757.544</ele>
        <time>2023-05-29T10:41:53Z</time>
      </trkpt>
      <trkpt lat="42.87536" lon="1.23859">
        <ele>756.804</ele>
        <time>2023-05-29T10:41:54Z</time>
      </trkpt>
      <trkpt lat="42.87539" lon="1.23862">
        <ele>755.927</ele>
        <time>2023-05-29T10:41:55Z</time>
      </trkpt>
      <trkpt lat="42.87541" lon="1.23865">
        <ele>757.023</ele>
        <time>2023-05-29T10:41:56Z</time>
      </trkpt>
      <trkpt lat="42.87543" lon="1.23869">
        <ele>756.937</ele>
        <time>2023-05-29T10:41:57Z</time>
      </trkpt>
      <trkpt lat="42.87545" lon="1.23872">
        <ele>757.873</ele>
        <time>2023-05-29T10:41:58Z</time>
      </trkpt>
      <trkpt lat="42.87547" lon="1.23877">
        <ele>758.214</ele>
        <time>2023-05-29T10:41:59Z</time>
      </trkpt>
      <trkpt lat="42.87548" lon="1.2388">
        <ele>759.041</ele>
        <time>2023-05-29T10:42:00Z</time>
      </trkpt>
      <trkpt lat="42.87549" lon="1.23884">
        <ele>759.012</ele>
        <time>2023-05-29T10:42:01Z</time>
      </trkpt>
      <trkpt lat="42.87549" lon="1.23888">
        <ele>759.175</ele>
        <time>2023-05-29T10:42:02Z</time>
      </trkpt>
      <trkpt lat="42.87548" lon="1.23892">
        <ele>759.563</ele>
        <time>2023-05-29T10:42:03Z</time>
      </trkpt>
      <trkpt lat="42.87547" lon="1.23895">
        <ele>759.789</ele>
        <time>2023-05-29T10:42:04Z</time>
      </trkpt>
      <trkpt lat="42.87546" lon="1.23898">
        <ele>761.202</ele>
        <time>2023-05-29T10:42:05Z</time>
      </trkpt>
      <trkpt lat="42.87546" lon="1.23901">
        <ele>760.645</ele>
        <time>2023-05-29T10:42:06Z</time>
      </trkpt>
      <trkpt lat="42.87546" lon="1.23904">
        <ele>760.706</ele>
        <time>2023-05-29T10:42:07Z</time>
      </trkpt>
      <trkpt lat="42.87546" lon="1.23906">
        <ele>760.691</ele>
        <time>2023-05-29T10:42:08Z</time>
      </trkpt>
      <trkpt lat="42.87546" lon="1.23909">
        <ele>760.409</ele>
        <time>2023-05-29T10:42:09Z</time>
      </trkpt>
      <trkpt lat="42.87548" lon="1.23911">
        <ele>761.139</ele>
        <time>2023-05-29T10:42:10Z</time>
      </trkpt>
      <trkpt lat="42.87549" lon="1.23913">
        <ele>760.943</ele>
        <time>2023-05-29T10:42:11Z</time>
      </trkpt>
      <trkpt lat="42.8755" lon="1.23916">
        <ele>762.921</ele>
        <time>2023-05-29T10:42:12Z</time>
      </trkpt>
      <trkpt lat="42.8755" lon="1.23918">
        <ele>763.768</ele>
        <time>2023-05-29T10:42:13Z</time>
      </trkpt>
      <trkpt lat="42.87551" lon="1.23921">
        <ele>763.485</ele>
        <time>2023-05-29T10:42:14Z</time>
      </trkpt>
      <trkpt lat="42.87551" lon="1.23923">
        <ele>763.89</ele>
        <time>2023-05-29T10:42:15Z</time>
      </trkpt>
      <trkpt lat="42.87552" lon="1.23924">
        <ele>764.864</ele>
        <time>2023-05-29T10:42:16Z</time>
      </trkpt>
      <trkpt lat="42.87552" lon="1.23926">
        <ele>765.408</ele>
        <time>2023-05-29T10:42:17Z</time>
      </trkpt>
      <trkpt lat="42.87553" lon="1.23928">
        <ele>766.277</ele>
        <time>2023-05-29T10:42:18Z</time>
      </trkpt>
      <trkpt lat="42.87554" lon="1.2393">
        <ele>766.8</ele>
        <time>2023-05-29T10:42:19Z</time>
      </trkpt>
      <trkpt lat="42.87555" lon="1.23933">
        <ele>766.443</ele>
        <time>2023-05-29T10:42:20Z</time>
      </trkpt>
      <trkpt lat="42.87556" lon="1.23936">
        <ele>766.965</ele>
        <time>2023-05-29T10:42:21Z</time>
      </trkpt>
      <trkpt lat="42.87557" lon="1.23938">
        <ele>768.562</ele>
        <time>2023-05-29T10:42:22Z</time>
      </trkpt>
      <trkpt lat="42.87558" lon="1.23941">
        <ele>768.551</ele>
        <time>2023-05-29T10:42:23Z</time>
      </trkpt>
      <trkpt lat="42.87558" lon="1.23944">
        <ele>769.642</ele>
        <time>2023-05-29T10:42:24Z</time>
      </trkpt>
      <trkpt lat="42.87559" lon="1.23947">
        <ele>769.685</ele>
        <time>2023-05-29T10:42:25Z</time>
      </trkpt>
      <trkpt lat="42.8756" lon="1.23949">
        <ele>769.981</ele>
        <time>2023-05-29T10:42:26Z</time>
      </trkpt>
      <trkpt lat="42.87561" lon="1.23952">
        <ele>770.4</ele>
        <time>2023-05-29T10:42:27Z</time>
      </trkpt>
      <trkpt lat="42.87562" lon="1.23955">
        <ele>770.279</ele>
        <time>2023-05-29T10:42:28Z</time>
      </trkpt>
      <trkpt lat="42.87563" lon="1.23957">
        <ele>770.387</ele>
        <time>2023-05-29T10:42:29Z</time>
      </trkpt>
      <trkpt lat="42.87564" lon="1.2396">
        <ele>770.72</ele>
        <time>2023-05-29T10:42:30Z</time>
      </trkpt>
      <trkpt lat="42.87564" lon="1.23964">
        <ele>771.148</ele>
        <time>2023-05-29T10:42:31Z</time>
      </trkpt>
      <trkpt lat="42.87564" lon="1.23967">
        <ele>771.064</ele>
        <time>2023-05-29T10:42:32Z</time>
      </trkpt>
      <trkpt lat="42.87564" lon="1.23971">
        <ele>771.102</ele>
        <time>2023-05-29T10:42:33Z</time>
      </trkpt>
      <trkpt lat="42.87564" lon="1.23975">
        <ele>772.199</ele>
        <time>2023-05-29T10:42:34Z</time>
      </trkpt>
      <trkpt lat="42.87563" lon="1.23978">
        <ele>772.574</ele>
        <time>2023-05-29T10:42:35Z</time>
      </trkpt>
      <trkpt lat="42.87562" lon="1.23981">
        <ele>772.88</ele>
        <time>2023-05-29T10:42:36Z</time>
      </trkpt>
      <trkpt lat="42.87562" lon="1.23984">
        <ele>774.512</ele>
        <time>2023-05-29T10:42:37Z</time>
      </trkpt>
      <trkpt lat="42.87562" lon="1.23987">
        <ele>775.783</ele>
        <time>2023-05-29T10:42:38Z</time>
      </trkpt>
      <trkpt lat="42.87561" lon="1.23989">
        <ele>776.714</ele>
        <time>2023-05-29T10:42:39Z</time>
      </trkpt>
      <trkpt lat="42.87561" lon="1.23991">
        <ele>777.861</ele>
        <time>2023-05-29T10:42:40Z</time>
      </trkpt>
      <trkpt lat="42.87562" lon="1.23994">
        <ele>777.822</ele>
        <time>2023-05-29T10:42:41Z</time>
      </trkpt>
      <trkpt lat="42.87562" lon="1.23997">
        <ele>778.048</ele>
        <time>2023-05-29T10:42:42Z</time>
      </trkpt>
      <trkpt lat="42.87562" lon="1.23999">
        <ele>778.899</ele>
        <time>2023-05-29T10:42:43Z</time>
      </trkpt>
      <trkpt lat="42.87562" lon="1.24001">
        <ele>779.378</ele>
        <time>2023-05-29T10:42:44Z</time>
      </trkpt>
      <trkpt lat="42.87562" lon="1.24004">
        <ele>779.329</ele>
        <time>2023-05-29T10:42:45Z</time>
      </trkpt>
      <trkpt lat="42.87562" lon="1.24006">
        <ele>780.729</ele>
        <time>2023-05-29T10:42:46Z</time>
      </trkpt>
      <trkpt lat="42.87561" lon="1.24008">
        <ele>782.885</ele>
        <time>2023-05-29T10:42:47Z</time>
      </trkpt>
      <trkpt lat="42.87561" lon="1.2401">
        <ele>784.019</ele>
        <time>2023-05-29T10:42:48Z</time>
      </trkpt>
      <trkpt lat="42.8756" lon="1.24012">
        <ele>784.265</ele>
        <time>2023-05-29T10:42:49Z</time>
      </trkpt>
      <trkpt lat="42.8756" lon="1.24015">
        <ele>785.788</ele>
        <time>2023-05-29T10:42:50Z</time>
      </trkpt>
      <trkpt lat="42.8756" lon="1.24017">
        <ele>786.456</ele>
        <time>2023-05-29T10:42:51Z</time>
      </trkpt>
      <trkpt lat="42.87559" lon="1.24019">
        <ele>787.007</ele>
        <time>2023-05-29T10:42:52Z</time>
      </trkpt>
      <trkpt lat="42.87559" lon="1.24021">
        <ele>788.158</ele>
        <time>2023-05-29T10:42:53Z</time>
      </trkpt>
      <trkpt lat="42.87559" lon="1.24023">
        <ele>788.879</ele>
        <time>2023-05-29T10:42:54Z</time>
      </trkpt>
      <trkpt lat="42.87558" lon="1.24025">
        <ele>789.455</ele>
        <time>2023-05-29T10:42:55Z</time>
      </trkpt>
      <trkpt lat="42.87558" lon="1.24028">
        <ele>789.417</ele>
        <time>2023-05-29T10:42:56Z</time>
      </trkpt>
      <trkpt lat="42.87559" lon="1.24031">
        <ele>790.168</ele>
        <time>2023-05-29T10:42:57Z</time>
      </trkpt>
      <trkpt lat="42.87559" lon="1.24033">
        <ele>788.718</ele>
        <time>2023-05-29T10:42:58Z</time>
      </trkpt>
      <trkpt lat="42.87559" lon="1.24036">
        <ele>789.021</ele>
        <time>2023-05-29T10:42:59Z</time>
      </trkpt>
      <trkpt lat="42.87559" lon="1.24038">
        <ele>789.193</ele>
        <time>2023-05-29T10:43:00Z</time>
      </trkpt>
      <trkpt lat="42.87559" lon="1.24041">
        <ele>788.25</ele>
        <time>2023-05-29T10:43:01Z</time>
      </trkpt>
      <trkpt lat="42.87559" lon="1.24045">
        <ele>788.756</ele>
        <time>2023-05-29T10:43:02Z</time>
      </trkpt>
      <trkpt lat="42.87559" lon="1.24048">
        <ele>789.07</ele>
        <time>2023-05-29T10:43:03Z</time>
      </trkpt>
      <trkpt lat="42.87559" lon="1.2405">
        <ele>789.218</ele>
        <time>2023-05-29T10:43:04Z</time>
      </trkpt>
      <trkpt lat="42.8756" lon="1.24053">
        <ele>788.82</ele>
        <time>2023-05-29T10:43:05Z</time>
      </trkpt>
      <trkpt lat="42.8756" lon="1.24057">
        <ele>789.72</ele>
        <time>2023-05-29T10:43:06Z</time>
      </trkpt>
      <trkpt lat="42.8756" lon="1.2406">
        <ele>790.032</ele>
        <time>2023-05-29T10:43:07Z</time>
      </trkpt>
      <trkpt lat="42.8756" lon="1.24063">
        <ele>789.08</ele>
        <time>2023-05-29T10:43:08Z</time>
      </trkpt>
      <trkpt lat="42.8756" lon="1.24066">
        <ele>788.124</ele>
        <time>2023-05-29T10:43:09Z</time>
      </trkpt>
      <trkpt lat="42.87561" lon="1.24069">
        <ele>787.26</ele>
        <time>2023-05-29T10:43:10Z</time>
      </trkpt>
      <trkpt lat="42.87561" lon="1.24071">
        <ele>786.479</ele>
        <time>2023-05-29T10:43:11Z</time>
      </trkpt>
      <trkpt lat="42.87561" lon="1.24073">
        <ele>785.874</ele>
        <time>2023-05-29T10:43:12Z</time>
      </trkpt>
      <trkpt lat="42.87561" lon="1.24076">
        <ele>786.339</ele>
        <time>2023-05-29T10:43:13Z</time>
      </trkpt>
      <trkpt lat="42.87561" lon="1.24078">
        <ele>786.387</ele>
        <time>2023-05-29T10:43:14Z</time>
      </trkpt>
      <trkpt lat="42.87561" lon="1.2408">
        <ele>786.737</ele>
        <time>2023-05-29T10:43:15Z</time>
      </trkpt>
      <trkpt lat="42.87562" lon="1.24082">
        <ele>786.956</ele>
        <time>2023-05-29T10:43:16Z</time>
      </trkpt>
      <trkpt lat="42.87563" lon="1.24084">
        <ele>787.55</ele>
        <time>2023-05-29T10:43:17Z</time>
      </trkpt>
      <trkpt lat="42.87564" lon="1.24087">
        <ele>788.466</ele>
        <time>2023-05-29T10:43:18Z</time>
      </trkpt>
      <trkpt lat="42.87564" lon="1.24091">
        <ele>788.966</ele>
        <time>2023-05-29T10:43:19Z</time>
      </trkpt>
      <trkpt lat="42.87565" lon="1.24094">
        <ele>789.054</ele>
        <time>2023-05-29T10:43:20Z</time>
      </trkpt>
      <trkpt lat="42.87566" lon="1.24098">
        <ele>789.861</ele>
        <time>2023-05-29T10:43:21Z</time>
      </trkpt>
      <trkpt lat="42.87566" lon="1.24103">
        <ele>789.757</ele>
        <time>2023-05-29T10:43:22Z</time>
      </trkpt>
      <trkpt lat="42.87566" lon="1.24108">
        <ele>790.863</ele>
        <time>2023-05-29T10:43:23Z</time>
      </trkpt>
      <trkpt lat="42.87566" lon="1.24112">
        <ele>792.052</ele>
        <time>2023-05-29T10:43:24Z</time>
      </trkpt>
      <trkpt lat="42.87566" lon="1.24116">
        <ele>793.091</ele>
        <time>2023-05-29T10:43:25Z</time>
      </trkpt>
      <trkpt lat="42.87566" lon="1.24121">
        <ele>793.546</ele>
        <time>2023-05-29T10:43:26Z</time>
      </trkpt>
      <trkpt lat="42.87567" lon="1.24125">
        <ele>793.786</ele>
        <time>2023-05-29T10:43:27Z</time>
      </trkpt>
      <trkpt lat="42.87566" lon="1.24128">
        <ele>794.489</ele>
        <time>2023-05-29T10:43:28Z</time>
      </trkpt>
      <trkpt lat="42.87566" lon="1.24132">
        <ele>795.48</ele>
        <time>2023-05-29T10:43:29Z</time>
      </trkpt>
      <trkpt lat="42.87566" lon="1.24134">
        <ele>796.074</ele>
        <time>2023-05-29T10:43:30Z</time>
      </trkpt>
      <trkpt lat="42.87566" lon="1.24136">
        <ele>797.493</ele>
        <time>2023-05-29T10:43:31Z</time>
      </trkpt>
      <trkpt lat="42.87565" lon="1.24138">
        <ele>799.499</ele>
        <time>2023-05-29T10:43:32Z</time>
      </trkpt>
      <trkpt lat="42.87564" lon="1.2414">
        <ele>800.455</ele>
        <time>2023-05-29T10:43:33Z</time>
      </trkpt>
      <trkpt lat="42.87563" lon="1.24142">
        <ele>799.878</ele>
        <time>2023-05-29T10:43:34Z</time>
      </trkpt>
      <trkpt lat="42.87562" lon="1.24144">
        <ele>798.771</ele>
        <time>2023-05-29T10:43:35Z</time>
      </trkpt>
      <trkpt lat="42.87562" lon="1.24147">
        <ele>798.527</ele>
        <time>2023-05-29T10:43:36Z</time>
      </trkpt>
      <trkpt lat="42.87561" lon="1.24148">
        <ele>798.751</ele>
        <time>2023-05-29T10:43:37Z</time>
      </trkpt>
      <trkpt lat="42.87559" lon="1.24151">
        <ele>799.308</ele>
        <time>2023-05-29T10:43:38Z</time>
      </trkpt>
      <trkpt lat="42.87558" lon="1.24153">
        <ele>800.542</ele>
        <time>2023-05-29T10:43:39Z</time>
      </trkpt>
      <trkpt lat="42.87557" lon="1.24156">
        <ele>801.66</ele>
        <time>2023-05-29T10:43:40Z</time>
      </trkpt>
      <trkpt lat="42.87556" lon="1.24158">
        <ele>803.414</ele>
        <time>2023-05-29T10:43:41Z</time>
      </trkpt>
      <trkpt lat="42.87556" lon="1.24159">
        <ele>805.684</ele>
        <time>2023-05-29T10:43:42Z</time>
      </trkpt>
      <trkpt lat="42.87556" lon="1.24162">
        <ele>806.24</ele>
        <time>2023-05-29T10:43:43Z</time>
      </trkpt>
      <trkpt lat="42.87555" lon="1.24165">
        <ele>806.934</ele>
        <time>2023-05-29T10:43:44Z</time>
      </trkpt>
      <trkpt lat="42.87554" lon="1.24167">
        <ele>806.964</ele>
        <time>2023-05-29T10:43:45Z</time>
      </trkpt>
      <trkpt lat="42.87554" lon="1.24169">
        <ele>806.5</ele>
        <time>2023-05-29T10:43:46Z</time>
      </trkpt>
      <trkpt lat="42.87554" lon="1.24171">
        <ele>806.777</ele>
        <time>2023-05-29T10:43:47Z</time>
      </trkpt>
      <trkpt lat="42.87554" lon="1.24174">
        <ele>806.015</ele>
        <time>2023-05-29T10:43:48Z</time>
      </trkpt>
      <trkpt lat="42.87554" lon="1.24179">
        <ele>806.453</ele>
        <time>2023-05-29T10:43:49Z</time>
      </trkpt>
      <trkpt lat="42.87553" lon="1.24185">
        <ele>806.846</ele>
        <time>2023-05-29T10:43:50Z</time>
      </trkpt>
      <trkpt lat="42.87553" lon="1.24188">
        <ele>805.836</ele>
        <time>2023-05-29T10:43:51Z</time>
      </trkpt>
      <trkpt lat="42.87552" lon="1.24192">
        <ele>806.888</ele>
        <time>2023-05-29T10:43:52Z</time>
      </trkpt>
      <trkpt lat="42.87551" lon="1.24196">
        <ele>807.682</ele>
        <time>2023-05-29T10:43:53Z</time>
      </trkpt>
      <trkpt lat="42.87551" lon="1.24201">
        <ele>806.324</ele>
        <time>2023-05-29T10:43:54Z</time>
      </trkpt>
      <trkpt lat="42.87549" lon="1.24205">
        <ele>806.379</ele>
        <time>2023-05-29T10:43:55Z</time>
      </trkpt>
      <trkpt lat="42.87548" lon="1.24209">
        <ele>806.648</ele>
        <time>2023-05-29T10:43:56Z</time>
      </trkpt>
      <trkpt lat="42.87547" lon="1.24214">
        <ele>807.335</ele>
        <time>2023-05-29T10:43:57Z</time>
      </trkpt>
      <trkpt lat="42.87547" lon="1.24218">
        <ele>807.758</ele>
        <time>2023-05-29T10:43:58Z</time>
      </trkpt>
      <trkpt lat="42.87547" lon="1.24223">
        <ele>807.093</ele>
        <time>2023-05-29T10:43:59Z</time>
      </trkpt>
      <trkpt lat="42.87546" lon="1.24228">
        <ele>805.751</ele>
        <time>2023-05-29T10:44:00Z</time>
      </trkpt>
      <trkpt lat="42.87546" lon="1.2423">
        <ele>805.206</ele>
        <time>2023-05-29T10:44:01Z</time>
      </trkpt>
      <trkpt lat="42.87545" lon="1.24234">
        <ele>806.002</ele>
        <time>2023-05-29T10:44:02Z</time>
      </trkpt>
      <trkpt lat="42.87544" lon="1.24239">
        <ele>805.653</ele>
        <time>2023-05-29T10:44:03Z</time>
      </trkpt>
      <trkpt lat="42.87544" lon="1.24244">
        <ele>804.459</ele>
        <time>2023-05-29T10:44:04Z</time>
      </trkpt>
      <trkpt lat="42.87543" lon="1.24248">
        <ele>805.382</ele>
        <time>2023-05-29T10:44:05Z</time>
      </trkpt>
      <trkpt lat="42.87543" lon="1.24252">
        <ele>804.896</ele>
        <time>2023-05-29T10:44:06Z</time>
      </trkpt>
      <trkpt lat="42.87544" lon="1.24257">
        <ele>804.909</ele>
        <time>2023-05-29T10:44:07Z</time>
      </trkpt>
      <trkpt lat="42.87544" lon="1.24261">
        <ele>805.326</ele>
        <time>2023-05-29T10:44:08Z</time>
      </trkpt>
      <trkpt lat="42.87545" lon="1.24265">
        <ele>804.699</ele>
        <time>2023-05-29T10:44:09Z</time>
      </trkpt>
      <trkpt lat="42.87547" lon="1.24269">
        <ele>804.982</ele>
        <time>2023-05-29T10:44:10Z</time>
      </trkpt>
      <trkpt lat="42.87549" lon="1.24274">
        <ele>805.055</ele>
        <time>2023-05-29T10:44:11Z</time>
      </trkpt>
      <trkpt lat="42.8755" lon="1.24278">
        <ele>804.062</ele>
        <time>2023-05-29T10:44:12Z</time>
      </trkpt>
      <trkpt lat="42.87551" lon="1.24282">
        <ele>806.051</ele>
        <time>2023-05-29T10:44:13Z</time>
      </trkpt>
      <trkpt lat="42.87551" lon="1.24287">
        <ele>806.02</ele>
        <time>2023-05-29T10:44:14Z</time>
      </trkpt>
      <trkpt lat="42.87552" lon="1.24292">
        <ele>806.922</ele>
        <time>2023-05-29T10:44:15Z</time>
      </trkpt>
      <trkpt lat="42.87553" lon="1.24296">
        <ele>807.827</ele>
        <time>2023-05-29T10:44:16Z</time>
      </trkpt>
      <trkpt lat="42.87553" lon="1.243">
        <ele>806.415</ele>
        <time>2023-05-29T10:44:17Z</time>
      </trkpt>
      <trkpt lat="42.87554" lon="1.24304">
        <ele>805.742</ele>
        <time>2023-05-29T10:44:18Z</time>
      </trkpt>
      <trkpt lat="42.87554" lon="1.24308">
        <ele>807.124</ele>
        <time>2023-05-29T10:44:19Z</time>
      </trkpt>
      <trkpt lat="42.87553" lon="1.24312">
        <ele>806.703</ele>
        <time>2023-05-29T10:44:20Z</time>
      </trkpt>
      <trkpt lat="42.87552" lon="1.24315">
        <ele>807.208</ele>
        <time>2023-05-29T10:44:21Z</time>
      </trkpt>
      <trkpt lat="42.87552" lon="1.24319">
        <ele>807.079</ele>
        <time>2023-05-29T10:44:22Z</time>
      </trkpt>
      <trkpt lat="42.87551" lon="1.24322">
        <ele>807.433</ele>
        <time>2023-05-29T10:44:23Z</time>
      </trkpt>
      <trkpt lat="42.87552" lon="1.24327">
        <ele>807.618</ele>
        <time>2023-05-29T10:44:24Z</time>
      </trkpt>
      <trkpt lat="42.87552" lon="1.24331">
        <ele>807.583</ele>
        <time>2023-05-29T10:44:25Z</time>
      </trkpt>
      <trkpt lat="42.87553" lon="1.24335">
        <ele>808.658</ele>
        <time>2023-05-29T10:44:26Z</time>
      </trkpt>
      <trkpt lat="42.87553" lon="1.24341">
        <ele>809.038</ele>
        <time>2023-05-29T10:44:27Z</time>
      </trkpt>
      <trkpt lat="42.87552" lon="1.24346">
        <ele>808.256</ele>
        <time>2023-05-29T10:44:28Z</time>
      </trkpt>
      <trkpt lat="42.87553" lon="1.24351">
        <ele>807.922</ele>
        <time>2023-05-29T10:44:29Z</time>
      </trkpt>
      <trkpt lat="42.87552" lon="1.24355">
        <ele>807.252</ele>
        <time>2023-05-29T10:44:30Z</time>
      </trkpt>
      <trkpt lat="42.87552" lon="1.24359">
        <ele>806.902</ele>
        <time>2023-05-29T10:44:31Z</time>
      </trkpt>
      <trkpt lat="42.87552" lon="1.24363">
        <ele>807.032</ele>
        <time>2023-05-29T10:44:32Z</time>
      </trkpt>
      <trkpt lat="42.87553" lon="1.24366">
        <ele>807.434</ele>
        <time>2023-05-29T10:44:33Z</time>
      </trkpt>
      <trkpt lat="42.87554" lon="1.2437">
        <ele>806.77</ele>
        <time>2023-05-29T10:44:34Z</time>
      </trkpt>
      <trkpt lat="42.87554" lon="1.24374">
        <ele>807.628</ele>
        <time>2023-05-29T10:44:35Z</time>
      </trkpt>
      <trkpt lat="42.87555" lon="1.24377">
        <ele>807.777</ele>
        <time>2023-05-29T10:44:36Z</time>
      </trkpt>
      <trkpt lat="42.87556" lon="1.24379">
        <ele>808.41</ele>
        <time>2023-05-29T10:44:37Z</time>
      </trkpt>
      <trkpt lat="42.87557" lon="1.24381">
        <ele>808.515</ele>
        <time>2023-05-29T10:44:38Z</time>
      </trkpt>
      <trkpt lat="42.87557" lon="1.24384">
        <ele>809.477</ele>
        <time>2023-05-29T10:44:39Z</time>
      </trkpt>
      <trkpt lat="42.87557" lon="1.24386">
        <ele>809.951</ele>
        <time>2023-05-29T10:44:40Z</time>
      </trkpt>
      <trkpt lat="42.87558" lon="1.24389">
        <ele>810.648</ele>
        <time>2023-05-29T10:44:41Z</time>
      </trkpt>
      <trkpt lat="42.87558" lon="1.24393">
        <ele>810.049</ele>
        <time>2023-05-29T10:44:42Z</time>
      </trkpt>
      <trkpt lat="42.87558" lon="1.24396">
        <ele>809.295</ele>
        <time>2023-05-29T10:44:43Z</time>
      </trkpt>
      <trkpt lat="42.87558" lon="1.244">
        <ele>809.766</ele>
        <time>2023-05-29T10:44:44Z</time>
      </trkpt>
      <trkpt lat="42.87559" lon="1.24404">
        <ele>809.692</ele>
        <time>2023-05-29T10:44:45Z</time>
      </trkpt>
      <trkpt lat="42.87561" lon="1.24409">
        <ele>809.058</ele>
        <time>2023-05-29T10:44:46Z</time>
      </trkpt>
      <trkpt lat="42.87562" lon="1.24414">
        <ele>808.329</ele>
        <time>2023-05-29T10:44:47Z</time>
      </trkpt>
      <trkpt lat="42.87564" lon="1.24418">
        <ele>807.592</ele>
        <time>2023-05-29T10:44:48Z</time>
      </trkpt>
      <trkpt lat="42.87564" lon="1.24422">
        <ele>807.282</ele>
        <time>2023-05-29T10:44:49Z</time>
      </trkpt>
      <trkpt lat="42.87566" lon="1.24426">
        <ele>806.359</ele>
        <time>2023-05-29T10:44:50Z</time>
      </trkpt>
      <trkpt lat="42.87567" lon="1.2443">
        <ele>805.941</ele>
        <time>2023-05-29T10:44:51Z</time>
      </trkpt>
      <trkpt lat="42.87569" lon="1.24434">
        <ele>805.55</ele>
        <time>2023-05-29T10:44:52Z</time>
      </trkpt>
      <trkpt lat="42.87571" lon="1.24438">
        <ele>803.348</ele>
        <time>2023-05-29T10:44:53Z</time>
      </trkpt>
      <trkpt lat="42.87572" lon="1.24441">
        <ele>804.177</ele>
        <time>2023-05-29T10:44:54Z</time>
      </trkpt>
      <trkpt lat="42.87573" lon="1.24443">
        <ele>804.954</ele>
        <time>2023-05-29T10:44:55Z</time>
      </trkpt>
      <trkpt lat="42.87574" lon="1.24446">
        <ele>805.965</ele>
        <time>2023-05-29T10:44:56Z</time>
      </trkpt>
      <trkpt lat="42.87575" lon="1.24448">
        <ele>806.815</ele>
        <time>2023-05-29T10:44:57Z</time>
      </trkpt>
      <trkpt lat="42.87576" lon="1.24451">
        <ele>807.276</ele>
        <time>2023-05-29T10:44:58Z</time>
      </trkpt>
      <trkpt lat="42.87576" lon="1.24455">
        <ele>808.687</ele>
        <time>2023-05-29T10:44:59Z</time>
      </trkpt>
      <trkpt lat="42.87576" lon="1.24459">
        <ele>809.093</ele>
        <time>2023-05-29T10:45:00Z</time>
      </trkpt>
      <trkpt lat="42.87577" lon="1.24463">
        <ele>809.45</ele>
        <time>2023-05-29T10:45:01Z</time>
      </trkpt>
      <trkpt lat="42.87578" lon="1.24467">
        <ele>809.489</ele>
        <time>2023-05-29T10:45:02Z</time>
      </trkpt>
      <trkpt lat="42.87579" lon="1.2447">
        <ele>810.517</ele>
        <time>2023-05-29T10:45:03Z</time>
      </trkpt>
      <trkpt lat="42.87581" lon="1.24473">
        <ele>809.554</ele>
        <time>2023-05-29T10:45:04Z</time>
      </trkpt>
      <trkpt lat="42.87582" lon="1.24476">
        <ele>809.906</ele>
        <time>2023-05-29T10:45:05Z</time>
      </trkpt>
      <trkpt lat="42.87583" lon="1.24479">
        <ele>810.075</ele>
        <time>2023-05-29T10:45:06Z</time>
      </trkpt>
      <trkpt lat="42.87584" lon="1.24482">
        <ele>809.646</ele>
        <time>2023-05-29T10:45:07Z</time>
      </trkpt>
      <trkpt lat="42.87584" lon="1.24485">
        <ele>810.61</ele>
        <time>2023-05-29T10:45:08Z</time>
      </trkpt>
      <trkpt lat="42.87585" lon="1.24488">
        <ele>812.556</ele>
        <time>2023-05-29T10:45:09Z</time>
      </trkpt>
      <trkpt lat="42.87585" lon="1.24491">
        <ele>814.218</ele>
        <time>2023-05-29T10:45:10Z</time>
      </trkpt>
      <trkpt lat="42.87585" lon="1.24495">
        <ele>814.93</ele>
        <time>2023-05-29T10:45:11Z</time>
      </trkpt>
      <trkpt lat="42.87586" lon="1.24499">
        <ele>815.773</ele>
        <time>2023-05-29T10:45:12Z</time>
      </trkpt>
      <trkpt lat="42.87587" lon="1.24503">
        <ele>815.469</ele>
        <time>2023-05-29T10:45:13Z</time>
      </trkpt>
      <trkpt lat="42.87588" lon="1.24507">
        <ele>815.141</ele>
        <time>2023-05-29T10:45:14Z</time>
      </trkpt>
      <trkpt lat="42.87588" lon="1.24511">
        <ele>815.416</ele>
        <time>2023-05-29T10:45:15Z</time>
      </trkpt>
      <trkpt lat="42.87588" lon="1.24515">
        <ele>816.157</ele>
        <time>2023-05-29T10:45:16Z</time>
      </trkpt>
      <trkpt lat="42.87589" lon="1.24518">
        <ele>816.86</ele>
        <time>2023-05-29T10:45:17Z</time>
      </trkpt>
      <trkpt lat="42.8759" lon="1.24522">
        <ele>817.002</ele>
        <time>2023-05-29T10:45:18Z</time>
      </trkpt>
      <trkpt lat="42.87592" lon="1.24525">
        <ele>817.134</ele>
        <time>2023-05-29T10:45:19Z</time>
      </trkpt>
      <trkpt lat="42.87594" lon="1.24528">
        <ele>817.369</ele>
        <time>2023-05-29T10:45:20Z</time>
      </trkpt>
      <trkpt lat="42.87596" lon="1.2453">
        <ele>817.358</ele>
        <time>2023-05-29T10:45:21Z</time>
      </trkpt>
      <trkpt lat="42.87598" lon="1.24533">
        <ele>817.036</ele>
        <time>2023-05-29T10:45:22Z</time>
      </trkpt>
      <trkpt lat="42.87599" lon="1.24536">
        <ele>817.703</ele>
        <time>2023-05-29T10:45:23Z</time>
      </trkpt>
      <trkpt lat="42.87601" lon="1.24539">
        <ele>817.705</ele>
        <time>2023-05-29T10:45:24Z</time>
      </trkpt>
      <trkpt lat="42.87603" lon="1.24541">
        <ele>818.478</ele>
        <time>2023-05-29T10:45:25Z</time>
      </trkpt>
      <trkpt lat="42.87604" lon="1.24543">
        <ele>819.179</ele>
        <time>2023-05-29T10:45:26Z</time>
      </trkpt>
      <trkpt lat="42.87606" lon="1.24546">
        <ele>819.357</ele>
        <time>2023-05-29T10:45:27Z</time>
      </trkpt>
      <trkpt lat="42.87608" lon="1.24548">
        <ele>819.92</ele>
        <time>2023-05-29T10:45:28Z</time>
      </trkpt>
      <trkpt lat="42.8761" lon="1.24551">
        <ele>820.294</ele>
        <time>2023-05-29T10:45:29Z</time>
      </trkpt>
      <trkpt lat="42.87611" lon="1.24556">
        <ele>821.302</ele>
        <time>2023-05-29T10:45:30Z</time>
      </trkpt>
      <trkpt lat="42.87613" lon="1.2456">
        <ele>821.602</ele>
        <time>2023-05-29T10:45:31Z</time>
      </trkpt>
      <trkpt lat="42.87614" lon="1.24564">
        <ele>822.238</ele>
        <time>2023-05-29T10:45:32Z</time>
      </trkpt>
      <trkpt lat="42.87614" lon="1.24568">
        <ele>822.091</ele>
        <time>2023-05-29T10:45:33Z</time>
      </trkpt>
      <trkpt lat="42.87614" lon="1.24572">
        <ele>823.503</ele>
        <time>2023-05-29T10:45:34Z</time>
      </trkpt>
      <trkpt lat="42.87614" lon="1.24575">
        <ele>825.238</ele>
        <time>2023-05-29T10:45:35Z</time>
      </trkpt>
      <trkpt lat="42.87614" lon="1.24578">
        <ele>825.812</ele>
        <time>2023-05-29T10:45:36Z</time>
      </trkpt>
      <trkpt lat="42.87615" lon="1.24582">
        <ele>826.248</ele>
        <time>2023-05-29T10:45:37Z</time>
      </trkpt>
      <trkpt lat="42.87617" lon="1.24585">
        <ele>826.043</ele>
        <time>2023-05-29T10:45:38Z</time>
      </trkpt>
      <trkpt lat="42.87617" lon="1.24588">
        <ele>826.553</ele>
        <time>2023-05-29T10:45:39Z</time>
      </trkpt>
      <trkpt lat="42.87619" lon="1.24591">
        <ele>826.39</ele>
        <time>2023-05-29T10:45:40Z</time>
      </trkpt>
      <trkpt lat="42.8762" lon="1.24594">
        <ele>827.484</ele>
        <time>2023-05-29T10:45:41Z</time>
      </trkpt>
      <trkpt lat="42.87621" lon="1.24597">
        <ele>829.018</ele>
        <time>2023-05-29T10:45:42Z</time>
      </trkpt>
      <trkpt lat="42.87621" lon="1.246">
        <ele>828.772</ele>
        <time>2023-05-29T10:45:43Z</time>
      </trkpt>
      <trkpt lat="42.87622" lon="1.24603">
        <ele>827.515</ele>
        <time>2023-05-29T10:45:44Z</time>
      </trkpt>
      <trkpt lat="42.87622" lon="1.24605">
        <ele>828.372</ele>
        <time>2023-05-29T10:45:45Z</time>
      </trkpt>
      <trkpt lat="42.87621" lon="1.24608">
        <ele>828.371</ele>
        <time>2023-05-29T10:45:46Z</time>
      </trkpt>
      <trkpt lat="42.87621" lon="1.2461">
        <ele>827.41</ele>
        <time>2023-05-29T10:45:47Z</time>
      </trkpt>
      <trkpt lat="42.87621" lon="1.24611">
        <ele>827.526</ele>
        <time>2023-05-29T10:45:48Z</time>
      </trkpt>
      <trkpt lat="42.87621" lon="1.24614">
        <ele>827.242</ele>
        <time>2023-05-29T10:45:49Z</time>
      </trkpt>
      <trkpt lat="42.87623" lon="1.24614">
        <ele>827.058</ele>
        <time>2023-05-29T10:45:50Z</time>
      </trkpt>
      <trkpt lat="42.87626" lon="1.24614">
        <ele>827.388</ele>
        <time>2023-05-29T10:45:51Z</time>
      </trkpt>
      <trkpt lat="42.87628" lon="1.24614">
        <ele>827.317</ele>
        <time>2023-05-29T10:45:52Z</time>
      </trkpt>
      <trkpt lat="42.87629" lon="1.24614">
        <ele>827.319</ele>
        <time>2023-05-29T10:45:53Z</time>
      </trkpt>
      <trkpt lat="42.87629" lon="1.24615">
        <ele>827.315</ele>
        <time>2023-05-29T10:45:54Z</time>
      </trkpt>
      <trkpt lat="42.87629" lon="1.24615">
        <ele>827.317</ele>
        <time>2023-05-29T10:45:55Z</time>
      </trkpt>
      <trkpt lat="42.87629" lon="1.24615">
        <ele>827.319</ele>
        <time>2023-05-29T10:45:56Z</time>
      </trkpt>
      <trkpt lat="42.87629" lon="1.24615">
        <ele>827.319</ele>
        <time>2023-05-29T10:45:57Z</time>
      </trkpt>
      <trkpt lat="42.87629" lon="1.24615">
        <ele>827.319</ele>
        <time>2023-05-29T10:45:58Z</time>
      </trkpt>
      <trkpt lat="42.87629" lon="1.24615">
        <ele>827.317</ele>
        <time>2023-05-29T10:45:59Z</time>
      </trkpt>
      <trkpt lat="42.87629" lon="1.24614">
        <ele>827.39</ele>
        <time>2023-05-29T10:46:00Z</time>
      </trkpt>
      <trkpt lat="42.87629" lon="1.24614">
        <ele>827.522</ele>
        <time>2023-05-29T10:46:01Z</time>
      </trkpt>
      <trkpt lat="42.87629" lon="1.24614">
        <ele>827.503</ele>
        <time>2023-05-29T10:46:02Z</time>
      </trkpt>
      <trkpt lat="42.87629" lon="1.24614">
        <ele>827.507</ele>
        <time>2023-05-29T10:46:03Z</time>
      </trkpt>
      <trkpt lat="42.87629" lon="1.24614">
        <ele>827.504</ele>
        <time>2023-05-29T10:46:04Z</time>
      </trkpt>
      <trkpt lat="42.87629" lon="1.24614">
        <ele>827.509</ele>
        <time>2023-05-29T10:46:05Z</time>
      </trkpt>
      <trkpt lat="42.87629" lon="1.24614">
        <ele>827.509</ele>
        <time>2023-05-29T10:46:06Z</time>
      </trkpt>
      <trkpt lat="42.87629" lon="1.24614">
        <ele>827.51</ele>
        <time>2023-05-29T10:46:07Z</time>
      </trkpt>
      <trkpt lat="42.87629" lon="1.24614">
        <ele>827.511</ele>
        <time>2023-05-29T10:46:08Z</time>
      </trkpt>
      <trkpt lat="42.87629" lon="1.24614">
        <ele>827.508</ele>
        <time>2023-05-29T10:46:09Z</time>
      </trkpt>
      <trkpt lat="42.87629" lon="1.24614">
        <ele>827.511</ele>
        <time>2023-05-29T10:46:10Z</time>
      </trkpt>
      <trkpt lat="42.87629" lon="1.24614">
        <ele>827.514</ele>
        <time>2023-05-29T10:46:11Z</time>
      </trkpt>
      <trkpt lat="42.87629" lon="1.24614">
        <ele>827.517</ele>
        <time>2023-05-29T10:46:12Z</time>
      </trkpt>
      <trkpt lat="42.87629" lon="1.24614">
        <ele>827.518</ele>
        <time>2023-05-29T10:46:13Z</time>
      </trkpt>
      <trkpt lat="42.87629" lon="1.24614">
        <ele>827.52</ele>
        <time>2023-05-29T10:46:14Z</time>
      </trkpt>
      <trkpt lat="42.87629" lon="1.24614">
        <ele>827.524</ele>
        <time>2023-05-29T10:46:15Z</time>
      </trkpt>
      <trkpt lat="42.87629" lon="1.24614">
        <ele>827.527</ele>
        <time>2023-05-29T10:46:16Z</time>
      </trkpt>
      <trkpt lat="42.87629" lon="1.24614">
        <ele>827.529</ele>
        <time>2023-05-29T10:46:17Z</time>
      </trkpt>
      <trkpt lat="42.87629" lon="1.24614">
        <ele>827.532</ele>
        <time>2023-05-29T10:46:18Z</time>
      </trkpt>
      <trkpt lat="42.87629" lon="1.24614">
        <ele>827.533</ele>
        <time>2023-05-29T10:46:19Z</time>
      </trkpt>
      <trkpt lat="42.87629" lon="1.24614">
        <ele>827.53</ele>
        <time>2023-05-29T10:46:20Z</time>
      </trkpt>
      <trkpt lat="42.87629" lon="1.24614">
        <ele>827.53</ele>
        <time>2023-05-29T10:46:21Z</time>
      </trkpt>
      <trkpt lat="42.87629" lon="1.24614">
        <ele>827.532</ele>
        <time>2023-05-29T10:46:22Z</time>
      </trkpt>
      <trkpt lat="42.87629" lon="1.24614">
        <ele>827.534</ele>
        <time>2023-05-29T10:46:23Z</time>
      </trkpt>
      <trkpt lat="42.87629" lon="1.24614">
        <ele>827.536</ele>
        <time>2023-05-29T10:46:24Z</time>
      </trkpt>
      <trkpt lat="42.87629" lon="1.24614">
        <ele>827.541</ele>
        <time>2023-05-29T10:46:25Z</time>
      </trkpt>
      <trkpt lat="42.87629" lon="1.24614">
        <ele>827.545</ele>
        <time>2023-05-29T10:46:26Z</time>
      </trkpt>
      <trkpt lat="42.87629" lon="1.24614">
        <ele>827.552</ele>
        <time>2023-05-29T10:46:27Z</time>
      </trkpt>
      <trkpt lat="42.87629" lon="1.24614">
        <ele>827.556</ele>
        <time>2023-05-29T10:46:28Z</time>
      </trkpt>
      <trkpt lat="42.87629" lon="1.24614">
        <ele>827.557</ele>
        <time>2023-05-29T10:46:29Z</time>
      </trkpt>
      <trkpt lat="42.87629" lon="1.24614">
        <ele>827.56</ele>
        <time>2023-05-29T10:46:30Z</time>
      </trkpt>
      <trkpt lat="42.87629" lon="1.24614">
        <ele>827.561</ele>
        <time>2023-05-29T10:46:31Z</time>
      </trkpt>
      <trkpt lat="42.87629" lon="1.24614">
        <ele>827.566</ele>
        <time>2023-05-29T10:46:32Z</time>
      </trkpt>
      <trkpt lat="42.87629" lon="1.24614">
        <ele>827.572</ele>
        <time>2023-05-29T10:46:33Z</time>
      </trkpt>
      <trkpt lat="42.87629" lon="1.24614">
        <ele>827.571</ele>
        <time>2023-05-29T10:46:34Z</time>
      </trkpt>
      <trkpt lat="42.87629" lon="1.24614">
        <ele>827.573</ele>
        <time>2023-05-29T10:46:35Z</time>
      </trkpt>
      <trkpt lat="42.87629" lon="1.24614">
        <ele>827.573</ele>
        <time>2023-05-29T10:46:36Z</time>
      </trkpt>
      <trkpt lat="42.87629" lon="1.24614">
        <ele>827.568</ele>
        <time>2023-05-29T10:46:37Z</time>
      </trkpt>
      <trkpt lat="42.87629" lon="1.24614">
        <ele>827.568</ele>
        <time>2023-05-29T10:46:38Z</time>
      </trkpt>
      <trkpt lat="42.87629" lon="1.24614">
        <ele>827.57</ele>
        <time>2023-05-29T10:46:39Z</time>
      </trkpt>
      <trkpt lat="42.87629" lon="1.24614">
        <ele>827.569</ele>
        <time>2023-05-29T10:46:40Z</time>
      </trkpt>
      <trkpt lat="42.87629" lon="1.24614">
        <ele>827.572</ele>
        <time>2023-05-29T10:46:41Z</time>
      </trkpt>
      <trkpt lat="42.87629" lon="1.24614">
        <ele>827.573</ele>
        <time>2023-05-29T10:46:42Z</time>
      </trkpt>
      <trkpt lat="42.87629" lon="1.24614">
        <ele>827.575</ele>
        <time>2023-05-29T10:46:43Z</time>
      </trkpt>
      <trkpt lat="42.87629" lon="1.24614">
        <ele>827.578</ele>
        <time>2023-05-29T10:46:44Z</time>
      </trkpt>
      <trkpt lat="42.87629" lon="1.24614">
        <ele>827.577</ele>
        <time>2023-05-29T10:46:45Z</time>
      </trkpt>
      <trkpt lat="42.87629" lon="1.24614">
        <ele>827.581</ele>
        <time>2023-05-29T10:46:46Z</time>
      </trkpt>
      <trkpt lat="42.87629" lon="1.24614">
        <ele>827.578</ele>
        <time>2023-05-29T10:46:47Z</time>
      </trkpt>
      <trkpt lat="42.87629" lon="1.24614">
        <ele>827.581</ele>
        <time>2023-05-29T10:46:48Z</time>
      </trkpt>
      <trkpt lat="42.87629" lon="1.24614">
        <ele>827.582</ele>
        <time>2023-05-29T10:46:49Z</time>
      </trkpt>
      <trkpt lat="42.87629" lon="1.24614">
        <ele>827.581</ele>
        <time>2023-05-29T10:46:50Z</time>
      </trkpt>
      <trkpt lat="42.87629" lon="1.24614">
        <ele>827.584</ele>
        <time>2023-05-29T10:46:51Z</time>
      </trkpt>
      <trkpt lat="42.87629" lon="1.24614">
        <ele>827.583</ele>
        <time>2023-05-29T10:46:52Z</time>
      </trkpt>
      <trkpt lat="42.87629" lon="1.24614">
        <ele>827.462</ele>
        <time>2023-05-29T10:46:53Z</time>
      </trkpt>
      <trkpt lat="42.87629" lon="1.24614">
        <ele>827.774</ele>
        <time>2023-05-29T10:46:54Z</time>
      </trkpt>
      <trkpt lat="42.87629" lon="1.24614">
        <ele>827.806</ele>
        <time>2023-05-29T10:46:55Z</time>
      </trkpt>
      <trkpt lat="42.87629" lon="1.24614">
        <ele>827.805</ele>
        <time>2023-05-29T10:46:56Z</time>
      </trkpt>
      <trkpt lat="42.87629" lon="1.24614">
        <ele>827.806</ele>
        <time>2023-05-29T10:46:57Z</time>
      </trkpt>
      <trkpt lat="42.87629" lon="1.24614">
        <ele>827.807</ele>
        <time>2023-05-29T10:46:58Z</time>
      </trkpt>
      <trkpt lat="42.87629" lon="1.24614">
        <ele>827.805</ele>
        <time>2023-05-29T10:46:59Z</time>
      </trkpt>
      <trkpt lat="42.87629" lon="1.24614">
        <ele>827.811</ele>
        <time>2023-05-29T10:47:00Z</time>
      </trkpt>
      <trkpt lat="42.87629" lon="1.24614">
        <ele>827.815</ele>
        <time>2023-05-29T10:47:01Z</time>
      </trkpt>
      <trkpt lat="42.87629" lon="1.24614">
        <ele>827.816</ele>
        <time>2023-05-29T10:47:02Z</time>
      </trkpt>
      <trkpt lat="42.87629" lon="1.24614">
        <ele>827.815</ele>
        <time>2023-05-29T10:47:03Z</time>
      </trkpt>
      <trkpt lat="42.87629" lon="1.24614">
        <ele>827.816</ele>
        <time>2023-05-29T10:47:04Z</time>
      </trkpt>
      <trkpt lat="42.87629" lon="1.24614">
        <ele>827.824</ele>
        <time>2023-05-29T10:47:05Z</time>
      </trkpt>
      <trkpt lat="42.87629" lon="1.24614">
        <ele>827.828</ele>
        <time>2023-05-29T10:47:06Z</time>
      </trkpt>
      <trkpt lat="42.87629" lon="1.24614">
        <ele>827.831</ele>
        <time>2023-05-29T10:47:07Z</time>
      </trkpt>
      <trkpt lat="42.87629" lon="1.24614">
        <ele>827.84</ele>
        <time>2023-05-29T10:47:08Z</time>
      </trkpt>
      <trkpt lat="42.87629" lon="1.24614">
        <ele>827.845</ele>
        <time>2023-05-29T10:47:09Z</time>
      </trkpt>
      <trkpt lat="42.87629" lon="1.24614">
        <ele>827.847</ele>
        <time>2023-05-29T10:47:10Z</time>
      </trkpt>
      <trkpt lat="42.87629" lon="1.24614">
        <ele>827.853</ele>
        <time>2023-05-29T10:47:11Z</time>
      </trkpt>
      <trkpt lat="42.87629" lon="1.24614">
        <ele>827.863</ele>
        <time>2023-05-29T10:47:12Z</time>
      </trkpt>
      <trkpt lat="42.87629" lon="1.24614">
        <ele>827.866</ele>
        <time>2023-05-29T10:47:13Z</time>
      </trkpt>
      <trkpt lat="42.87629" lon="1.24614">
        <ele>827.871</ele>
        <time>2023-05-29T10:47:14Z</time>
      </trkpt>
      <trkpt lat="42.87629" lon="1.24614">
        <ele>827.876</ele>
        <time>2023-05-29T10:47:15Z</time>
      </trkpt>
      <trkpt lat="42.87629" lon="1.24614">
        <ele>827.881</ele>
        <time>2023-05-29T10:47:16Z</time>
      </trkpt>
      <trkpt lat="42.87629" lon="1.24614">
        <ele>827.881</ele>
        <time>2023-05-29T10:47:17Z</time>
      </trkpt>
      <trkpt lat="42.87629" lon="1.24614">
        <ele>827.881</ele>
        <time>2023-05-29T10:47:18Z</time>
      </trkpt>
      <trkpt lat="42.87629" lon="1.24614">
        <ele>827.883</ele>
        <time>2023-05-29T10:47:19Z</time>
      </trkpt>
      <trkpt lat="42.87629" lon="1.24614">
        <ele>827.885</ele>
        <time>2023-05-29T10:47:20Z</time>
      </trkpt>
      <trkpt lat="42.87629" lon="1.24614">
        <ele>827.888</ele>
        <time>2023-05-29T10:47:21Z</time>
      </trkpt>
      <trkpt lat="42.87629" lon="1.24614">
        <ele>827.891</ele>
        <time>2023-05-29T10:47:22Z</time>
      </trkpt>
      <trkpt lat="42.87629" lon="1.24614">
        <ele>827.901</ele>
        <time>2023-05-29T10:47:23Z</time>
      </trkpt>
      <trkpt lat="42.87629" lon="1.24614">
        <ele>827.905</ele>
        <time>2023-05-29T10:47:24Z</time>
      </trkpt>
      <trkpt lat="42.87629" lon="1.24614">
        <ele>827.911</ele>
        <time>2023-05-29T10:47:25Z</time>
      </trkpt>
      <trkpt lat="42.8763" lon="1.24613">
        <ele>828.276</ele>
        <time>2023-05-29T10:47:26Z</time>
      </trkpt>
      <trkpt lat="42.8763" lon="1.24613">
        <ele>829.212</ele>
        <time>2023-05-29T10:47:27Z</time>
      </trkpt>
      <trkpt lat="42.8763" lon="1.24613">
        <ele>829.239</ele>
        <time>2023-05-29T10:47:28Z</time>
      </trkpt>
      <trkpt lat="42.8763" lon="1.24613">
        <ele>829.247</ele>
        <time>2023-05-29T10:47:29Z</time>
      </trkpt>
      <trkpt lat="42.8763" lon="1.24613">
        <ele>829.254</ele>
        <time>2023-05-29T10:47:30Z</time>
      </trkpt>
      <trkpt lat="42.8763" lon="1.24613">
        <ele>829.259</ele>
        <time>2023-05-29T10:47:31Z</time>
      </trkpt>
      <trkpt lat="42.8763" lon="1.24613">
        <ele>829.268</ele>
        <time>2023-05-29T10:47:32Z</time>
      </trkpt>
      <trkpt lat="42.8763" lon="1.24613">
        <ele>829.269</ele>
        <time>2023-05-29T10:47:33Z</time>
      </trkpt>
      <trkpt lat="42.8763" lon="1.24613">
        <ele>829.278</ele>
        <time>2023-05-29T10:47:34Z</time>
      </trkpt>
      <trkpt lat="42.8763" lon="1.24613">
        <ele>829.288</ele>
        <time>2023-05-29T10:47:35Z</time>
      </trkpt>
      <trkpt lat="42.8763" lon="1.24613">
        <ele>829.282</ele>
        <time>2023-05-29T10:47:36Z</time>
      </trkpt>
      <trkpt lat="42.8763" lon="1.24613">
        <ele>829.281</ele>
        <time>2023-05-29T10:47:37Z</time>
      </trkpt>
      <trkpt lat="42.8763" lon="1.24613">
        <ele>829.307</ele>
        <time>2023-05-29T10:47:38Z</time>
      </trkpt>
      <trkpt lat="42.8763" lon="1.24613">
        <ele>829.375</ele>
        <time>2023-05-29T10:47:39Z</time>
      </trkpt>
      <trkpt lat="42.8763" lon="1.24613">
        <ele>829.376</ele>
        <time>2023-05-29T10:47:40Z</time>
      </trkpt>
      <trkpt lat="42.8763" lon="1.24613">
        <ele>829.373</ele>
        <time>2023-05-29T10:47:41Z</time>
      </trkpt>
      <trkpt lat="42.8763" lon="1.24613">
        <ele>829.106</ele>
        <time>2023-05-29T10:47:42Z</time>
      </trkpt>
      <trkpt lat="42.87631" lon="1.24612">
        <ele>828.731</ele>
        <time>2023-05-29T10:47:43Z</time>
      </trkpt>
      <trkpt lat="42.87632" lon="1.24612">
        <ele>829.02</ele>
        <time>2023-05-29T10:47:44Z</time>
      </trkpt>
      <trkpt lat="42.87634" lon="1.24612">
        <ele>829.52</ele>
        <time>2023-05-29T10:47:45Z</time>
      </trkpt>
      <trkpt lat="42.87635" lon="1.2461">
        <ele>830.023</ele>
        <time>2023-05-29T10:47:46Z</time>
      </trkpt>
      <trkpt lat="42.87638" lon="1.24607">
        <ele>831.582</ele>
        <time>2023-05-29T10:47:47Z</time>
      </trkpt>
      <trkpt lat="42.87641" lon="1.24604">
        <ele>831.379</ele>
        <time>2023-05-29T10:47:48Z</time>
      </trkpt>
      <trkpt lat="42.87644" lon="1.24601">
        <ele>831.087</ele>
        <time>2023-05-29T10:47:49Z</time>
      </trkpt>
      <trkpt lat="42.87647" lon="1.24599">
        <ele>830.947</ele>
        <time>2023-05-29T10:47:50Z</time>
      </trkpt>
      <trkpt lat="42.87651" lon="1.24594">
        <ele>831.238</ele>
        <time>2023-05-29T10:47:51Z</time>
      </trkpt>
      <trkpt lat="42.87657" lon="1.24588">
        <ele>839.904</ele>
        <time>2023-05-29T10:47:52Z</time>
      </trkpt>
      <trkpt lat="42.87661" lon="1.24584">
        <ele>839.013</ele>
        <time>2023-05-29T10:47:53Z</time>
      </trkpt>
      <trkpt lat="42.87667" lon="1.2458">
        <ele>837.295</ele>
        <time>2023-05-29T10:47:54Z</time>
      </trkpt>
      <trkpt lat="42.87671" lon="1.24577">
        <ele>836.514</ele>
        <time>2023-05-29T10:47:55Z</time>
      </trkpt>
      <trkpt lat="42.87674" lon="1.24574">
        <ele>835.972</ele>
        <time>2023-05-29T10:47:56Z</time>
      </trkpt>
      <trkpt lat="42.87679" lon="1.24572">
        <ele>835.297</ele>
        <time>2023-05-29T10:47:57Z</time>
      </trkpt>
      <trkpt lat="42.87681" lon="1.2457">
        <ele>835.354</ele>
        <time>2023-05-29T10:47:58Z</time>
      </trkpt>
      <trkpt lat="42.87683" lon="1.24567">
        <ele>835.318</ele>
        <time>2023-05-29T10:47:59Z</time>
      </trkpt>
      <trkpt lat="42.87686" lon="1.24564">
        <ele>832.902</ele>
        <time>2023-05-29T10:48:00Z</time>
      </trkpt>
      <trkpt lat="42.87689" lon="1.24561">
        <ele>831.361</ele>
        <time>2023-05-29T10:48:01Z</time>
      </trkpt>
      <trkpt lat="42.87693" lon="1.2456">
        <ele>830.922</ele>
        <time>2023-05-29T10:48:02Z</time>
      </trkpt>
      <trkpt lat="42.87697" lon="1.24558">
        <ele>832.214</ele>
        <time>2023-05-29T10:48:03Z</time>
      </trkpt>
      <trkpt lat="42.877" lon="1.24555">
        <ele>830.949</ele>
        <time>2023-05-29T10:48:04Z</time>
      </trkpt>
      <trkpt lat="42.87703" lon="1.24553">
        <ele>829.724</ele>
        <time>2023-05-29T10:48:05Z</time>
      </trkpt>
      <trkpt lat="42.87705" lon="1.24551">
        <ele>828.556</ele>
        <time>2023-05-29T10:48:06Z</time>
      </trkpt>
      <trkpt lat="42.87708" lon="1.24548">
        <ele>826.876</ele>
        <time>2023-05-29T10:48:07Z</time>
      </trkpt>
      <trkpt lat="42.8771" lon="1.24544">
        <ele>823.76</ele>
        <time>2023-05-29T10:48:08Z</time>
      </trkpt>
      <trkpt lat="42.87713" lon="1.2454">
        <ele>822.574</ele>
        <time>2023-05-29T10:48:09Z</time>
      </trkpt>
      <trkpt lat="42.87715" lon="1.24537">
        <ele>822.027</ele>
        <time>2023-05-29T10:48:10Z</time>
      </trkpt>
      <trkpt lat="42.87716" lon="1.24534">
        <ele>819.747</ele>
        <time>2023-05-29T10:48:11Z</time>
      </trkpt>
      <trkpt lat="42.87718" lon="1.24531">
        <ele>819.751</ele>
        <time>2023-05-29T10:48:12Z</time>
      </trkpt>
      <trkpt lat="42.87721" lon="1.24528">
        <ele>819.749</ele>
        <time>2023-05-29T10:48:13Z</time>
      </trkpt>
      <trkpt lat="42.87724" lon="1.24526">
        <ele>819.598</ele>
        <time>2023-05-29T10:48:14Z</time>
      </trkpt>
      <trkpt lat="42.87727" lon="1.24524">
        <ele>817.901</ele>
        <time>2023-05-29T10:48:15Z</time>
      </trkpt>
      <trkpt lat="42.87731" lon="1.24521">
        <ele>815.372</ele>
        <time>2023-05-29T10:48:16Z</time>
      </trkpt>
      <trkpt lat="42.87734" lon="1.24517">
        <ele>813.673</ele>
        <time>2023-05-29T10:48:17Z</time>
      </trkpt>
      <trkpt lat="42.87737" lon="1.24514">
        <ele>813.021</ele>
        <time>2023-05-29T10:48:18Z</time>
      </trkpt>
      <trkpt lat="42.8774" lon="1.24511">
        <ele>812.029</ele>
        <time>2023-05-29T10:48:19Z</time>
      </trkpt>
      <trkpt lat="42.87742" lon="1.24508">
        <ele>810.144</ele>
        <time>2023-05-29T10:48:20Z</time>
      </trkpt>
      <trkpt lat="42.87745" lon="1.24504">
        <ele>809.693</ele>
        <time>2023-05-29T10:48:21Z</time>
      </trkpt>
      <trkpt lat="42.87747" lon="1.245">
        <ele>810.54</ele>
        <time>2023-05-29T10:48:22Z</time>
      </trkpt>
      <trkpt lat="42.87748" lon="1.24497">
        <ele>810.578</ele>
        <time>2023-05-29T10:48:23Z</time>
      </trkpt>
      <trkpt lat="42.87749" lon="1.24495">
        <ele>810.71</ele>
        <time>2023-05-29T10:48:24Z</time>
      </trkpt>
      <trkpt lat="42.87752" lon="1.24491">
        <ele>811.15</ele>
        <time>2023-05-29T10:48:25Z</time>
      </trkpt>
      <trkpt lat="42.87753" lon="1.24488">
        <ele>810.737</ele>
        <time>2023-05-29T10:48:26Z</time>
      </trkpt>
      <trkpt lat="42.87755" lon="1.24485">
        <ele>811.136</ele>
        <time>2023-05-29T10:48:27Z</time>
      </trkpt>
      <trkpt lat="42.87758" lon="1.24482">
        <ele>811.523</ele>
        <time>2023-05-29T10:48:28Z</time>
      </trkpt>
      <trkpt lat="42.8776" lon="1.24478">
        <ele>810.33</ele>
        <time>2023-05-29T10:48:29Z</time>
      </trkpt>
      <trkpt lat="42.87763" lon="1.24475">
        <ele>810.165</ele>
        <time>2023-05-29T10:48:30Z</time>
      </trkpt>
      <trkpt lat="42.87766" lon="1.24471">
        <ele>810.187</ele>
        <time>2023-05-29T10:48:31Z</time>
      </trkpt>
      <trkpt lat="42.87769" lon="1.24466">
        <ele>809.379</ele>
        <time>2023-05-29T10:48:32Z</time>
      </trkpt>
      <trkpt lat="42.87772" lon="1.24462">
        <ele>810.577</ele>
        <time>2023-05-29T10:48:33Z</time>
      </trkpt>
      <trkpt lat="42.87775" lon="1.24459">
        <ele>811.563</ele>
        <time>2023-05-29T10:48:34Z</time>
      </trkpt>
      <trkpt lat="42.87777" lon="1.24457">
        <ele>811.405</ele>
        <time>2023-05-29T10:48:35Z</time>
      </trkpt>
      <trkpt lat="42.87781" lon="1.24454">
        <ele>811.645</ele>
        <time>2023-05-29T10:48:36Z</time>
      </trkpt>
      <trkpt lat="42.87784" lon="1.24451">
        <ele>811.815</ele>
        <time>2023-05-29T10:48:37Z</time>
      </trkpt>
      <trkpt lat="42.87788" lon="1.24449">
        <ele>811.304</ele>
        <time>2023-05-29T10:48:38Z</time>
      </trkpt>
      <trkpt lat="42.8779" lon="1.24445">
        <ele>811.365</ele>
        <time>2023-05-29T10:48:39Z</time>
      </trkpt>
      <trkpt lat="42.87792" lon="1.2444">
        <ele>810.472</ele>
        <time>2023-05-29T10:48:40Z</time>
      </trkpt>
      <trkpt lat="42.87795" lon="1.24435">
        <ele>810.536</ele>
        <time>2023-05-29T10:48:41Z</time>
      </trkpt>
      <trkpt lat="42.87798" lon="1.24431">
        <ele>808.73</ele>
        <time>2023-05-29T10:48:42Z</time>
      </trkpt>
      <trkpt lat="42.878" lon="1.24425">
        <ele>808.462</ele>
        <time>2023-05-29T10:48:43Z</time>
      </trkpt>
      <trkpt lat="42.87802" lon="1.24421">
        <ele>808.49</ele>
        <time>2023-05-29T10:48:44Z</time>
      </trkpt>
      <trkpt lat="42.87804" lon="1.24417">
        <ele>808.591</ele>
        <time>2023-05-29T10:48:45Z</time>
      </trkpt>
      <trkpt lat="42.87808" lon="1.24413">
        <ele>808.314</ele>
        <time>2023-05-29T10:48:46Z</time>
      </trkpt>
      <trkpt lat="42.87809" lon="1.24408">
        <ele>807.516</ele>
        <time>2023-05-29T10:48:47Z</time>
      </trkpt>
      <trkpt lat="42.87811" lon="1.24405">
        <ele>808.97</ele>
        <time>2023-05-29T10:48:48Z</time>
      </trkpt>
      <trkpt lat="42.87814" lon="1.24402">
        <ele>807.044</ele>
        <time>2023-05-29T10:48:49Z</time>
      </trkpt>
      <trkpt lat="42.87817" lon="1.24399">
        <ele>805.488</ele>
        <time>2023-05-29T10:48:50Z</time>
      </trkpt>
      <trkpt lat="42.8782" lon="1.24395">
        <ele>806.793</ele>
        <time>2023-05-29T10:48:51Z</time>
      </trkpt>
      <trkpt lat="42.87822" lon="1.24391">
        <ele>806.971</ele>
        <time>2023-05-29T10:48:52Z</time>
      </trkpt>
      <trkpt lat="42.87825" lon="1.24386">
        <ele>805.607</ele>
        <time>2023-05-29T10:48:53Z</time>
      </trkpt>
      <trkpt lat="42.87828" lon="1.2438">
        <ele>805.017</ele>
        <time>2023-05-29T10:48:54Z</time>
      </trkpt>
      <trkpt lat="42.8783" lon="1.24373">
        <ele>804.189</ele>
        <time>2023-05-29T10:48:55Z</time>
      </trkpt>
      <trkpt lat="42.87833" lon="1.24367">
        <ele>802.392</ele>
        <time>2023-05-29T10:48:56Z</time>
      </trkpt>
      <trkpt lat="42.87835" lon="1.24362">
        <ele>801.248</ele>
        <time>2023-05-29T10:48:57Z</time>
      </trkpt>
      <trkpt lat="42.87836" lon="1.24358">
        <ele>801.154</ele>
        <time>2023-05-29T10:48:58Z</time>
      </trkpt>
      <trkpt lat="42.87837" lon="1.24355">
        <ele>801.081</ele>
        <time>2023-05-29T10:48:59Z</time>
      </trkpt>
      <trkpt lat="42.87839" lon="1.24351">
        <ele>801.364</ele>
        <time>2023-05-29T10:49:00Z</time>
      </trkpt>
      <trkpt lat="42.87841" lon="1.24347">
        <ele>801.084</ele>
        <time>2023-05-29T10:49:01Z</time>
      </trkpt>
      <trkpt lat="42.87844" lon="1.24343">
        <ele>801.546</ele>
        <time>2023-05-29T10:49:02Z</time>
      </trkpt>
      <trkpt lat="42.87846" lon="1.2434">
        <ele>802.066</ele>
        <time>2023-05-29T10:49:03Z</time>
      </trkpt>
      <trkpt lat="42.87848" lon="1.24336">
        <ele>801.468</ele>
        <time>2023-05-29T10:49:04Z</time>
      </trkpt>
      <trkpt lat="42.87849" lon="1.24334">
        <ele>801.569</ele>
        <time>2023-05-29T10:49:05Z</time>
      </trkpt>
      <trkpt lat="42.8785" lon="1.24333">
        <ele>801.903</ele>
        <time>2023-05-29T10:49:06Z</time>
      </trkpt>
      <trkpt lat="42.87851" lon="1.24331">
        <ele>800.865</ele>
        <time>2023-05-29T10:49:07Z</time>
      </trkpt>
      <trkpt lat="42.87851" lon="1.24329">
        <ele>799.302</ele>
        <time>2023-05-29T10:49:08Z</time>
      </trkpt>
      <trkpt lat="42.87852" lon="1.24327">
        <ele>800.084</ele>
        <time>2023-05-29T10:49:09Z</time>
      </trkpt>
      <trkpt lat="42.87853" lon="1.24325">
        <ele>799.788</ele>
        <time>2023-05-29T10:49:10Z</time>
      </trkpt>
      <trkpt lat="42.87854" lon="1.24323">
        <ele>799.158</ele>
        <time>2023-05-29T10:49:11Z</time>
      </trkpt>
      <trkpt lat="42.87856" lon="1.2432">
        <ele>799.066</ele>
        <time>2023-05-29T10:49:12Z</time>
      </trkpt>
      <trkpt lat="42.87857" lon="1.24317">
        <ele>798.238</ele>
        <time>2023-05-29T10:49:13Z</time>
      </trkpt>
      <trkpt lat="42.87859" lon="1.24314">
        <ele>797.279</ele>
        <time>2023-05-29T10:49:14Z</time>
      </trkpt>
      <trkpt lat="42.8786" lon="1.24311">
        <ele>795.769</ele>
        <time>2023-05-29T10:49:15Z</time>
      </trkpt>
      <trkpt lat="42.87862" lon="1.24309">
        <ele>793.373</ele>
        <time>2023-05-29T10:49:16Z</time>
      </trkpt>
      <trkpt lat="42.87863" lon="1.24306">
        <ele>792.499</ele>
        <time>2023-05-29T10:49:17Z</time>
      </trkpt>
      <trkpt lat="42.87864" lon="1.24303">
        <ele>792.651</ele>
        <time>2023-05-29T10:49:18Z</time>
      </trkpt>
      <trkpt lat="42.87865" lon="1.24301">
        <ele>792.472</ele>
        <time>2023-05-29T10:49:19Z</time>
      </trkpt>
      <trkpt lat="42.87866" lon="1.24298">
        <ele>792.088</ele>
        <time>2023-05-29T10:49:20Z</time>
      </trkpt>
      <trkpt lat="42.87868" lon="1.24295">
        <ele>791.566</ele>
        <time>2023-05-29T10:49:21Z</time>
      </trkpt>
      <trkpt lat="42.8787" lon="1.24291">
        <ele>790.841</ele>
        <time>2023-05-29T10:49:22Z</time>
      </trkpt>
      <trkpt lat="42.87873" lon="1.24287">
        <ele>791.324</ele>
        <time>2023-05-29T10:49:23Z</time>
      </trkpt>
      <trkpt lat="42.87876" lon="1.24282">
        <ele>791.292</ele>
        <time>2023-05-29T10:49:24Z</time>
      </trkpt>
      <trkpt lat="42.8788" lon="1.24278">
        <ele>788.905</ele>
        <time>2023-05-29T10:49:25Z</time>
      </trkpt>
      <trkpt lat="42.87882" lon="1.24275">
        <ele>787.81</ele>
        <time>2023-05-29T10:49:26Z</time>
      </trkpt>
      <trkpt lat="42.87884" lon="1.24272">
        <ele>786.944</ele>
        <time>2023-05-29T10:49:27Z</time>
      </trkpt>
      <trkpt lat="42.87887" lon="1.24269">
        <ele>787.199</ele>
        <time>2023-05-29T10:49:28Z</time>
      </trkpt>
      <trkpt lat="42.87889" lon="1.24266">
        <ele>786.174</ele>
        <time>2023-05-29T10:49:29Z</time>
      </trkpt>
      <trkpt lat="42.87891" lon="1.24263">
        <ele>786.066</ele>
        <time>2023-05-29T10:49:30Z</time>
      </trkpt>
      <trkpt lat="42.87894" lon="1.2426">
        <ele>785.664</ele>
        <time>2023-05-29T10:49:31Z</time>
      </trkpt>
      <trkpt lat="42.87897" lon="1.24257">
        <ele>785.478</ele>
        <time>2023-05-29T10:49:32Z</time>
      </trkpt>
      <trkpt lat="42.87899" lon="1.24255">
        <ele>785.619</ele>
        <time>2023-05-29T10:49:33Z</time>
      </trkpt>
      <trkpt lat="42.87901" lon="1.24252">
        <ele>785.6</ele>
        <time>2023-05-29T10:49:34Z</time>
      </trkpt>
      <trkpt lat="42.87903" lon="1.2425">
        <ele>784.268</ele>
        <time>2023-05-29T10:49:35Z</time>
      </trkpt>
      <trkpt lat="42.87905" lon="1.24247">
        <ele>784.673</ele>
        <time>2023-05-29T10:49:36Z</time>
      </trkpt>
      <trkpt lat="42.87907" lon="1.24245">
        <ele>782.668</ele>
        <time>2023-05-29T10:49:37Z</time>
      </trkpt>
      <trkpt lat="42.87909" lon="1.24242">
        <ele>782.125</ele>
        <time>2023-05-29T10:49:38Z</time>
      </trkpt>
      <trkpt lat="42.87911" lon="1.2424">
        <ele>783.149</ele>
        <time>2023-05-29T10:49:39Z</time>
      </trkpt>
      <trkpt lat="42.87912" lon="1.24237">
        <ele>783.393</ele>
        <time>2023-05-29T10:49:40Z</time>
      </trkpt>
      <trkpt lat="42.87913" lon="1.24235">
        <ele>783.766</ele>
        <time>2023-05-29T10:49:41Z</time>
      </trkpt>
      <trkpt lat="42.87914" lon="1.24233">
        <ele>782.936</ele>
        <time>2023-05-29T10:49:42Z</time>
      </trkpt>
      <trkpt lat="42.87916" lon="1.24232">
        <ele>783.537</ele>
        <time>2023-05-29T10:49:43Z</time>
      </trkpt>
      <trkpt lat="42.87918" lon="1.24229">
        <ele>783.769</ele>
        <time>2023-05-29T10:49:44Z</time>
      </trkpt>
      <trkpt lat="42.87919" lon="1.24227">
        <ele>782.929</ele>
        <time>2023-05-29T10:49:45Z</time>
      </trkpt>
      <trkpt lat="42.8792" lon="1.24225">
        <ele>783.476</ele>
        <time>2023-05-29T10:49:46Z</time>
      </trkpt>
      <trkpt lat="42.87922" lon="1.24223">
        <ele>781.222</ele>
        <time>2023-05-29T10:49:47Z</time>
      </trkpt>
      <trkpt lat="42.87924" lon="1.24221">
        <ele>780.947</ele>
        <time>2023-05-29T10:49:48Z</time>
      </trkpt>
      <trkpt lat="42.87925" lon="1.2422">
        <ele>779.92</ele>
        <time>2023-05-29T10:49:49Z</time>
      </trkpt>
      <trkpt lat="42.87927" lon="1.2422">
        <ele>779.771</ele>
        <time>2023-05-29T10:49:50Z</time>
      </trkpt>
      <trkpt lat="42.87928" lon="1.24218">
        <ele>777.977</ele>
        <time>2023-05-29T10:49:51Z</time>
      </trkpt>
      <trkpt lat="42.87929" lon="1.24217">
        <ele>775.213</ele>
        <time>2023-05-29T10:49:52Z</time>
      </trkpt>
      <trkpt lat="42.8793" lon="1.24215">
        <ele>774.692</ele>
        <time>2023-05-29T10:49:53Z</time>
      </trkpt>
      <trkpt lat="42.8793" lon="1.24215">
        <ele>774.373</ele>
        <time>2023-05-29T10:49:54Z</time>
      </trkpt>
      <trkpt lat="42.8793" lon="1.24214">
        <ele>774.106</ele>
        <time>2023-05-29T10:49:55Z</time>
      </trkpt>
      <trkpt lat="42.8793" lon="1.24213">
        <ele>775.195</ele>
        <time>2023-05-29T10:49:56Z</time>
      </trkpt>
      <trkpt lat="42.87931" lon="1.24212">
        <ele>773.286</ele>
        <time>2023-05-29T10:49:57Z</time>
      </trkpt>
      <trkpt lat="42.87933" lon="1.24211">
        <ele>772.997</ele>
        <time>2023-05-29T10:49:58Z</time>
      </trkpt>
      <trkpt lat="42.87936" lon="1.2421">
        <ele>773.391</ele>
        <time>2023-05-29T10:49:59Z</time>
      </trkpt>
      <trkpt lat="42.87938" lon="1.24209">
        <ele>774.221</ele>
        <time>2023-05-29T10:50:00Z</time>
      </trkpt>
      <trkpt lat="42.8794" lon="1.24209">
        <ele>772</ele>
        <time>2023-05-29T10:50:01Z</time>
      </trkpt>
      <trkpt lat="42.87942" lon="1.2421">
        <ele>771.55</ele>
        <time>2023-05-29T10:50:02Z</time>
      </trkpt>
      <trkpt lat="42.87944" lon="1.24209">
        <ele>771.749</ele>
        <time>2023-05-29T10:50:03Z</time>
      </trkpt>
      <trkpt lat="42.87944" lon="1.24207">
        <ele>772.375</ele>
        <time>2023-05-29T10:50:04Z</time>
      </trkpt>
      <trkpt lat="42.87945" lon="1.24206">
        <ele>770.395</ele>
        <time>2023-05-29T10:50:05Z</time>
      </trkpt>
      <trkpt lat="42.87945" lon="1.24205">
        <ele>770.299</ele>
        <time>2023-05-29T10:50:06Z</time>
      </trkpt>
      <trkpt lat="42.87946" lon="1.24204">
        <ele>769.963</ele>
        <time>2023-05-29T10:50:07Z</time>
      </trkpt>
      <trkpt lat="42.87948" lon="1.24203">
        <ele>768.471</ele>
        <time>2023-05-29T10:50:08Z</time>
      </trkpt>
      <trkpt lat="42.8795" lon="1.24203">
        <ele>768.24</ele>
        <time>2023-05-29T10:50:09Z</time>
      </trkpt>
      <trkpt lat="42.87952" lon="1.24202">
        <ele>768.732</ele>
        <time>2023-05-29T10:50:10Z</time>
      </trkpt>
      <trkpt lat="42.87953" lon="1.24202">
        <ele>768.848</ele>
        <time>2023-05-29T10:50:11Z</time>
      </trkpt>
      <trkpt lat="42.87955" lon="1.24201">
        <ele>768.662</ele>
        <time>2023-05-29T10:50:12Z</time>
      </trkpt>
      <trkpt lat="42.87957" lon="1.24199">
        <ele>768.063</ele>
        <time>2023-05-29T10:50:13Z</time>
      </trkpt>
      <trkpt lat="42.87959" lon="1.24198">
        <ele>766.749</ele>
        <time>2023-05-29T10:50:14Z</time>
      </trkpt>
      <trkpt lat="42.87961" lon="1.24196">
        <ele>767.405</ele>
        <time>2023-05-29T10:50:15Z</time>
      </trkpt>
      <trkpt lat="42.87962" lon="1.24194">
        <ele>767.812</ele>
        <time>2023-05-29T10:50:16Z</time>
      </trkpt>
      <trkpt lat="42.87964" lon="1.24192">
        <ele>767.569</ele>
        <time>2023-05-29T10:50:17Z</time>
      </trkpt>
      <trkpt lat="42.87965" lon="1.2419">
        <ele>766.534</ele>
        <time>2023-05-29T10:50:18Z</time>
      </trkpt>
      <trkpt lat="42.87967" lon="1.24188">
        <ele>769.328</ele>
        <time>2023-05-29T10:50:19Z</time>
      </trkpt>
      <trkpt lat="42.87969" lon="1.24186">
        <ele>769.203</ele>
        <time>2023-05-29T10:50:20Z</time>
      </trkpt>
      <trkpt lat="42.87971" lon="1.24185">
        <ele>770.102</ele>
        <time>2023-05-29T10:50:21Z</time>
      </trkpt>
      <trkpt lat="42.87972" lon="1.24184">
        <ele>771.677</ele>
        <time>2023-05-29T10:50:22Z</time>
      </trkpt>
      <trkpt lat="42.87974" lon="1.24182">
        <ele>772.058</ele>
        <time>2023-05-29T10:50:23Z</time>
      </trkpt>
      <trkpt lat="42.87976" lon="1.2418">
        <ele>772.969</ele>
        <time>2023-05-29T10:50:24Z</time>
      </trkpt>
      <trkpt lat="42.87978" lon="1.24179">
        <ele>774.161</ele>
        <time>2023-05-29T10:50:25Z</time>
      </trkpt>
      <trkpt lat="42.87981" lon="1.24178">
        <ele>773.501</ele>
        <time>2023-05-29T10:50:26Z</time>
      </trkpt>
      <trkpt lat="42.87984" lon="1.24176">
        <ele>772.749</ele>
        <time>2023-05-29T10:50:27Z</time>
      </trkpt>
      <trkpt lat="42.87986" lon="1.24175">
        <ele>771.956</ele>
        <time>2023-05-29T10:50:28Z</time>
      </trkpt>
      <trkpt lat="42.87988" lon="1.24173">
        <ele>771.615</ele>
        <time>2023-05-29T10:50:29Z</time>
      </trkpt>
      <trkpt lat="42.87991" lon="1.24173">
        <ele>772.582</ele>
        <time>2023-05-29T10:50:30Z</time>
      </trkpt>
      <trkpt lat="42.87993" lon="1.24172">
        <ele>773.494</ele>
        <time>2023-05-29T10:50:31Z</time>
      </trkpt>
      <trkpt lat="42.87996" lon="1.24172">
        <ele>772.412</ele>
        <time>2023-05-29T10:50:32Z</time>
      </trkpt>
      <trkpt lat="42.87999" lon="1.24171">
        <ele>771.874</ele>
        <time>2023-05-29T10:50:33Z</time>
      </trkpt>
      <trkpt lat="42.88002" lon="1.24169">
        <ele>773.141</ele>
        <time>2023-05-29T10:50:34Z</time>
      </trkpt>
      <trkpt lat="42.88004" lon="1.24166">
        <ele>773.224</ele>
        <time>2023-05-29T10:50:35Z</time>
      </trkpt>
      <trkpt lat="42.88005" lon="1.24163">
        <ele>773.621</ele>
        <time>2023-05-29T10:50:36Z</time>
      </trkpt>
      <trkpt lat="42.88007" lon="1.2416">
        <ele>773.258</ele>
        <time>2023-05-29T10:50:37Z</time>
      </trkpt>
      <trkpt lat="42.88009" lon="1.24158">
        <ele>772.509</ele>
        <time>2023-05-29T10:50:38Z</time>
      </trkpt>
      <trkpt lat="42.88011" lon="1.24156">
        <ele>771.789</ele>
        <time>2023-05-29T10:50:39Z</time>
      </trkpt>
      <trkpt lat="42.88012" lon="1.24155">
        <ele>771.406</ele>
        <time>2023-05-29T10:50:40Z</time>
      </trkpt>
      <trkpt lat="42.88013" lon="1.24154">
        <ele>769.747</ele>
        <time>2023-05-29T10:50:41Z</time>
      </trkpt>
      <trkpt lat="42.88014" lon="1.24153">
        <ele>769.073</ele>
        <time>2023-05-29T10:50:42Z</time>
      </trkpt>
      <trkpt lat="42.88015" lon="1.24152">
        <ele>767.206</ele>
        <time>2023-05-29T10:50:43Z</time>
      </trkpt>
      <trkpt lat="42.88016" lon="1.2415">
        <ele>767.349</ele>
        <time>2023-05-29T10:50:44Z</time>
      </trkpt>
      <trkpt lat="42.88017" lon="1.24147">
        <ele>767.652</ele>
        <time>2023-05-29T10:50:45Z</time>
      </trkpt>
      <trkpt lat="42.88018" lon="1.24145">
        <ele>767.208</ele>
        <time>2023-05-29T10:50:46Z</time>
      </trkpt>
      <trkpt lat="42.88019" lon="1.24143">
        <ele>766.544</ele>
        <time>2023-05-29T10:50:47Z</time>
      </trkpt>
      <trkpt lat="42.8802" lon="1.24141">
        <ele>765.734</ele>
        <time>2023-05-29T10:50:48Z</time>
      </trkpt>
      <trkpt lat="42.88021" lon="1.24139">
        <ele>765.176</ele>
        <time>2023-05-29T10:50:49Z</time>
      </trkpt>
      <trkpt lat="42.88022" lon="1.24137">
        <ele>764.544</ele>
        <time>2023-05-29T10:50:50Z</time>
      </trkpt>
      <trkpt lat="42.88023" lon="1.24136">
        <ele>763.644</ele>
        <time>2023-05-29T10:50:51Z</time>
      </trkpt>
      <trkpt lat="42.88023" lon="1.24134">
        <ele>763.627</ele>
        <time>2023-05-29T10:50:52Z</time>
      </trkpt>
      <trkpt lat="42.88024" lon="1.24131">
        <ele>763.998</ele>
        <time>2023-05-29T10:50:53Z</time>
      </trkpt>
      <trkpt lat="42.88025" lon="1.24128">
        <ele>763.761</ele>
        <time>2023-05-29T10:50:54Z</time>
      </trkpt>
      <trkpt lat="42.88026" lon="1.24125">
        <ele>763.028</ele>
        <time>2023-05-29T10:50:55Z</time>
      </trkpt>
      <trkpt lat="42.88026" lon="1.24122">
        <ele>762.503</ele>
        <time>2023-05-29T10:50:56Z</time>
      </trkpt>
      <trkpt lat="42.88028" lon="1.24118">
        <ele>761.629</ele>
        <time>2023-05-29T10:50:57Z</time>
      </trkpt>
      <trkpt lat="42.8803" lon="1.24115">
        <ele>763.795</ele>
        <time>2023-05-29T10:50:58Z</time>
      </trkpt>
      <trkpt lat="42.88032" lon="1.24112">
        <ele>763.948</ele>
        <time>2023-05-29T10:50:59Z</time>
      </trkpt>
      <trkpt lat="42.88034" lon="1.24108">
        <ele>764.216</ele>
        <time>2023-05-29T10:51:00Z</time>
      </trkpt>
      <trkpt lat="42.88037" lon="1.24103">
        <ele>763.393</ele>
        <time>2023-05-29T10:51:01Z</time>
      </trkpt>
      <trkpt lat="42.88038" lon="1.24098">
        <ele>765.35</ele>
        <time>2023-05-29T10:51:02Z</time>
      </trkpt>
      <trkpt lat="42.88039" lon="1.24094">
        <ele>764.884</ele>
        <time>2023-05-29T10:51:03Z</time>
      </trkpt>
      <trkpt lat="42.88041" lon="1.2409">
        <ele>765.988</ele>
        <time>2023-05-29T10:51:04Z</time>
      </trkpt>
      <trkpt lat="42.88043" lon="1.24086">
        <ele>767.01</ele>
        <time>2023-05-29T10:51:05Z</time>
      </trkpt>
      <trkpt lat="42.88046" lon="1.24082">
        <ele>765.571</ele>
        <time>2023-05-29T10:51:06Z</time>
      </trkpt>
      <trkpt lat="42.88048" lon="1.24081">
        <ele>764.061</ele>
        <time>2023-05-29T10:51:07Z</time>
      </trkpt>
      <trkpt lat="42.8805" lon="1.2408">
        <ele>764.501</ele>
        <time>2023-05-29T10:51:08Z</time>
      </trkpt>
      <trkpt lat="42.88052" lon="1.24078">
        <ele>763.321</ele>
        <time>2023-05-29T10:51:09Z</time>
      </trkpt>
      <trkpt lat="42.88055" lon="1.24073">
        <ele>763.557</ele>
        <time>2023-05-29T10:51:10Z</time>
      </trkpt>
      <trkpt lat="42.88058" lon="1.24067">
        <ele>764.299</ele>
        <time>2023-05-29T10:51:11Z</time>
      </trkpt>
      <trkpt lat="42.88062" lon="1.24063">
        <ele>763.391</ele>
        <time>2023-05-29T10:51:12Z</time>
      </trkpt>
      <trkpt lat="42.88065" lon="1.24059">
        <ele>763.369</ele>
        <time>2023-05-29T10:51:13Z</time>
      </trkpt>
      <trkpt lat="42.88067" lon="1.24055">
        <ele>763.462</ele>
        <time>2023-05-29T10:51:14Z</time>
      </trkpt>
      <trkpt lat="42.88071" lon="1.24051">
        <ele>762.681</ele>
        <time>2023-05-29T10:51:15Z</time>
      </trkpt>
      <trkpt lat="42.88073" lon="1.24047">
        <ele>762.268</ele>
        <time>2023-05-29T10:51:16Z</time>
      </trkpt>
      <trkpt lat="42.88076" lon="1.24043">
        <ele>762.43</ele>
        <time>2023-05-29T10:51:17Z</time>
      </trkpt>
      <trkpt lat="42.8808" lon="1.24038">
        <ele>762.435</ele>
        <time>2023-05-29T10:51:18Z</time>
      </trkpt>
      <trkpt lat="42.88083" lon="1.24033">
        <ele>762.419</ele>
        <time>2023-05-29T10:51:19Z</time>
      </trkpt>
      <trkpt lat="42.88086" lon="1.24028">
        <ele>763.572</ele>
        <time>2023-05-29T10:51:20Z</time>
      </trkpt>
      <trkpt lat="42.88089" lon="1.24023">
        <ele>763.589</ele>
        <time>2023-05-29T10:51:21Z</time>
      </trkpt>
      <trkpt lat="42.88093" lon="1.24019">
        <ele>763.747</ele>
        <time>2023-05-29T10:51:22Z</time>
      </trkpt>
      <trkpt lat="42.88096" lon="1.24015">
        <ele>763.017</ele>
        <time>2023-05-29T10:51:23Z</time>
      </trkpt>
      <trkpt lat="42.88099" lon="1.24012">
        <ele>763.991</ele>
        <time>2023-05-29T10:51:24Z</time>
      </trkpt>
      <trkpt lat="42.881" lon="1.2401">
        <ele>763.639</ele>
        <time>2023-05-29T10:51:25Z</time>
      </trkpt>
      <trkpt lat="42.88103" lon="1.24008">
        <ele>766.038</ele>
        <time>2023-05-29T10:51:26Z</time>
      </trkpt>
      <trkpt lat="42.88106" lon="1.24005">
        <ele>764.564</ele>
        <time>2023-05-29T10:51:27Z</time>
      </trkpt>
      <trkpt lat="42.8811" lon="1.24003">
        <ele>763.881</ele>
        <time>2023-05-29T10:51:28Z</time>
      </trkpt>
      <trkpt lat="42.88113" lon="1.24001">
        <ele>763.207</ele>
        <time>2023-05-29T10:51:29Z</time>
      </trkpt>
      <trkpt lat="42.88116" lon="1.23998">
        <ele>760.366</ele>
        <time>2023-05-29T10:51:30Z</time>
      </trkpt>
      <trkpt lat="42.88119" lon="1.23996">
        <ele>758.236</ele>
        <time>2023-05-29T10:51:31Z</time>
      </trkpt>
      <trkpt lat="42.88122" lon="1.23994">
        <ele>757.936</ele>
        <time>2023-05-29T10:51:32Z</time>
      </trkpt>
      <trkpt lat="42.88125" lon="1.23991">
        <ele>756.926</ele>
        <time>2023-05-29T10:51:33Z</time>
      </trkpt>
      <trkpt lat="42.88129" lon="1.23988">
        <ele>757.742</ele>
        <time>2023-05-29T10:51:34Z</time>
      </trkpt>
      <trkpt lat="42.88132" lon="1.23987">
        <ele>757.801</ele>
        <time>2023-05-29T10:51:35Z</time>
      </trkpt>
      <trkpt lat="42.88136" lon="1.23986">
        <ele>756.086</ele>
        <time>2023-05-29T10:51:36Z</time>
      </trkpt>
      <trkpt lat="42.88139" lon="1.23983">
        <ele>754.317</ele>
        <time>2023-05-29T10:51:37Z</time>
      </trkpt>
      <trkpt lat="42.88142" lon="1.2398">
        <ele>754.358</ele>
        <time>2023-05-29T10:51:38Z</time>
      </trkpt>
      <trkpt lat="42.88146" lon="1.23976">
        <ele>754.49</ele>
        <time>2023-05-29T10:51:39Z</time>
      </trkpt>
      <trkpt lat="42.88149" lon="1.23974">
        <ele>754.372</ele>
        <time>2023-05-29T10:51:40Z</time>
      </trkpt>
      <trkpt lat="42.88152" lon="1.23972">
        <ele>753.655</ele>
        <time>2023-05-29T10:51:41Z</time>
      </trkpt>
      <trkpt lat="42.88154" lon="1.2397">
        <ele>752.796</ele>
        <time>2023-05-29T10:51:42Z</time>
      </trkpt>
      <trkpt lat="42.88156" lon="1.23969">
        <ele>752.605</ele>
        <time>2023-05-29T10:51:43Z</time>
      </trkpt>
      <trkpt lat="42.88156" lon="1.23967">
        <ele>752.108</ele>
        <time>2023-05-29T10:51:44Z</time>
      </trkpt>
      <trkpt lat="42.88158" lon="1.23965">
        <ele>751.978</ele>
        <time>2023-05-29T10:51:45Z</time>
      </trkpt>
      <trkpt lat="42.8816" lon="1.23963">
        <ele>751.528</ele>
        <time>2023-05-29T10:51:46Z</time>
      </trkpt>
      <trkpt lat="42.88162" lon="1.23961">
        <ele>751.312</ele>
        <time>2023-05-29T10:51:47Z</time>
      </trkpt>
      <trkpt lat="42.88163" lon="1.23958">
        <ele>751.216</ele>
        <time>2023-05-29T10:51:48Z</time>
      </trkpt>
      <trkpt lat="42.88164" lon="1.23956">
        <ele>750.957</ele>
        <time>2023-05-29T10:51:49Z</time>
      </trkpt>
      <trkpt lat="42.88165" lon="1.23955">
        <ele>749.043</ele>
        <time>2023-05-29T10:51:50Z</time>
      </trkpt>
      <trkpt lat="42.88166" lon="1.23954">
        <ele>749.377</ele>
        <time>2023-05-29T10:51:51Z</time>
      </trkpt>
      <trkpt lat="42.88166" lon="1.23953">
        <ele>747.876</ele>
        <time>2023-05-29T10:51:52Z</time>
      </trkpt>
      <trkpt lat="42.88166" lon="1.23952">
        <ele>747.924</ele>
        <time>2023-05-29T10:51:53Z</time>
      </trkpt>
      <trkpt lat="42.88166" lon="1.23952">
        <ele>747.506</ele>
        <time>2023-05-29T10:51:54Z</time>
      </trkpt>
      <trkpt lat="42.88166" lon="1.23951">
        <ele>747.615</ele>
        <time>2023-05-29T10:51:55Z</time>
      </trkpt>
      <trkpt lat="42.88166" lon="1.23951">
        <ele>747.681</ele>
        <time>2023-05-29T10:51:56Z</time>
      </trkpt>
      <trkpt lat="42.88166" lon="1.23951">
        <ele>747.806</ele>
        <time>2023-05-29T10:51:57Z</time>
      </trkpt>
      <trkpt lat="42.88166" lon="1.2395">
        <ele>748.503</ele>
        <time>2023-05-29T10:51:58Z</time>
      </trkpt>
      <trkpt lat="42.88167" lon="1.23949">
        <ele>744.984</ele>
        <time>2023-05-29T10:51:59Z</time>
      </trkpt>
      <trkpt lat="42.88169" lon="1.23948">
        <ele>744.275</ele>
        <time>2023-05-29T10:52:00Z</time>
      </trkpt>
      <trkpt lat="42.8817" lon="1.23946">
        <ele>743.516</ele>
        <time>2023-05-29T10:52:01Z</time>
      </trkpt>
      <trkpt lat="42.88171" lon="1.23945">
        <ele>743.252</ele>
        <time>2023-05-29T10:52:02Z</time>
      </trkpt>
      <trkpt lat="42.88172" lon="1.23944">
        <ele>741.573</ele>
        <time>2023-05-29T10:52:03Z</time>
      </trkpt>
      <trkpt lat="42.88173" lon="1.23943">
        <ele>739.386</ele>
        <time>2023-05-29T10:52:04Z</time>
      </trkpt>
      <trkpt lat="42.88173" lon="1.23941">
        <ele>739.592</ele>
        <time>2023-05-29T10:52:05Z</time>
      </trkpt>
      <trkpt lat="42.88174" lon="1.2394">
        <ele>739.435</ele>
        <time>2023-05-29T10:52:06Z</time>
      </trkpt>
      <trkpt lat="42.88175" lon="1.23939">
        <ele>737.828</ele>
        <time>2023-05-29T10:52:07Z</time>
      </trkpt>
      <trkpt lat="42.88176" lon="1.23937">
        <ele>738.953</ele>
        <time>2023-05-29T10:52:08Z</time>
      </trkpt>
      <trkpt lat="42.88177" lon="1.23936">
        <ele>739.254</ele>
        <time>2023-05-29T10:52:09Z</time>
      </trkpt>
      <trkpt lat="42.88177" lon="1.23936">
        <ele>739.103</ele>
        <time>2023-05-29T10:52:10Z</time>
      </trkpt>
      <trkpt lat="42.88177" lon="1.23936">
        <ele>738.928</ele>
        <time>2023-05-29T10:52:11Z</time>
      </trkpt>
      <trkpt lat="42.88177" lon="1.23935">
        <ele>738.876</ele>
        <time>2023-05-29T10:52:12Z</time>
      </trkpt>
      <trkpt lat="42.88177" lon="1.23935">
        <ele>738.908</ele>
        <time>2023-05-29T10:52:13Z</time>
      </trkpt>
      <trkpt lat="42.88177" lon="1.23935">
        <ele>738.81</ele>
        <time>2023-05-29T10:52:14Z</time>
      </trkpt>
      <trkpt lat="42.88177" lon="1.23935">
        <ele>738.709</ele>
        <time>2023-05-29T10:52:15Z</time>
      </trkpt>
      <trkpt lat="42.88177" lon="1.23935">
        <ele>739.037</ele>
        <time>2023-05-29T10:52:16Z</time>
      </trkpt>
      <trkpt lat="42.88177" lon="1.23935">
        <ele>739.154</ele>
        <time>2023-05-29T10:52:17Z</time>
      </trkpt>
      <trkpt lat="42.88177" lon="1.23934">
        <ele>739.252</ele>
        <time>2023-05-29T10:52:18Z</time>
      </trkpt>
      <trkpt lat="42.88177" lon="1.23934">
        <ele>739.137</ele>
        <time>2023-05-29T10:52:19Z</time>
      </trkpt>
      <trkpt lat="42.88178" lon="1.23933">
        <ele>738.887</ele>
        <time>2023-05-29T10:52:20Z</time>
      </trkpt>
      <trkpt lat="42.88178" lon="1.23933">
        <ele>738.946</ele>
        <time>2023-05-29T10:52:21Z</time>
      </trkpt>
      <trkpt lat="42.88178" lon="1.23933">
        <ele>739.166</ele>
        <time>2023-05-29T10:52:22Z</time>
      </trkpt>
      <trkpt lat="42.8818" lon="1.23931">
        <ele>738.645</ele>
        <time>2023-05-29T10:52:23Z</time>
      </trkpt>
      <trkpt lat="42.8818" lon="1.2393">
        <ele>738.084</ele>
        <time>2023-05-29T10:52:24Z</time>
      </trkpt>
      <trkpt lat="42.88181" lon="1.23928">
        <ele>736.928</ele>
        <time>2023-05-29T10:52:25Z</time>
      </trkpt>
      <trkpt lat="42.88181" lon="1.23926">
        <ele>736.052</ele>
        <time>2023-05-29T10:52:26Z</time>
      </trkpt>
      <trkpt lat="42.88182" lon="1.23925">
        <ele>736.054</ele>
        <time>2023-05-29T10:52:27Z</time>
      </trkpt>
      <trkpt lat="42.88183" lon="1.23923">
        <ele>736.339</ele>
        <time>2023-05-29T10:52:28Z</time>
      </trkpt>
      <trkpt lat="42.88184" lon="1.23921">
        <ele>737.154</ele>
        <time>2023-05-29T10:52:29Z</time>
      </trkpt>
      <trkpt lat="42.88184" lon="1.23918">
        <ele>735.66</ele>
        <time>2023-05-29T10:52:30Z</time>
      </trkpt>
      <trkpt lat="42.88185" lon="1.23916">
        <ele>735.519</ele>
        <time>2023-05-29T10:52:31Z</time>
      </trkpt>
      <trkpt lat="42.88186" lon="1.23914">
        <ele>735.912</ele>
        <time>2023-05-29T10:52:32Z</time>
      </trkpt>
      <trkpt lat="42.88186" lon="1.23913">
        <ele>735.961</ele>
        <time>2023-05-29T10:52:33Z</time>
      </trkpt>
      <trkpt lat="42.88186" lon="1.23912">
        <ele>736.588</ele>
        <time>2023-05-29T10:52:34Z</time>
      </trkpt>
      <trkpt lat="42.88187" lon="1.23911">
        <ele>736.598</ele>
        <time>2023-05-29T10:52:35Z</time>
      </trkpt>
      <trkpt lat="42.88188" lon="1.23909">
        <ele>736.395</ele>
        <time>2023-05-29T10:52:36Z</time>
      </trkpt>
      <trkpt lat="42.88189" lon="1.23908">
        <ele>737.268</ele>
        <time>2023-05-29T10:52:37Z</time>
      </trkpt>
      <trkpt lat="42.8819" lon="1.23906">
        <ele>738.213</ele>
        <time>2023-05-29T10:52:38Z</time>
      </trkpt>
      <trkpt lat="42.88191" lon="1.23904">
        <ele>738.718</ele>
        <time>2023-05-29T10:52:39Z</time>
      </trkpt>
      <trkpt lat="42.88192" lon="1.23903">
        <ele>739.006</ele>
        <time>2023-05-29T10:52:40Z</time>
      </trkpt>
      <trkpt lat="42.88193" lon="1.23902">
        <ele>739.127</ele>
        <time>2023-05-29T10:52:41Z</time>
      </trkpt>
      <trkpt lat="42.88194" lon="1.239">
        <ele>738.726</ele>
        <time>2023-05-29T10:52:42Z</time>
      </trkpt>
      <trkpt lat="42.88196" lon="1.239">
        <ele>739.843</ele>
        <time>2023-05-29T10:52:43Z</time>
      </trkpt>
      <trkpt lat="42.88198" lon="1.23899">
        <ele>738.626</ele>
        <time>2023-05-29T10:52:44Z</time>
      </trkpt>
      <trkpt lat="42.88199" lon="1.23898">
        <ele>738.282</ele>
        <time>2023-05-29T10:52:45Z</time>
      </trkpt>
      <trkpt lat="42.88201" lon="1.23896">
        <ele>738.633</ele>
        <time>2023-05-29T10:52:46Z</time>
      </trkpt>
      <trkpt lat="42.88203" lon="1.23895">
        <ele>740.135</ele>
        <time>2023-05-29T10:52:47Z</time>
      </trkpt>
      <trkpt lat="42.88204" lon="1.23894">
        <ele>739.173</ele>
        <time>2023-05-29T10:52:48Z</time>
      </trkpt>
      <trkpt lat="42.88206" lon="1.23892">
        <ele>738.702</ele>
        <time>2023-05-29T10:52:49Z</time>
      </trkpt>
      <trkpt lat="42.88208" lon="1.23891">
        <ele>737.549</ele>
        <time>2023-05-29T10:52:50Z</time>
      </trkpt>
      <trkpt lat="42.8821" lon="1.23889">
        <ele>736.398</ele>
        <time>2023-05-29T10:52:51Z</time>
      </trkpt>
      <trkpt lat="42.88212" lon="1.23887">
        <ele>737.225</ele>
        <time>2023-05-29T10:52:52Z</time>
      </trkpt>
      <trkpt lat="42.88214" lon="1.23885">
        <ele>737.389</ele>
        <time>2023-05-29T10:52:53Z</time>
      </trkpt>
      <trkpt lat="42.88216" lon="1.23883">
        <ele>737.735</ele>
        <time>2023-05-29T10:52:54Z</time>
      </trkpt>
      <trkpt lat="42.88217" lon="1.23882">
        <ele>736.644</ele>
        <time>2023-05-29T10:52:55Z</time>
      </trkpt>
      <trkpt lat="42.88219" lon="1.2388">
        <ele>735.506</ele>
        <time>2023-05-29T10:52:56Z</time>
      </trkpt>
      <trkpt lat="42.88221" lon="1.23878">
        <ele>734.95</ele>
        <time>2023-05-29T10:52:57Z</time>
      </trkpt>
      <trkpt lat="42.88223" lon="1.23876">
        <ele>733.445</ele>
        <time>2023-05-29T10:52:58Z</time>
      </trkpt>
      <trkpt lat="42.88225" lon="1.23874">
        <ele>732.985</ele>
        <time>2023-05-29T10:52:59Z</time>
      </trkpt>
      <trkpt lat="42.88228" lon="1.23871">
        <ele>733.103</ele>
        <time>2023-05-29T10:53:00Z</time>
      </trkpt>
      <trkpt lat="42.8823" lon="1.23869">
        <ele>733.462</ele>
        <time>2023-05-29T10:53:01Z</time>
      </trkpt>
      <trkpt lat="42.88233" lon="1.23866">
        <ele>733.194</ele>
        <time>2023-05-29T10:53:02Z</time>
      </trkpt>
      <trkpt lat="42.88236" lon="1.23864">
        <ele>733.421</ele>
        <time>2023-05-29T10:53:03Z</time>
      </trkpt>
      <trkpt lat="42.8824" lon="1.23861">
        <ele>732.211</ele>
        <time>2023-05-29T10:53:04Z</time>
      </trkpt>
      <trkpt lat="42.88242" lon="1.23859">
        <ele>732.225</ele>
        <time>2023-05-29T10:53:05Z</time>
      </trkpt>
      <trkpt lat="42.88244" lon="1.23856">
        <ele>732.209</ele>
        <time>2023-05-29T10:53:06Z</time>
      </trkpt>
      <trkpt lat="42.88247" lon="1.23853">
        <ele>733.679</ele>
        <time>2023-05-29T10:53:07Z</time>
      </trkpt>
      <trkpt lat="42.8825" lon="1.23851">
        <ele>735.171</ele>
        <time>2023-05-29T10:53:08Z</time>
      </trkpt>
      <trkpt lat="42.88253" lon="1.23849">
        <ele>733.454</ele>
        <time>2023-05-29T10:53:09Z</time>
      </trkpt>
      <trkpt lat="42.88255" lon="1.23848">
        <ele>733.076</ele>
        <time>2023-05-29T10:53:10Z</time>
      </trkpt>
      <trkpt lat="42.88257" lon="1.23846">
        <ele>732.942</ele>
        <time>2023-05-29T10:53:11Z</time>
      </trkpt>
      <trkpt lat="42.88259" lon="1.23846">
        <ele>732.402</ele>
        <time>2023-05-29T10:53:12Z</time>
      </trkpt>
      <trkpt lat="42.88262" lon="1.23843">
        <ele>732.693</ele>
        <time>2023-05-29T10:53:13Z</time>
      </trkpt>
      <trkpt lat="42.88265" lon="1.23841">
        <ele>732.079</ele>
        <time>2023-05-29T10:53:14Z</time>
      </trkpt>
      <trkpt lat="42.88267" lon="1.2384">
        <ele>732.119</ele>
        <time>2023-05-29T10:53:15Z</time>
      </trkpt>
      <trkpt lat="42.88269" lon="1.23838">
        <ele>732.417</ele>
        <time>2023-05-29T10:53:16Z</time>
      </trkpt>
      <trkpt lat="42.88272" lon="1.23835">
        <ele>731.751</ele>
        <time>2023-05-29T10:53:17Z</time>
      </trkpt>
      <trkpt lat="42.88274" lon="1.23832">
        <ele>732.27</ele>
        <time>2023-05-29T10:53:18Z</time>
      </trkpt>
      <trkpt lat="42.88277" lon="1.23829">
        <ele>731.871</ele>
        <time>2023-05-29T10:53:19Z</time>
      </trkpt>
      <trkpt lat="42.88281" lon="1.23827">
        <ele>731.565</ele>
        <time>2023-05-29T10:53:20Z</time>
      </trkpt>
      <trkpt lat="42.88283" lon="1.23825">
        <ele>731.959</ele>
        <time>2023-05-29T10:53:21Z</time>
      </trkpt>
      <trkpt lat="42.88286" lon="1.23824">
        <ele>731.428</ele>
        <time>2023-05-29T10:53:22Z</time>
      </trkpt>
      <trkpt lat="42.88284" lon="1.23826">
        <ele>730.361</ele>
        <time>2023-05-29T10:53:23Z</time>
      </trkpt>
      <trkpt lat="42.88289" lon="1.23823">
        <ele>731.571</ele>
        <time>2023-05-29T10:53:24Z</time>
      </trkpt>
      <trkpt lat="42.88293" lon="1.2382">
        <ele>732.365</ele>
        <time>2023-05-29T10:53:25Z</time>
      </trkpt>
      <trkpt lat="42.88295" lon="1.23818">
        <ele>732.461</ele>
        <time>2023-05-29T10:53:26Z</time>
      </trkpt>
      <trkpt lat="42.88298" lon="1.23816">
        <ele>733.213</ele>
        <time>2023-05-29T10:53:27Z</time>
      </trkpt>
      <trkpt lat="42.88301" lon="1.23815">
        <ele>734.091</ele>
        <time>2023-05-29T10:53:28Z</time>
      </trkpt>
      <trkpt lat="42.88304" lon="1.23813">
        <ele>734.724</ele>
        <time>2023-05-29T10:53:29Z</time>
      </trkpt>
      <trkpt lat="42.88307" lon="1.23812">
        <ele>733.603</ele>
        <time>2023-05-29T10:53:30Z</time>
      </trkpt>
      <trkpt lat="42.8831" lon="1.23811">
        <ele>733.575</ele>
        <time>2023-05-29T10:53:31Z</time>
      </trkpt>
      <trkpt lat="42.88312" lon="1.2381">
        <ele>733.148</ele>
        <time>2023-05-29T10:53:32Z</time>
      </trkpt>
      <trkpt lat="42.88315" lon="1.2381">
        <ele>733.244</ele>
        <time>2023-05-29T10:53:33Z</time>
      </trkpt>
      <trkpt lat="42.88318" lon="1.23809">
        <ele>733.242</ele>
        <time>2023-05-29T10:53:34Z</time>
      </trkpt>
      <trkpt lat="42.88321" lon="1.23807">
        <ele>734.259</ele>
        <time>2023-05-29T10:53:35Z</time>
      </trkpt>
      <trkpt lat="42.88323" lon="1.23807">
        <ele>733.931</ele>
        <time>2023-05-29T10:53:36Z</time>
      </trkpt>
      <trkpt lat="42.88326" lon="1.23807">
        <ele>733.023</ele>
        <time>2023-05-29T10:53:37Z</time>
      </trkpt>
      <trkpt lat="42.88329" lon="1.23808">
        <ele>732.577</ele>
        <time>2023-05-29T10:53:38Z</time>
      </trkpt>
      <trkpt lat="42.88332" lon="1.2381">
        <ele>731.912</ele>
        <time>2023-05-29T10:53:39Z</time>
      </trkpt>
      <trkpt lat="42.88335" lon="1.23812">
        <ele>731.076</ele>
        <time>2023-05-29T10:53:40Z</time>
      </trkpt>
      <trkpt lat="42.88339" lon="1.23814">
        <ele>729.664</ele>
        <time>2023-05-29T10:53:41Z</time>
      </trkpt>
      <trkpt lat="42.88343" lon="1.23815">
        <ele>730.593</ele>
        <time>2023-05-29T10:53:42Z</time>
      </trkpt>
      <trkpt lat="42.88346" lon="1.23815">
        <ele>729.755</ele>
        <time>2023-05-29T10:53:43Z</time>
      </trkpt>
      <trkpt lat="42.8835" lon="1.23816">
        <ele>729</ele>
        <time>2023-05-29T10:53:44Z</time>
      </trkpt>
      <trkpt lat="42.88353" lon="1.23818">
        <ele>728.047</ele>
        <time>2023-05-29T10:53:45Z</time>
      </trkpt>
      <trkpt lat="42.88357" lon="1.2382">
        <ele>727.649</ele>
        <time>2023-05-29T10:53:46Z</time>
      </trkpt>
      <trkpt lat="42.8836" lon="1.2382">
        <ele>727.142</ele>
        <time>2023-05-29T10:53:47Z</time>
      </trkpt>
      <trkpt lat="42.88363" lon="1.23821">
        <ele>726.491</ele>
        <time>2023-05-29T10:53:48Z</time>
      </trkpt>
      <trkpt lat="42.88366" lon="1.2382">
        <ele>726.289</ele>
        <time>2023-05-29T10:53:49Z</time>
      </trkpt>
      <trkpt lat="42.88369" lon="1.2382">
        <ele>726.213</ele>
        <time>2023-05-29T10:53:50Z</time>
      </trkpt>
      <trkpt lat="42.88372" lon="1.23821">
        <ele>725.446</ele>
        <time>2023-05-29T10:53:51Z</time>
      </trkpt>
      <trkpt lat="42.88375" lon="1.23822">
        <ele>724.816</ele>
        <time>2023-05-29T10:53:52Z</time>
      </trkpt>
      <trkpt lat="42.88378" lon="1.23823">
        <ele>725.87</ele>
        <time>2023-05-29T10:53:53Z</time>
      </trkpt>
      <trkpt lat="42.88381" lon="1.23824">
        <ele>725.705</ele>
        <time>2023-05-29T10:53:54Z</time>
      </trkpt>
      <trkpt lat="42.88384" lon="1.23825">
        <ele>726.391</ele>
        <time>2023-05-29T10:53:55Z</time>
      </trkpt>
      <trkpt lat="42.88388" lon="1.23825">
        <ele>725.977</ele>
        <time>2023-05-29T10:53:56Z</time>
      </trkpt>
      <trkpt lat="42.88391" lon="1.23826">
        <ele>725.984</ele>
        <time>2023-05-29T10:53:57Z</time>
      </trkpt>
      <trkpt lat="42.88395" lon="1.23827">
        <ele>725.622</ele>
        <time>2023-05-29T10:53:58Z</time>
      </trkpt>
      <trkpt lat="42.88398" lon="1.23828">
        <ele>725.339</ele>
        <time>2023-05-29T10:53:59Z</time>
      </trkpt>
      <trkpt lat="42.88402" lon="1.23828">
        <ele>724.548</ele>
        <time>2023-05-29T10:54:00Z</time>
      </trkpt>
      <trkpt lat="42.88404" lon="1.23829">
        <ele>723.57</ele>
        <time>2023-05-29T10:54:01Z</time>
      </trkpt>
      <trkpt lat="42.88407" lon="1.2383">
        <ele>724.12</ele>
        <time>2023-05-29T10:54:02Z</time>
      </trkpt>
      <trkpt lat="42.8841" lon="1.23831">
        <ele>723.892</ele>
        <time>2023-05-29T10:54:03Z</time>
      </trkpt>
      <trkpt lat="42.88413" lon="1.23832">
        <ele>724.013</ele>
        <time>2023-05-29T10:54:04Z</time>
      </trkpt>
      <trkpt lat="42.88416" lon="1.23832">
        <ele>722.897</ele>
        <time>2023-05-29T10:54:05Z</time>
      </trkpt>
      <trkpt lat="42.88419" lon="1.23833">
        <ele>720.769</ele>
        <time>2023-05-29T10:54:06Z</time>
      </trkpt>
      <trkpt lat="42.88421" lon="1.23833">
        <ele>721.021</ele>
        <time>2023-05-29T10:54:07Z</time>
      </trkpt>
      <trkpt lat="42.88424" lon="1.23834">
        <ele>721.515</ele>
        <time>2023-05-29T10:54:08Z</time>
      </trkpt>
      <trkpt lat="42.88426" lon="1.23834">
        <ele>719.534</ele>
        <time>2023-05-29T10:54:09Z</time>
      </trkpt>
      <trkpt lat="42.88429" lon="1.23834">
        <ele>716.375</ele>
        <time>2023-05-29T10:54:10Z</time>
      </trkpt>
      <trkpt lat="42.88432" lon="1.23834">
        <ele>716.021</ele>
        <time>2023-05-29T10:54:11Z</time>
      </trkpt>
      <trkpt lat="42.8843" lon="1.23833">
        <ele>714.388</ele>
        <time>2023-05-29T10:54:12Z</time>
      </trkpt>
      <trkpt lat="42.88429" lon="1.23832">
        <ele>713.923</ele>
        <time>2023-05-29T10:54:13Z</time>
      </trkpt>
      <trkpt lat="42.8843" lon="1.23832">
        <ele>712.99</ele>
        <time>2023-05-29T10:54:14Z</time>
      </trkpt>
      <trkpt lat="42.88431" lon="1.23832">
        <ele>712.634</ele>
        <time>2023-05-29T10:54:15Z</time>
      </trkpt>
      <trkpt lat="42.88434" lon="1.23831">
        <ele>711.061</ele>
        <time>2023-05-29T10:54:16Z</time>
      </trkpt>
      <trkpt lat="42.88436" lon="1.2383">
        <ele>711.018</ele>
        <time>2023-05-29T10:54:17Z</time>
      </trkpt>
      <trkpt lat="42.88439" lon="1.23829">
        <ele>710.961</ele>
        <time>2023-05-29T10:54:18Z</time>
      </trkpt>
      <trkpt lat="42.88441" lon="1.23828">
        <ele>710.912</ele>
        <time>2023-05-29T10:54:19Z</time>
      </trkpt>
      <trkpt lat="42.88444" lon="1.23827">
        <ele>713.204</ele>
        <time>2023-05-29T10:54:20Z</time>
      </trkpt>
      <trkpt lat="42.88445" lon="1.23826">
        <ele>712.639</ele>
        <time>2023-05-29T10:54:21Z</time>
      </trkpt>
      <trkpt lat="42.88445" lon="1.23826">
        <ele>710.918</ele>
        <time>2023-05-29T10:54:22Z</time>
      </trkpt>
      <trkpt lat="42.88448" lon="1.23826">
        <ele>711.262</ele>
        <time>2023-05-29T10:54:23Z</time>
      </trkpt>
      <trkpt lat="42.88451" lon="1.23827">
        <ele>711.391</ele>
        <time>2023-05-29T10:54:24Z</time>
      </trkpt>
      <trkpt lat="42.88453" lon="1.23826">
        <ele>712.055</ele>
        <time>2023-05-29T10:54:25Z</time>
      </trkpt>
      <trkpt lat="42.88456" lon="1.23827">
        <ele>712.641</ele>
        <time>2023-05-29T10:54:26Z</time>
      </trkpt>
      <trkpt lat="42.88456" lon="1.23828">
        <ele>711.772</ele>
        <time>2023-05-29T10:54:27Z</time>
      </trkpt>
      <trkpt lat="42.88457" lon="1.23828">
        <ele>710.788</ele>
        <time>2023-05-29T10:54:28Z</time>
      </trkpt>
      <trkpt lat="42.8846" lon="1.23829">
        <ele>710.738</ele>
        <time>2023-05-29T10:54:29Z</time>
      </trkpt>
      <trkpt lat="42.88462" lon="1.2383">
        <ele>710.774</ele>
        <time>2023-05-29T10:54:30Z</time>
      </trkpt>
      <trkpt lat="42.88465" lon="1.23831">
        <ele>708.614</ele>
        <time>2023-05-29T10:54:31Z</time>
      </trkpt>
      <trkpt lat="42.88467" lon="1.23832">
        <ele>709.589</ele>
        <time>2023-05-29T10:54:32Z</time>
      </trkpt>
      <trkpt lat="42.88468" lon="1.23833">
        <ele>708.24</ele>
        <time>2023-05-29T10:54:33Z</time>
      </trkpt>
      <trkpt lat="42.88469" lon="1.23833">
        <ele>707.682</ele>
        <time>2023-05-29T10:54:34Z</time>
      </trkpt>
      <trkpt lat="42.88472" lon="1.23835">
        <ele>706.624</ele>
        <time>2023-05-29T10:54:35Z</time>
      </trkpt>
      <trkpt lat="42.88474" lon="1.23837">
        <ele>706.65</ele>
        <time>2023-05-29T10:54:36Z</time>
      </trkpt>
      <trkpt lat="42.88475" lon="1.23838">
        <ele>705.206</ele>
        <time>2023-05-29T10:54:37Z</time>
      </trkpt>
      <trkpt lat="42.88478" lon="1.2384">
        <ele>703.634</ele>
        <time>2023-05-29T10:54:38Z</time>
      </trkpt>
      <trkpt lat="42.88482" lon="1.2384">
        <ele>702.942</ele>
        <time>2023-05-29T10:54:39Z</time>
      </trkpt>
      <trkpt lat="42.88482" lon="1.23843">
        <ele>699.076</ele>
        <time>2023-05-29T10:54:40Z</time>
      </trkpt>
      <trkpt lat="42.88485" lon="1.23844">
        <ele>699.038</ele>
        <time>2023-05-29T10:54:41Z</time>
      </trkpt>
      <trkpt lat="42.88489" lon="1.23847">
        <ele>699.907</ele>
        <time>2023-05-29T10:54:42Z</time>
      </trkpt>
      <trkpt lat="42.88494" lon="1.2385">
        <ele>698.414</ele>
        <time>2023-05-29T10:54:43Z</time>
      </trkpt>
      <trkpt lat="42.88498" lon="1.23853">
        <ele>698.319</ele>
        <time>2023-05-29T10:54:44Z</time>
      </trkpt>
      <trkpt lat="42.88501" lon="1.23854">
        <ele>696.359</ele>
        <time>2023-05-29T10:54:45Z</time>
      </trkpt>
      <trkpt lat="42.88507" lon="1.23853">
        <ele>693.752</ele>
        <time>2023-05-29T10:54:46Z</time>
      </trkpt>
      <trkpt lat="42.8851" lon="1.23851">
        <ele>692.377</ele>
        <time>2023-05-29T10:54:47Z</time>
      </trkpt>
      <trkpt lat="42.88514" lon="1.2385">
        <ele>692.483</ele>
        <time>2023-05-29T10:54:48Z</time>
      </trkpt>
      <trkpt lat="42.88517" lon="1.2385">
        <ele>692.922</ele>
        <time>2023-05-29T10:54:49Z</time>
      </trkpt>
      <trkpt lat="42.8852" lon="1.23849">
        <ele>690.653</ele>
        <time>2023-05-29T10:54:50Z</time>
      </trkpt>
      <trkpt lat="42.88523" lon="1.23848">
        <ele>689.162</ele>
        <time>2023-05-29T10:54:51Z</time>
      </trkpt>
      <trkpt lat="42.88526" lon="1.23846">
        <ele>688.767</ele>
        <time>2023-05-29T10:54:52Z</time>
      </trkpt>
      <trkpt lat="42.88529" lon="1.23845">
        <ele>690.178</ele>
        <time>2023-05-29T10:54:53Z</time>
      </trkpt>
      <trkpt lat="42.88531" lon="1.23844">
        <ele>692.053</ele>
        <time>2023-05-29T10:54:54Z</time>
      </trkpt>
      <trkpt lat="42.88534" lon="1.23842">
        <ele>692.642</ele>
        <time>2023-05-29T10:54:55Z</time>
      </trkpt>
      <trkpt lat="42.88535" lon="1.23841">
        <ele>691.514</ele>
        <time>2023-05-29T10:54:56Z</time>
      </trkpt>
      <trkpt lat="42.88537" lon="1.2384">
        <ele>691.165</ele>
        <time>2023-05-29T10:54:57Z</time>
      </trkpt>
      <trkpt lat="42.88539" lon="1.23839">
        <ele>689.528</ele>
        <time>2023-05-29T10:54:58Z</time>
      </trkpt>
      <trkpt lat="42.88542" lon="1.23837">
        <ele>690.323</ele>
        <time>2023-05-29T10:54:59Z</time>
      </trkpt>
      <trkpt lat="42.88544" lon="1.23834">
        <ele>690.071</ele>
        <time>2023-05-29T10:55:00Z</time>
      </trkpt>
      <trkpt lat="42.88545" lon="1.23832">
        <ele>690.197</ele>
        <time>2023-05-29T10:55:01Z</time>
      </trkpt>
      <trkpt lat="42.88546" lon="1.2383">
        <ele>689.869</ele>
        <time>2023-05-29T10:55:02Z</time>
      </trkpt>
      <trkpt lat="42.88548" lon="1.23826">
        <ele>690.7</ele>
        <time>2023-05-29T10:55:03Z</time>
      </trkpt>
      <trkpt lat="42.8855" lon="1.23824">
        <ele>690.503</ele>
        <time>2023-05-29T10:55:04Z</time>
      </trkpt>
      <trkpt lat="42.88558" lon="1.23818">
        <ele>690.426</ele>
        <time>2023-05-29T10:55:05Z</time>
      </trkpt>
      <trkpt lat="42.88558" lon="1.23817">
        <ele>692.041</ele>
        <time>2023-05-29T10:55:06Z</time>
      </trkpt>
      <trkpt lat="42.8856" lon="1.23814">
        <ele>691.319</ele>
        <time>2023-05-29T10:55:07Z</time>
      </trkpt>
      <trkpt lat="42.88563" lon="1.23811">
        <ele>693.141</ele>
        <time>2023-05-29T10:55:08Z</time>
      </trkpt>
      <trkpt lat="42.88565" lon="1.2381">
        <ele>693.314</ele>
        <time>2023-05-29T10:55:09Z</time>
      </trkpt>
      <trkpt lat="42.88566" lon="1.23811">
        <ele>691.599</ele>
        <time>2023-05-29T10:55:10Z</time>
      </trkpt>
      <trkpt lat="42.8857" lon="1.23806">
        <ele>691.015</ele>
        <time>2023-05-29T10:55:11Z</time>
      </trkpt>
      <trkpt lat="42.88573" lon="1.23801">
        <ele>691.035</ele>
        <time>2023-05-29T10:55:12Z</time>
      </trkpt>
      <trkpt lat="42.88574" lon="1.23797">
        <ele>690.571</ele>
        <time>2023-05-29T10:55:13Z</time>
      </trkpt>
      <trkpt lat="42.88575" lon="1.23792">
        <ele>689.709</ele>
        <time>2023-05-29T10:55:14Z</time>
      </trkpt>
      <trkpt lat="42.88577" lon="1.23787">
        <ele>688.886</ele>
        <time>2023-05-29T10:55:15Z</time>
      </trkpt>
      <trkpt lat="42.88578" lon="1.23783">
        <ele>689.973</ele>
        <time>2023-05-29T10:55:16Z</time>
      </trkpt>
      <trkpt lat="42.88579" lon="1.2378">
        <ele>690.092</ele>
        <time>2023-05-29T10:55:17Z</time>
      </trkpt>
      <trkpt lat="42.88579" lon="1.23777">
        <ele>689.852</ele>
        <time>2023-05-29T10:55:18Z</time>
      </trkpt>
      <trkpt lat="42.88579" lon="1.23774">
        <ele>689.753</ele>
        <time>2023-05-29T10:55:19Z</time>
      </trkpt>
      <trkpt lat="42.8858" lon="1.23772">
        <ele>690.135</ele>
        <time>2023-05-29T10:55:20Z</time>
      </trkpt>
      <trkpt lat="42.8858" lon="1.23769">
        <ele>689.615</ele>
        <time>2023-05-29T10:55:21Z</time>
      </trkpt>
      <trkpt lat="42.88582" lon="1.23767">
        <ele>689.13</ele>
        <time>2023-05-29T10:55:22Z</time>
      </trkpt>
      <trkpt lat="42.88583" lon="1.23765">
        <ele>688.834</ele>
        <time>2023-05-29T10:55:23Z</time>
      </trkpt>
      <trkpt lat="42.88584" lon="1.23762">
        <ele>688.976</ele>
        <time>2023-05-29T10:55:24Z</time>
      </trkpt>
      <trkpt lat="42.88585" lon="1.2376">
        <ele>687.687</ele>
        <time>2023-05-29T10:55:25Z</time>
      </trkpt>
      <trkpt lat="42.88586" lon="1.23757">
        <ele>689.168</ele>
        <time>2023-05-29T10:55:26Z</time>
      </trkpt>
      <trkpt lat="42.88586" lon="1.23754">
        <ele>690.807</ele>
        <time>2023-05-29T10:55:27Z</time>
      </trkpt>
      <trkpt lat="42.88587" lon="1.23749">
        <ele>693.049</ele>
        <time>2023-05-29T10:55:28Z</time>
      </trkpt>
      <trkpt lat="42.88588" lon="1.23746">
        <ele>692.307</ele>
        <time>2023-05-29T10:55:29Z</time>
      </trkpt>
      <trkpt lat="42.88589" lon="1.23742">
        <ele>692.392</ele>
        <time>2023-05-29T10:55:30Z</time>
      </trkpt>
      <trkpt lat="42.88591" lon="1.23739">
        <ele>691.593</ele>
        <time>2023-05-29T10:55:31Z</time>
      </trkpt>
      <trkpt lat="42.88592" lon="1.23736">
        <ele>693.744</ele>
        <time>2023-05-29T10:55:32Z</time>
      </trkpt>
      <trkpt lat="42.88593" lon="1.23732">
        <ele>693.968</ele>
        <time>2023-05-29T10:55:33Z</time>
      </trkpt>
      <trkpt lat="42.88594" lon="1.23727">
        <ele>693.912</ele>
        <time>2023-05-29T10:55:34Z</time>
      </trkpt>
      <trkpt lat="42.88595" lon="1.23724">
        <ele>693.589</ele>
        <time>2023-05-29T10:55:35Z</time>
      </trkpt>
      <trkpt lat="42.88596" lon="1.23722">
        <ele>694.1</ele>
        <time>2023-05-29T10:55:36Z</time>
      </trkpt>
      <trkpt lat="42.88598" lon="1.23718">
        <ele>693.743</ele>
        <time>2023-05-29T10:55:37Z</time>
      </trkpt>
      <trkpt lat="42.886" lon="1.23715">
        <ele>695.984</ele>
        <time>2023-05-29T10:55:38Z</time>
      </trkpt>
      <trkpt lat="42.88601" lon="1.23712">
        <ele>696.59</ele>
        <time>2023-05-29T10:55:39Z</time>
      </trkpt>
      <trkpt lat="42.88602" lon="1.23709">
        <ele>697.129</ele>
        <time>2023-05-29T10:55:40Z</time>
      </trkpt>
      <trkpt lat="42.88603" lon="1.23706">
        <ele>697.904</ele>
        <time>2023-05-29T10:55:41Z</time>
      </trkpt>
      <trkpt lat="42.88604" lon="1.23702">
        <ele>697.595</ele>
        <time>2023-05-29T10:55:42Z</time>
      </trkpt>
      <trkpt lat="42.88606" lon="1.23699">
        <ele>696.964</ele>
        <time>2023-05-29T10:55:43Z</time>
      </trkpt>
      <trkpt lat="42.88607" lon="1.23694">
        <ele>696.783</ele>
        <time>2023-05-29T10:55:44Z</time>
      </trkpt>
      <trkpt lat="42.88609" lon="1.2369">
        <ele>697.19</ele>
        <time>2023-05-29T10:55:45Z</time>
      </trkpt>
      <trkpt lat="42.88611" lon="1.23685">
        <ele>697.023</ele>
        <time>2023-05-29T10:55:46Z</time>
      </trkpt>
      <trkpt lat="42.88612" lon="1.23681">
        <ele>697.955</ele>
        <time>2023-05-29T10:55:47Z</time>
      </trkpt>
      <trkpt lat="42.88614" lon="1.23676">
        <ele>698.831</ele>
        <time>2023-05-29T10:55:48Z</time>
      </trkpt>
      <trkpt lat="42.88617" lon="1.23672">
        <ele>698.972</ele>
        <time>2023-05-29T10:55:49Z</time>
      </trkpt>
      <trkpt lat="42.88619" lon="1.23668">
        <ele>698.155</ele>
        <time>2023-05-29T10:55:50Z</time>
      </trkpt>
      <trkpt lat="42.88621" lon="1.23663">
        <ele>697.769</ele>
        <time>2023-05-29T10:55:51Z</time>
      </trkpt>
      <trkpt lat="42.88623" lon="1.23659">
        <ele>697.144</ele>
        <time>2023-05-29T10:55:52Z</time>
      </trkpt>
      <trkpt lat="42.88625" lon="1.23655">
        <ele>698.02</ele>
        <time>2023-05-29T10:55:53Z</time>
      </trkpt>
      <trkpt lat="42.88627" lon="1.23651">
        <ele>700.226</ele>
        <time>2023-05-29T10:55:54Z</time>
      </trkpt>
      <trkpt lat="42.8863" lon="1.23646">
        <ele>701.514</ele>
        <time>2023-05-29T10:55:55Z</time>
      </trkpt>
      <trkpt lat="42.88633" lon="1.23642">
        <ele>703.34</ele>
        <time>2023-05-29T10:55:56Z</time>
      </trkpt>
      <trkpt lat="42.88636" lon="1.23637">
        <ele>703.938</ele>
        <time>2023-05-29T10:55:57Z</time>
      </trkpt>
      <trkpt lat="42.88639" lon="1.23633">
        <ele>703.371</ele>
        <time>2023-05-29T10:55:58Z</time>
      </trkpt>
      <trkpt lat="42.88641" lon="1.23628">
        <ele>704.364</ele>
        <time>2023-05-29T10:55:59Z</time>
      </trkpt>
      <trkpt lat="42.88643" lon="1.23624">
        <ele>704.346</ele>
        <time>2023-05-29T10:56:00Z</time>
      </trkpt>
      <trkpt lat="42.88645" lon="1.23619">
        <ele>704.751</ele>
        <time>2023-05-29T10:56:01Z</time>
      </trkpt>
      <trkpt lat="42.88648" lon="1.23615">
        <ele>704.404</ele>
        <time>2023-05-29T10:56:02Z</time>
      </trkpt>
      <trkpt lat="42.8865" lon="1.2361">
        <ele>705.532</ele>
        <time>2023-05-29T10:56:03Z</time>
      </trkpt>
      <trkpt lat="42.88653" lon="1.23606">
        <ele>706.208</ele>
        <time>2023-05-29T10:56:04Z</time>
      </trkpt>
      <trkpt lat="42.88655" lon="1.23603">
        <ele>706.108</ele>
        <time>2023-05-29T10:56:05Z</time>
      </trkpt>
      <trkpt lat="42.88658" lon="1.236">
        <ele>705.761</ele>
        <time>2023-05-29T10:56:06Z</time>
      </trkpt>
      <trkpt lat="42.88661" lon="1.23597">
        <ele>705.111</ele>
        <time>2023-05-29T10:56:07Z</time>
      </trkpt>
      <trkpt lat="42.88662" lon="1.23592">
        <ele>703.033</ele>
        <time>2023-05-29T10:56:08Z</time>
      </trkpt>
      <trkpt lat="42.88664" lon="1.23588">
        <ele>703.442</ele>
        <time>2023-05-29T10:56:09Z</time>
      </trkpt>
      <trkpt lat="42.88666" lon="1.23585">
        <ele>703.72</ele>
        <time>2023-05-29T10:56:10Z</time>
      </trkpt>
      <trkpt lat="42.88669" lon="1.23582">
        <ele>704.421</ele>
        <time>2023-05-29T10:56:11Z</time>
      </trkpt>
      <trkpt lat="42.88671" lon="1.23579">
        <ele>704.189</ele>
        <time>2023-05-29T10:56:12Z</time>
      </trkpt>
      <trkpt lat="42.88673" lon="1.23577">
        <ele>705.28</ele>
        <time>2023-05-29T10:56:13Z</time>
      </trkpt>
      <trkpt lat="42.88675" lon="1.23575">
        <ele>705.703</ele>
        <time>2023-05-29T10:56:14Z</time>
      </trkpt>
      <trkpt lat="42.88677" lon="1.23572">
        <ele>706.138</ele>
        <time>2023-05-29T10:56:15Z</time>
      </trkpt>
      <trkpt lat="42.88679" lon="1.2357">
        <ele>706.71</ele>
        <time>2023-05-29T10:56:16Z</time>
      </trkpt>
      <trkpt lat="42.88681" lon="1.23569">
        <ele>707.544</ele>
        <time>2023-05-29T10:56:17Z</time>
      </trkpt>
      <trkpt lat="42.88683" lon="1.23567">
        <ele>708.018</ele>
        <time>2023-05-29T10:56:18Z</time>
      </trkpt>
      <trkpt lat="42.88685" lon="1.23566">
        <ele>708.114</ele>
        <time>2023-05-29T10:56:19Z</time>
      </trkpt>
      <trkpt lat="42.88687" lon="1.23564">
        <ele>708.011</ele>
        <time>2023-05-29T10:56:20Z</time>
      </trkpt>
      <trkpt lat="42.88689" lon="1.23562">
        <ele>709.491</ele>
        <time>2023-05-29T10:56:21Z</time>
      </trkpt>
      <trkpt lat="42.88691" lon="1.2356">
        <ele>710.249</ele>
        <time>2023-05-29T10:56:22Z</time>
      </trkpt>
      <trkpt lat="42.88693" lon="1.23558">
        <ele>710.663</ele>
        <time>2023-05-29T10:56:23Z</time>
      </trkpt>
      <trkpt lat="42.88695" lon="1.23555">
        <ele>712.363</ele>
        <time>2023-05-29T10:56:24Z</time>
      </trkpt>
      <trkpt lat="42.88697" lon="1.23553">
        <ele>713.297</ele>
        <time>2023-05-29T10:56:25Z</time>
      </trkpt>
      <trkpt lat="42.88699" lon="1.2355">
        <ele>712.998</ele>
        <time>2023-05-29T10:56:26Z</time>
      </trkpt>
      <trkpt lat="42.887" lon="1.23547">
        <ele>714.026</ele>
        <time>2023-05-29T10:56:27Z</time>
      </trkpt>
      <trkpt lat="42.88702" lon="1.23544">
        <ele>714.151</ele>
        <time>2023-05-29T10:56:28Z</time>
      </trkpt>
      <trkpt lat="42.88704" lon="1.23542">
        <ele>714.807</ele>
        <time>2023-05-29T10:56:29Z</time>
      </trkpt>
      <trkpt lat="42.88706" lon="1.23539">
        <ele>715.588</ele>
        <time>2023-05-29T10:56:30Z</time>
      </trkpt>
      <trkpt lat="42.88708" lon="1.23536">
        <ele>716.351</ele>
        <time>2023-05-29T10:56:31Z</time>
      </trkpt>
      <trkpt lat="42.88709" lon="1.23532">
        <ele>717.628</ele>
        <time>2023-05-29T10:56:32Z</time>
      </trkpt>
      <trkpt lat="42.8871" lon="1.23529">
        <ele>717.698</ele>
        <time>2023-05-29T10:56:33Z</time>
      </trkpt>
      <trkpt lat="42.88712" lon="1.23526">
        <ele>718.022</ele>
        <time>2023-05-29T10:56:34Z</time>
      </trkpt>
      <trkpt lat="42.88714" lon="1.23523">
        <ele>717.597</ele>
        <time>2023-05-29T10:56:35Z</time>
      </trkpt>
      <trkpt lat="42.88715" lon="1.2352">
        <ele>718.815</ele>
        <time>2023-05-29T10:56:36Z</time>
      </trkpt>
      <trkpt lat="42.88717" lon="1.23517">
        <ele>718.767</ele>
        <time>2023-05-29T10:56:37Z</time>
      </trkpt>
      <trkpt lat="42.88718" lon="1.23514">
        <ele>718.608</ele>
        <time>2023-05-29T10:56:38Z</time>
      </trkpt>
      <trkpt lat="42.8872" lon="1.23512">
        <ele>717.778</ele>
        <time>2023-05-29T10:56:39Z</time>
      </trkpt>
      <trkpt lat="42.88721" lon="1.23509">
        <ele>716.99</ele>
        <time>2023-05-29T10:56:40Z</time>
      </trkpt>
      <trkpt lat="42.88721" lon="1.23506">
        <ele>716.385</ele>
        <time>2023-05-29T10:56:41Z</time>
      </trkpt>
      <trkpt lat="42.88722" lon="1.23503">
        <ele>717.874</ele>
        <time>2023-05-29T10:56:42Z</time>
      </trkpt>
      <trkpt lat="42.88722" lon="1.235">
        <ele>719.561</ele>
        <time>2023-05-29T10:56:43Z</time>
      </trkpt>
      <trkpt lat="42.88723" lon="1.23497">
        <ele>720.988</ele>
        <time>2023-05-29T10:56:44Z</time>
      </trkpt>
      <trkpt lat="42.88724" lon="1.23494">
        <ele>722.116</ele>
        <time>2023-05-29T10:56:45Z</time>
      </trkpt>
      <trkpt lat="42.88724" lon="1.2349">
        <ele>722.45</ele>
        <time>2023-05-29T10:56:46Z</time>
      </trkpt>
      <trkpt lat="42.88725" lon="1.23487">
        <ele>723.508</ele>
        <time>2023-05-29T10:56:47Z</time>
      </trkpt>
      <trkpt lat="42.88725" lon="1.23484">
        <ele>723.877</ele>
        <time>2023-05-29T10:56:48Z</time>
      </trkpt>
      <trkpt lat="42.88726" lon="1.23481">
        <ele>722.81</ele>
        <time>2023-05-29T10:56:49Z</time>
      </trkpt>
      <trkpt lat="42.88727" lon="1.23478">
        <ele>724.629</ele>
        <time>2023-05-29T10:56:50Z</time>
      </trkpt>
      <trkpt lat="42.88728" lon="1.23476">
        <ele>724.048</ele>
        <time>2023-05-29T10:56:51Z</time>
      </trkpt>
      <trkpt lat="42.8873" lon="1.23473">
        <ele>724.411</ele>
        <time>2023-05-29T10:56:52Z</time>
      </trkpt>
      <trkpt lat="42.88731" lon="1.2347">
        <ele>724.127</ele>
        <time>2023-05-29T10:56:53Z</time>
      </trkpt>
      <trkpt lat="42.88733" lon="1.23467">
        <ele>724.679</ele>
        <time>2023-05-29T10:56:54Z</time>
      </trkpt>
      <trkpt lat="42.88735" lon="1.23464">
        <ele>725.806</ele>
        <time>2023-05-29T10:56:55Z</time>
      </trkpt>
      <trkpt lat="42.88736" lon="1.23462">
        <ele>726.016</ele>
        <time>2023-05-29T10:56:56Z</time>
      </trkpt>
      <trkpt lat="42.88737" lon="1.23459">
        <ele>724.846</ele>
        <time>2023-05-29T10:56:57Z</time>
      </trkpt>
      <trkpt lat="42.88739" lon="1.23456">
        <ele>724.324</ele>
        <time>2023-05-29T10:56:58Z</time>
      </trkpt>
      <trkpt lat="42.88741" lon="1.23454">
        <ele>723.432</ele>
        <time>2023-05-29T10:56:59Z</time>
      </trkpt>
      <trkpt lat="42.88743" lon="1.23453">
        <ele>723.13</ele>
        <time>2023-05-29T10:57:00Z</time>
      </trkpt>
      <trkpt lat="42.88745" lon="1.23452">
        <ele>721.686</ele>
        <time>2023-05-29T10:57:01Z</time>
      </trkpt>
      <trkpt lat="42.88747" lon="1.23452">
        <ele>720.341</ele>
        <time>2023-05-29T10:57:02Z</time>
      </trkpt>
      <trkpt lat="42.88749" lon="1.23451">
        <ele>720.508</ele>
        <time>2023-05-29T10:57:03Z</time>
      </trkpt>
      <trkpt lat="42.8875" lon="1.23449">
        <ele>720.076</ele>
        <time>2023-05-29T10:57:04Z</time>
      </trkpt>
      <trkpt lat="42.88752" lon="1.23447">
        <ele>719.074</ele>
        <time>2023-05-29T10:57:05Z</time>
      </trkpt>
      <trkpt lat="42.88752" lon="1.23443">
        <ele>719.107</ele>
        <time>2023-05-29T10:57:06Z</time>
      </trkpt>
      <trkpt lat="42.88753" lon="1.2344">
        <ele>719.895</ele>
        <time>2023-05-29T10:57:07Z</time>
      </trkpt>
      <trkpt lat="42.88753" lon="1.23437">
        <ele>718.464</ele>
        <time>2023-05-29T10:57:08Z</time>
      </trkpt>
      <trkpt lat="42.88754" lon="1.23434">
        <ele>717.036</ele>
        <time>2023-05-29T10:57:09Z</time>
      </trkpt>
      <trkpt lat="42.88753" lon="1.2343">
        <ele>717.496</ele>
        <time>2023-05-29T10:57:10Z</time>
      </trkpt>
      <trkpt lat="42.88754" lon="1.23426">
        <ele>717.956</ele>
        <time>2023-05-29T10:57:11Z</time>
      </trkpt>
      <trkpt lat="42.88756" lon="1.23422">
        <ele>718.395</ele>
        <time>2023-05-29T10:57:12Z</time>
      </trkpt>
      <trkpt lat="42.88757" lon="1.23418">
        <ele>717.236</ele>
        <time>2023-05-29T10:57:13Z</time>
      </trkpt>
      <trkpt lat="42.88758" lon="1.23414">
        <ele>717.222</ele>
        <time>2023-05-29T10:57:14Z</time>
      </trkpt>
      <trkpt lat="42.88759" lon="1.23411">
        <ele>716.723</ele>
        <time>2023-05-29T10:57:15Z</time>
      </trkpt>
      <trkpt lat="42.8876" lon="1.23408">
        <ele>717.15</ele>
        <time>2023-05-29T10:57:16Z</time>
      </trkpt>
      <trkpt lat="42.88762" lon="1.23405">
        <ele>717.405</ele>
        <time>2023-05-29T10:57:17Z</time>
      </trkpt>
      <trkpt lat="42.88763" lon="1.23402">
        <ele>717.687</ele>
        <time>2023-05-29T10:57:18Z</time>
      </trkpt>
      <trkpt lat="42.88765" lon="1.23399">
        <ele>717.836</ele>
        <time>2023-05-29T10:57:19Z</time>
      </trkpt>
      <trkpt lat="42.88766" lon="1.23396">
        <ele>716.574</ele>
        <time>2023-05-29T10:57:20Z</time>
      </trkpt>
      <trkpt lat="42.88768" lon="1.23393">
        <ele>717.546</ele>
        <time>2023-05-29T10:57:21Z</time>
      </trkpt>
      <trkpt lat="42.88769" lon="1.2339">
        <ele>717.733</ele>
        <time>2023-05-29T10:57:22Z</time>
      </trkpt>
      <trkpt lat="42.8877" lon="1.23388">
        <ele>718.046</ele>
        <time>2023-05-29T10:57:23Z</time>
      </trkpt>
      <trkpt lat="42.88771" lon="1.23385">
        <ele>718.694</ele>
        <time>2023-05-29T10:57:24Z</time>
      </trkpt>
      <trkpt lat="42.88772" lon="1.23382">
        <ele>718.742</ele>
        <time>2023-05-29T10:57:25Z</time>
      </trkpt>
      <trkpt lat="42.88773" lon="1.23379">
        <ele>718.172</ele>
        <time>2023-05-29T10:57:26Z</time>
      </trkpt>
      <trkpt lat="42.88774" lon="1.23377">
        <ele>717.557</ele>
        <time>2023-05-29T10:57:27Z</time>
      </trkpt>
      <trkpt lat="42.88775" lon="1.23374">
        <ele>718.082</ele>
        <time>2023-05-29T10:57:28Z</time>
      </trkpt>
      <trkpt lat="42.88776" lon="1.23372">
        <ele>717.947</ele>
        <time>2023-05-29T10:57:29Z</time>
      </trkpt>
      <trkpt lat="42.88778" lon="1.2337">
        <ele>718.216</ele>
        <time>2023-05-29T10:57:30Z</time>
      </trkpt>
      <trkpt lat="42.88779" lon="1.23369">
        <ele>719.107</ele>
        <time>2023-05-29T10:57:31Z</time>
      </trkpt>
      <trkpt lat="42.88781" lon="1.23367">
        <ele>719.88</ele>
        <time>2023-05-29T10:57:32Z</time>
      </trkpt>
      <trkpt lat="42.88781" lon="1.23364">
        <ele>719.093</ele>
        <time>2023-05-29T10:57:33Z</time>
      </trkpt>
      <trkpt lat="42.88782" lon="1.23361">
        <ele>720.073</ele>
        <time>2023-05-29T10:57:34Z</time>
      </trkpt>
      <trkpt lat="42.88783" lon="1.2336">
        <ele>721.894</ele>
        <time>2023-05-29T10:57:35Z</time>
      </trkpt>
      <trkpt lat="42.88784" lon="1.23358">
        <ele>721.479</ele>
        <time>2023-05-29T10:57:36Z</time>
      </trkpt>
      <trkpt lat="42.88786" lon="1.23354">
        <ele>720.185</ele>
        <time>2023-05-29T10:57:37Z</time>
      </trkpt>
      <trkpt lat="42.88789" lon="1.2335">
        <ele>720.424</ele>
        <time>2023-05-29T10:57:38Z</time>
      </trkpt>
      <trkpt lat="42.88792" lon="1.23347">
        <ele>719.805</ele>
        <time>2023-05-29T10:57:39Z</time>
      </trkpt>
      <trkpt lat="42.88795" lon="1.23344">
        <ele>719.47</ele>
        <time>2023-05-29T10:57:40Z</time>
      </trkpt>
      <trkpt lat="42.88797" lon="1.23341">
        <ele>719.043</ele>
        <time>2023-05-29T10:57:41Z</time>
      </trkpt>
      <trkpt lat="42.88798" lon="1.23338">
        <ele>718.039</ele>
        <time>2023-05-29T10:57:42Z</time>
      </trkpt>
      <trkpt lat="42.88799" lon="1.23336">
        <ele>717.653</ele>
        <time>2023-05-29T10:57:43Z</time>
      </trkpt>
      <trkpt lat="42.888" lon="1.23333">
        <ele>718.082</ele>
        <time>2023-05-29T10:57:44Z</time>
      </trkpt>
      <trkpt lat="42.88802" lon="1.2333">
        <ele>717.825</ele>
        <time>2023-05-29T10:57:45Z</time>
      </trkpt>
      <trkpt lat="42.88803" lon="1.23328">
        <ele>719.108</ele>
        <time>2023-05-29T10:57:46Z</time>
      </trkpt>
      <trkpt lat="42.88804" lon="1.23325">
        <ele>720.422</ele>
        <time>2023-05-29T10:57:47Z</time>
      </trkpt>
      <trkpt lat="42.88806" lon="1.23323">
        <ele>721.001</ele>
        <time>2023-05-29T10:57:48Z</time>
      </trkpt>
      <trkpt lat="42.88807" lon="1.23321">
        <ele>721.625</ele>
        <time>2023-05-29T10:57:49Z</time>
      </trkpt>
      <trkpt lat="42.88808" lon="1.2332">
        <ele>723.032</ele>
        <time>2023-05-29T10:57:50Z</time>
      </trkpt>
      <trkpt lat="42.88808" lon="1.23319">
        <ele>723.534</ele>
        <time>2023-05-29T10:57:51Z</time>
      </trkpt>
      <trkpt lat="42.88809" lon="1.23318">
        <ele>725.09</ele>
        <time>2023-05-29T10:57:52Z</time>
      </trkpt>
      <trkpt lat="42.8881" lon="1.23316">
        <ele>725.675</ele>
        <time>2023-05-29T10:57:53Z</time>
      </trkpt>
      <trkpt lat="42.88811" lon="1.23314">
        <ele>725.636</ele>
        <time>2023-05-29T10:57:54Z</time>
      </trkpt>
      <trkpt lat="42.88812" lon="1.23312">
        <ele>725.756</ele>
        <time>2023-05-29T10:57:55Z</time>
      </trkpt>
      <trkpt lat="42.88813" lon="1.2331">
        <ele>725.129</ele>
        <time>2023-05-29T10:57:56Z</time>
      </trkpt>
      <trkpt lat="42.88814" lon="1.23308">
        <ele>725.395</ele>
        <time>2023-05-29T10:57:57Z</time>
      </trkpt>
      <trkpt lat="42.88816" lon="1.23306">
        <ele>724.641</ele>
        <time>2023-05-29T10:57:58Z</time>
      </trkpt>
      <trkpt lat="42.88817" lon="1.23303">
        <ele>724.935</ele>
        <time>2023-05-29T10:57:59Z</time>
      </trkpt>
      <trkpt lat="42.88819" lon="1.23301">
        <ele>724.662</ele>
        <time>2023-05-29T10:58:00Z</time>
      </trkpt>
      <trkpt lat="42.88821" lon="1.23299">
        <ele>724.863</ele>
        <time>2023-05-29T10:58:01Z</time>
      </trkpt>
      <trkpt lat="42.88823" lon="1.23297">
        <ele>725.911</ele>
        <time>2023-05-29T10:58:02Z</time>
      </trkpt>
      <trkpt lat="42.88825" lon="1.23295">
        <ele>726.666</ele>
        <time>2023-05-29T10:58:03Z</time>
      </trkpt>
      <trkpt lat="42.88827" lon="1.23292">
        <ele>725.786</ele>
        <time>2023-05-29T10:58:04Z</time>
      </trkpt>
      <trkpt lat="42.88829" lon="1.23289">
        <ele>726.792</ele>
        <time>2023-05-29T10:58:05Z</time>
      </trkpt>
      <trkpt lat="42.88831" lon="1.23286">
        <ele>726.775</ele>
        <time>2023-05-29T10:58:06Z</time>
      </trkpt>
      <trkpt lat="42.88834" lon="1.23284">
        <ele>725.803</ele>
        <time>2023-05-29T10:58:07Z</time>
      </trkpt>
      <trkpt lat="42.88835" lon="1.23281">
        <ele>725.899</ele>
        <time>2023-05-29T10:58:08Z</time>
      </trkpt>
      <trkpt lat="42.88837" lon="1.23279">
        <ele>727.307</ele>
        <time>2023-05-29T10:58:09Z</time>
      </trkpt>
      <trkpt lat="42.88839" lon="1.23278">
        <ele>728.073</ele>
        <time>2023-05-29T10:58:10Z</time>
      </trkpt>
      <trkpt lat="42.8884" lon="1.23276">
        <ele>730.142</ele>
        <time>2023-05-29T10:58:11Z</time>
      </trkpt>
      <trkpt lat="42.88842" lon="1.23273">
        <ele>731.096</ele>
        <time>2023-05-29T10:58:12Z</time>
      </trkpt>
      <trkpt lat="42.88844" lon="1.2327">
        <ele>731.181</ele>
        <time>2023-05-29T10:58:13Z</time>
      </trkpt>
      <trkpt lat="42.88846" lon="1.23267">
        <ele>732.449</ele>
        <time>2023-05-29T10:58:14Z</time>
      </trkpt>
      <trkpt lat="42.88848" lon="1.23265">
        <ele>734.444</ele>
        <time>2023-05-29T10:58:15Z</time>
      </trkpt>
      <trkpt lat="42.8885" lon="1.23263">
        <ele>735.623</ele>
        <time>2023-05-29T10:58:16Z</time>
      </trkpt>
      <trkpt lat="42.88852" lon="1.23261">
        <ele>736.751</ele>
        <time>2023-05-29T10:58:17Z</time>
      </trkpt>
      <trkpt lat="42.88854" lon="1.23259">
        <ele>736.709</ele>
        <time>2023-05-29T10:58:18Z</time>
      </trkpt>
      <trkpt lat="42.88857" lon="1.23257">
        <ele>736.768</ele>
        <time>2023-05-29T10:58:19Z</time>
      </trkpt>
      <trkpt lat="42.88859" lon="1.23255">
        <ele>737.23</ele>
        <time>2023-05-29T10:58:20Z</time>
      </trkpt>
      <trkpt lat="42.88862" lon="1.23254">
        <ele>736.172</ele>
        <time>2023-05-29T10:58:21Z</time>
      </trkpt>
      <trkpt lat="42.88864" lon="1.23252">
        <ele>735.779</ele>
        <time>2023-05-29T10:58:22Z</time>
      </trkpt>
      <trkpt lat="42.88867" lon="1.2325">
        <ele>735.161</ele>
        <time>2023-05-29T10:58:23Z</time>
      </trkpt>
      <trkpt lat="42.8887" lon="1.23249">
        <ele>735.087</ele>
        <time>2023-05-29T10:58:24Z</time>
      </trkpt>
      <trkpt lat="42.88873" lon="1.23247">
        <ele>734.871</ele>
        <time>2023-05-29T10:58:25Z</time>
      </trkpt>
      <trkpt lat="42.88876" lon="1.23246">
        <ele>734.772</ele>
        <time>2023-05-29T10:58:26Z</time>
      </trkpt>
      <trkpt lat="42.8888" lon="1.23245">
        <ele>734.25</ele>
        <time>2023-05-29T10:58:27Z</time>
      </trkpt>
      <trkpt lat="42.88883" lon="1.23244">
        <ele>732.802</ele>
        <time>2023-05-29T10:58:28Z</time>
      </trkpt>
      <trkpt lat="42.88886" lon="1.23243">
        <ele>732.372</ele>
        <time>2023-05-29T10:58:29Z</time>
      </trkpt>
      <trkpt lat="42.88889" lon="1.23242">
        <ele>732.402</ele>
        <time>2023-05-29T10:58:30Z</time>
      </trkpt>
      <trkpt lat="42.88892" lon="1.23241">
        <ele>731.88</ele>
        <time>2023-05-29T10:58:31Z</time>
      </trkpt>
      <trkpt lat="42.88896" lon="1.23241">
        <ele>731.329</ele>
        <time>2023-05-29T10:58:32Z</time>
      </trkpt>
      <trkpt lat="42.88899" lon="1.23242">
        <ele>730.605</ele>
        <time>2023-05-29T10:58:33Z</time>
      </trkpt>
      <trkpt lat="42.88902" lon="1.23242">
        <ele>730.122</ele>
        <time>2023-05-29T10:58:34Z</time>
      </trkpt>
      <trkpt lat="42.88906" lon="1.23242">
        <ele>730.149</ele>
        <time>2023-05-29T10:58:35Z</time>
      </trkpt>
      <trkpt lat="42.8891" lon="1.23244">
        <ele>730.419</ele>
        <time>2023-05-29T10:58:36Z</time>
      </trkpt>
      <trkpt lat="42.88913" lon="1.23245">
        <ele>728.705</ele>
        <time>2023-05-29T10:58:37Z</time>
      </trkpt>
      <trkpt lat="42.88917" lon="1.23247">
        <ele>727.444</ele>
        <time>2023-05-29T10:58:38Z</time>
      </trkpt>
      <trkpt lat="42.88925" lon="1.23246">
        <ele>724.14</ele>
        <time>2023-05-29T10:58:39Z</time>
      </trkpt>
      <trkpt lat="42.88931" lon="1.23246">
        <ele>723.739</ele>
        <time>2023-05-29T10:58:40Z</time>
      </trkpt>
      <trkpt lat="42.88936" lon="1.23245">
        <ele>723.511</ele>
        <time>2023-05-29T10:58:41Z</time>
      </trkpt>
      <trkpt lat="42.88941" lon="1.23244">
        <ele>723.889</ele>
        <time>2023-05-29T10:58:42Z</time>
      </trkpt>
      <trkpt lat="42.88946" lon="1.23242">
        <ele>723.347</ele>
        <time>2023-05-29T10:58:43Z</time>
      </trkpt>
      <trkpt lat="42.8895" lon="1.23241">
        <ele>723.984</ele>
        <time>2023-05-29T10:58:44Z</time>
      </trkpt>
      <trkpt lat="42.88954" lon="1.23238">
        <ele>724.303</ele>
        <time>2023-05-29T10:58:45Z</time>
      </trkpt>
      <trkpt lat="42.88957" lon="1.23237">
        <ele>724.101</ele>
        <time>2023-05-29T10:58:46Z</time>
      </trkpt>
      <trkpt lat="42.88959" lon="1.23236">
        <ele>724.604</ele>
        <time>2023-05-29T10:58:47Z</time>
      </trkpt>
      <trkpt lat="42.88961" lon="1.23234">
        <ele>725.355</ele>
        <time>2023-05-29T10:58:48Z</time>
      </trkpt>
      <trkpt lat="42.88964" lon="1.23233">
        <ele>725.811</ele>
        <time>2023-05-29T10:58:49Z</time>
      </trkpt>
      <trkpt lat="42.88967" lon="1.23229">
        <ele>725.21</ele>
        <time>2023-05-29T10:58:50Z</time>
      </trkpt>
      <trkpt lat="42.8897" lon="1.23226">
        <ele>724.716</ele>
        <time>2023-05-29T10:58:51Z</time>
      </trkpt>
      <trkpt lat="42.88974" lon="1.23223">
        <ele>724.403</ele>
        <time>2023-05-29T10:58:52Z</time>
      </trkpt>
      <trkpt lat="42.88977" lon="1.2322">
        <ele>722.969</ele>
        <time>2023-05-29T10:58:53Z</time>
      </trkpt>
      <trkpt lat="42.88981" lon="1.23218">
        <ele>722.016</ele>
        <time>2023-05-29T10:58:54Z</time>
      </trkpt>
      <trkpt lat="42.88984" lon="1.23217">
        <ele>721.291</ele>
        <time>2023-05-29T10:58:55Z</time>
      </trkpt>
      <trkpt lat="42.88986" lon="1.23215">
        <ele>721.444</ele>
        <time>2023-05-29T10:58:56Z</time>
      </trkpt>
      <trkpt lat="42.88989" lon="1.23213">
        <ele>721.927</ele>
        <time>2023-05-29T10:58:57Z</time>
      </trkpt>
      <trkpt lat="42.88992" lon="1.23211">
        <ele>723.172</ele>
        <time>2023-05-29T10:58:58Z</time>
      </trkpt>
      <trkpt lat="42.88995" lon="1.23209">
        <ele>723.186</ele>
        <time>2023-05-29T10:58:59Z</time>
      </trkpt>
      <trkpt lat="42.88994" lon="1.2321">
        <ele>723.065</ele>
        <time>2023-05-29T10:59:00Z</time>
      </trkpt>
      <trkpt lat="42.89" lon="1.23206">
        <ele>724.98</ele>
        <time>2023-05-29T10:59:01Z</time>
      </trkpt>
      <trkpt lat="42.89004" lon="1.23203">
        <ele>725.269</ele>
        <time>2023-05-29T10:59:02Z</time>
      </trkpt>
      <trkpt lat="42.89007" lon="1.23201">
        <ele>725.724</ele>
        <time>2023-05-29T10:59:03Z</time>
      </trkpt>
      <trkpt lat="42.89011" lon="1.23199">
        <ele>723.822</ele>
        <time>2023-05-29T10:59:04Z</time>
      </trkpt>
      <trkpt lat="42.89014" lon="1.23197">
        <ele>723.435</ele>
        <time>2023-05-29T10:59:05Z</time>
      </trkpt>
      <trkpt lat="42.89018" lon="1.23194">
        <ele>723.755</ele>
        <time>2023-05-29T10:59:06Z</time>
      </trkpt>
      <trkpt lat="42.89022" lon="1.23191">
        <ele>725.443</ele>
        <time>2023-05-29T10:59:07Z</time>
      </trkpt>
      <trkpt lat="42.89025" lon="1.23188">
        <ele>723.918</ele>
        <time>2023-05-29T10:59:08Z</time>
      </trkpt>
      <trkpt lat="42.89028" lon="1.23184">
        <ele>723.758</ele>
        <time>2023-05-29T10:59:09Z</time>
      </trkpt>
      <trkpt lat="42.89031" lon="1.2318">
        <ele>724.167</ele>
        <time>2023-05-29T10:59:10Z</time>
      </trkpt>
      <trkpt lat="42.89034" lon="1.23178">
        <ele>725.059</ele>
        <time>2023-05-29T10:59:11Z</time>
      </trkpt>
      <trkpt lat="42.89036" lon="1.23175">
        <ele>724.248</ele>
        <time>2023-05-29T10:59:12Z</time>
      </trkpt>
      <trkpt lat="42.89039" lon="1.23172">
        <ele>723.484</ele>
        <time>2023-05-29T10:59:13Z</time>
      </trkpt>
      <trkpt lat="42.89043" lon="1.23168">
        <ele>723.223</ele>
        <time>2023-05-29T10:59:14Z</time>
      </trkpt>
      <trkpt lat="42.89046" lon="1.23163">
        <ele>722.787</ele>
        <time>2023-05-29T10:59:15Z</time>
      </trkpt>
      <trkpt lat="42.89049" lon="1.23159">
        <ele>722.995</ele>
        <time>2023-05-29T10:59:16Z</time>
      </trkpt>
      <trkpt lat="42.89054" lon="1.23156">
        <ele>722.636</ele>
        <time>2023-05-29T10:59:17Z</time>
      </trkpt>
      <trkpt lat="42.89058" lon="1.23152">
        <ele>721.13</ele>
        <time>2023-05-29T10:59:18Z</time>
      </trkpt>
      <trkpt lat="42.89062" lon="1.23147">
        <ele>720.439</ele>
        <time>2023-05-29T10:59:19Z</time>
      </trkpt>
      <trkpt lat="42.89067" lon="1.23142">
        <ele>720.064</ele>
        <time>2023-05-29T10:59:20Z</time>
      </trkpt>
      <trkpt lat="42.89072" lon="1.23138">
        <ele>720.298</ele>
        <time>2023-05-29T10:59:21Z</time>
      </trkpt>
      <trkpt lat="42.89077" lon="1.23134">
        <ele>718.836</ele>
        <time>2023-05-29T10:59:22Z</time>
      </trkpt>
      <trkpt lat="42.89081" lon="1.2313">
        <ele>718.255</ele>
        <time>2023-05-29T10:59:23Z</time>
      </trkpt>
      <trkpt lat="42.89086" lon="1.23127">
        <ele>717.69</ele>
        <time>2023-05-29T10:59:24Z</time>
      </trkpt>
      <trkpt lat="42.8909" lon="1.23124">
        <ele>716.688</ele>
        <time>2023-05-29T10:59:25Z</time>
      </trkpt>
      <trkpt lat="42.891" lon="1.23116">
        <ele>715.945</ele>
        <time>2023-05-29T10:59:26Z</time>
      </trkpt>
      <trkpt lat="42.89106" lon="1.23113">
        <ele>716.424</ele>
        <time>2023-05-29T10:59:27Z</time>
      </trkpt>
      <trkpt lat="42.89112" lon="1.23109">
        <ele>716.253</ele>
        <time>2023-05-29T10:59:28Z</time>
      </trkpt>
      <trkpt lat="42.89113" lon="1.23109">
        <ele>717.3</ele>
        <time>2023-05-29T10:59:29Z</time>
      </trkpt>
      <trkpt lat="42.89115" lon="1.23105">
        <ele>717.688</ele>
        <time>2023-05-29T10:59:30Z</time>
      </trkpt>
      <trkpt lat="42.89119" lon="1.23099">
        <ele>717.198</ele>
        <time>2023-05-29T10:59:31Z</time>
      </trkpt>
      <trkpt lat="42.89121" lon="1.23093">
        <ele>717.295</ele>
        <time>2023-05-29T10:59:32Z</time>
      </trkpt>
      <trkpt lat="42.89126" lon="1.23088">
        <ele>716.446</ele>
        <time>2023-05-29T10:59:33Z</time>
      </trkpt>
      <trkpt lat="42.89127" lon="1.23088">
        <ele>715.168</ele>
        <time>2023-05-29T10:59:34Z</time>
      </trkpt>
      <trkpt lat="42.89129" lon="1.23088">
        <ele>715.543</ele>
        <time>2023-05-29T10:59:35Z</time>
      </trkpt>
      <trkpt lat="42.89131" lon="1.23087">
        <ele>714.541</ele>
        <time>2023-05-29T10:59:36Z</time>
      </trkpt>
      <trkpt lat="42.89133" lon="1.23084">
        <ele>715.221</ele>
        <time>2023-05-29T10:59:37Z</time>
      </trkpt>
      <trkpt lat="42.89135" lon="1.2308">
        <ele>714.391</ele>
        <time>2023-05-29T10:59:38Z</time>
      </trkpt>
      <trkpt lat="42.89138" lon="1.23077">
        <ele>713.732</ele>
        <time>2023-05-29T10:59:39Z</time>
      </trkpt>
      <trkpt lat="42.89141" lon="1.23073">
        <ele>712.993</ele>
        <time>2023-05-29T10:59:40Z</time>
      </trkpt>
      <trkpt lat="42.89145" lon="1.23067">
        <ele>713.045</ele>
        <time>2023-05-29T10:59:41Z</time>
      </trkpt>
      <trkpt lat="42.89149" lon="1.23061">
        <ele>712.565</ele>
        <time>2023-05-29T10:59:42Z</time>
      </trkpt>
      <trkpt lat="42.89152" lon="1.23058">
        <ele>712.169</ele>
        <time>2023-05-29T10:59:43Z</time>
      </trkpt>
      <trkpt lat="42.89156" lon="1.23055">
        <ele>711.099</ele>
        <time>2023-05-29T10:59:44Z</time>
      </trkpt>
      <trkpt lat="42.89159" lon="1.2305">
        <ele>709.821</ele>
        <time>2023-05-29T10:59:45Z</time>
      </trkpt>
      <trkpt lat="42.89163" lon="1.23047">
        <ele>711.347</ele>
        <time>2023-05-29T10:59:46Z</time>
      </trkpt>
      <trkpt lat="42.89169" lon="1.2304">
        <ele>708.752</ele>
        <time>2023-05-29T10:59:47Z</time>
      </trkpt>
      <trkpt lat="42.89174" lon="1.23034">
        <ele>708.865</ele>
        <time>2023-05-29T10:59:48Z</time>
      </trkpt>
      <trkpt lat="42.8918" lon="1.23029">
        <ele>709.231</ele>
        <time>2023-05-29T10:59:49Z</time>
      </trkpt>
      <trkpt lat="42.89184" lon="1.23023">
        <ele>710.883</ele>
        <time>2023-05-29T10:59:50Z</time>
      </trkpt>
      <trkpt lat="42.8919" lon="1.23018">
        <ele>710.767</ele>
        <time>2023-05-29T10:59:51Z</time>
      </trkpt>
      <trkpt lat="42.89194" lon="1.23014">
        <ele>711.969</ele>
        <time>2023-05-29T10:59:52Z</time>
      </trkpt>
      <trkpt lat="42.89199" lon="1.23009">
        <ele>709.554</ele>
        <time>2023-05-29T10:59:53Z</time>
      </trkpt>
      <trkpt lat="42.89204" lon="1.23005">
        <ele>709.837</ele>
        <time>2023-05-29T10:59:54Z</time>
      </trkpt>
      <trkpt lat="42.89208" lon="1.23">
        <ele>710.972</ele>
        <time>2023-05-29T10:59:55Z</time>
      </trkpt>
      <trkpt lat="42.89212" lon="1.22997">
        <ele>710.305</ele>
        <time>2023-05-29T10:59:56Z</time>
      </trkpt>
      <trkpt lat="42.89215" lon="1.22993">
        <ele>711.005</ele>
        <time>2023-05-29T10:59:57Z</time>
      </trkpt>
      <trkpt lat="42.89218" lon="1.2299">
        <ele>710.492</ele>
        <time>2023-05-29T10:59:58Z</time>
      </trkpt>
      <trkpt lat="42.89223" lon="1.22988">
        <ele>709.559</ele>
        <time>2023-05-29T10:59:59Z</time>
      </trkpt>
      <trkpt lat="42.89227" lon="1.22985">
        <ele>709.541</ele>
        <time>2023-05-29T11:00:00Z</time>
      </trkpt>
      <trkpt lat="42.89231" lon="1.22982">
        <ele>709.448</ele>
        <time>2023-05-29T11:00:01Z</time>
      </trkpt>
      <trkpt lat="42.89234" lon="1.2298">
        <ele>710.206</ele>
        <time>2023-05-29T11:00:02Z</time>
      </trkpt>
      <trkpt lat="42.89237" lon="1.22977">
        <ele>708.837</ele>
        <time>2023-05-29T11:00:03Z</time>
      </trkpt>
      <trkpt lat="42.8924" lon="1.22974">
        <ele>708.781</ele>
        <time>2023-05-29T11:00:04Z</time>
      </trkpt>
      <trkpt lat="42.89244" lon="1.22971">
        <ele>709.646</ele>
        <time>2023-05-29T11:00:05Z</time>
      </trkpt>
      <trkpt lat="42.89248" lon="1.22968">
        <ele>709.936</ele>
        <time>2023-05-29T11:00:06Z</time>
      </trkpt>
      <trkpt lat="42.89251" lon="1.22966">
        <ele>709.93</ele>
        <time>2023-05-29T11:00:07Z</time>
      </trkpt>
      <trkpt lat="42.89254" lon="1.22963">
        <ele>710.337</ele>
        <time>2023-05-29T11:00:08Z</time>
      </trkpt>
      <trkpt lat="42.89257" lon="1.2296">
        <ele>710.473</ele>
        <time>2023-05-29T11:00:09Z</time>
      </trkpt>
      <trkpt lat="42.89259" lon="1.22958">
        <ele>710.452</ele>
        <time>2023-05-29T11:00:10Z</time>
      </trkpt>
      <trkpt lat="42.89261" lon="1.22956">
        <ele>710.829</ele>
        <time>2023-05-29T11:00:11Z</time>
      </trkpt>
      <trkpt lat="42.89263" lon="1.22954">
        <ele>710.004</ele>
        <time>2023-05-29T11:00:12Z</time>
      </trkpt>
      <trkpt lat="42.89265" lon="1.22952">
        <ele>710.118</ele>
        <time>2023-05-29T11:00:13Z</time>
      </trkpt>
      <trkpt lat="42.89267" lon="1.2295">
        <ele>711.35</ele>
        <time>2023-05-29T11:00:14Z</time>
      </trkpt>
      <trkpt lat="42.8927" lon="1.22947">
        <ele>712.435</ele>
        <time>2023-05-29T11:00:15Z</time>
      </trkpt>
      <trkpt lat="42.89272" lon="1.22944">
        <ele>712.821</ele>
        <time>2023-05-29T11:00:16Z</time>
      </trkpt>
      <trkpt lat="42.89274" lon="1.22942">
        <ele>713.488</ele>
        <time>2023-05-29T11:00:17Z</time>
      </trkpt>
      <trkpt lat="42.89276" lon="1.22938">
        <ele>714.136</ele>
        <time>2023-05-29T11:00:18Z</time>
      </trkpt>
      <trkpt lat="42.89278" lon="1.22934">
        <ele>714.42</ele>
        <time>2023-05-29T11:00:19Z</time>
      </trkpt>
      <trkpt lat="42.8928" lon="1.22931">
        <ele>715.047</ele>
        <time>2023-05-29T11:00:20Z</time>
      </trkpt>
      <trkpt lat="42.89281" lon="1.22927">
        <ele>714.886</ele>
        <time>2023-05-29T11:00:21Z</time>
      </trkpt>
      <trkpt lat="42.89283" lon="1.22925">
        <ele>713.976</ele>
        <time>2023-05-29T11:00:22Z</time>
      </trkpt>
      <trkpt lat="42.89284" lon="1.22921">
        <ele>713.57</ele>
        <time>2023-05-29T11:00:23Z</time>
      </trkpt>
      <trkpt lat="42.89286" lon="1.22917">
        <ele>712.082</ele>
        <time>2023-05-29T11:00:24Z</time>
      </trkpt>
      <trkpt lat="42.89288" lon="1.22913">
        <ele>711.649</ele>
        <time>2023-05-29T11:00:25Z</time>
      </trkpt>
      <trkpt lat="42.89291" lon="1.22908">
        <ele>711.689</ele>
        <time>2023-05-29T11:00:26Z</time>
      </trkpt>
      <trkpt lat="42.89292" lon="1.22903">
        <ele>711.674</ele>
        <time>2023-05-29T11:00:27Z</time>
      </trkpt>
      <trkpt lat="42.89293" lon="1.22897">
        <ele>713.34</ele>
        <time>2023-05-29T11:00:28Z</time>
      </trkpt>
      <trkpt lat="42.89295" lon="1.22891">
        <ele>712.961</ele>
        <time>2023-05-29T11:00:29Z</time>
      </trkpt>
      <trkpt lat="42.89299" lon="1.22884">
        <ele>712.551</ele>
        <time>2023-05-29T11:00:30Z</time>
      </trkpt>
      <trkpt lat="42.89303" lon="1.22878">
        <ele>711.475</ele>
        <time>2023-05-29T11:00:31Z</time>
      </trkpt>
      <trkpt lat="42.89307" lon="1.22877">
        <ele>710.35</ele>
        <time>2023-05-29T11:00:32Z</time>
      </trkpt>
      <trkpt lat="42.8931" lon="1.22875">
        <ele>709.254</ele>
        <time>2023-05-29T11:00:33Z</time>
      </trkpt>
      <trkpt lat="42.89313" lon="1.22874">
        <ele>708.929</ele>
        <time>2023-05-29T11:00:34Z</time>
      </trkpt>
      <trkpt lat="42.89315" lon="1.22873">
        <ele>707.916</ele>
        <time>2023-05-29T11:00:35Z</time>
      </trkpt>
      <trkpt lat="42.89318" lon="1.22874">
        <ele>707.162</ele>
        <time>2023-05-29T11:00:36Z</time>
      </trkpt>
      <trkpt lat="42.8932" lon="1.22873">
        <ele>707.546</ele>
        <time>2023-05-29T11:00:37Z</time>
      </trkpt>
      <trkpt lat="42.89323" lon="1.22873">
        <ele>705.397</ele>
        <time>2023-05-29T11:00:38Z</time>
      </trkpt>
      <trkpt lat="42.89326" lon="1.22873">
        <ele>704.456</ele>
        <time>2023-05-29T11:00:39Z</time>
      </trkpt>
      <trkpt lat="42.8933" lon="1.22872">
        <ele>702.746</ele>
        <time>2023-05-29T11:00:40Z</time>
      </trkpt>
      <trkpt lat="42.89333" lon="1.22871">
        <ele>702.302</ele>
        <time>2023-05-29T11:00:41Z</time>
      </trkpt>
      <trkpt lat="42.89337" lon="1.2287">
        <ele>702.082</ele>
        <time>2023-05-29T11:00:42Z</time>
      </trkpt>
      <trkpt lat="42.89341" lon="1.22869">
        <ele>701.83</ele>
        <time>2023-05-29T11:00:43Z</time>
      </trkpt>
      <trkpt lat="42.89346" lon="1.22868">
        <ele>698.542</ele>
        <time>2023-05-29T11:00:44Z</time>
      </trkpt>
      <trkpt lat="42.89352" lon="1.22867">
        <ele>697.699</ele>
        <time>2023-05-29T11:00:45Z</time>
      </trkpt>
      <trkpt lat="42.89357" lon="1.22867">
        <ele>696.292</ele>
        <time>2023-05-29T11:00:46Z</time>
      </trkpt>
      <trkpt lat="42.89363" lon="1.22866">
        <ele>697.024</ele>
        <time>2023-05-29T11:00:47Z</time>
      </trkpt>
      <trkpt lat="42.89368" lon="1.22864">
        <ele>696.091</ele>
        <time>2023-05-29T11:00:48Z</time>
      </trkpt>
      <trkpt lat="42.89371" lon="1.22863">
        <ele>693.362</ele>
        <time>2023-05-29T11:00:49Z</time>
      </trkpt>
      <trkpt lat="42.89376" lon="1.22863">
        <ele>691.231</ele>
        <time>2023-05-29T11:00:50Z</time>
      </trkpt>
      <trkpt lat="42.89381" lon="1.22863">
        <ele>690.312</ele>
        <time>2023-05-29T11:00:51Z</time>
      </trkpt>
      <trkpt lat="42.89396" lon="1.22861">
        <ele>691.242</ele>
        <time>2023-05-29T11:00:52Z</time>
      </trkpt>
      <trkpt lat="42.89399" lon="1.22862">
        <ele>689.825</ele>
        <time>2023-05-29T11:00:53Z</time>
      </trkpt>
      <trkpt lat="42.89404" lon="1.22863">
        <ele>688.349</ele>
        <time>2023-05-29T11:00:54Z</time>
      </trkpt>
      <trkpt lat="42.8941" lon="1.22863">
        <ele>688.391</ele>
        <time>2023-05-29T11:00:55Z</time>
      </trkpt>
      <trkpt lat="42.8942" lon="1.22864">
        <ele>686.916</ele>
        <time>2023-05-29T11:00:56Z</time>
      </trkpt>
      <trkpt lat="42.89428" lon="1.22865">
        <ele>682.728</ele>
        <time>2023-05-29T11:00:57Z</time>
      </trkpt>
      <trkpt lat="42.89436" lon="1.22867">
        <ele>681.557</ele>
        <time>2023-05-29T11:00:58Z</time>
      </trkpt>
      <trkpt lat="42.89444" lon="1.22867">
        <ele>682.113</ele>
        <time>2023-05-29T11:00:59Z</time>
      </trkpt>
      <trkpt lat="42.89452" lon="1.22863">
        <ele>681.498</ele>
        <time>2023-05-29T11:01:00Z</time>
      </trkpt>
      <trkpt lat="42.89458" lon="1.22861">
        <ele>682.043</ele>
        <time>2023-05-29T11:01:01Z</time>
      </trkpt>
      <trkpt lat="42.89464" lon="1.2286">
        <ele>680.161</ele>
        <time>2023-05-29T11:01:02Z</time>
      </trkpt>
      <trkpt lat="42.89467" lon="1.22858">
        <ele>681.106</ele>
        <time>2023-05-29T11:01:03Z</time>
      </trkpt>
      <trkpt lat="42.89471" lon="1.22857">
        <ele>681.142</ele>
        <time>2023-05-29T11:01:04Z</time>
      </trkpt>
      <trkpt lat="42.89474" lon="1.22857">
        <ele>680.504</ele>
        <time>2023-05-29T11:01:05Z</time>
      </trkpt>
      <trkpt lat="42.89477" lon="1.22855">
        <ele>682.262</ele>
        <time>2023-05-29T11:01:06Z</time>
      </trkpt>
      <trkpt lat="42.89479" lon="1.22854">
        <ele>683.527</ele>
        <time>2023-05-29T11:01:07Z</time>
      </trkpt>
      <trkpt lat="42.89482" lon="1.22852">
        <ele>683.763</ele>
        <time>2023-05-29T11:01:08Z</time>
      </trkpt>
      <trkpt lat="42.89485" lon="1.22851">
        <ele>684.201</ele>
        <time>2023-05-29T11:01:09Z</time>
      </trkpt>
      <trkpt lat="42.89488" lon="1.22849">
        <ele>685.051</ele>
        <time>2023-05-29T11:01:10Z</time>
      </trkpt>
      <trkpt lat="42.89493" lon="1.22847">
        <ele>685.095</ele>
        <time>2023-05-29T11:01:11Z</time>
      </trkpt>
      <trkpt lat="42.89497" lon="1.22846">
        <ele>684.105</ele>
        <time>2023-05-29T11:01:12Z</time>
      </trkpt>
      <trkpt lat="42.89501" lon="1.22845">
        <ele>685.273</ele>
        <time>2023-05-29T11:01:13Z</time>
      </trkpt>
      <trkpt lat="42.89504" lon="1.22843">
        <ele>685.467</ele>
        <time>2023-05-29T11:01:14Z</time>
      </trkpt>
      <trkpt lat="42.89507" lon="1.2284">
        <ele>684.421</ele>
        <time>2023-05-29T11:01:15Z</time>
      </trkpt>
      <trkpt lat="42.8951" lon="1.22837">
        <ele>686.203</ele>
        <time>2023-05-29T11:01:16Z</time>
      </trkpt>
      <trkpt lat="42.89514" lon="1.22834">
        <ele>685.821</ele>
        <time>2023-05-29T11:01:17Z</time>
      </trkpt>
      <trkpt lat="42.89517" lon="1.22832">
        <ele>685.639</ele>
        <time>2023-05-29T11:01:18Z</time>
      </trkpt>
      <trkpt lat="42.8952" lon="1.2283">
        <ele>686.859</ele>
        <time>2023-05-29T11:01:19Z</time>
      </trkpt>
      <trkpt lat="42.89524" lon="1.22828">
        <ele>686.231</ele>
        <time>2023-05-29T11:01:20Z</time>
      </trkpt>
      <trkpt lat="42.89527" lon="1.22826">
        <ele>687.32</ele>
        <time>2023-05-29T11:01:21Z</time>
      </trkpt>
      <trkpt lat="42.8953" lon="1.22824">
        <ele>687.429</ele>
        <time>2023-05-29T11:01:22Z</time>
      </trkpt>
      <trkpt lat="42.89532" lon="1.22822">
        <ele>686.082</ele>
        <time>2023-05-29T11:01:23Z</time>
      </trkpt>
      <trkpt lat="42.89535" lon="1.22819">
        <ele>687.407</ele>
        <time>2023-05-29T11:01:24Z</time>
      </trkpt>
      <trkpt lat="42.89534" lon="1.22821">
        <ele>689.222</ele>
        <time>2023-05-29T11:01:25Z</time>
      </trkpt>
      <trkpt lat="42.89537" lon="1.22817">
        <ele>687.748</ele>
        <time>2023-05-29T11:01:26Z</time>
      </trkpt>
      <trkpt lat="42.89538" lon="1.22816">
        <ele>687.913</ele>
        <time>2023-05-29T11:01:27Z</time>
      </trkpt>
      <trkpt lat="42.89539" lon="1.22814">
        <ele>688.513</ele>
        <time>2023-05-29T11:01:28Z</time>
      </trkpt>
      <trkpt lat="42.8954" lon="1.22814">
        <ele>687.852</ele>
        <time>2023-05-29T11:01:29Z</time>
      </trkpt>
      <trkpt lat="42.89539" lon="1.22814">
        <ele>688.05</ele>
        <time>2023-05-29T11:01:30Z</time>
      </trkpt>
      <trkpt lat="42.89539" lon="1.22804">
        <ele>687.254</ele>
        <time>2023-05-29T11:01:31Z</time>
      </trkpt>
      <trkpt lat="42.89538" lon="1.22803">
        <ele>686.073</ele>
        <time>2023-05-29T11:01:32Z</time>
      </trkpt>
      <trkpt lat="42.89538" lon="1.22803">
        <ele>686.041</ele>
        <time>2023-05-29T11:01:33Z</time>
      </trkpt>
      <trkpt lat="42.89538" lon="1.22803">
        <ele>686.042</ele>
        <time>2023-05-29T11:01:34Z</time>
      </trkpt>
      <trkpt lat="42.89538" lon="1.22803">
        <ele>686.038</ele>
        <time>2023-05-29T11:01:35Z</time>
      </trkpt>
      <trkpt lat="42.89538" lon="1.22803">
        <ele>686.035</ele>
        <time>2023-05-29T11:01:36Z</time>
      </trkpt>
      <trkpt lat="42.89538" lon="1.22803">
        <ele>686.035</ele>
        <time>2023-05-29T11:01:37Z</time>
      </trkpt>
      <trkpt lat="42.89538" lon="1.22803">
        <ele>686.034</ele>
        <time>2023-05-29T11:01:38Z</time>
      </trkpt>
      <trkpt lat="42.89538" lon="1.22803">
        <ele>686.034</ele>
        <time>2023-05-29T11:01:39Z</time>
      </trkpt>
      <trkpt lat="42.89538" lon="1.22803">
        <ele>686.035</ele>
        <time>2023-05-29T11:01:40Z</time>
      </trkpt>
      <trkpt lat="42.89538" lon="1.22803">
        <ele>686.039</ele>
        <time>2023-05-29T11:01:41Z</time>
      </trkpt>
      <trkpt lat="42.89538" lon="1.22803">
        <ele>685.965</ele>
        <time>2023-05-29T11:01:42Z</time>
      </trkpt>
      <trkpt lat="42.89538" lon="1.22803">
        <ele>686.221</ele>
        <time>2023-05-29T11:01:43Z</time>
      </trkpt>
      <trkpt lat="42.89539" lon="1.22803">
        <ele>686.496</ele>
        <time>2023-05-29T11:01:44Z</time>
      </trkpt>
      <trkpt lat="42.8954" lon="1.22804">
        <ele>686.267</ele>
        <time>2023-05-29T11:01:45Z</time>
      </trkpt>
      <trkpt lat="42.89541" lon="1.22805">
        <ele>686.532</ele>
        <time>2023-05-29T11:01:46Z</time>
      </trkpt>
      <trkpt lat="42.89541" lon="1.22806">
        <ele>686.515</ele>
        <time>2023-05-29T11:01:47Z</time>
      </trkpt>
      <trkpt lat="42.89542" lon="1.22806">
        <ele>686.515</ele>
        <time>2023-05-29T11:01:48Z</time>
      </trkpt>
      <trkpt lat="42.89542" lon="1.22806">
        <ele>686.514</ele>
        <time>2023-05-29T11:01:49Z</time>
      </trkpt>
      <trkpt lat="42.89542" lon="1.22806">
        <ele>686.514</ele>
        <time>2023-05-29T11:01:50Z</time>
      </trkpt>
      <trkpt lat="42.89542" lon="1.22806">
        <ele>686.515</ele>
        <time>2023-05-29T11:01:51Z</time>
      </trkpt>
      <trkpt lat="42.89542" lon="1.22806">
        <ele>686.514</ele>
        <time>2023-05-29T11:01:52Z</time>
      </trkpt>
      <trkpt lat="42.89542" lon="1.22806">
        <ele>686.512</ele>
        <time>2023-05-29T11:01:53Z</time>
      </trkpt>
      <trkpt lat="42.89542" lon="1.22806">
        <ele>686.513</ele>
        <time>2023-05-29T11:01:54Z</time>
      </trkpt>
      <trkpt lat="42.89542" lon="1.22806">
        <ele>686.514</ele>
        <time>2023-05-29T11:01:55Z</time>
      </trkpt>
      <trkpt lat="42.89542" lon="1.22806">
        <ele>686.523</ele>
        <time>2023-05-29T11:01:56Z</time>
      </trkpt>
      <trkpt lat="42.89542" lon="1.22806">
        <ele>686.539</ele>
        <time>2023-05-29T11:01:57Z</time>
      </trkpt>
      <trkpt lat="42.89542" lon="1.22806">
        <ele>686.814</ele>
        <time>2023-05-29T11:01:58Z</time>
      </trkpt>
      <trkpt lat="42.89542" lon="1.22806">
        <ele>687.575</ele>
        <time>2023-05-29T11:01:59Z</time>
      </trkpt>
      <trkpt lat="42.89545" lon="1.22806">
        <ele>687.809</ele>
        <time>2023-05-29T11:02:00Z</time>
      </trkpt>
      <trkpt lat="42.89547" lon="1.22805">
        <ele>688.427</ele>
        <time>2023-05-29T11:02:01Z</time>
      </trkpt>
      <trkpt lat="42.89548" lon="1.22804">
        <ele>688.437</ele>
        <time>2023-05-29T11:02:02Z</time>
      </trkpt>
      <trkpt lat="42.89549" lon="1.22804">
        <ele>688.046</ele>
        <time>2023-05-29T11:02:03Z</time>
      </trkpt>
      <trkpt lat="42.89548" lon="1.22805">
        <ele>688.249</ele>
        <time>2023-05-29T11:02:04Z</time>
      </trkpt>
      <trkpt lat="42.89548" lon="1.22806">
        <ele>688.221</ele>
        <time>2023-05-29T11:02:05Z</time>
      </trkpt>
      <trkpt lat="42.89549" lon="1.22806">
        <ele>688.217</ele>
        <time>2023-05-29T11:02:06Z</time>
      </trkpt>
      <trkpt lat="42.8955" lon="1.22806">
        <ele>688.218</ele>
        <time>2023-05-29T11:02:07Z</time>
      </trkpt>
      <trkpt lat="42.8955" lon="1.22806">
        <ele>688.219</ele>
        <time>2023-05-29T11:02:08Z</time>
      </trkpt>
      <trkpt lat="42.8955" lon="1.22806">
        <ele>688.214</ele>
        <time>2023-05-29T11:02:09Z</time>
      </trkpt>
      <trkpt lat="42.8955" lon="1.22806">
        <ele>688.219</ele>
        <time>2023-05-29T11:02:10Z</time>
      </trkpt>
      <trkpt lat="42.8955" lon="1.22806">
        <ele>688.322</ele>
        <time>2023-05-29T11:02:11Z</time>
      </trkpt>
      <trkpt lat="42.8955" lon="1.22806">
        <ele>688.668</ele>
        <time>2023-05-29T11:02:12Z</time>
      </trkpt>
      <trkpt lat="42.8955" lon="1.22806">
        <ele>688.663</ele>
        <time>2023-05-29T11:02:13Z</time>
      </trkpt>
      <trkpt lat="42.8955" lon="1.22807">
        <ele>688.671</ele>
        <time>2023-05-29T11:02:14Z</time>
      </trkpt>
      <trkpt lat="42.8955" lon="1.22807">
        <ele>688.664</ele>
        <time>2023-05-29T11:02:15Z</time>
      </trkpt>
      <trkpt lat="42.8955" lon="1.22807">
        <ele>688.665</ele>
        <time>2023-05-29T11:02:16Z</time>
      </trkpt>
      <trkpt lat="42.8955" lon="1.22807">
        <ele>688.985</ele>
        <time>2023-05-29T11:02:17Z</time>
      </trkpt>
      <trkpt lat="42.89549" lon="1.22807">
        <ele>688.989</ele>
        <time>2023-05-29T11:02:18Z</time>
      </trkpt>
      <trkpt lat="42.89549" lon="1.22807">
        <ele>688.986</ele>
        <time>2023-05-29T11:02:19Z</time>
      </trkpt>
      <trkpt lat="42.89549" lon="1.22807">
        <ele>689.098</ele>
        <time>2023-05-29T11:02:20Z</time>
      </trkpt>
      <trkpt lat="42.89549" lon="1.22807">
        <ele>689.588</ele>
        <time>2023-05-29T11:02:21Z</time>
      </trkpt>
      <trkpt lat="42.89549" lon="1.22807">
        <ele>689.897</ele>
        <time>2023-05-29T11:02:22Z</time>
      </trkpt>
      <trkpt lat="42.89549" lon="1.22807">
        <ele>689.807</ele>
        <time>2023-05-29T11:02:23Z</time>
      </trkpt>
      <trkpt lat="42.89549" lon="1.22807">
        <ele>689.811</ele>
        <time>2023-05-29T11:02:24Z</time>
      </trkpt>
      <trkpt lat="42.89549" lon="1.22807">
        <ele>689.808</ele>
        <time>2023-05-29T11:02:25Z</time>
      </trkpt>
      <trkpt lat="42.89549" lon="1.22807">
        <ele>689.803</ele>
        <time>2023-05-29T11:02:26Z</time>
      </trkpt>
      <trkpt lat="42.89549" lon="1.22807">
        <ele>689.802</ele>
        <time>2023-05-29T11:02:27Z</time>
      </trkpt>
      <trkpt lat="42.89549" lon="1.22807">
        <ele>689.793</ele>
        <time>2023-05-29T11:02:28Z</time>
      </trkpt>
      <trkpt lat="42.89549" lon="1.22807">
        <ele>689.787</ele>
        <time>2023-05-29T11:02:29Z</time>
      </trkpt>
      <trkpt lat="42.89549" lon="1.22807">
        <ele>689.787</ele>
        <time>2023-05-29T11:02:30Z</time>
      </trkpt>
      <trkpt lat="42.89549" lon="1.22807">
        <ele>689.785</ele>
        <time>2023-05-29T11:02:31Z</time>
      </trkpt>
      <trkpt lat="42.89549" lon="1.22807">
        <ele>689.785</ele>
        <time>2023-05-29T11:02:32Z</time>
      </trkpt>
      <trkpt lat="42.89549" lon="1.22807">
        <ele>689.785</ele>
        <time>2023-05-29T11:02:33Z</time>
      </trkpt>
      <trkpt lat="42.89549" lon="1.22807">
        <ele>689.782</ele>
        <time>2023-05-29T11:02:34Z</time>
      </trkpt>
      <trkpt lat="42.89549" lon="1.22807">
        <ele>689.67</ele>
        <time>2023-05-29T11:02:35Z</time>
      </trkpt>
      <trkpt lat="42.89549" lon="1.22807">
        <ele>689.341</ele>
        <time>2023-05-29T11:02:36Z</time>
      </trkpt>
      <trkpt lat="42.89549" lon="1.22807">
        <ele>689.338</ele>
        <time>2023-05-29T11:02:37Z</time>
      </trkpt>
      <trkpt lat="42.89548" lon="1.22807">
        <ele>689.334</ele>
        <time>2023-05-29T11:02:38Z</time>
      </trkpt>
      <trkpt lat="42.89548" lon="1.22807">
        <ele>689.328</ele>
        <time>2023-05-29T11:02:39Z</time>
      </trkpt>
      <trkpt lat="42.89548" lon="1.22807">
        <ele>689.321</ele>
        <time>2023-05-29T11:02:40Z</time>
      </trkpt>
      <trkpt lat="42.89548" lon="1.22807">
        <ele>689.312</ele>
        <time>2023-05-29T11:02:41Z</time>
      </trkpt>
      <trkpt lat="42.89548" lon="1.22807">
        <ele>689.309</ele>
        <time>2023-05-29T11:02:42Z</time>
      </trkpt>
      <trkpt lat="42.89548" lon="1.22807">
        <ele>689.301</ele>
        <time>2023-05-29T11:02:43Z</time>
      </trkpt>
      <trkpt lat="42.89548" lon="1.22807">
        <ele>689.298</ele>
        <time>2023-05-29T11:02:44Z</time>
      </trkpt>
      <trkpt lat="42.89548" lon="1.22807">
        <ele>689.301</ele>
        <time>2023-05-29T11:02:45Z</time>
      </trkpt>
      <trkpt lat="42.89548" lon="1.22807">
        <ele>689.003</ele>
        <time>2023-05-29T11:02:46Z</time>
      </trkpt>
      <trkpt lat="42.89549" lon="1.22807">
        <ele>688.613</ele>
        <time>2023-05-29T11:02:47Z</time>
      </trkpt>
      <trkpt lat="42.89549" lon="1.22807">
        <ele>688.428</ele>
        <time>2023-05-29T11:02:48Z</time>
      </trkpt>
      <trkpt lat="42.89549" lon="1.22808">
        <ele>688.688</ele>
        <time>2023-05-29T11:02:49Z</time>
      </trkpt>
      <trkpt lat="42.89549" lon="1.22808">
        <ele>688.777</ele>
        <time>2023-05-29T11:02:50Z</time>
      </trkpt>
      <trkpt lat="42.89549" lon="1.22809">
        <ele>688.752</ele>
        <time>2023-05-29T11:02:51Z</time>
      </trkpt>
      <trkpt lat="42.89549" lon="1.22808">
        <ele>689.121</ele>
        <time>2023-05-29T11:02:52Z</time>
      </trkpt>
      <trkpt lat="42.89549" lon="1.22808">
        <ele>689.176</ele>
        <time>2023-05-29T11:02:53Z</time>
      </trkpt>
      <trkpt lat="42.89548" lon="1.22808">
        <ele>688.557</ele>
        <time>2023-05-29T11:02:54Z</time>
      </trkpt>
      <trkpt lat="42.89548" lon="1.22808">
        <ele>688.53</ele>
        <time>2023-05-29T11:02:55Z</time>
      </trkpt>
      <trkpt lat="42.89548" lon="1.22808">
        <ele>688.523</ele>
        <time>2023-05-29T11:02:56Z</time>
      </trkpt>
      <trkpt lat="42.89548" lon="1.22808">
        <ele>688.527</ele>
        <time>2023-05-29T11:02:57Z</time>
      </trkpt>
      <trkpt lat="42.89548" lon="1.22808">
        <ele>688.531</ele>
        <time>2023-05-29T11:02:58Z</time>
      </trkpt>
      <trkpt lat="42.89548" lon="1.22808">
        <ele>688.536</ele>
        <time>2023-05-29T11:02:59Z</time>
      </trkpt>
      <trkpt lat="42.89548" lon="1.22808">
        <ele>688.536</ele>
        <time>2023-05-29T11:03:00Z</time>
      </trkpt>
      <trkpt lat="42.89548" lon="1.22808">
        <ele>688.543</ele>
        <time>2023-05-29T11:03:01Z</time>
      </trkpt>
      <trkpt lat="42.89548" lon="1.22808">
        <ele>688.544</ele>
        <time>2023-05-29T11:03:02Z</time>
      </trkpt>
      <trkpt lat="42.89548" lon="1.22808">
        <ele>688.545</ele>
        <time>2023-05-29T11:03:03Z</time>
      </trkpt>
      <trkpt lat="42.89548" lon="1.22808">
        <ele>688.546</ele>
        <time>2023-05-29T11:03:04Z</time>
      </trkpt>
      <trkpt lat="42.89548" lon="1.22808">
        <ele>688.552</ele>
        <time>2023-05-29T11:03:05Z</time>
      </trkpt>
      <trkpt lat="42.89548" lon="1.22808">
        <ele>688.552</ele>
        <time>2023-05-29T11:03:06Z</time>
      </trkpt>
      <trkpt lat="42.89548" lon="1.22808">
        <ele>688.556</ele>
        <time>2023-05-29T11:03:07Z</time>
      </trkpt>
      <trkpt lat="42.89548" lon="1.22808">
        <ele>688.563</ele>
        <time>2023-05-29T11:03:08Z</time>
      </trkpt>
      <trkpt lat="42.89548" lon="1.22808">
        <ele>688.561</ele>
        <time>2023-05-29T11:03:09Z</time>
      </trkpt>
      <trkpt lat="42.89548" lon="1.22808">
        <ele>688.561</ele>
        <time>2023-05-29T11:03:10Z</time>
      </trkpt>
      <trkpt lat="42.89548" lon="1.22808">
        <ele>688.565</ele>
        <time>2023-05-29T11:03:11Z</time>
      </trkpt>
      <trkpt lat="42.89548" lon="1.22808">
        <ele>688.557</ele>
        <time>2023-05-29T11:03:12Z</time>
      </trkpt>
      <trkpt lat="42.89548" lon="1.22808">
        <ele>688.551</ele>
        <time>2023-05-29T11:03:13Z</time>
      </trkpt>
      <trkpt lat="42.89548" lon="1.22808">
        <ele>688.543</ele>
        <time>2023-05-29T11:03:14Z</time>
      </trkpt>
      <trkpt lat="42.89548" lon="1.22808">
        <ele>688.542</ele>
        <time>2023-05-29T11:03:15Z</time>
      </trkpt>
      <trkpt lat="42.89548" lon="1.22808">
        <ele>688.538</ele>
        <time>2023-05-29T11:03:16Z</time>
      </trkpt>
      <trkpt lat="42.89548" lon="1.22808">
        <ele>688.547</ele>
        <time>2023-05-29T11:03:17Z</time>
      </trkpt>
      <trkpt lat="42.89548" lon="1.22808">
        <ele>688.55</ele>
        <time>2023-05-29T11:03:18Z</time>
      </trkpt>
      <trkpt lat="42.89548" lon="1.22808">
        <ele>688.55</ele>
        <time>2023-05-29T11:03:19Z</time>
      </trkpt>
      <trkpt lat="42.89548" lon="1.22808">
        <ele>688.551</ele>
        <time>2023-05-29T11:03:20Z</time>
      </trkpt>
      <trkpt lat="42.89548" lon="1.22808">
        <ele>688.549</ele>
        <time>2023-05-29T11:03:21Z</time>
      </trkpt>
      <trkpt lat="42.89548" lon="1.22808">
        <ele>688.551</ele>
        <time>2023-05-29T11:03:22Z</time>
      </trkpt>
      <trkpt lat="42.89548" lon="1.22808">
        <ele>688.551</ele>
        <time>2023-05-29T11:03:23Z</time>
      </trkpt>
      <trkpt lat="42.89548" lon="1.22808">
        <ele>688.55</ele>
        <time>2023-05-29T11:03:24Z</time>
      </trkpt>
      <trkpt lat="42.89548" lon="1.22808">
        <ele>688.554</ele>
        <time>2023-05-29T11:03:25Z</time>
      </trkpt>
      <trkpt lat="42.89548" lon="1.22808">
        <ele>688.547</ele>
        <time>2023-05-29T11:03:26Z</time>
      </trkpt>
      <trkpt lat="42.89548" lon="1.22808">
        <ele>688.547</ele>
        <time>2023-05-29T11:03:27Z</time>
      </trkpt>
      <trkpt lat="42.89548" lon="1.22808">
        <ele>688.546</ele>
        <time>2023-05-29T11:03:28Z</time>
      </trkpt>
      <trkpt lat="42.89548" lon="1.22808">
        <ele>688.547</ele>
        <time>2023-05-29T11:03:29Z</time>
      </trkpt>
      <trkpt lat="42.89548" lon="1.22808">
        <ele>688.546</ele>
        <time>2023-05-29T11:03:30Z</time>
      </trkpt>
      <trkpt lat="42.89548" lon="1.22808">
        <ele>688.551</ele>
        <time>2023-05-29T11:03:31Z</time>
      </trkpt>
      <trkpt lat="42.89548" lon="1.22808">
        <ele>688.557</ele>
        <time>2023-05-29T11:03:32Z</time>
      </trkpt>
      <trkpt lat="42.89548" lon="1.22808">
        <ele>688.561</ele>
        <time>2023-05-29T11:03:33Z</time>
      </trkpt>
      <trkpt lat="42.89548" lon="1.22808">
        <ele>688.566</ele>
        <time>2023-05-29T11:03:34Z</time>
      </trkpt>
      <trkpt lat="42.89548" lon="1.22808">
        <ele>688.581</ele>
        <time>2023-05-29T11:03:35Z</time>
      </trkpt>
      <trkpt lat="42.89548" lon="1.22808">
        <ele>688.59</ele>
        <time>2023-05-29T11:03:36Z</time>
      </trkpt>
      <trkpt lat="42.89548" lon="1.22808">
        <ele>688.596</ele>
        <time>2023-05-29T11:03:37Z</time>
      </trkpt>
      <trkpt lat="42.89548" lon="1.22808">
        <ele>688.598</ele>
        <time>2023-05-29T11:03:38Z</time>
      </trkpt>
      <trkpt lat="42.89548" lon="1.22808">
        <ele>688.597</ele>
        <time>2023-05-29T11:03:39Z</time>
      </trkpt>
      <trkpt lat="42.89548" lon="1.22808">
        <ele>688.605</ele>
        <time>2023-05-29T11:03:40Z</time>
      </trkpt>
      <trkpt lat="42.89548" lon="1.22808">
        <ele>688.61</ele>
        <time>2023-05-29T11:03:41Z</time>
      </trkpt>
      <trkpt lat="42.89548" lon="1.22808">
        <ele>688.614</ele>
        <time>2023-05-29T11:03:42Z</time>
      </trkpt>
      <trkpt lat="42.89548" lon="1.22808">
        <ele>688.623</ele>
        <time>2023-05-29T11:03:43Z</time>
      </trkpt>
      <trkpt lat="42.89548" lon="1.22808">
        <ele>688.635</ele>
        <time>2023-05-29T11:03:44Z</time>
      </trkpt>
      <trkpt lat="42.89548" lon="1.22808">
        <ele>688.639</ele>
        <time>2023-05-29T11:03:45Z</time>
      </trkpt>
      <trkpt lat="42.89548" lon="1.22808">
        <ele>688.648</ele>
        <time>2023-05-29T11:03:46Z</time>
      </trkpt>
      <trkpt lat="42.89548" lon="1.22808">
        <ele>688.655</ele>
        <time>2023-05-29T11:03:47Z</time>
      </trkpt>
      <trkpt lat="42.89548" lon="1.22808">
        <ele>688.661</ele>
        <time>2023-05-29T11:03:48Z</time>
      </trkpt>
      <trkpt lat="42.89548" lon="1.22808">
        <ele>688.671</ele>
        <time>2023-05-29T11:03:49Z</time>
      </trkpt>
      <trkpt lat="42.89548" lon="1.22808">
        <ele>688.677</ele>
        <time>2023-05-29T11:03:50Z</time>
      </trkpt>
      <trkpt lat="42.89548" lon="1.22808">
        <ele>688.684</ele>
        <time>2023-05-29T11:03:51Z</time>
      </trkpt>
      <trkpt lat="42.89548" lon="1.22808">
        <ele>688.691</ele>
        <time>2023-05-29T11:03:52Z</time>
      </trkpt>
      <trkpt lat="42.89548" lon="1.22808">
        <ele>688.692</ele>
        <time>2023-05-29T11:03:53Z</time>
      </trkpt>
      <trkpt lat="42.89548" lon="1.22808">
        <ele>688.69</ele>
        <time>2023-05-29T11:03:54Z</time>
      </trkpt>
      <trkpt lat="42.89548" lon="1.22808">
        <ele>688.689</ele>
        <time>2023-05-29T11:03:55Z</time>
      </trkpt>
      <trkpt lat="42.89548" lon="1.22808">
        <ele>688.69</ele>
        <time>2023-05-29T11:03:56Z</time>
      </trkpt>
      <trkpt lat="42.89548" lon="1.22808">
        <ele>688.689</ele>
        <time>2023-05-29T11:03:57Z</time>
      </trkpt>
      <trkpt lat="42.89548" lon="1.22808">
        <ele>688.688</ele>
        <time>2023-05-29T11:03:58Z</time>
      </trkpt>
      <trkpt lat="42.89548" lon="1.22808">
        <ele>688.681</ele>
        <time>2023-05-29T11:03:59Z</time>
      </trkpt>
      <trkpt lat="42.89548" lon="1.22808">
        <ele>688.68</ele>
        <time>2023-05-29T11:04:00Z</time>
      </trkpt>
      <trkpt lat="42.89548" lon="1.22808">
        <ele>688.674</ele>
        <time>2023-05-29T11:04:01Z</time>
      </trkpt>
      <trkpt lat="42.89548" lon="1.22808">
        <ele>688.669</ele>
        <time>2023-05-29T11:04:02Z</time>
      </trkpt>
      <trkpt lat="42.89548" lon="1.22808">
        <ele>688.665</ele>
        <time>2023-05-29T11:04:03Z</time>
      </trkpt>
      <trkpt lat="42.89548" lon="1.22808">
        <ele>688.661</ele>
        <time>2023-05-29T11:04:04Z</time>
      </trkpt>
      <trkpt lat="42.89548" lon="1.22808">
        <ele>688.656</ele>
        <time>2023-05-29T11:04:05Z</time>
      </trkpt>
      <trkpt lat="42.89548" lon="1.22808">
        <ele>688.656</ele>
        <time>2023-05-29T11:04:06Z</time>
      </trkpt>
      <trkpt lat="42.89548" lon="1.22808">
        <ele>688.65</ele>
        <time>2023-05-29T11:04:07Z</time>
      </trkpt>
      <trkpt lat="42.89548" lon="1.22808">
        <ele>688.644</ele>
        <time>2023-05-29T11:04:08Z</time>
      </trkpt>
      <trkpt lat="42.89548" lon="1.22808">
        <ele>688.642</ele>
        <time>2023-05-29T11:04:09Z</time>
      </trkpt>
      <trkpt lat="42.89548" lon="1.22808">
        <ele>688.633</ele>
        <time>2023-05-29T11:04:10Z</time>
      </trkpt>
      <trkpt lat="42.89548" lon="1.22808">
        <ele>688.626</ele>
        <time>2023-05-29T11:04:11Z</time>
      </trkpt>
      <trkpt lat="42.89548" lon="1.22808">
        <ele>688.62</ele>
        <time>2023-05-29T11:04:12Z</time>
      </trkpt>
      <trkpt lat="42.89548" lon="1.22808">
        <ele>688.605</ele>
        <time>2023-05-29T11:04:13Z</time>
      </trkpt>
      <trkpt lat="42.89548" lon="1.22808">
        <ele>688.599</ele>
        <time>2023-05-29T11:04:14Z</time>
      </trkpt>
      <trkpt lat="42.89548" lon="1.22808">
        <ele>688.592</ele>
        <time>2023-05-29T11:04:15Z</time>
      </trkpt>
      <trkpt lat="42.89548" lon="1.22808">
        <ele>688.589</ele>
        <time>2023-05-29T11:04:16Z</time>
      </trkpt>
      <trkpt lat="42.89548" lon="1.22808">
        <ele>688.584</ele>
        <time>2023-05-29T11:04:17Z</time>
      </trkpt>
      <trkpt lat="42.89548" lon="1.22808">
        <ele>688.582</ele>
        <time>2023-05-29T11:04:18Z</time>
      </trkpt>
      <trkpt lat="42.89548" lon="1.22808">
        <ele>688.575</ele>
        <time>2023-05-29T11:04:19Z</time>
      </trkpt>
      <trkpt lat="42.89548" lon="1.22808">
        <ele>688.58</ele>
        <time>2023-05-29T11:04:20Z</time>
      </trkpt>
      <trkpt lat="42.89548" lon="1.22808">
        <ele>688.577</ele>
        <time>2023-05-29T11:04:21Z</time>
      </trkpt>
      <trkpt lat="42.89548" lon="1.22808">
        <ele>688.569</ele>
        <time>2023-05-29T11:04:22Z</time>
      </trkpt>
      <trkpt lat="42.89548" lon="1.22808">
        <ele>688.562</ele>
        <time>2023-05-29T11:04:23Z</time>
      </trkpt>
      <trkpt lat="42.89548" lon="1.22808">
        <ele>688.487</ele>
        <time>2023-05-29T11:04:24Z</time>
      </trkpt>
      <trkpt lat="42.89548" lon="1.22808">
        <ele>688.484</ele>
        <time>2023-05-29T11:04:25Z</time>
      </trkpt>
      <trkpt lat="42.89548" lon="1.22808">
        <ele>688.485</ele>
        <time>2023-05-29T11:04:26Z</time>
      </trkpt>
      <trkpt lat="42.89548" lon="1.22808">
        <ele>688.485</ele>
        <time>2023-05-29T11:04:27Z</time>
      </trkpt>
      <trkpt lat="42.89548" lon="1.22808">
        <ele>688.487</ele>
        <time>2023-05-29T11:04:28Z</time>
      </trkpt>
      <trkpt lat="42.89548" lon="1.22808">
        <ele>688.493</ele>
        <time>2023-05-29T11:04:29Z</time>
      </trkpt>
      <trkpt lat="42.89548" lon="1.22808">
        <ele>688.493</ele>
        <time>2023-05-29T11:04:30Z</time>
      </trkpt>
      <trkpt lat="42.89548" lon="1.22808">
        <ele>688.497</ele>
        <time>2023-05-29T11:04:31Z</time>
      </trkpt>
      <trkpt lat="42.89548" lon="1.22808">
        <ele>688.494</ele>
        <time>2023-05-29T11:04:32Z</time>
      </trkpt>
      <trkpt lat="42.89548" lon="1.22808">
        <ele>688.496</ele>
        <time>2023-05-29T11:04:33Z</time>
      </trkpt>
      <trkpt lat="42.89548" lon="1.22808">
        <ele>688.494</ele>
        <time>2023-05-29T11:04:34Z</time>
      </trkpt>
      <trkpt lat="42.89548" lon="1.22808">
        <ele>688.492</ele>
        <time>2023-05-29T11:04:35Z</time>
      </trkpt>
      <trkpt lat="42.89548" lon="1.22808">
        <ele>688.485</ele>
        <time>2023-05-29T11:04:36Z</time>
      </trkpt>
      <trkpt lat="42.89548" lon="1.22808">
        <ele>688.485</ele>
        <time>2023-05-29T11:04:37Z</time>
      </trkpt>
      <trkpt lat="42.89548" lon="1.22808">
        <ele>688.48</ele>
        <time>2023-05-29T11:04:38Z</time>
      </trkpt>
      <trkpt lat="42.89548" lon="1.22808">
        <ele>688.483</ele>
        <time>2023-05-29T11:04:39Z</time>
      </trkpt>
      <trkpt lat="42.89548" lon="1.22808">
        <ele>688.485</ele>
        <time>2023-05-29T11:04:40Z</time>
      </trkpt>
      <trkpt lat="42.89548" lon="1.22808">
        <ele>688.487</ele>
        <time>2023-05-29T11:04:41Z</time>
      </trkpt>
      <trkpt lat="42.89548" lon="1.22808">
        <ele>688.49</ele>
        <time>2023-05-29T11:04:42Z</time>
      </trkpt>
      <trkpt lat="42.89548" lon="1.22808">
        <ele>688.492</ele>
        <time>2023-05-29T11:04:43Z</time>
      </trkpt>
      <trkpt lat="42.89548" lon="1.22808">
        <ele>688.489</ele>
        <time>2023-05-29T11:04:44Z</time>
      </trkpt>
      <trkpt lat="42.89548" lon="1.22808">
        <ele>688.483</ele>
        <time>2023-05-29T11:04:45Z</time>
      </trkpt>
      <trkpt lat="42.89548" lon="1.22808">
        <ele>688.485</ele>
        <time>2023-05-29T11:04:46Z</time>
      </trkpt>
      <trkpt lat="42.89548" lon="1.22808">
        <ele>688.484</ele>
        <time>2023-05-29T11:04:47Z</time>
      </trkpt>
      <trkpt lat="42.89548" lon="1.22808">
        <ele>688.484</ele>
        <time>2023-05-29T11:04:48Z</time>
      </trkpt>
      <trkpt lat="42.89548" lon="1.22808">
        <ele>688.483</ele>
        <time>2023-05-29T11:04:49Z</time>
      </trkpt>
      <trkpt lat="42.89548" lon="1.22808">
        <ele>688.485</ele>
        <time>2023-05-29T11:04:50Z</time>
      </trkpt>
      <trkpt lat="42.89548" lon="1.22808">
        <ele>688.49</ele>
        <time>2023-05-29T11:04:51Z</time>
      </trkpt>
      <trkpt lat="42.89548" lon="1.22808">
        <ele>688.49</ele>
        <time>2023-05-29T11:04:52Z</time>
      </trkpt>
      <trkpt lat="42.89548" lon="1.22808">
        <ele>688.483</ele>
        <time>2023-05-29T11:04:53Z</time>
      </trkpt>
      <trkpt lat="42.89548" lon="1.22808">
        <ele>688.487</ele>
        <time>2023-05-29T11:04:54Z</time>
      </trkpt>
      <trkpt lat="42.89548" lon="1.22808">
        <ele>688.496</ele>
        <time>2023-05-29T11:04:55Z</time>
      </trkpt>
      <trkpt lat="42.89548" lon="1.22808">
        <ele>688.491</ele>
        <time>2023-05-29T11:04:56Z</time>
      </trkpt>
      <trkpt lat="42.89548" lon="1.22808">
        <ele>688.497</ele>
        <time>2023-05-29T11:04:57Z</time>
      </trkpt>
      <trkpt lat="42.89548" lon="1.22808">
        <ele>688.501</ele>
        <time>2023-05-29T11:04:58Z</time>
      </trkpt>
      <trkpt lat="42.89548" lon="1.22808">
        <ele>688.5</ele>
        <time>2023-05-29T11:04:59Z</time>
      </trkpt>
      <trkpt lat="42.89548" lon="1.22808">
        <ele>688.507</ele>
        <time>2023-05-29T11:05:00Z</time>
      </trkpt>
      <trkpt lat="42.89548" lon="1.22808">
        <ele>688.511</ele>
        <time>2023-05-29T11:05:01Z</time>
      </trkpt>
      <trkpt lat="42.89548" lon="1.22808">
        <ele>688.507</ele>
        <time>2023-05-29T11:05:02Z</time>
      </trkpt>
      <trkpt lat="42.89548" lon="1.22808">
        <ele>688.508</ele>
        <time>2023-05-29T11:05:03Z</time>
      </trkpt>
      <trkpt lat="42.89548" lon="1.22808">
        <ele>688.506</ele>
        <time>2023-05-29T11:05:04Z</time>
      </trkpt>
      <trkpt lat="42.89548" lon="1.22808">
        <ele>688.505</ele>
        <time>2023-05-29T11:05:05Z</time>
      </trkpt>
      <trkpt lat="42.89548" lon="1.22808">
        <ele>688.504</ele>
        <time>2023-05-29T11:05:06Z</time>
      </trkpt>
      <trkpt lat="42.89548" lon="1.22808">
        <ele>688.505</ele>
        <time>2023-05-29T11:05:07Z</time>
      </trkpt>
      <trkpt lat="42.89548" lon="1.22808">
        <ele>688.504</ele>
        <time>2023-05-29T11:05:08Z</time>
      </trkpt>
      <trkpt lat="42.89548" lon="1.22808">
        <ele>688.504</ele>
        <time>2023-05-29T11:05:09Z</time>
      </trkpt>
      <trkpt lat="42.89548" lon="1.22808">
        <ele>688.5</ele>
        <time>2023-05-29T11:05:10Z</time>
      </trkpt>
      <trkpt lat="42.89548" lon="1.22808">
        <ele>688.498</ele>
        <time>2023-05-29T11:05:11Z</time>
      </trkpt>
      <trkpt lat="42.89548" lon="1.22808">
        <ele>688.496</ele>
        <time>2023-05-29T11:05:12Z</time>
      </trkpt>
      <trkpt lat="42.89548" lon="1.22808">
        <ele>688.499</ele>
        <time>2023-05-29T11:05:13Z</time>
      </trkpt>
      <trkpt lat="42.89548" lon="1.22808">
        <ele>688.499</ele>
        <time>2023-05-29T11:05:14Z</time>
      </trkpt>
      <trkpt lat="42.89548" lon="1.22808">
        <ele>688.503</ele>
        <time>2023-05-29T11:05:15Z</time>
      </trkpt>
      <trkpt lat="42.89548" lon="1.22808">
        <ele>688.505</ele>
        <time>2023-05-29T11:05:16Z</time>
      </trkpt>
      <trkpt lat="42.89548" lon="1.22808">
        <ele>688.511</ele>
        <time>2023-05-29T11:05:17Z</time>
      </trkpt>
      <trkpt lat="42.89548" lon="1.22808">
        <ele>688.51</ele>
        <time>2023-05-29T11:05:18Z</time>
      </trkpt>
      <trkpt lat="42.89548" lon="1.22808">
        <ele>688.517</ele>
        <time>2023-05-29T11:05:19Z</time>
      </trkpt>
      <trkpt lat="42.89548" lon="1.22808">
        <ele>688.52</ele>
        <time>2023-05-29T11:05:20Z</time>
      </trkpt>
      <trkpt lat="42.89548" lon="1.22808">
        <ele>688.52</ele>
        <time>2023-05-29T11:05:21Z</time>
      </trkpt>
      <trkpt lat="42.89548" lon="1.22808">
        <ele>688.526</ele>
        <time>2023-05-29T11:05:22Z</time>
      </trkpt>
      <trkpt lat="42.89548" lon="1.22808">
        <ele>688.546</ele>
        <time>2023-05-29T11:05:23Z</time>
      </trkpt>
      <trkpt lat="42.89548" lon="1.22808">
        <ele>688.555</ele>
        <time>2023-05-29T11:05:24Z</time>
      </trkpt>
      <trkpt lat="42.89548" lon="1.22808">
        <ele>688.56</ele>
        <time>2023-05-29T11:05:25Z</time>
      </trkpt>
      <trkpt lat="42.89548" lon="1.22808">
        <ele>688.571</ele>
        <time>2023-05-29T11:05:26Z</time>
      </trkpt>
      <trkpt lat="42.89548" lon="1.22808">
        <ele>688.572</ele>
        <time>2023-05-29T11:05:27Z</time>
      </trkpt>
      <trkpt lat="42.89548" lon="1.22808">
        <ele>688.575</ele>
        <time>2023-05-29T11:05:28Z</time>
      </trkpt>
      <trkpt lat="42.89548" lon="1.22808">
        <ele>688.58</ele>
        <time>2023-05-29T11:05:29Z</time>
      </trkpt>
      <trkpt lat="42.89548" lon="1.22808">
        <ele>688.591</ele>
        <time>2023-05-29T11:05:30Z</time>
      </trkpt>
      <trkpt lat="42.89548" lon="1.22808">
        <ele>688.594</ele>
        <time>2023-05-29T11:05:31Z</time>
      </trkpt>
      <trkpt lat="42.89548" lon="1.22808">
        <ele>688.596</ele>
        <time>2023-05-29T11:05:32Z</time>
      </trkpt>
      <trkpt lat="42.89548" lon="1.22808">
        <ele>688.596</ele>
        <time>2023-05-29T11:05:33Z</time>
      </trkpt>
      <trkpt lat="42.89548" lon="1.22808">
        <ele>688.594</ele>
        <time>2023-05-29T11:05:34Z</time>
      </trkpt>
      <trkpt lat="42.89548" lon="1.22808">
        <ele>688.592</ele>
        <time>2023-05-29T11:05:35Z</time>
      </trkpt>
      <trkpt lat="42.89548" lon="1.22808">
        <ele>688.592</ele>
        <time>2023-05-29T11:05:36Z</time>
      </trkpt>
      <trkpt lat="42.89548" lon="1.22808">
        <ele>688.594</ele>
        <time>2023-05-29T11:05:37Z</time>
      </trkpt>
      <trkpt lat="42.89548" lon="1.22808">
        <ele>688.597</ele>
        <time>2023-05-29T11:05:38Z</time>
      </trkpt>
      <trkpt lat="42.89548" lon="1.22808">
        <ele>688.597</ele>
        <time>2023-05-29T11:05:39Z</time>
      </trkpt>
      <trkpt lat="42.89548" lon="1.22808">
        <ele>688.597</ele>
        <time>2023-05-29T11:05:40Z</time>
      </trkpt>
      <trkpt lat="42.89548" lon="1.22808">
        <ele>688.597</ele>
        <time>2023-05-29T11:05:41Z</time>
      </trkpt>
      <trkpt lat="42.89548" lon="1.22808">
        <ele>688.598</ele>
        <time>2023-05-29T11:05:42Z</time>
      </trkpt>
      <trkpt lat="42.89548" lon="1.22808">
        <ele>688.598</ele>
        <time>2023-05-29T11:05:43Z</time>
      </trkpt>
      <trkpt lat="42.89548" lon="1.22808">
        <ele>688.597</ele>
        <time>2023-05-29T11:05:44Z</time>
      </trkpt>
      <trkpt lat="42.89548" lon="1.22808">
        <ele>688.59</ele>
        <time>2023-05-29T11:05:45Z</time>
      </trkpt>
      <trkpt lat="42.89548" lon="1.22808">
        <ele>688.588</ele>
        <time>2023-05-29T11:05:46Z</time>
      </trkpt>
      <trkpt lat="42.89548" lon="1.22808">
        <ele>688.59</ele>
        <time>2023-05-29T11:05:47Z</time>
      </trkpt>
      <trkpt lat="42.89548" lon="1.22808">
        <ele>688.587</ele>
        <time>2023-05-29T11:05:48Z</time>
      </trkpt>
      <trkpt lat="42.89548" lon="1.22808">
        <ele>688.582</ele>
        <time>2023-05-29T11:05:49Z</time>
      </trkpt>
      <trkpt lat="42.89548" lon="1.22808">
        <ele>688.579</ele>
        <time>2023-05-29T11:05:50Z</time>
      </trkpt>
      <trkpt lat="42.89548" lon="1.22808">
        <ele>688.575</ele>
        <time>2023-05-29T11:05:51Z</time>
      </trkpt>
      <trkpt lat="42.89548" lon="1.22808">
        <ele>688.571</ele>
        <time>2023-05-29T11:05:52Z</time>
      </trkpt>
      <trkpt lat="42.89548" lon="1.22808">
        <ele>688.563</ele>
        <time>2023-05-29T11:05:53Z</time>
      </trkpt>
      <trkpt lat="42.89548" lon="1.22808">
        <ele>688.56</ele>
        <time>2023-05-29T11:05:54Z</time>
      </trkpt>
      <trkpt lat="42.89548" lon="1.22808">
        <ele>688.558</ele>
        <time>2023-05-29T11:05:55Z</time>
      </trkpt>
      <trkpt lat="42.89548" lon="1.22808">
        <ele>688.558</ele>
        <time>2023-05-29T11:05:56Z</time>
      </trkpt>
      <trkpt lat="42.89548" lon="1.22808">
        <ele>688.563</ele>
        <time>2023-05-29T11:05:57Z</time>
      </trkpt>
      <trkpt lat="42.89548" lon="1.22808">
        <ele>688.563</ele>
        <time>2023-05-29T11:05:58Z</time>
      </trkpt>
      <trkpt lat="42.89548" lon="1.22808">
        <ele>688.564</ele>
        <time>2023-05-29T11:05:59Z</time>
      </trkpt>
      <trkpt lat="42.89548" lon="1.22808">
        <ele>688.561</ele>
        <time>2023-05-29T11:06:00Z</time>
      </trkpt>
      <trkpt lat="42.89548" lon="1.22808">
        <ele>688.559</ele>
        <time>2023-05-29T11:06:01Z</time>
      </trkpt>
      <trkpt lat="42.89548" lon="1.22808">
        <ele>688.559</ele>
        <time>2023-05-29T11:06:02Z</time>
      </trkpt>
      <trkpt lat="42.89548" lon="1.22808">
        <ele>688.561</ele>
        <time>2023-05-29T11:06:03Z</time>
      </trkpt>
      <trkpt lat="42.89548" lon="1.22808">
        <ele>688.563</ele>
        <time>2023-05-29T11:06:04Z</time>
      </trkpt>
      <trkpt lat="42.89548" lon="1.22808">
        <ele>688.562</ele>
        <time>2023-05-29T11:06:05Z</time>
      </trkpt>
      <trkpt lat="42.89548" lon="1.22808">
        <ele>688.562</ele>
        <time>2023-05-29T11:06:06Z</time>
      </trkpt>
      <trkpt lat="42.89548" lon="1.22808">
        <ele>688.563</ele>
        <time>2023-05-29T11:06:07Z</time>
      </trkpt>
      <trkpt lat="42.89548" lon="1.22808">
        <ele>688.567</ele>
        <time>2023-05-29T11:06:08Z</time>
      </trkpt>
      <trkpt lat="42.89548" lon="1.22808">
        <ele>688.572</ele>
        <time>2023-05-29T11:06:09Z</time>
      </trkpt>
      <trkpt lat="42.89548" lon="1.22808">
        <ele>688.572</ele>
        <time>2023-05-29T11:06:10Z</time>
      </trkpt>
      <trkpt lat="42.89548" lon="1.22808">
        <ele>688.573</ele>
        <time>2023-05-29T11:06:11Z</time>
      </trkpt>
      <trkpt lat="42.89548" lon="1.22808">
        <ele>688.574</ele>
        <time>2023-05-29T11:06:12Z</time>
      </trkpt>
      <trkpt lat="42.89548" lon="1.22808">
        <ele>688.575</ele>
        <time>2023-05-29T11:06:13Z</time>
      </trkpt>
      <trkpt lat="42.89548" lon="1.22808">
        <ele>688.573</ele>
        <time>2023-05-29T11:06:14Z</time>
      </trkpt>
      <trkpt lat="42.89548" lon="1.22808">
        <ele>688.572</ele>
        <time>2023-05-29T11:06:15Z</time>
      </trkpt>
      <trkpt lat="42.89548" lon="1.22808">
        <ele>688.57</ele>
        <time>2023-05-29T11:06:16Z</time>
      </trkpt>
      <trkpt lat="42.89548" lon="1.22808">
        <ele>688.565</ele>
        <time>2023-05-29T11:06:17Z</time>
      </trkpt>
      <trkpt lat="42.89548" lon="1.22808">
        <ele>688.565</ele>
        <time>2023-05-29T11:06:18Z</time>
      </trkpt>
      <trkpt lat="42.89548" lon="1.22808">
        <ele>688.563</ele>
        <time>2023-05-29T11:06:19Z</time>
      </trkpt>
      <trkpt lat="42.89548" lon="1.22808">
        <ele>688.561</ele>
        <time>2023-05-29T11:06:20Z</time>
      </trkpt>
      <trkpt lat="42.89548" lon="1.22808">
        <ele>688.559</ele>
        <time>2023-05-29T11:06:21Z</time>
      </trkpt>
      <trkpt lat="42.89548" lon="1.22808">
        <ele>688.555</ele>
        <time>2023-05-29T11:06:22Z</time>
      </trkpt>
      <trkpt lat="42.89548" lon="1.22808">
        <ele>688.551</ele>
        <time>2023-05-29T11:06:23Z</time>
      </trkpt>
      <trkpt lat="42.89548" lon="1.22808">
        <ele>688.552</ele>
        <time>2023-05-29T11:06:24Z</time>
      </trkpt>
      <trkpt lat="42.89548" lon="1.22808">
        <ele>688.55</ele>
        <time>2023-05-29T11:06:25Z</time>
      </trkpt>
      <trkpt lat="42.89548" lon="1.22808">
        <ele>688.548</ele>
        <time>2023-05-29T11:06:26Z</time>
      </trkpt>
      <trkpt lat="42.89548" lon="1.22808">
        <ele>688.547</ele>
        <time>2023-05-29T11:06:27Z</time>
      </trkpt>
      <trkpt lat="42.89548" lon="1.22808">
        <ele>688.548</ele>
        <time>2023-05-29T11:06:28Z</time>
      </trkpt>
      <trkpt lat="42.89548" lon="1.22808">
        <ele>688.555</ele>
        <time>2023-05-29T11:06:29Z</time>
      </trkpt>
      <trkpt lat="42.89548" lon="1.22808">
        <ele>688.559</ele>
        <time>2023-05-29T11:06:30Z</time>
      </trkpt>
      <trkpt lat="42.89548" lon="1.22808">
        <ele>688.564</ele>
        <time>2023-05-29T11:06:31Z</time>
      </trkpt>
      <trkpt lat="42.89548" lon="1.22808">
        <ele>688.574</ele>
        <time>2023-05-29T11:06:32Z</time>
      </trkpt>
      <trkpt lat="42.89548" lon="1.22808">
        <ele>688.583</ele>
        <time>2023-05-29T11:06:33Z</time>
      </trkpt>
      <trkpt lat="42.89548" lon="1.22808">
        <ele>688.593</ele>
        <time>2023-05-29T11:06:34Z</time>
      </trkpt>
      <trkpt lat="42.89548" lon="1.22808">
        <ele>688.596</ele>
        <time>2023-05-29T11:06:35Z</time>
      </trkpt>
      <trkpt lat="42.89548" lon="1.22808">
        <ele>688.602</ele>
        <time>2023-05-29T11:06:36Z</time>
      </trkpt>
      <trkpt lat="42.89548" lon="1.22808">
        <ele>688.608</ele>
        <time>2023-05-29T11:06:37Z</time>
      </trkpt>
      <trkpt lat="42.89548" lon="1.22808">
        <ele>688.613</ele>
        <time>2023-05-29T11:06:38Z</time>
      </trkpt>
      <trkpt lat="42.89548" lon="1.22808">
        <ele>688.611</ele>
        <time>2023-05-29T11:06:39Z</time>
      </trkpt>
      <trkpt lat="42.89548" lon="1.22808">
        <ele>688.613</ele>
        <time>2023-05-29T11:06:40Z</time>
      </trkpt>
      <trkpt lat="42.89548" lon="1.22808">
        <ele>688.614</ele>
        <time>2023-05-29T11:06:41Z</time>
      </trkpt>
      <trkpt lat="42.89548" lon="1.22808">
        <ele>688.62</ele>
        <time>2023-05-29T11:06:42Z</time>
      </trkpt>
      <trkpt lat="42.89548" lon="1.22808">
        <ele>688.624</ele>
        <time>2023-05-29T11:06:43Z</time>
      </trkpt>
      <trkpt lat="42.89548" lon="1.22808">
        <ele>688.63</ele>
        <time>2023-05-29T11:06:44Z</time>
      </trkpt>
      <trkpt lat="42.89548" lon="1.22808">
        <ele>688.633</ele>
        <time>2023-05-29T11:06:45Z</time>
      </trkpt>
      <trkpt lat="42.89548" lon="1.22808">
        <ele>688.633</ele>
        <time>2023-05-29T11:06:46Z</time>
      </trkpt>
      <trkpt lat="42.89548" lon="1.22808">
        <ele>688.633</ele>
        <time>2023-05-29T11:06:47Z</time>
      </trkpt>
      <trkpt lat="42.89548" lon="1.22808">
        <ele>688.637</ele>
        <time>2023-05-29T11:06:48Z</time>
      </trkpt>
      <trkpt lat="42.89548" lon="1.22808">
        <ele>688.633</ele>
        <time>2023-05-29T11:06:49Z</time>
      </trkpt>
      <trkpt lat="42.89548" lon="1.22808">
        <ele>688.633</ele>
        <time>2023-05-29T11:06:50Z</time>
      </trkpt>
      <trkpt lat="42.89548" lon="1.22808">
        <ele>688.632</ele>
        <time>2023-05-29T11:06:51Z</time>
      </trkpt>
      <trkpt lat="42.89548" lon="1.22808">
        <ele>688.627</ele>
        <time>2023-05-29T11:06:52Z</time>
      </trkpt>
      <trkpt lat="42.89548" lon="1.22808">
        <ele>688.626</ele>
        <time>2023-05-29T11:06:53Z</time>
      </trkpt>
      <trkpt lat="42.89548" lon="1.22808">
        <ele>688.63</ele>
        <time>2023-05-29T11:06:54Z</time>
      </trkpt>
      <trkpt lat="42.89548" lon="1.22808">
        <ele>688.488</ele>
        <time>2023-05-29T11:06:55Z</time>
      </trkpt>
      <trkpt lat="42.89549" lon="1.22808">
        <ele>688.489</ele>
        <time>2023-05-29T11:06:56Z</time>
      </trkpt>
      <trkpt lat="42.89549" lon="1.22808">
        <ele>688.488</ele>
        <time>2023-05-29T11:06:57Z</time>
      </trkpt>
      <trkpt lat="42.89549" lon="1.22808">
        <ele>688.481</ele>
        <time>2023-05-29T11:06:58Z</time>
      </trkpt>
      <trkpt lat="42.89549" lon="1.22808">
        <ele>688.483</ele>
        <time>2023-05-29T11:06:59Z</time>
      </trkpt>
      <trkpt lat="42.89549" lon="1.22808">
        <ele>688.49</ele>
        <time>2023-05-29T11:07:00Z</time>
      </trkpt>
      <trkpt lat="42.89549" lon="1.22808">
        <ele>688.494</ele>
        <time>2023-05-29T11:07:01Z</time>
      </trkpt>
      <trkpt lat="42.89549" lon="1.22808">
        <ele>688.492</ele>
        <time>2023-05-29T11:07:02Z</time>
      </trkpt>
      <trkpt lat="42.89549" lon="1.22808">
        <ele>688.49</ele>
        <time>2023-05-29T11:07:03Z</time>
      </trkpt>
      <trkpt lat="42.89549" lon="1.22808">
        <ele>688.49</ele>
        <time>2023-05-29T11:07:04Z</time>
      </trkpt>
      <trkpt lat="42.89549" lon="1.22808">
        <ele>688.492</ele>
        <time>2023-05-29T11:07:05Z</time>
      </trkpt>
      <trkpt lat="42.89549" lon="1.22808">
        <ele>688.494</ele>
        <time>2023-05-29T11:07:06Z</time>
      </trkpt>
      <trkpt lat="42.89549" lon="1.22808">
        <ele>688.503</ele>
        <time>2023-05-29T11:07:07Z</time>
      </trkpt>
      <trkpt lat="42.89549" lon="1.22808">
        <ele>688.503</ele>
        <time>2023-05-29T11:07:08Z</time>
      </trkpt>
      <trkpt lat="42.89549" lon="1.22808">
        <ele>688.508</ele>
        <time>2023-05-29T11:07:09Z</time>
      </trkpt>
      <trkpt lat="42.89549" lon="1.22808">
        <ele>688.51</ele>
        <time>2023-05-29T11:07:10Z</time>
      </trkpt>
      <trkpt lat="42.89549" lon="1.22808">
        <ele>688.51</ele>
        <time>2023-05-29T11:07:11Z</time>
      </trkpt>
      <trkpt lat="42.89549" lon="1.22808">
        <ele>688.51</ele>
        <time>2023-05-29T11:07:12Z</time>
      </trkpt>
      <trkpt lat="42.89549" lon="1.22808">
        <ele>688.51</ele>
        <time>2023-05-29T11:07:13Z</time>
      </trkpt>
      <trkpt lat="42.89549" lon="1.22808">
        <ele>688.517</ele>
        <time>2023-05-29T11:07:14Z</time>
      </trkpt>
      <trkpt lat="42.89549" lon="1.22808">
        <ele>688.522</ele>
        <time>2023-05-29T11:07:15Z</time>
      </trkpt>
      <trkpt lat="42.89549" lon="1.22808">
        <ele>688.529</ele>
        <time>2023-05-29T11:07:16Z</time>
      </trkpt>
      <trkpt lat="42.89549" lon="1.22808">
        <ele>688.537</ele>
        <time>2023-05-29T11:07:17Z</time>
      </trkpt>
      <trkpt lat="42.89549" lon="1.22808">
        <ele>688.538</ele>
        <time>2023-05-29T11:07:18Z</time>
      </trkpt>
      <trkpt lat="42.89549" lon="1.22808">
        <ele>688.538</ele>
        <time>2023-05-29T11:07:19Z</time>
      </trkpt>
      <trkpt lat="42.89549" lon="1.22808">
        <ele>688.538</ele>
        <time>2023-05-29T11:07:20Z</time>
      </trkpt>
      <trkpt lat="42.89549" lon="1.22808">
        <ele>688.541</ele>
        <time>2023-05-29T11:07:21Z</time>
      </trkpt>
      <trkpt lat="42.89549" lon="1.22808">
        <ele>688.542</ele>
        <time>2023-05-29T11:07:22Z</time>
      </trkpt>
      <trkpt lat="42.89549" lon="1.22808">
        <ele>688.541</ele>
        <time>2023-05-29T11:07:23Z</time>
      </trkpt>
      <trkpt lat="42.89549" lon="1.22808">
        <ele>688.54</ele>
        <time>2023-05-29T11:07:24Z</time>
      </trkpt>
      <trkpt lat="42.89549" lon="1.22808">
        <ele>688.543</ele>
        <time>2023-05-29T11:07:25Z</time>
      </trkpt>
      <trkpt lat="42.89549" lon="1.22808">
        <ele>688.543</ele>
        <time>2023-05-29T11:07:26Z</time>
      </trkpt>
      <trkpt lat="42.89549" lon="1.22808">
        <ele>688.551</ele>
        <time>2023-05-29T11:07:27Z</time>
      </trkpt>
      <trkpt lat="42.89549" lon="1.22808">
        <ele>688.551</ele>
        <time>2023-05-29T11:07:28Z</time>
      </trkpt>
      <trkpt lat="42.89549" lon="1.22808">
        <ele>688.558</ele>
        <time>2023-05-29T11:07:29Z</time>
      </trkpt>
      <trkpt lat="42.89549" lon="1.22808">
        <ele>688.564</ele>
        <time>2023-05-29T11:07:30Z</time>
      </trkpt>
      <trkpt lat="42.89549" lon="1.22808">
        <ele>688.573</ele>
        <time>2023-05-29T11:07:31Z</time>
      </trkpt>
      <trkpt lat="42.89549" lon="1.22808">
        <ele>688.581</ele>
        <time>2023-05-29T11:07:32Z</time>
      </trkpt>
      <trkpt lat="42.89549" lon="1.22808">
        <ele>688.589</ele>
        <time>2023-05-29T11:07:33Z</time>
      </trkpt>
      <trkpt lat="42.89549" lon="1.22808">
        <ele>688.595</ele>
        <time>2023-05-29T11:07:34Z</time>
      </trkpt>
      <trkpt lat="42.89549" lon="1.22808">
        <ele>688.602</ele>
        <time>2023-05-29T11:07:35Z</time>
      </trkpt>
      <trkpt lat="42.89549" lon="1.22808">
        <ele>688.612</ele>
        <time>2023-05-29T11:07:36Z</time>
      </trkpt>
      <trkpt lat="42.89549" lon="1.22808">
        <ele>688.614</ele>
        <time>2023-05-29T11:07:37Z</time>
      </trkpt>
      <trkpt lat="42.89549" lon="1.22808">
        <ele>688.627</ele>
        <time>2023-05-29T11:07:38Z</time>
      </trkpt>
      <trkpt lat="42.89549" lon="1.22808">
        <ele>688.629</ele>
        <time>2023-05-29T11:07:39Z</time>
      </trkpt>
      <trkpt lat="42.89549" lon="1.22808">
        <ele>688.634</ele>
        <time>2023-05-29T11:07:40Z</time>
      </trkpt>
      <trkpt lat="42.89549" lon="1.22808">
        <ele>688.643</ele>
        <time>2023-05-29T11:07:41Z</time>
      </trkpt>
      <trkpt lat="42.89549" lon="1.22808">
        <ele>688.639</ele>
        <time>2023-05-29T11:07:42Z</time>
      </trkpt>
      <trkpt lat="42.89549" lon="1.22808">
        <ele>688.648</ele>
        <time>2023-05-29T11:07:43Z</time>
      </trkpt>
      <trkpt lat="42.89549" lon="1.22808">
        <ele>688.651</ele>
        <time>2023-05-29T11:07:44Z</time>
      </trkpt>
      <trkpt lat="42.89549" lon="1.22808">
        <ele>688.658</ele>
        <time>2023-05-29T11:07:45Z</time>
      </trkpt>
      <trkpt lat="42.89549" lon="1.22808">
        <ele>688.666</ele>
        <time>2023-05-29T11:07:46Z</time>
      </trkpt>
      <trkpt lat="42.89549" lon="1.22808">
        <ele>688.67</ele>
        <time>2023-05-29T11:07:47Z</time>
      </trkpt>
      <trkpt lat="42.89549" lon="1.22808">
        <ele>688.681</ele>
        <time>2023-05-29T11:07:48Z</time>
      </trkpt>
      <trkpt lat="42.89549" lon="1.22808">
        <ele>688.687</ele>
        <time>2023-05-29T11:07:49Z</time>
      </trkpt>
      <trkpt lat="42.89549" lon="1.22808">
        <ele>688.69</ele>
        <time>2023-05-29T11:07:50Z</time>
      </trkpt>
      <trkpt lat="42.89549" lon="1.22808">
        <ele>688.704</ele>
        <time>2023-05-29T11:07:51Z</time>
      </trkpt>
      <trkpt lat="42.89549" lon="1.22808">
        <ele>688.716</ele>
        <time>2023-05-29T11:07:52Z</time>
      </trkpt>
      <trkpt lat="42.89549" lon="1.22808">
        <ele>688.725</ele>
        <time>2023-05-29T11:07:53Z</time>
      </trkpt>
      <trkpt lat="42.89549" lon="1.22808">
        <ele>688.741</ele>
        <time>2023-05-29T11:07:54Z</time>
      </trkpt>
      <trkpt lat="42.89549" lon="1.22808">
        <ele>688.748</ele>
        <time>2023-05-29T11:07:55Z</time>
      </trkpt>
      <trkpt lat="42.89549" lon="1.22808">
        <ele>688.755</ele>
        <time>2023-05-29T11:07:56Z</time>
      </trkpt>
      <trkpt lat="42.89549" lon="1.22808">
        <ele>688.762</ele>
        <time>2023-05-29T11:07:57Z</time>
      </trkpt>
      <trkpt lat="42.89549" lon="1.22808">
        <ele>688.773</ele>
        <time>2023-05-29T11:07:58Z</time>
      </trkpt>
      <trkpt lat="42.89549" lon="1.22808">
        <ele>688.775</ele>
        <time>2023-05-29T11:07:59Z</time>
      </trkpt>
      <trkpt lat="42.89549" lon="1.22808">
        <ele>688.779</ele>
        <time>2023-05-29T11:08:00Z</time>
      </trkpt>
      <trkpt lat="42.89549" lon="1.22808">
        <ele>688.788</ele>
        <time>2023-05-29T11:08:01Z</time>
      </trkpt>
      <trkpt lat="42.89549" lon="1.22808">
        <ele>688.793</ele>
        <time>2023-05-29T11:08:02Z</time>
      </trkpt>
      <trkpt lat="42.89549" lon="1.22808">
        <ele>688.803</ele>
        <time>2023-05-29T11:08:03Z</time>
      </trkpt>
      <trkpt lat="42.89549" lon="1.22808">
        <ele>688.807</ele>
        <time>2023-05-29T11:08:04Z</time>
      </trkpt>
      <trkpt lat="42.89549" lon="1.22808">
        <ele>688.813</ele>
        <time>2023-05-29T11:08:05Z</time>
      </trkpt>
      <trkpt lat="42.89549" lon="1.22808">
        <ele>688.817</ele>
        <time>2023-05-29T11:08:06Z</time>
      </trkpt>
      <trkpt lat="42.89549" lon="1.22808">
        <ele>688.823</ele>
        <time>2023-05-29T11:08:07Z</time>
      </trkpt>
      <trkpt lat="42.89549" lon="1.22808">
        <ele>688.827</ele>
        <time>2023-05-29T11:08:08Z</time>
      </trkpt>
      <trkpt lat="42.89549" lon="1.22808">
        <ele>688.827</ele>
        <time>2023-05-29T11:08:09Z</time>
      </trkpt>
      <trkpt lat="42.89549" lon="1.22808">
        <ele>688.826</ele>
        <time>2023-05-29T11:08:10Z</time>
      </trkpt>
      <trkpt lat="42.89549" lon="1.22808">
        <ele>688.824</ele>
        <time>2023-05-29T11:08:11Z</time>
      </trkpt>
      <trkpt lat="42.89549" lon="1.22808">
        <ele>688.825</ele>
        <time>2023-05-29T11:08:12Z</time>
      </trkpt>
      <trkpt lat="42.89549" lon="1.22808">
        <ele>688.826</ele>
        <time>2023-05-29T11:08:13Z</time>
      </trkpt>
      <trkpt lat="42.89549" lon="1.22808">
        <ele>688.831</ele>
        <time>2023-05-29T11:08:14Z</time>
      </trkpt>
      <trkpt lat="42.89549" lon="1.22808">
        <ele>688.825</ele>
        <time>2023-05-29T11:08:15Z</time>
      </trkpt>
      <trkpt lat="42.89549" lon="1.22808">
        <ele>688.821</ele>
        <time>2023-05-29T11:08:16Z</time>
      </trkpt>
      <trkpt lat="42.89549" lon="1.22808">
        <ele>688.815</ele>
        <time>2023-05-29T11:08:17Z</time>
      </trkpt>
      <trkpt lat="42.89549" lon="1.22808">
        <ele>688.812</ele>
        <time>2023-05-29T11:08:18Z</time>
      </trkpt>
      <trkpt lat="42.89549" lon="1.22808">
        <ele>688.808</ele>
        <time>2023-05-29T11:08:19Z</time>
      </trkpt>
      <trkpt lat="42.89549" lon="1.22808">
        <ele>688.811</ele>
        <time>2023-05-29T11:08:20Z</time>
      </trkpt>
      <trkpt lat="42.89549" lon="1.22808">
        <ele>688.808</ele>
        <time>2023-05-29T11:08:21Z</time>
      </trkpt>
      <trkpt lat="42.89549" lon="1.22808">
        <ele>688.806</ele>
        <time>2023-05-29T11:08:22Z</time>
      </trkpt>
      <trkpt lat="42.89549" lon="1.22808">
        <ele>688.806</ele>
        <time>2023-05-29T11:08:23Z</time>
      </trkpt>
      <trkpt lat="42.89549" lon="1.22808">
        <ele>688.796</ele>
        <time>2023-05-29T11:08:24Z</time>
      </trkpt>
      <trkpt lat="42.89549" lon="1.22808">
        <ele>688.793</ele>
        <time>2023-05-29T11:08:25Z</time>
      </trkpt>
      <trkpt lat="42.89549" lon="1.22808">
        <ele>688.788</ele>
        <time>2023-05-29T11:08:26Z</time>
      </trkpt>
      <trkpt lat="42.89549" lon="1.22808">
        <ele>688.787</ele>
        <time>2023-05-29T11:08:27Z</time>
      </trkpt>
      <trkpt lat="42.89549" lon="1.22808">
        <ele>688.786</ele>
        <time>2023-05-29T11:08:28Z</time>
      </trkpt>
      <trkpt lat="42.89549" lon="1.22808">
        <ele>688.785</ele>
        <time>2023-05-29T11:08:29Z</time>
      </trkpt>
      <trkpt lat="42.89549" lon="1.22808">
        <ele>688.782</ele>
        <time>2023-05-29T11:08:30Z</time>
      </trkpt>
      <trkpt lat="42.89549" lon="1.22808">
        <ele>688.781</ele>
        <time>2023-05-29T11:08:31Z</time>
      </trkpt>
      <trkpt lat="42.89549" lon="1.22808">
        <ele>688.78</ele>
        <time>2023-05-29T11:08:32Z</time>
      </trkpt>
      <trkpt lat="42.89549" lon="1.22808">
        <ele>688.781</ele>
        <time>2023-05-29T11:08:33Z</time>
      </trkpt>
      <trkpt lat="42.89549" lon="1.22808">
        <ele>688.781</ele>
        <time>2023-05-29T11:08:34Z</time>
      </trkpt>
      <trkpt lat="42.89549" lon="1.22808">
        <ele>688.78</ele>
        <time>2023-05-29T11:08:35Z</time>
      </trkpt>
      <trkpt lat="42.89549" lon="1.22808">
        <ele>688.781</ele>
        <time>2023-05-29T11:08:36Z</time>
      </trkpt>
      <trkpt lat="42.89549" lon="1.22808">
        <ele>688.784</ele>
        <time>2023-05-29T11:08:37Z</time>
      </trkpt>
      <trkpt lat="42.89549" lon="1.22808">
        <ele>688.784</ele>
        <time>2023-05-29T11:08:38Z</time>
      </trkpt>
      <trkpt lat="42.89549" lon="1.22808">
        <ele>688.785</ele>
        <time>2023-05-29T11:08:39Z</time>
      </trkpt>
      <trkpt lat="42.89549" lon="1.22808">
        <ele>688.787</ele>
        <time>2023-05-29T11:08:40Z</time>
      </trkpt>
      <trkpt lat="42.89549" lon="1.22808">
        <ele>688.783</ele>
        <time>2023-05-29T11:08:41Z</time>
      </trkpt>
      <trkpt lat="42.89549" lon="1.22808">
        <ele>688.783</ele>
        <time>2023-05-29T11:08:42Z</time>
      </trkpt>
      <trkpt lat="42.89549" lon="1.22808">
        <ele>688.782</ele>
        <time>2023-05-29T11:08:43Z</time>
      </trkpt>
      <trkpt lat="42.89549" lon="1.22808">
        <ele>688.78</ele>
        <time>2023-05-29T11:08:44Z</time>
      </trkpt>
      <trkpt lat="42.89549" lon="1.22808">
        <ele>688.776</ele>
        <time>2023-05-29T11:08:45Z</time>
      </trkpt>
      <trkpt lat="42.89549" lon="1.22808">
        <ele>688.772</ele>
        <time>2023-05-29T11:08:46Z</time>
      </trkpt>
      <trkpt lat="42.89549" lon="1.22808">
        <ele>688.77</ele>
        <time>2023-05-29T11:08:47Z</time>
      </trkpt>
      <trkpt lat="42.89549" lon="1.22808">
        <ele>688.767</ele>
        <time>2023-05-29T11:08:48Z</time>
      </trkpt>
      <trkpt lat="42.89549" lon="1.22808">
        <ele>688.764</ele>
        <time>2023-05-29T11:08:49Z</time>
      </trkpt>
      <trkpt lat="42.89549" lon="1.22808">
        <ele>688.758</ele>
        <time>2023-05-29T11:08:50Z</time>
      </trkpt>
      <trkpt lat="42.89549" lon="1.22808">
        <ele>688.758</ele>
        <time>2023-05-29T11:08:51Z</time>
      </trkpt>
      <trkpt lat="42.89549" lon="1.22808">
        <ele>688.761</ele>
        <time>2023-05-29T11:08:52Z</time>
      </trkpt>
      <trkpt lat="42.89549" lon="1.22808">
        <ele>688.759</ele>
        <time>2023-05-29T11:08:53Z</time>
      </trkpt>
      <trkpt lat="42.89549" lon="1.22808">
        <ele>688.76</ele>
        <time>2023-05-29T11:08:54Z</time>
      </trkpt>
      <trkpt lat="42.89549" lon="1.22808">
        <ele>688.757</ele>
        <time>2023-05-29T11:08:55Z</time>
      </trkpt>
      <trkpt lat="42.89549" lon="1.22808">
        <ele>688.754</ele>
        <time>2023-05-29T11:08:56Z</time>
      </trkpt>
      <trkpt lat="42.89549" lon="1.22808">
        <ele>688.754</ele>
        <time>2023-05-29T11:08:57Z</time>
      </trkpt>
      <trkpt lat="42.89549" lon="1.22808">
        <ele>688.751</ele>
        <time>2023-05-29T11:08:58Z</time>
      </trkpt>
      <trkpt lat="42.89549" lon="1.22808">
        <ele>688.749</ele>
        <time>2023-05-29T11:08:59Z</time>
      </trkpt>
      <trkpt lat="42.89549" lon="1.22808">
        <ele>688.748</ele>
        <time>2023-05-29T11:09:00Z</time>
      </trkpt>
      <trkpt lat="42.89549" lon="1.22808">
        <ele>688.748</ele>
        <time>2023-05-29T11:09:01Z</time>
      </trkpt>
      <trkpt lat="42.89549" lon="1.22808">
        <ele>688.746</ele>
        <time>2023-05-29T11:09:02Z</time>
      </trkpt>
      <trkpt lat="42.89549" lon="1.22808">
        <ele>688.743</ele>
        <time>2023-05-29T11:09:03Z</time>
      </trkpt>
      <trkpt lat="42.89549" lon="1.22808">
        <ele>688.741</ele>
        <time>2023-05-29T11:09:04Z</time>
      </trkpt>
      <trkpt lat="42.89549" lon="1.22808">
        <ele>688.739</ele>
        <time>2023-05-29T11:09:05Z</time>
      </trkpt>
      <trkpt lat="42.89549" lon="1.22808">
        <ele>688.739</ele>
        <time>2023-05-29T11:09:06Z</time>
      </trkpt>
      <trkpt lat="42.89549" lon="1.22808">
        <ele>688.737</ele>
        <time>2023-05-29T11:09:07Z</time>
      </trkpt>
      <trkpt lat="42.89549" lon="1.22808">
        <ele>688.737</ele>
        <time>2023-05-29T11:09:08Z</time>
      </trkpt>
      <trkpt lat="42.89549" lon="1.22808">
        <ele>688.737</ele>
        <time>2023-05-29T11:09:09Z</time>
      </trkpt>
      <trkpt lat="42.89549" lon="1.22808">
        <ele>688.737</ele>
        <time>2023-05-29T11:09:10Z</time>
      </trkpt>
      <trkpt lat="42.89549" lon="1.22808">
        <ele>688.739</ele>
        <time>2023-05-29T11:09:11Z</time>
      </trkpt>
      <trkpt lat="42.89549" lon="1.22808">
        <ele>688.739</ele>
        <time>2023-05-29T11:09:12Z</time>
      </trkpt>
      <trkpt lat="42.89549" lon="1.22808">
        <ele>688.74</ele>
        <time>2023-05-29T11:09:13Z</time>
      </trkpt>
      <trkpt lat="42.89549" lon="1.22808">
        <ele>688.741</ele>
        <time>2023-05-29T11:09:14Z</time>
      </trkpt>
      <trkpt lat="42.89549" lon="1.22808">
        <ele>688.742</ele>
        <time>2023-05-29T11:09:15Z</time>
      </trkpt>
      <trkpt lat="42.89549" lon="1.22808">
        <ele>688.742</ele>
        <time>2023-05-29T11:09:16Z</time>
      </trkpt>
      <trkpt lat="42.89549" lon="1.22808">
        <ele>688.745</ele>
        <time>2023-05-29T11:09:17Z</time>
      </trkpt>
      <trkpt lat="42.89549" lon="1.22808">
        <ele>688.751</ele>
        <time>2023-05-29T11:09:18Z</time>
      </trkpt>
      <trkpt lat="42.89549" lon="1.22808">
        <ele>688.757</ele>
        <time>2023-05-29T11:09:19Z</time>
      </trkpt>
      <trkpt lat="42.89549" lon="1.22808">
        <ele>688.759</ele>
        <time>2023-05-29T11:09:20Z</time>
      </trkpt>
      <trkpt lat="42.89549" lon="1.22808">
        <ele>688.758</ele>
        <time>2023-05-29T11:09:21Z</time>
      </trkpt>
      <trkpt lat="42.89549" lon="1.22808">
        <ele>688.758</ele>
        <time>2023-05-29T11:09:22Z</time>
      </trkpt>
      <trkpt lat="42.89549" lon="1.22808">
        <ele>688.758</ele>
        <time>2023-05-29T11:09:23Z</time>
      </trkpt>
      <trkpt lat="42.89549" lon="1.22808">
        <ele>688.758</ele>
        <time>2023-05-29T11:09:24Z</time>
      </trkpt>
      <trkpt lat="42.89549" lon="1.22808">
        <ele>688.757</ele>
        <time>2023-05-29T11:09:25Z</time>
      </trkpt>
      <trkpt lat="42.89549" lon="1.22808">
        <ele>688.756</ele>
        <time>2023-05-29T11:09:26Z</time>
      </trkpt>
      <trkpt lat="42.89549" lon="1.22808">
        <ele>688.757</ele>
        <time>2023-05-29T11:09:27Z</time>
      </trkpt>
      <trkpt lat="42.89549" lon="1.22808">
        <ele>688.753</ele>
        <time>2023-05-29T11:09:28Z</time>
      </trkpt>
      <trkpt lat="42.89549" lon="1.22808">
        <ele>688.754</ele>
        <time>2023-05-29T11:09:29Z</time>
      </trkpt>
      <trkpt lat="42.89549" lon="1.22808">
        <ele>688.753</ele>
        <time>2023-05-29T11:09:30Z</time>
      </trkpt>
      <trkpt lat="42.89549" lon="1.22808">
        <ele>688.753</ele>
        <time>2023-05-29T11:09:31Z</time>
      </trkpt>
      <trkpt lat="42.89549" lon="1.22808">
        <ele>688.75</ele>
        <time>2023-05-29T11:09:32Z</time>
      </trkpt>
      <trkpt lat="42.89549" lon="1.22808">
        <ele>688.751</ele>
        <time>2023-05-29T11:09:33Z</time>
      </trkpt>
      <trkpt lat="42.89549" lon="1.22808">
        <ele>688.756</ele>
        <time>2023-05-29T11:09:34Z</time>
      </trkpt>
      <trkpt lat="42.89549" lon="1.22808">
        <ele>688.756</ele>
        <time>2023-05-29T11:09:35Z</time>
      </trkpt>
      <trkpt lat="42.89549" lon="1.22808">
        <ele>688.767</ele>
        <time>2023-05-29T11:09:36Z</time>
      </trkpt>
      <trkpt lat="42.89549" lon="1.22808">
        <ele>688.771</ele>
        <time>2023-05-29T11:09:37Z</time>
      </trkpt>
      <trkpt lat="42.89549" lon="1.22808">
        <ele>688.773</ele>
        <time>2023-05-29T11:09:38Z</time>
      </trkpt>
      <trkpt lat="42.89549" lon="1.22808">
        <ele>688.774</ele>
        <time>2023-05-29T11:09:39Z</time>
      </trkpt>
      <trkpt lat="42.89549" lon="1.22808">
        <ele>688.77</ele>
        <time>2023-05-29T11:09:40Z</time>
      </trkpt>
      <trkpt lat="42.89549" lon="1.22808">
        <ele>688.772</ele>
        <time>2023-05-29T11:09:41Z</time>
      </trkpt>
      <trkpt lat="42.89549" lon="1.22808">
        <ele>688.769</ele>
        <time>2023-05-29T11:09:42Z</time>
      </trkpt>
      <trkpt lat="42.89549" lon="1.22808">
        <ele>688.776</ele>
        <time>2023-05-29T11:09:43Z</time>
      </trkpt>
      <trkpt lat="42.89549" lon="1.22808">
        <ele>688.783</ele>
        <time>2023-05-29T11:09:44Z</time>
      </trkpt>
      <trkpt lat="42.89549" lon="1.22808">
        <ele>688.789</ele>
        <time>2023-05-29T11:09:45Z</time>
      </trkpt>
      <trkpt lat="42.89549" lon="1.22808">
        <ele>688.789</ele>
        <time>2023-05-29T11:09:46Z</time>
      </trkpt>
      <trkpt lat="42.89549" lon="1.22808">
        <ele>688.788</ele>
        <time>2023-05-29T11:09:47Z</time>
      </trkpt>
      <trkpt lat="42.89549" lon="1.22808">
        <ele>688.785</ele>
        <time>2023-05-29T11:09:48Z</time>
      </trkpt>
      <trkpt lat="42.89549" lon="1.22808">
        <ele>688.78</ele>
        <time>2023-05-29T11:09:49Z</time>
      </trkpt>
      <trkpt lat="42.89549" lon="1.22808">
        <ele>688.777</ele>
        <time>2023-05-29T11:09:50Z</time>
      </trkpt>
      <trkpt lat="42.89549" lon="1.22808">
        <ele>688.78</ele>
        <time>2023-05-29T11:09:51Z</time>
      </trkpt>
      <trkpt lat="42.89549" lon="1.22808">
        <ele>688.78</ele>
        <time>2023-05-29T11:09:52Z</time>
      </trkpt>
      <trkpt lat="42.89549" lon="1.22808">
        <ele>688.783</ele>
        <time>2023-05-29T11:09:53Z</time>
      </trkpt>
      <trkpt lat="42.89549" lon="1.22808">
        <ele>688.787</ele>
        <time>2023-05-29T11:09:54Z</time>
      </trkpt>
      <trkpt lat="42.89549" lon="1.22808">
        <ele>688.781</ele>
        <time>2023-05-29T11:09:55Z</time>
      </trkpt>
      <trkpt lat="42.89549" lon="1.22808">
        <ele>688.781</ele>
        <time>2023-05-29T11:09:56Z</time>
      </trkpt>
      <trkpt lat="42.89549" lon="1.22808">
        <ele>688.784</ele>
        <time>2023-05-29T11:09:57Z</time>
      </trkpt>
      <trkpt lat="42.89549" lon="1.22808">
        <ele>688.784</ele>
        <time>2023-05-29T11:09:58Z</time>
      </trkpt>
      <trkpt lat="42.89549" lon="1.22808">
        <ele>688.78</ele>
        <time>2023-05-29T11:09:59Z</time>
      </trkpt>
      <trkpt lat="42.89549" lon="1.22808">
        <ele>688.786</ele>
        <time>2023-05-29T11:10:00Z</time>
      </trkpt>
      <trkpt lat="42.89549" lon="1.22808">
        <ele>688.785</ele>
        <time>2023-05-29T11:10:01Z</time>
      </trkpt>
      <trkpt lat="42.89549" lon="1.22808">
        <ele>688.785</ele>
        <time>2023-05-29T11:10:02Z</time>
      </trkpt>
      <trkpt lat="42.89549" lon="1.22808">
        <ele>688.793</ele>
        <time>2023-05-29T11:10:03Z</time>
      </trkpt>
      <trkpt lat="42.89549" lon="1.22808">
        <ele>688.798</ele>
        <time>2023-05-29T11:10:04Z</time>
      </trkpt>
      <trkpt lat="42.89549" lon="1.22808">
        <ele>688.801</ele>
        <time>2023-05-29T11:10:05Z</time>
      </trkpt>
      <trkpt lat="42.89549" lon="1.22808">
        <ele>688.802</ele>
        <time>2023-05-29T11:10:06Z</time>
      </trkpt>
      <trkpt lat="42.89549" lon="1.22808">
        <ele>688.801</ele>
        <time>2023-05-29T11:10:07Z</time>
      </trkpt>
      <trkpt lat="42.89549" lon="1.22808">
        <ele>688.801</ele>
        <time>2023-05-29T11:10:08Z</time>
      </trkpt>
      <trkpt lat="42.89549" lon="1.22808">
        <ele>688.806</ele>
        <time>2023-05-29T11:10:09Z</time>
      </trkpt>
      <trkpt lat="42.89549" lon="1.22808">
        <ele>688.811</ele>
        <time>2023-05-29T11:10:10Z</time>
      </trkpt>
      <trkpt lat="42.89549" lon="1.22808">
        <ele>688.806</ele>
        <time>2023-05-29T11:10:11Z</time>
      </trkpt>
      <trkpt lat="42.89549" lon="1.22808">
        <ele>688.805</ele>
        <time>2023-05-29T11:10:12Z</time>
      </trkpt>
      <trkpt lat="42.89549" lon="1.22808">
        <ele>688.802</ele>
        <time>2023-05-29T11:10:13Z</time>
      </trkpt>
      <trkpt lat="42.89549" lon="1.22808">
        <ele>688.803</ele>
        <time>2023-05-29T11:10:14Z</time>
      </trkpt>
      <trkpt lat="42.89549" lon="1.22808">
        <ele>688.801</ele>
        <time>2023-05-29T11:10:15Z</time>
      </trkpt>
      <trkpt lat="42.89549" lon="1.22808">
        <ele>688.798</ele>
        <time>2023-05-29T11:10:16Z</time>
      </trkpt>
      <trkpt lat="42.89549" lon="1.22808">
        <ele>688.793</ele>
        <time>2023-05-29T11:10:17Z</time>
      </trkpt>
      <trkpt lat="42.89549" lon="1.22808">
        <ele>688.786</ele>
        <time>2023-05-29T11:10:18Z</time>
      </trkpt>
      <trkpt lat="42.89549" lon="1.22808">
        <ele>688.784</ele>
        <time>2023-05-29T11:10:19Z</time>
      </trkpt>
      <trkpt lat="42.89549" lon="1.22808">
        <ele>688.783</ele>
        <time>2023-05-29T11:10:20Z</time>
      </trkpt>
      <trkpt lat="42.89549" lon="1.22808">
        <ele>688.775</ele>
        <time>2023-05-29T11:10:21Z</time>
      </trkpt>
      <trkpt lat="42.89549" lon="1.22808">
        <ele>688.784</ele>
        <time>2023-05-29T11:10:22Z</time>
      </trkpt>
      <trkpt lat="42.89549" lon="1.22808">
        <ele>688.785</ele>
        <time>2023-05-29T11:10:23Z</time>
      </trkpt>
      <trkpt lat="42.89549" lon="1.22808">
        <ele>688.789</ele>
        <time>2023-05-29T11:10:24Z</time>
      </trkpt>
      <trkpt lat="42.89549" lon="1.22808">
        <ele>688.798</ele>
        <time>2023-05-29T11:10:25Z</time>
      </trkpt>
      <trkpt lat="42.89549" lon="1.22808">
        <ele>688.802</ele>
        <time>2023-05-29T11:10:26Z</time>
      </trkpt>
      <trkpt lat="42.89549" lon="1.22808">
        <ele>688.809</ele>
        <time>2023-05-29T11:10:27Z</time>
      </trkpt>
      <trkpt lat="42.89549" lon="1.22808">
        <ele>688.806</ele>
        <time>2023-05-29T11:10:28Z</time>
      </trkpt>
      <trkpt lat="42.89549" lon="1.22808">
        <ele>688.802</ele>
        <time>2023-05-29T11:10:29Z</time>
      </trkpt>
      <trkpt lat="42.89549" lon="1.22808">
        <ele>688.802</ele>
        <time>2023-05-29T11:10:30Z</time>
      </trkpt>
      <trkpt lat="42.89549" lon="1.22808">
        <ele>688.795</ele>
        <time>2023-05-29T11:10:31Z</time>
      </trkpt>
      <trkpt lat="42.89549" lon="1.22808">
        <ele>688.789</ele>
        <time>2023-05-29T11:10:32Z</time>
      </trkpt>
      <trkpt lat="42.89549" lon="1.22808">
        <ele>688.791</ele>
        <time>2023-05-29T11:10:33Z</time>
      </trkpt>
      <trkpt lat="42.89549" lon="1.22808">
        <ele>688.787</ele>
        <time>2023-05-29T11:10:34Z</time>
      </trkpt>
      <trkpt lat="42.89549" lon="1.22808">
        <ele>688.784</ele>
        <time>2023-05-29T11:10:35Z</time>
      </trkpt>
      <trkpt lat="42.89549" lon="1.22808">
        <ele>688.782</ele>
        <time>2023-05-29T11:10:36Z</time>
      </trkpt>
      <trkpt lat="42.89549" lon="1.22808">
        <ele>688.781</ele>
        <time>2023-05-29T11:10:37Z</time>
      </trkpt>
      <trkpt lat="42.89549" lon="1.22808">
        <ele>688.777</ele>
        <time>2023-05-29T11:10:38Z</time>
      </trkpt>
      <trkpt lat="42.89549" lon="1.22808">
        <ele>688.777</ele>
        <time>2023-05-29T11:10:39Z</time>
      </trkpt>
      <trkpt lat="42.89549" lon="1.22808">
        <ele>688.776</ele>
        <time>2023-05-29T11:10:40Z</time>
      </trkpt>
      <trkpt lat="42.89549" lon="1.22808">
        <ele>688.779</ele>
        <time>2023-05-29T11:10:41Z</time>
      </trkpt>
      <trkpt lat="42.89549" lon="1.22808">
        <ele>688.776</ele>
        <time>2023-05-29T11:10:42Z</time>
      </trkpt>
      <trkpt lat="42.89549" lon="1.22808">
        <ele>688.772</ele>
        <time>2023-05-29T11:10:43Z</time>
      </trkpt>
      <trkpt lat="42.89549" lon="1.22808">
        <ele>688.77</ele>
        <time>2023-05-29T11:10:44Z</time>
      </trkpt>
      <trkpt lat="42.89549" lon="1.22808">
        <ele>688.775</ele>
        <time>2023-05-29T11:10:45Z</time>
      </trkpt>
      <trkpt lat="42.89549" lon="1.22808">
        <ele>688.777</ele>
        <time>2023-05-29T11:10:46Z</time>
      </trkpt>
      <trkpt lat="42.89549" lon="1.22808">
        <ele>688.778</ele>
        <time>2023-05-29T11:10:47Z</time>
      </trkpt>
      <trkpt lat="42.89549" lon="1.22808">
        <ele>688.78</ele>
        <time>2023-05-29T11:10:48Z</time>
      </trkpt>
      <trkpt lat="42.89549" lon="1.22808">
        <ele>688.78</ele>
        <time>2023-05-29T11:10:49Z</time>
      </trkpt>
      <trkpt lat="42.89549" lon="1.22808">
        <ele>688.784</ele>
        <time>2023-05-29T11:10:50Z</time>
      </trkpt>
      <trkpt lat="42.89549" lon="1.22808">
        <ele>688.789</ele>
        <time>2023-05-29T11:10:51Z</time>
      </trkpt>
      <trkpt lat="42.89549" lon="1.22808">
        <ele>688.793</ele>
        <time>2023-05-29T11:10:52Z</time>
      </trkpt>
      <trkpt lat="42.89549" lon="1.22808">
        <ele>688.788</ele>
        <time>2023-05-29T11:10:53Z</time>
      </trkpt>
      <trkpt lat="42.89549" lon="1.22808">
        <ele>688.78</ele>
        <time>2023-05-29T11:10:54Z</time>
      </trkpt>
      <trkpt lat="42.89549" lon="1.22808">
        <ele>688.782</ele>
        <time>2023-05-29T11:10:55Z</time>
      </trkpt>
      <trkpt lat="42.89549" lon="1.22808">
        <ele>688.78</ele>
        <time>2023-05-29T11:10:56Z</time>
      </trkpt>
      <trkpt lat="42.89549" lon="1.22808">
        <ele>688.776</ele>
        <time>2023-05-29T11:10:57Z</time>
      </trkpt>
      <trkpt lat="42.89549" lon="1.22808">
        <ele>688.77</ele>
        <time>2023-05-29T11:10:58Z</time>
      </trkpt>
      <trkpt lat="42.89549" lon="1.22808">
        <ele>688.765</ele>
        <time>2023-05-29T11:10:59Z</time>
      </trkpt>
      <trkpt lat="42.89549" lon="1.22808">
        <ele>688.759</ele>
        <time>2023-05-29T11:11:00Z</time>
      </trkpt>
      <trkpt lat="42.89549" lon="1.22808">
        <ele>688.755</ele>
        <time>2023-05-29T11:11:01Z</time>
      </trkpt>
      <trkpt lat="42.89549" lon="1.22808">
        <ele>688.756</ele>
        <time>2023-05-29T11:11:02Z</time>
      </trkpt>
      <trkpt lat="42.89549" lon="1.22808">
        <ele>688.748</ele>
        <time>2023-05-29T11:11:03Z</time>
      </trkpt>
      <trkpt lat="42.89549" lon="1.22808">
        <ele>688.749</ele>
        <time>2023-05-29T11:11:04Z</time>
      </trkpt>
      <trkpt lat="42.89549" lon="1.22808">
        <ele>688.748</ele>
        <time>2023-05-29T11:11:05Z</time>
      </trkpt>
      <trkpt lat="42.89549" lon="1.22808">
        <ele>688.741</ele>
        <time>2023-05-29T11:11:06Z</time>
      </trkpt>
      <trkpt lat="42.89549" lon="1.22808">
        <ele>688.743</ele>
        <time>2023-05-29T11:11:07Z</time>
      </trkpt>
      <trkpt lat="42.89549" lon="1.22808">
        <ele>688.746</ele>
        <time>2023-05-29T11:11:08Z</time>
      </trkpt>
      <trkpt lat="42.89549" lon="1.22808">
        <ele>688.743</ele>
        <time>2023-05-29T11:11:09Z</time>
      </trkpt>
      <trkpt lat="42.89549" lon="1.22808">
        <ele>688.744</ele>
        <time>2023-05-29T11:11:10Z</time>
      </trkpt>
      <trkpt lat="42.89549" lon="1.22808">
        <ele>688.746</ele>
        <time>2023-05-29T11:11:11Z</time>
      </trkpt>
      <trkpt lat="42.89549" lon="1.22808">
        <ele>688.746</ele>
        <time>2023-05-29T11:11:12Z</time>
      </trkpt>
      <trkpt lat="42.89549" lon="1.22808">
        <ele>688.75</ele>
        <time>2023-05-29T11:11:13Z</time>
      </trkpt>
      <trkpt lat="42.89549" lon="1.22808">
        <ele>688.751</ele>
        <time>2023-05-29T11:11:14Z</time>
      </trkpt>
      <trkpt lat="42.89549" lon="1.22808">
        <ele>688.748</ele>
        <time>2023-05-29T11:11:15Z</time>
      </trkpt>
      <trkpt lat="42.89549" lon="1.22808">
        <ele>688.747</ele>
        <time>2023-05-29T11:11:16Z</time>
      </trkpt>
      <trkpt lat="42.89549" lon="1.22808">
        <ele>688.747</ele>
        <time>2023-05-29T11:11:17Z</time>
      </trkpt>
      <trkpt lat="42.89549" lon="1.22808">
        <ele>688.748</ele>
        <time>2023-05-29T11:11:18Z</time>
      </trkpt>
      <trkpt lat="42.89549" lon="1.22808">
        <ele>688.749</ele>
        <time>2023-05-29T11:11:19Z</time>
      </trkpt>
      <trkpt lat="42.89549" lon="1.22808">
        <ele>688.753</ele>
        <time>2023-05-29T11:11:20Z</time>
      </trkpt>
      <trkpt lat="42.89549" lon="1.22808">
        <ele>688.755</ele>
        <time>2023-05-29T11:11:21Z</time>
      </trkpt>
      <trkpt lat="42.89549" lon="1.22808">
        <ele>688.755</ele>
        <time>2023-05-29T11:11:22Z</time>
      </trkpt>
      <trkpt lat="42.89549" lon="1.22808">
        <ele>688.755</ele>
        <time>2023-05-29T11:11:23Z</time>
      </trkpt>
      <trkpt lat="42.89549" lon="1.22808">
        <ele>688.751</ele>
        <time>2023-05-29T11:11:24Z</time>
      </trkpt>
      <trkpt lat="42.89549" lon="1.22808">
        <ele>688.751</ele>
        <time>2023-05-29T11:11:25Z</time>
      </trkpt>
      <trkpt lat="42.89549" lon="1.22808">
        <ele>688.756</ele>
        <time>2023-05-29T11:11:26Z</time>
      </trkpt>
      <trkpt lat="42.89549" lon="1.22808">
        <ele>688.756</ele>
        <time>2023-05-29T11:11:27Z</time>
      </trkpt>
      <trkpt lat="42.89549" lon="1.22808">
        <ele>688.759</ele>
        <time>2023-05-29T11:11:28Z</time>
      </trkpt>
      <trkpt lat="42.89549" lon="1.22808">
        <ele>688.763</ele>
        <time>2023-05-29T11:11:29Z</time>
      </trkpt>
      <trkpt lat="42.89549" lon="1.22808">
        <ele>688.767</ele>
        <time>2023-05-29T11:11:30Z</time>
      </trkpt>
      <trkpt lat="42.89549" lon="1.22808">
        <ele>688.774</ele>
        <time>2023-05-29T11:11:31Z</time>
      </trkpt>
      <trkpt lat="42.89549" lon="1.22808">
        <ele>688.777</ele>
        <time>2023-05-29T11:11:32Z</time>
      </trkpt>
      <trkpt lat="42.89549" lon="1.22808">
        <ele>688.785</ele>
        <time>2023-05-29T11:11:33Z</time>
      </trkpt>
      <trkpt lat="42.89549" lon="1.22808">
        <ele>688.783</ele>
        <time>2023-05-29T11:11:34Z</time>
      </trkpt>
      <trkpt lat="42.89549" lon="1.22808">
        <ele>688.785</ele>
        <time>2023-05-29T11:11:35Z</time>
      </trkpt>
      <trkpt lat="42.89549" lon="1.22808">
        <ele>688.794</ele>
        <time>2023-05-29T11:11:36Z</time>
      </trkpt>
      <trkpt lat="42.89549" lon="1.22808">
        <ele>688.794</ele>
        <time>2023-05-29T11:11:37Z</time>
      </trkpt>
      <trkpt lat="42.89549" lon="1.22808">
        <ele>688.8</ele>
        <time>2023-05-29T11:11:38Z</time>
      </trkpt>
      <trkpt lat="42.89549" lon="1.22808">
        <ele>688.802</ele>
        <time>2023-05-29T11:11:39Z</time>
      </trkpt>
      <trkpt lat="42.89549" lon="1.22808">
        <ele>688.804</ele>
        <time>2023-05-29T11:11:40Z</time>
      </trkpt>
      <trkpt lat="42.89549" lon="1.22808">
        <ele>688.812</ele>
        <time>2023-05-29T11:11:41Z</time>
      </trkpt>
      <trkpt lat="42.89549" lon="1.22808">
        <ele>688.814</ele>
        <time>2023-05-29T11:11:42Z</time>
      </trkpt>
      <trkpt lat="42.89549" lon="1.22808">
        <ele>688.816</ele>
        <time>2023-05-29T11:11:43Z</time>
      </trkpt>
      <trkpt lat="42.89549" lon="1.22808">
        <ele>688.821</ele>
        <time>2023-05-29T11:11:44Z</time>
      </trkpt>
      <trkpt lat="42.89549" lon="1.22808">
        <ele>688.82</ele>
        <time>2023-05-29T11:11:45Z</time>
      </trkpt>
      <trkpt lat="42.89549" lon="1.22808">
        <ele>688.821</ele>
        <time>2023-05-29T11:11:46Z</time>
      </trkpt>
      <trkpt lat="42.89549" lon="1.22808">
        <ele>688.822</ele>
        <time>2023-05-29T11:11:47Z</time>
      </trkpt>
      <trkpt lat="42.89549" lon="1.22808">
        <ele>688.82</ele>
        <time>2023-05-29T11:11:48Z</time>
      </trkpt>
      <trkpt lat="42.89549" lon="1.22808">
        <ele>688.821</ele>
        <time>2023-05-29T11:11:49Z</time>
      </trkpt>
      <trkpt lat="42.89549" lon="1.22808">
        <ele>688.822</ele>
        <time>2023-05-29T11:11:50Z</time>
      </trkpt>
      <trkpt lat="42.89549" lon="1.22808">
        <ele>688.819</ele>
        <time>2023-05-29T11:11:51Z</time>
      </trkpt>
      <trkpt lat="42.89549" lon="1.22808">
        <ele>688.815</ele>
        <time>2023-05-29T11:11:52Z</time>
      </trkpt>
      <trkpt lat="42.89549" lon="1.22808">
        <ele>688.818</ele>
        <time>2023-05-29T11:11:53Z</time>
      </trkpt>
      <trkpt lat="42.89549" lon="1.22808">
        <ele>688.816</ele>
        <time>2023-05-29T11:11:54Z</time>
      </trkpt>
      <trkpt lat="42.89549" lon="1.22808">
        <ele>688.815</ele>
        <time>2023-05-29T11:11:55Z</time>
      </trkpt>
      <trkpt lat="42.89549" lon="1.22808">
        <ele>688.813</ele>
        <time>2023-05-29T11:11:56Z</time>
      </trkpt>
      <trkpt lat="42.89549" lon="1.22808">
        <ele>688.811</ele>
        <time>2023-05-29T11:11:57Z</time>
      </trkpt>
      <trkpt lat="42.89549" lon="1.22808">
        <ele>688.808</ele>
        <time>2023-05-29T11:11:58Z</time>
      </trkpt>
      <trkpt lat="42.89549" lon="1.22808">
        <ele>688.807</ele>
        <time>2023-05-29T11:11:59Z</time>
      </trkpt>
      <trkpt lat="42.89549" lon="1.22808">
        <ele>688.801</ele>
        <time>2023-05-29T11:12:00Z</time>
      </trkpt>
      <trkpt lat="42.89549" lon="1.22808">
        <ele>688.798</ele>
        <time>2023-05-29T11:12:01Z</time>
      </trkpt>
      <trkpt lat="42.89549" lon="1.22808">
        <ele>688.797</ele>
        <time>2023-05-29T11:12:02Z</time>
      </trkpt>
      <trkpt lat="42.89549" lon="1.22808">
        <ele>688.793</ele>
        <time>2023-05-29T11:12:03Z</time>
      </trkpt>
      <trkpt lat="42.89549" lon="1.22808">
        <ele>688.791</ele>
        <time>2023-05-29T11:12:04Z</time>
      </trkpt>
      <trkpt lat="42.89549" lon="1.22808">
        <ele>688.791</ele>
        <time>2023-05-29T11:12:05Z</time>
      </trkpt>
      <trkpt lat="42.89549" lon="1.22808">
        <ele>688.788</ele>
        <time>2023-05-29T11:12:06Z</time>
      </trkpt>
      <trkpt lat="42.89549" lon="1.22808">
        <ele>688.781</ele>
        <time>2023-05-29T11:12:07Z</time>
      </trkpt>
      <trkpt lat="42.89549" lon="1.22808">
        <ele>688.78</ele>
        <time>2023-05-29T11:12:08Z</time>
      </trkpt>
      <trkpt lat="42.89549" lon="1.22808">
        <ele>688.778</ele>
        <time>2023-05-29T11:12:09Z</time>
      </trkpt>
      <trkpt lat="42.89549" lon="1.22808">
        <ele>688.775</ele>
        <time>2023-05-29T11:12:10Z</time>
      </trkpt>
      <trkpt lat="42.89549" lon="1.22808">
        <ele>688.775</ele>
        <time>2023-05-29T11:12:11Z</time>
      </trkpt>
      <trkpt lat="42.89549" lon="1.22808">
        <ele>688.775</ele>
        <time>2023-05-29T11:12:12Z</time>
      </trkpt>
      <trkpt lat="42.89549" lon="1.22808">
        <ele>688.78</ele>
        <time>2023-05-29T11:12:13Z</time>
      </trkpt>
      <trkpt lat="42.89549" lon="1.22808">
        <ele>688.779</ele>
        <time>2023-05-29T11:12:14Z</time>
      </trkpt>
      <trkpt lat="42.89549" lon="1.22808">
        <ele>688.782</ele>
        <time>2023-05-29T11:12:15Z</time>
      </trkpt>
      <trkpt lat="42.89549" lon="1.22808">
        <ele>688.781</ele>
        <time>2023-05-29T11:12:16Z</time>
      </trkpt>
      <trkpt lat="42.89549" lon="1.22808">
        <ele>688.782</ele>
        <time>2023-05-29T11:12:17Z</time>
      </trkpt>
      <trkpt lat="42.89549" lon="1.22808">
        <ele>688.774</ele>
        <time>2023-05-29T11:12:18Z</time>
      </trkpt>
      <trkpt lat="42.89549" lon="1.22808">
        <ele>688.768</ele>
        <time>2023-05-29T11:12:19Z</time>
      </trkpt>
      <trkpt lat="42.89549" lon="1.22808">
        <ele>688.771</ele>
        <time>2023-05-29T11:12:20Z</time>
      </trkpt>
      <trkpt lat="42.89549" lon="1.22808">
        <ele>688.774</ele>
        <time>2023-05-29T11:12:21Z</time>
      </trkpt>
      <trkpt lat="42.89549" lon="1.22808">
        <ele>688.777</ele>
        <time>2023-05-29T11:12:22Z</time>
      </trkpt>
      <trkpt lat="42.89549" lon="1.22808">
        <ele>688.774</ele>
        <time>2023-05-29T11:12:23Z</time>
      </trkpt>
      <trkpt lat="42.89549" lon="1.22808">
        <ele>688.777</ele>
        <time>2023-05-29T11:12:24Z</time>
      </trkpt>
      <trkpt lat="42.89549" lon="1.22808">
        <ele>688.772</ele>
        <time>2023-05-29T11:12:25Z</time>
      </trkpt>
      <trkpt lat="42.89549" lon="1.22808">
        <ele>688.777</ele>
        <time>2023-05-29T11:12:26Z</time>
      </trkpt>
      <trkpt lat="42.89549" lon="1.22808">
        <ele>688.779</ele>
        <time>2023-05-29T11:12:27Z</time>
      </trkpt>
      <trkpt lat="42.89549" lon="1.22808">
        <ele>688.779</ele>
        <time>2023-05-29T11:12:28Z</time>
      </trkpt>
      <trkpt lat="42.89549" lon="1.22808">
        <ele>688.781</ele>
        <time>2023-05-29T11:12:29Z</time>
      </trkpt>
      <trkpt lat="42.89549" lon="1.22808">
        <ele>688.779</ele>
        <time>2023-05-29T11:12:30Z</time>
      </trkpt>
      <trkpt lat="42.89549" lon="1.22808">
        <ele>688.783</ele>
        <time>2023-05-29T11:12:31Z</time>
      </trkpt>
      <trkpt lat="42.89549" lon="1.22808">
        <ele>688.787</ele>
        <time>2023-05-29T11:12:32Z</time>
      </trkpt>
      <trkpt lat="42.89549" lon="1.22808">
        <ele>688.788</ele>
        <time>2023-05-29T11:12:33Z</time>
      </trkpt>
      <trkpt lat="42.89549" lon="1.22808">
        <ele>688.793</ele>
        <time>2023-05-29T11:12:34Z</time>
      </trkpt>
      <trkpt lat="42.89549" lon="1.22808">
        <ele>688.788</ele>
        <time>2023-05-29T11:12:35Z</time>
      </trkpt>
      <trkpt lat="42.89549" lon="1.22808">
        <ele>688.787</ele>
        <time>2023-05-29T11:12:36Z</time>
      </trkpt>
      <trkpt lat="42.89549" lon="1.22808">
        <ele>688.79</ele>
        <time>2023-05-29T11:12:37Z</time>
      </trkpt>
      <trkpt lat="42.89549" lon="1.22808">
        <ele>688.797</ele>
        <time>2023-05-29T11:12:38Z</time>
      </trkpt>
      <trkpt lat="42.89549" lon="1.22808">
        <ele>688.798</ele>
        <time>2023-05-29T11:12:39Z</time>
      </trkpt>
      <trkpt lat="42.89549" lon="1.22808">
        <ele>688.656</ele>
        <time>2023-05-29T11:12:40Z</time>
      </trkpt>
      <trkpt lat="42.89549" lon="1.22808">
        <ele>688.517</ele>
        <time>2023-05-29T11:12:41Z</time>
      </trkpt>
      <trkpt lat="42.89549" lon="1.22808">
        <ele>688.837</ele>
        <time>2023-05-29T11:12:42Z</time>
      </trkpt>
      <trkpt lat="42.89549" lon="1.22807">
        <ele>688.427</ele>
        <time>2023-05-29T11:12:43Z</time>
      </trkpt>
      <trkpt lat="42.89549" lon="1.22807">
        <ele>688.478</ele>
        <time>2023-05-29T11:12:44Z</time>
      </trkpt>
      <trkpt lat="42.89549" lon="1.22806">
        <ele>688.784</ele>
        <time>2023-05-29T11:12:45Z</time>
      </trkpt>
      <trkpt lat="42.89549" lon="1.22806">
        <ele>688.787</ele>
        <time>2023-05-29T11:12:46Z</time>
      </trkpt>
      <trkpt lat="42.89548" lon="1.22806">
        <ele>688.533</ele>
        <time>2023-05-29T11:12:47Z</time>
      </trkpt>
      <trkpt lat="42.89548" lon="1.22806">
        <ele>688.53</ele>
        <time>2023-05-29T11:12:48Z</time>
      </trkpt>
      <trkpt lat="42.89548" lon="1.22806">
        <ele>688.521</ele>
        <time>2023-05-29T11:12:49Z</time>
      </trkpt>
      <trkpt lat="42.89548" lon="1.22806">
        <ele>688.515</ele>
        <time>2023-05-29T11:12:50Z</time>
      </trkpt>
      <trkpt lat="42.89548" lon="1.22806">
        <ele>688.505</ele>
        <time>2023-05-29T11:12:51Z</time>
      </trkpt>
      <trkpt lat="42.89548" lon="1.22806">
        <ele>688.493</ele>
        <time>2023-05-29T11:12:52Z</time>
      </trkpt>
      <trkpt lat="42.89548" lon="1.22806">
        <ele>688.486</ele>
        <time>2023-05-29T11:12:53Z</time>
      </trkpt>
      <trkpt lat="42.89548" lon="1.22806">
        <ele>688.477</ele>
        <time>2023-05-29T11:12:54Z</time>
      </trkpt>
      <trkpt lat="42.89548" lon="1.22806">
        <ele>688.474</ele>
        <time>2023-05-29T11:12:55Z</time>
      </trkpt>
      <trkpt lat="42.89548" lon="1.22806">
        <ele>688.468</ele>
        <time>2023-05-29T11:12:56Z</time>
      </trkpt>
      <trkpt lat="42.89548" lon="1.22806">
        <ele>688.466</ele>
        <time>2023-05-29T11:12:57Z</time>
      </trkpt>
      <trkpt lat="42.89548" lon="1.22806">
        <ele>688.463</ele>
        <time>2023-05-29T11:12:58Z</time>
      </trkpt>
      <trkpt lat="42.89548" lon="1.22806">
        <ele>688.466</ele>
        <time>2023-05-29T11:12:59Z</time>
      </trkpt>
      <trkpt lat="42.89548" lon="1.22806">
        <ele>688.468</ele>
        <time>2023-05-29T11:13:00Z</time>
      </trkpt>
      <trkpt lat="42.89548" lon="1.22806">
        <ele>688.473</ele>
        <time>2023-05-29T11:13:01Z</time>
      </trkpt>
      <trkpt lat="42.89548" lon="1.22806">
        <ele>688.477</ele>
        <time>2023-05-29T11:13:02Z</time>
      </trkpt>
      <trkpt lat="42.89548" lon="1.22806">
        <ele>688.479</ele>
        <time>2023-05-29T11:13:03Z</time>
      </trkpt>
      <trkpt lat="42.89548" lon="1.22806">
        <ele>688.479</ele>
        <time>2023-05-29T11:13:04Z</time>
      </trkpt>
      <trkpt lat="42.89548" lon="1.22806">
        <ele>688.474</ele>
        <time>2023-05-29T11:13:05Z</time>
      </trkpt>
      <trkpt lat="42.89548" lon="1.22806">
        <ele>688.47</ele>
        <time>2023-05-29T11:13:06Z</time>
      </trkpt>
      <trkpt lat="42.89548" lon="1.22806">
        <ele>688.466</ele>
        <time>2023-05-29T11:13:07Z</time>
      </trkpt>
      <trkpt lat="42.89548" lon="1.22806">
        <ele>688.467</ele>
        <time>2023-05-29T11:13:08Z</time>
      </trkpt>
      <trkpt lat="42.89548" lon="1.22806">
        <ele>688.465</ele>
        <time>2023-05-29T11:13:09Z</time>
      </trkpt>
      <trkpt lat="42.89548" lon="1.22806">
        <ele>688.462</ele>
        <time>2023-05-29T11:13:10Z</time>
      </trkpt>
      <trkpt lat="42.89548" lon="1.22806">
        <ele>688.461</ele>
        <time>2023-05-29T11:13:11Z</time>
      </trkpt>
      <trkpt lat="42.89548" lon="1.22806">
        <ele>688.461</ele>
        <time>2023-05-29T11:13:12Z</time>
      </trkpt>
      <trkpt lat="42.89548" lon="1.22806">
        <ele>688.455</ele>
        <time>2023-05-29T11:13:13Z</time>
      </trkpt>
      <trkpt lat="42.89548" lon="1.22806">
        <ele>688.449</ele>
        <time>2023-05-29T11:13:14Z</time>
      </trkpt>
      <trkpt lat="42.89548" lon="1.22807">
        <ele>688.449</ele>
        <time>2023-05-29T11:13:15Z</time>
      </trkpt>
      <trkpt lat="42.89548" lon="1.22807">
        <ele>688.45</ele>
        <time>2023-05-29T11:13:16Z</time>
      </trkpt>
      <trkpt lat="42.89548" lon="1.22807">
        <ele>688.455</ele>
        <time>2023-05-29T11:13:17Z</time>
      </trkpt>
      <trkpt lat="42.89548" lon="1.22807">
        <ele>688.452</ele>
        <time>2023-05-29T11:13:18Z</time>
      </trkpt>
      <trkpt lat="42.89548" lon="1.22807">
        <ele>688.449</ele>
        <time>2023-05-29T11:13:19Z</time>
      </trkpt>
      <trkpt lat="42.89548" lon="1.22807">
        <ele>688.45</ele>
        <time>2023-05-29T11:13:20Z</time>
      </trkpt>
      <trkpt lat="42.89548" lon="1.22807">
        <ele>688.451</ele>
        <time>2023-05-29T11:13:21Z</time>
      </trkpt>
      <trkpt lat="42.89548" lon="1.22807">
        <ele>688.451</ele>
        <time>2023-05-29T11:13:22Z</time>
      </trkpt>
      <trkpt lat="42.89548" lon="1.22807">
        <ele>688.451</ele>
        <time>2023-05-29T11:13:23Z</time>
      </trkpt>
      <trkpt lat="42.89548" lon="1.22807">
        <ele>688.447</ele>
        <time>2023-05-29T11:13:24Z</time>
      </trkpt>
      <trkpt lat="42.89548" lon="1.22807">
        <ele>688.447</ele>
        <time>2023-05-29T11:13:25Z</time>
      </trkpt>
      <trkpt lat="42.89548" lon="1.22807">
        <ele>688.448</ele>
        <time>2023-05-29T11:13:26Z</time>
      </trkpt>
      <trkpt lat="42.89548" lon="1.22807">
        <ele>688.448</ele>
        <time>2023-05-29T11:13:27Z</time>
      </trkpt>
      <trkpt lat="42.89548" lon="1.22807">
        <ele>688.453</ele>
        <time>2023-05-29T11:13:28Z</time>
      </trkpt>
      <trkpt lat="42.89548" lon="1.22807">
        <ele>688.456</ele>
        <time>2023-05-29T11:13:29Z</time>
      </trkpt>
      <trkpt lat="42.89548" lon="1.22807">
        <ele>688.462</ele>
        <time>2023-05-29T11:13:30Z</time>
      </trkpt>
      <trkpt lat="42.89548" lon="1.22807">
        <ele>688.46</ele>
        <time>2023-05-29T11:13:31Z</time>
      </trkpt>
      <trkpt lat="42.89548" lon="1.22807">
        <ele>688.462</ele>
        <time>2023-05-29T11:13:32Z</time>
      </trkpt>
      <trkpt lat="42.89548" lon="1.22807">
        <ele>688.422</ele>
        <time>2023-05-29T11:13:33Z</time>
      </trkpt>
      <trkpt lat="42.89548" lon="1.22807">
        <ele>688.544</ele>
        <time>2023-05-29T11:13:34Z</time>
      </trkpt>
      <trkpt lat="42.89549" lon="1.22808">
        <ele>689.451</ele>
        <time>2023-05-29T11:13:35Z</time>
      </trkpt>
      <trkpt lat="42.89549" lon="1.22808">
        <ele>689.219</ele>
        <time>2023-05-29T11:13:36Z</time>
      </trkpt>
      <trkpt lat="42.89549" lon="1.22808">
        <ele>689.618</ele>
        <time>2023-05-29T11:13:37Z</time>
      </trkpt>
      <trkpt lat="42.89549" lon="1.22808">
        <ele>689.606</ele>
        <time>2023-05-29T11:13:38Z</time>
      </trkpt>
      <trkpt lat="42.89549" lon="1.22808">
        <ele>689.606</ele>
        <time>2023-05-29T11:13:39Z</time>
      </trkpt>
      <trkpt lat="42.89549" lon="1.22808">
        <ele>689.607</ele>
        <time>2023-05-29T11:13:40Z</time>
      </trkpt>
      <trkpt lat="42.89549" lon="1.22808">
        <ele>689.611</ele>
        <time>2023-05-29T11:13:41Z</time>
      </trkpt>
      <trkpt lat="42.89549" lon="1.22808">
        <ele>689.614</ele>
        <time>2023-05-29T11:13:42Z</time>
      </trkpt>
      <trkpt lat="42.89549" lon="1.22808">
        <ele>689.618</ele>
        <time>2023-05-29T11:13:43Z</time>
      </trkpt>
      <trkpt lat="42.89549" lon="1.22808">
        <ele>689.618</ele>
        <time>2023-05-29T11:13:44Z</time>
      </trkpt>
      <trkpt lat="42.89549" lon="1.22808">
        <ele>689.617</ele>
        <time>2023-05-29T11:13:45Z</time>
      </trkpt>
      <trkpt lat="42.89549" lon="1.22808">
        <ele>689.618</ele>
        <time>2023-05-29T11:13:46Z</time>
      </trkpt>
      <trkpt lat="42.89549" lon="1.22808">
        <ele>689.616</ele>
        <time>2023-05-29T11:13:47Z</time>
      </trkpt>
      <trkpt lat="42.89549" lon="1.22808">
        <ele>689.62</ele>
        <time>2023-05-29T11:13:48Z</time>
      </trkpt>
      <trkpt lat="42.89549" lon="1.22808">
        <ele>689.619</ele>
        <time>2023-05-29T11:13:49Z</time>
      </trkpt>
      <trkpt lat="42.89549" lon="1.22808">
        <ele>689.622</ele>
        <time>2023-05-29T11:13:50Z</time>
      </trkpt>
      <trkpt lat="42.89549" lon="1.22808">
        <ele>689.62</ele>
        <time>2023-05-29T11:13:51Z</time>
      </trkpt>
      <trkpt lat="42.89549" lon="1.22808">
        <ele>689.616</ele>
        <time>2023-05-29T11:13:52Z</time>
      </trkpt>
      <trkpt lat="42.89549" lon="1.22808">
        <ele>689.613</ele>
        <time>2023-05-29T11:13:53Z</time>
      </trkpt>
      <trkpt lat="42.89549" lon="1.22808">
        <ele>689.61</ele>
        <time>2023-05-29T11:13:54Z</time>
      </trkpt>
      <trkpt lat="42.89549" lon="1.22808">
        <ele>689.611</ele>
        <time>2023-05-29T11:13:55Z</time>
      </trkpt>
      <trkpt lat="42.89549" lon="1.22808">
        <ele>689.615</ele>
        <time>2023-05-29T11:13:56Z</time>
      </trkpt>
      <trkpt lat="42.89549" lon="1.22808">
        <ele>689.615</ele>
        <time>2023-05-29T11:13:57Z</time>
      </trkpt>
      <trkpt lat="42.89549" lon="1.22808">
        <ele>689.619</ele>
        <time>2023-05-29T11:13:58Z</time>
      </trkpt>
      <trkpt lat="42.89549" lon="1.22808">
        <ele>689.624</ele>
        <time>2023-05-29T11:13:59Z</time>
      </trkpt>
      <trkpt lat="42.89549" lon="1.22808">
        <ele>689.624</ele>
        <time>2023-05-29T11:14:00Z</time>
      </trkpt>
      <trkpt lat="42.89549" lon="1.22808">
        <ele>689.626</ele>
        <time>2023-05-29T11:14:01Z</time>
      </trkpt>
      <trkpt lat="42.89549" lon="1.22808">
        <ele>689.626</ele>
        <time>2023-05-29T11:14:02Z</time>
      </trkpt>
      <trkpt lat="42.89549" lon="1.22808">
        <ele>689.624</ele>
        <time>2023-05-29T11:14:03Z</time>
      </trkpt>
      <trkpt lat="42.89549" lon="1.22808">
        <ele>689.625</ele>
        <time>2023-05-29T11:14:04Z</time>
      </trkpt>
      <trkpt lat="42.89549" lon="1.22808">
        <ele>689.626</ele>
        <time>2023-05-29T11:14:05Z</time>
      </trkpt>
      <trkpt lat="42.89549" lon="1.22808">
        <ele>689.63</ele>
        <time>2023-05-29T11:14:06Z</time>
      </trkpt>
      <trkpt lat="42.89549" lon="1.22808">
        <ele>689.634</ele>
        <time>2023-05-29T11:14:07Z</time>
      </trkpt>
      <trkpt lat="42.89549" lon="1.22808">
        <ele>689.635</ele>
        <time>2023-05-29T11:14:08Z</time>
      </trkpt>
      <trkpt lat="42.89549" lon="1.22808">
        <ele>689.638</ele>
        <time>2023-05-29T11:14:09Z</time>
      </trkpt>
      <trkpt lat="42.89549" lon="1.22808">
        <ele>689.643</ele>
        <time>2023-05-29T11:14:10Z</time>
      </trkpt>
      <trkpt lat="42.89549" lon="1.22808">
        <ele>689.647</ele>
        <time>2023-05-29T11:14:11Z</time>
      </trkpt>
      <trkpt lat="42.89549" lon="1.22808">
        <ele>689.648</ele>
        <time>2023-05-29T11:14:12Z</time>
      </trkpt>
      <trkpt lat="42.89549" lon="1.22808">
        <ele>689.648</ele>
        <time>2023-05-29T11:14:13Z</time>
      </trkpt>
      <trkpt lat="42.89549" lon="1.22808">
        <ele>689.651</ele>
        <time>2023-05-29T11:14:14Z</time>
      </trkpt>
      <trkpt lat="42.89549" lon="1.22808">
        <ele>689.654</ele>
        <time>2023-05-29T11:14:15Z</time>
      </trkpt>
      <trkpt lat="42.89549" lon="1.22808">
        <ele>689.653</ele>
        <time>2023-05-29T11:14:16Z</time>
      </trkpt>
      <trkpt lat="42.89549" lon="1.22808">
        <ele>689.661</ele>
        <time>2023-05-29T11:14:17Z</time>
      </trkpt>
      <trkpt lat="42.89549" lon="1.22808">
        <ele>689.657</ele>
        <time>2023-05-29T11:14:18Z</time>
      </trkpt>
      <trkpt lat="42.89549" lon="1.22808">
        <ele>689.652</ele>
        <time>2023-05-29T11:14:19Z</time>
      </trkpt>
      <trkpt lat="42.89549" lon="1.22808">
        <ele>689.656</ele>
        <time>2023-05-29T11:14:20Z</time>
      </trkpt>
      <trkpt lat="42.89549" lon="1.22808">
        <ele>689.655</ele>
        <time>2023-05-29T11:14:21Z</time>
      </trkpt>
      <trkpt lat="42.89549" lon="1.22808">
        <ele>689.652</ele>
        <time>2023-05-29T11:14:22Z</time>
      </trkpt>
      <trkpt lat="42.89549" lon="1.22808">
        <ele>689.656</ele>
        <time>2023-05-29T11:14:23Z</time>
      </trkpt>
      <trkpt lat="42.89549" lon="1.22808">
        <ele>689.654</ele>
        <time>2023-05-29T11:14:24Z</time>
      </trkpt>
      <trkpt lat="42.89549" lon="1.22808">
        <ele>689.651</ele>
        <time>2023-05-29T11:14:25Z</time>
      </trkpt>
      <trkpt lat="42.89549" lon="1.22808">
        <ele>689.653</ele>
        <time>2023-05-29T11:14:26Z</time>
      </trkpt>
      <trkpt lat="42.89549" lon="1.22808">
        <ele>689.656</ele>
        <time>2023-05-29T11:14:27Z</time>
      </trkpt>
      <trkpt lat="42.89549" lon="1.22808">
        <ele>689.657</ele>
        <time>2023-05-29T11:14:28Z</time>
      </trkpt>
      <trkpt lat="42.89549" lon="1.22808">
        <ele>689.664</ele>
        <time>2023-05-29T11:14:29Z</time>
      </trkpt>
      <trkpt lat="42.89549" lon="1.22808">
        <ele>689.669</ele>
        <time>2023-05-29T11:14:30Z</time>
      </trkpt>
      <trkpt lat="42.89549" lon="1.22808">
        <ele>689.673</ele>
        <time>2023-05-29T11:14:31Z</time>
      </trkpt>
      <trkpt lat="42.89549" lon="1.22808">
        <ele>689.676</ele>
        <time>2023-05-29T11:14:32Z</time>
      </trkpt>
      <trkpt lat="42.89549" lon="1.22808">
        <ele>689.676</ele>
        <time>2023-05-29T11:14:33Z</time>
      </trkpt>
      <trkpt lat="42.89549" lon="1.22808">
        <ele>689.67</ele>
        <time>2023-05-29T11:14:34Z</time>
      </trkpt>
      <trkpt lat="42.89549" lon="1.22808">
        <ele>689.668</ele>
        <time>2023-05-29T11:14:35Z</time>
      </trkpt>
      <trkpt lat="42.89549" lon="1.22808">
        <ele>689.824</ele>
        <time>2023-05-29T11:14:36Z</time>
      </trkpt>
      <trkpt lat="42.89549" lon="1.22808">
        <ele>690.319</ele>
        <time>2023-05-29T11:14:37Z</time>
      </trkpt>
      <trkpt lat="42.89549" lon="1.22807">
        <ele>690.31</ele>
        <time>2023-05-29T11:14:38Z</time>
      </trkpt>
      <trkpt lat="42.89548" lon="1.22807">
        <ele>690.033</ele>
        <time>2023-05-29T11:14:39Z</time>
      </trkpt>
      <trkpt lat="42.89548" lon="1.22807">
        <ele>690.024</ele>
        <time>2023-05-29T11:14:40Z</time>
      </trkpt>
      <trkpt lat="42.89548" lon="1.22807">
        <ele>690.022</ele>
        <time>2023-05-29T11:14:41Z</time>
      </trkpt>
      <trkpt lat="42.89548" lon="1.22807">
        <ele>690.019</ele>
        <time>2023-05-29T11:14:42Z</time>
      </trkpt>
      <trkpt lat="42.89548" lon="1.22807">
        <ele>690.019</ele>
        <time>2023-05-29T11:14:43Z</time>
      </trkpt>
      <trkpt lat="42.89548" lon="1.22807">
        <ele>690.017</ele>
        <time>2023-05-29T11:14:44Z</time>
      </trkpt>
      <trkpt lat="42.89548" lon="1.22807">
        <ele>690.012</ele>
        <time>2023-05-29T11:14:45Z</time>
      </trkpt>
      <trkpt lat="42.89548" lon="1.22807">
        <ele>690.008</ele>
        <time>2023-05-29T11:14:46Z</time>
      </trkpt>
      <trkpt lat="42.89548" lon="1.22807">
        <ele>690.007</ele>
        <time>2023-05-29T11:14:47Z</time>
      </trkpt>
      <trkpt lat="42.89548" lon="1.22807">
        <ele>690.003</ele>
        <time>2023-05-29T11:14:48Z</time>
      </trkpt>
      <trkpt lat="42.89548" lon="1.22807">
        <ele>689.96</ele>
        <time>2023-05-29T11:14:49Z</time>
      </trkpt>
      <trkpt lat="42.89548" lon="1.22807">
        <ele>690.205</ele>
        <time>2023-05-29T11:14:50Z</time>
      </trkpt>
      <trkpt lat="42.89547" lon="1.22807">
        <ele>689.727</ele>
        <time>2023-05-29T11:14:51Z</time>
      </trkpt>
      <trkpt lat="42.89547" lon="1.22807">
        <ele>689.726</ele>
        <time>2023-05-29T11:14:52Z</time>
      </trkpt>
      <trkpt lat="42.89545" lon="1.22806">
        <ele>689.704</ele>
        <time>2023-05-29T11:14:53Z</time>
      </trkpt>
      <trkpt lat="42.89545" lon="1.228">
        <ele>689.758</ele>
        <time>2023-05-29T11:14:54Z</time>
      </trkpt>
      <trkpt lat="42.89545" lon="1.22799">
        <ele>689.781</ele>
        <time>2023-05-29T11:14:55Z</time>
      </trkpt>
      <trkpt lat="42.89545" lon="1.22799">
        <ele>689.773</ele>
        <time>2023-05-29T11:14:56Z</time>
      </trkpt>
      <trkpt lat="42.89546" lon="1.22799">
        <ele>689.767</ele>
        <time>2023-05-29T11:14:57Z</time>
      </trkpt>
      <trkpt lat="42.89546" lon="1.22799">
        <ele>689.767</ele>
        <time>2023-05-29T11:14:58Z</time>
      </trkpt>
      <trkpt lat="42.89546" lon="1.22799">
        <ele>689.768</ele>
        <time>2023-05-29T11:14:59Z</time>
      </trkpt>
      <trkpt lat="42.89546" lon="1.22799">
        <ele>689.771</ele>
        <time>2023-05-29T11:15:00Z</time>
      </trkpt>
      <trkpt lat="42.89546" lon="1.22799">
        <ele>689.777</ele>
        <time>2023-05-29T11:15:01Z</time>
      </trkpt>
      <trkpt lat="42.89546" lon="1.22799">
        <ele>689.782</ele>
        <time>2023-05-29T11:15:02Z</time>
      </trkpt>
      <trkpt lat="42.89546" lon="1.22799">
        <ele>689.786</ele>
        <time>2023-05-29T11:15:03Z</time>
      </trkpt>
      <trkpt lat="42.89546" lon="1.22799">
        <ele>689.789</ele>
        <time>2023-05-29T11:15:04Z</time>
      </trkpt>
      <trkpt lat="42.89546" lon="1.22799">
        <ele>689.788</ele>
        <time>2023-05-29T11:15:05Z</time>
      </trkpt>
      <trkpt lat="42.89546" lon="1.22799">
        <ele>689.787</ele>
        <time>2023-05-29T11:15:06Z</time>
      </trkpt>
      <trkpt lat="42.89546" lon="1.22799">
        <ele>689.788</ele>
        <time>2023-05-29T11:15:07Z</time>
      </trkpt>
      <trkpt lat="42.89546" lon="1.22799">
        <ele>689.787</ele>
        <time>2023-05-29T11:15:08Z</time>
      </trkpt>
      <trkpt lat="42.89546" lon="1.22799">
        <ele>689.782</ele>
        <time>2023-05-29T11:15:09Z</time>
      </trkpt>
      <trkpt lat="42.89546" lon="1.22799">
        <ele>689.779</ele>
        <time>2023-05-29T11:15:10Z</time>
      </trkpt>
      <trkpt lat="42.89546" lon="1.22799">
        <ele>689.775</ele>
        <time>2023-05-29T11:15:11Z</time>
      </trkpt>
      <trkpt lat="42.89546" lon="1.22799">
        <ele>689.772</ele>
        <time>2023-05-29T11:15:12Z</time>
      </trkpt>
      <trkpt lat="42.89546" lon="1.22799">
        <ele>689.768</ele>
        <time>2023-05-29T11:15:13Z</time>
      </trkpt>
      <trkpt lat="42.89546" lon="1.22799">
        <ele>689.765</ele>
        <time>2023-05-29T11:15:14Z</time>
      </trkpt>
      <trkpt lat="42.89546" lon="1.22799">
        <ele>689.76</ele>
        <time>2023-05-29T11:15:15Z</time>
      </trkpt>
      <trkpt lat="42.89546" lon="1.22799">
        <ele>689.651</ele>
        <time>2023-05-29T11:15:16Z</time>
      </trkpt>
      <trkpt lat="42.89546" lon="1.228">
        <ele>689.31</ele>
        <time>2023-05-29T11:15:17Z</time>
      </trkpt>
      <trkpt lat="42.89546" lon="1.22801">
        <ele>689.559</ele>
        <time>2023-05-29T11:15:18Z</time>
      </trkpt>
      <trkpt lat="42.89546" lon="1.22801">
        <ele>689.668</ele>
        <time>2023-05-29T11:15:19Z</time>
      </trkpt>
      <trkpt lat="42.89546" lon="1.22801">
        <ele>688.817</ele>
        <time>2023-05-29T11:15:20Z</time>
      </trkpt>
      <trkpt lat="42.89547" lon="1.22802">
        <ele>688.841</ele>
        <time>2023-05-29T11:15:21Z</time>
      </trkpt>
      <trkpt lat="42.89547" lon="1.22803">
        <ele>688.84</ele>
        <time>2023-05-29T11:15:22Z</time>
      </trkpt>
      <trkpt lat="42.89547" lon="1.22803">
        <ele>688.256</ele>
        <time>2023-05-29T11:15:23Z</time>
      </trkpt>
      <trkpt lat="42.89547" lon="1.22804">
        <ele>687.947</ele>
        <time>2023-05-29T11:15:24Z</time>
      </trkpt>
      <trkpt lat="42.89547" lon="1.22804">
        <ele>687.94</ele>
        <time>2023-05-29T11:15:25Z</time>
      </trkpt>
      <trkpt lat="42.89548" lon="1.22804">
        <ele>687.941</ele>
        <time>2023-05-29T11:15:26Z</time>
      </trkpt>
      <trkpt lat="42.89548" lon="1.22804">
        <ele>687.94</ele>
        <time>2023-05-29T11:15:27Z</time>
      </trkpt>
      <trkpt lat="42.89548" lon="1.22804">
        <ele>687.935</ele>
        <time>2023-05-29T11:15:28Z</time>
      </trkpt>
      <trkpt lat="42.89548" lon="1.22804">
        <ele>687.934</ele>
        <time>2023-05-29T11:15:29Z</time>
      </trkpt>
      <trkpt lat="42.89548" lon="1.22804">
        <ele>687.934</ele>
        <time>2023-05-29T11:15:30Z</time>
      </trkpt>
      <trkpt lat="42.89548" lon="1.22804">
        <ele>687.933</ele>
        <time>2023-05-29T11:15:31Z</time>
      </trkpt>
      <trkpt lat="42.89548" lon="1.22804">
        <ele>687.929</ele>
        <time>2023-05-29T11:15:32Z</time>
      </trkpt>
      <trkpt lat="42.89548" lon="1.22804">
        <ele>687.928</ele>
        <time>2023-05-29T11:15:33Z</time>
      </trkpt>
      <trkpt lat="42.89548" lon="1.22804">
        <ele>687.927</ele>
        <time>2023-05-29T11:15:34Z</time>
      </trkpt>
      <trkpt lat="42.89548" lon="1.22804">
        <ele>687.926</ele>
        <time>2023-05-29T11:15:35Z</time>
      </trkpt>
      <trkpt lat="42.89548" lon="1.22804">
        <ele>687.925</ele>
        <time>2023-05-29T11:15:36Z</time>
      </trkpt>
      <trkpt lat="42.89548" lon="1.22804">
        <ele>687.923</ele>
        <time>2023-05-29T11:15:37Z</time>
      </trkpt>
      <trkpt lat="42.89548" lon="1.22804">
        <ele>687.92</ele>
        <time>2023-05-29T11:15:38Z</time>
      </trkpt>
      <trkpt lat="42.89548" lon="1.22804">
        <ele>687.918</ele>
        <time>2023-05-29T11:15:39Z</time>
      </trkpt>
      <trkpt lat="42.89548" lon="1.22804">
        <ele>687.914</ele>
        <time>2023-05-29T11:15:40Z</time>
      </trkpt>
      <trkpt lat="42.89548" lon="1.22804">
        <ele>687.914</ele>
        <time>2023-05-29T11:15:41Z</time>
      </trkpt>
      <trkpt lat="42.89548" lon="1.22804">
        <ele>687.912</ele>
        <time>2023-05-29T11:15:42Z</time>
      </trkpt>
      <trkpt lat="42.89548" lon="1.22804">
        <ele>687.912</ele>
        <time>2023-05-29T11:15:43Z</time>
      </trkpt>
      <trkpt lat="42.89548" lon="1.22804">
        <ele>687.912</ele>
        <time>2023-05-29T11:15:44Z</time>
      </trkpt>
      <trkpt lat="42.89548" lon="1.22804">
        <ele>687.91</ele>
        <time>2023-05-29T11:15:45Z</time>
      </trkpt>
      <trkpt lat="42.89548" lon="1.22804">
        <ele>687.911</ele>
        <time>2023-05-29T11:15:46Z</time>
      </trkpt>
      <trkpt lat="42.89548" lon="1.22804">
        <ele>687.909</ele>
        <time>2023-05-29T11:15:47Z</time>
      </trkpt>
      <trkpt lat="42.89548" lon="1.22804">
        <ele>687.909</ele>
        <time>2023-05-29T11:15:48Z</time>
      </trkpt>
      <trkpt lat="42.89548" lon="1.22804">
        <ele>687.911</ele>
        <time>2023-05-29T11:15:49Z</time>
      </trkpt>
      <trkpt lat="42.89548" lon="1.22804">
        <ele>687.916</ele>
        <time>2023-05-29T11:15:50Z</time>
      </trkpt>
      <trkpt lat="42.89548" lon="1.22804">
        <ele>687.922</ele>
        <time>2023-05-29T11:15:51Z</time>
      </trkpt>
      <trkpt lat="42.89548" lon="1.22804">
        <ele>687.922</ele>
        <time>2023-05-29T11:15:52Z</time>
      </trkpt>
      <trkpt lat="42.89548" lon="1.22804">
        <ele>687.926</ele>
        <time>2023-05-29T11:15:53Z</time>
      </trkpt>
      <trkpt lat="42.89548" lon="1.22804">
        <ele>687.932</ele>
        <time>2023-05-29T11:15:54Z</time>
      </trkpt>
      <trkpt lat="42.89548" lon="1.22804">
        <ele>687.938</ele>
        <time>2023-05-29T11:15:55Z</time>
      </trkpt>
      <trkpt lat="42.89548" lon="1.22804">
        <ele>687.942</ele>
        <time>2023-05-29T11:15:56Z</time>
      </trkpt>
      <trkpt lat="42.89548" lon="1.22804">
        <ele>687.943</ele>
        <time>2023-05-29T11:15:57Z</time>
      </trkpt>
      <trkpt lat="42.89548" lon="1.22804">
        <ele>687.944</ele>
        <time>2023-05-29T11:15:58Z</time>
      </trkpt>
      <trkpt lat="42.89548" lon="1.22804">
        <ele>687.946</ele>
        <time>2023-05-29T11:15:59Z</time>
      </trkpt>
      <trkpt lat="42.89548" lon="1.22804">
        <ele>687.944</ele>
        <time>2023-05-29T11:16:00Z</time>
      </trkpt>
      <trkpt lat="42.89548" lon="1.22804">
        <ele>687.946</ele>
        <time>2023-05-29T11:16:01Z</time>
      </trkpt>
      <trkpt lat="42.89548" lon="1.22804">
        <ele>687.945</ele>
        <time>2023-05-29T11:16:02Z</time>
      </trkpt>
      <trkpt lat="42.89548" lon="1.22804">
        <ele>687.942</ele>
        <time>2023-05-29T11:16:03Z</time>
      </trkpt>
      <trkpt lat="42.89548" lon="1.22804">
        <ele>687.938</ele>
        <time>2023-05-29T11:16:04Z</time>
      </trkpt>
      <trkpt lat="42.89548" lon="1.22804">
        <ele>687.936</ele>
        <time>2023-05-29T11:16:05Z</time>
      </trkpt>
      <trkpt lat="42.89548" lon="1.22804">
        <ele>687.93</ele>
        <time>2023-05-29T11:16:06Z</time>
      </trkpt>
      <trkpt lat="42.89548" lon="1.22804">
        <ele>687.928</ele>
        <time>2023-05-29T11:16:07Z</time>
      </trkpt>
      <trkpt lat="42.89548" lon="1.22804">
        <ele>687.924</ele>
        <time>2023-05-29T11:16:08Z</time>
      </trkpt>
      <trkpt lat="42.89548" lon="1.22804">
        <ele>687.927</ele>
        <time>2023-05-29T11:16:09Z</time>
      </trkpt>
      <trkpt lat="42.89548" lon="1.22804">
        <ele>687.924</ele>
        <time>2023-05-29T11:16:10Z</time>
      </trkpt>
      <trkpt lat="42.89548" lon="1.22805">
        <ele>687.925</ele>
        <time>2023-05-29T11:16:11Z</time>
      </trkpt>
      <trkpt lat="42.89548" lon="1.22805">
        <ele>687.924</ele>
        <time>2023-05-29T11:16:12Z</time>
      </trkpt>
      <trkpt lat="42.89548" lon="1.22805">
        <ele>687.923</ele>
        <time>2023-05-29T11:16:13Z</time>
      </trkpt>
      <trkpt lat="42.89548" lon="1.22805">
        <ele>687.927</ele>
        <time>2023-05-29T11:16:14Z</time>
      </trkpt>
      <trkpt lat="42.89548" lon="1.22805">
        <ele>687.928</ele>
        <time>2023-05-29T11:16:15Z</time>
      </trkpt>
      <trkpt lat="42.89548" lon="1.22805">
        <ele>687.933</ele>
        <time>2023-05-29T11:16:16Z</time>
      </trkpt>
      <trkpt lat="42.89548" lon="1.22805">
        <ele>687.939</ele>
        <time>2023-05-29T11:16:17Z</time>
      </trkpt>
      <trkpt lat="42.89548" lon="1.22805">
        <ele>687.938</ele>
        <time>2023-05-29T11:16:18Z</time>
      </trkpt>
      <trkpt lat="42.89548" lon="1.22805">
        <ele>687.937</ele>
        <time>2023-05-29T11:16:19Z</time>
      </trkpt>
      <trkpt lat="42.89548" lon="1.22805">
        <ele>687.936</ele>
        <time>2023-05-29T11:16:20Z</time>
      </trkpt>
      <trkpt lat="42.89548" lon="1.22805">
        <ele>687.936</ele>
        <time>2023-05-29T11:16:21Z</time>
      </trkpt>
      <trkpt lat="42.89548" lon="1.22805">
        <ele>687.939</ele>
        <time>2023-05-29T11:16:22Z</time>
      </trkpt>
      <trkpt lat="42.89548" lon="1.22805">
        <ele>687.939</ele>
        <time>2023-05-29T11:16:23Z</time>
      </trkpt>
      <trkpt lat="42.89548" lon="1.22805">
        <ele>687.938</ele>
        <time>2023-05-29T11:16:24Z</time>
      </trkpt>
      <trkpt lat="42.89548" lon="1.22805">
        <ele>687.938</ele>
        <time>2023-05-29T11:16:25Z</time>
      </trkpt>
      <trkpt lat="42.89548" lon="1.22805">
        <ele>687.936</ele>
        <time>2023-05-29T11:16:26Z</time>
      </trkpt>
      <trkpt lat="42.89548" lon="1.22805">
        <ele>687.94</ele>
        <time>2023-05-29T11:16:27Z</time>
      </trkpt>
      <trkpt lat="42.89548" lon="1.22805">
        <ele>687.94</ele>
        <time>2023-05-29T11:16:28Z</time>
      </trkpt>
      <trkpt lat="42.89548" lon="1.22805">
        <ele>687.938</ele>
        <time>2023-05-29T11:16:29Z</time>
      </trkpt>
      <trkpt lat="42.89548" lon="1.22805">
        <ele>687.937</ele>
        <time>2023-05-29T11:16:30Z</time>
      </trkpt>
      <trkpt lat="42.89548" lon="1.22805">
        <ele>687.936</ele>
        <time>2023-05-29T11:16:31Z</time>
      </trkpt>
      <trkpt lat="42.89548" lon="1.22805">
        <ele>687.937</ele>
        <time>2023-05-29T11:16:32Z</time>
      </trkpt>
      <trkpt lat="42.89548" lon="1.22805">
        <ele>687.936</ele>
        <time>2023-05-29T11:16:33Z</time>
      </trkpt>
      <trkpt lat="42.89548" lon="1.22805">
        <ele>687.934</ele>
        <time>2023-05-29T11:16:34Z</time>
      </trkpt>
      <trkpt lat="42.89548" lon="1.22805">
        <ele>687.935</ele>
        <time>2023-05-29T11:16:35Z</time>
      </trkpt>
      <trkpt lat="42.89548" lon="1.22805">
        <ele>687.933</ele>
        <time>2023-05-29T11:16:36Z</time>
      </trkpt>
      <trkpt lat="42.89548" lon="1.22805">
        <ele>687.937</ele>
        <time>2023-05-29T11:16:37Z</time>
      </trkpt>
      <trkpt lat="42.89548" lon="1.22805">
        <ele>687.935</ele>
        <time>2023-05-29T11:16:38Z</time>
      </trkpt>
      <trkpt lat="42.89548" lon="1.22805">
        <ele>687.936</ele>
        <time>2023-05-29T11:16:39Z</time>
      </trkpt>
      <trkpt lat="42.89548" lon="1.22805">
        <ele>687.938</ele>
        <time>2023-05-29T11:16:40Z</time>
      </trkpt>
      <trkpt lat="42.89548" lon="1.22805">
        <ele>687.938</ele>
        <time>2023-05-29T11:16:41Z</time>
      </trkpt>
      <trkpt lat="42.89548" lon="1.22805">
        <ele>687.939</ele>
        <time>2023-05-29T11:16:42Z</time>
      </trkpt>
      <trkpt lat="42.89548" lon="1.22805">
        <ele>687.938</ele>
        <time>2023-05-29T11:16:43Z</time>
      </trkpt>
      <trkpt lat="42.89548" lon="1.22805">
        <ele>687.937</ele>
        <time>2023-05-29T11:16:44Z</time>
      </trkpt>
      <trkpt lat="42.89548" lon="1.22805">
        <ele>687.938</ele>
        <time>2023-05-29T11:16:45Z</time>
      </trkpt>
      <trkpt lat="42.89548" lon="1.22805">
        <ele>687.937</ele>
        <time>2023-05-29T11:16:46Z</time>
      </trkpt>
      <trkpt lat="42.89548" lon="1.22805">
        <ele>687.937</ele>
        <time>2023-05-29T11:16:47Z</time>
      </trkpt>
      <trkpt lat="42.89548" lon="1.22805">
        <ele>687.94</ele>
        <time>2023-05-29T11:16:48Z</time>
      </trkpt>
      <trkpt lat="42.89548" lon="1.22805">
        <ele>687.94</ele>
        <time>2023-05-29T11:16:49Z</time>
      </trkpt>
      <trkpt lat="42.89548" lon="1.22805">
        <ele>687.941</ele>
        <time>2023-05-29T11:16:50Z</time>
      </trkpt>
      <trkpt lat="42.89548" lon="1.22805">
        <ele>687.94</ele>
        <time>2023-05-29T11:16:51Z</time>
      </trkpt>
      <trkpt lat="42.89548" lon="1.22805">
        <ele>687.943</ele>
        <time>2023-05-29T11:16:52Z</time>
      </trkpt>
      <trkpt lat="42.89548" lon="1.22805">
        <ele>687.948</ele>
        <time>2023-05-29T11:16:53Z</time>
      </trkpt>
      <trkpt lat="42.89548" lon="1.22805">
        <ele>687.95</ele>
        <time>2023-05-29T11:16:54Z</time>
      </trkpt>
      <trkpt lat="42.89548" lon="1.22805">
        <ele>687.951</ele>
        <time>2023-05-29T11:16:55Z</time>
      </trkpt>
      <trkpt lat="42.89548" lon="1.22805">
        <ele>687.954</ele>
        <time>2023-05-29T11:16:56Z</time>
      </trkpt>
      <trkpt lat="42.89548" lon="1.22805">
        <ele>687.957</ele>
        <time>2023-05-29T11:16:57Z</time>
      </trkpt>
      <trkpt lat="42.89548" lon="1.22805">
        <ele>687.961</ele>
        <time>2023-05-29T11:16:58Z</time>
      </trkpt>
      <trkpt lat="42.89548" lon="1.22805">
        <ele>687.962</ele>
        <time>2023-05-29T11:16:59Z</time>
      </trkpt>
      <trkpt lat="42.89548" lon="1.22805">
        <ele>687.964</ele>
        <time>2023-05-29T11:17:00Z</time>
      </trkpt>
      <trkpt lat="42.89548" lon="1.22805">
        <ele>687.967</ele>
        <time>2023-05-29T11:17:01Z</time>
      </trkpt>
      <trkpt lat="42.89548" lon="1.22805">
        <ele>687.974</ele>
        <time>2023-05-29T11:17:02Z</time>
      </trkpt>
      <trkpt lat="42.89548" lon="1.22805">
        <ele>687.975</ele>
        <time>2023-05-29T11:17:03Z</time>
      </trkpt>
      <trkpt lat="42.89548" lon="1.22805">
        <ele>687.977</ele>
        <time>2023-05-29T11:17:04Z</time>
      </trkpt>
      <trkpt lat="42.89548" lon="1.22805">
        <ele>687.979</ele>
        <time>2023-05-29T11:17:05Z</time>
      </trkpt>
      <trkpt lat="42.89548" lon="1.22805">
        <ele>687.985</ele>
        <time>2023-05-29T11:17:06Z</time>
      </trkpt>
      <trkpt lat="42.89548" lon="1.22805">
        <ele>687.988</ele>
        <time>2023-05-29T11:17:07Z</time>
      </trkpt>
      <trkpt lat="42.89548" lon="1.22805">
        <ele>687.991</ele>
        <time>2023-05-29T11:17:08Z</time>
      </trkpt>
      <trkpt lat="42.89548" lon="1.22805">
        <ele>687.993</ele>
        <time>2023-05-29T11:17:09Z</time>
      </trkpt>
      <trkpt lat="42.89548" lon="1.22805">
        <ele>687.992</ele>
        <time>2023-05-29T11:17:10Z</time>
      </trkpt>
      <trkpt lat="42.89548" lon="1.22805">
        <ele>687.987</ele>
        <time>2023-05-29T11:17:11Z</time>
      </trkpt>
      <trkpt lat="42.89548" lon="1.22805">
        <ele>687.991</ele>
        <time>2023-05-29T11:17:12Z</time>
      </trkpt>
      <trkpt lat="42.89548" lon="1.22805">
        <ele>687.993</ele>
        <time>2023-05-29T11:17:13Z</time>
      </trkpt>
      <trkpt lat="42.89548" lon="1.22805">
        <ele>687.992</ele>
        <time>2023-05-29T11:17:14Z</time>
      </trkpt>
      <trkpt lat="42.89548" lon="1.22805">
        <ele>687.995</ele>
        <time>2023-05-29T11:17:15Z</time>
      </trkpt>
      <trkpt lat="42.89548" lon="1.22805">
        <ele>688.001</ele>
        <time>2023-05-29T11:17:16Z</time>
      </trkpt>
      <trkpt lat="42.89548" lon="1.22805">
        <ele>688.002</ele>
        <time>2023-05-29T11:17:17Z</time>
      </trkpt>
      <trkpt lat="42.89548" lon="1.22805">
        <ele>688.003</ele>
        <time>2023-05-29T11:17:18Z</time>
      </trkpt>
      <trkpt lat="42.89548" lon="1.22805">
        <ele>688.002</ele>
        <time>2023-05-29T11:17:19Z</time>
      </trkpt>
      <trkpt lat="42.89548" lon="1.22805">
        <ele>688.003</ele>
        <time>2023-05-29T11:17:20Z</time>
      </trkpt>
      <trkpt lat="42.89548" lon="1.22805">
        <ele>688.009</ele>
        <time>2023-05-29T11:17:21Z</time>
      </trkpt>
      <trkpt lat="42.89548" lon="1.22805">
        <ele>688.01</ele>
        <time>2023-05-29T11:17:22Z</time>
      </trkpt>
      <trkpt lat="42.89548" lon="1.22805">
        <ele>688.008</ele>
        <time>2023-05-29T11:17:23Z</time>
      </trkpt>
      <trkpt lat="42.89548" lon="1.22805">
        <ele>688.009</ele>
        <time>2023-05-29T11:17:24Z</time>
      </trkpt>
      <trkpt lat="42.89548" lon="1.22805">
        <ele>688.006</ele>
        <time>2023-05-29T11:17:25Z</time>
      </trkpt>
      <trkpt lat="42.89548" lon="1.22805">
        <ele>688.009</ele>
        <time>2023-05-29T11:17:26Z</time>
      </trkpt>
      <trkpt lat="42.89548" lon="1.22805">
        <ele>688.009</ele>
        <time>2023-05-29T11:17:27Z</time>
      </trkpt>
      <trkpt lat="42.89548" lon="1.22805">
        <ele>688.012</ele>
        <time>2023-05-29T11:17:28Z</time>
      </trkpt>
      <trkpt lat="42.89548" lon="1.22805">
        <ele>688.016</ele>
        <time>2023-05-29T11:17:29Z</time>
      </trkpt>
      <trkpt lat="42.89548" lon="1.22805">
        <ele>688.021</ele>
        <time>2023-05-29T11:17:30Z</time>
      </trkpt>
      <trkpt lat="42.89548" lon="1.22805">
        <ele>688.023</ele>
        <time>2023-05-29T11:17:31Z</time>
      </trkpt>
      <trkpt lat="42.89548" lon="1.22805">
        <ele>688.029</ele>
        <time>2023-05-29T11:17:32Z</time>
      </trkpt>
      <trkpt lat="42.89548" lon="1.22805">
        <ele>688.083</ele>
        <time>2023-05-29T11:17:33Z</time>
      </trkpt>
      <trkpt lat="42.89548" lon="1.22805">
        <ele>688.085</ele>
        <time>2023-05-29T11:17:34Z</time>
      </trkpt>
      <trkpt lat="42.89548" lon="1.22805">
        <ele>688.09</ele>
        <time>2023-05-29T11:17:35Z</time>
      </trkpt>
      <trkpt lat="42.89549" lon="1.22805">
        <ele>688.439</ele>
        <time>2023-05-29T11:17:36Z</time>
      </trkpt>
      <trkpt lat="42.8955" lon="1.22804">
        <ele>688.618</ele>
        <time>2023-05-29T11:17:37Z</time>
      </trkpt>
      <trkpt lat="42.89552" lon="1.22803">
        <ele>689.459</ele>
        <time>2023-05-29T11:17:38Z</time>
      </trkpt>
      <trkpt lat="42.89553" lon="1.22801">
        <ele>690.068</ele>
        <time>2023-05-29T11:17:39Z</time>
      </trkpt>
      <trkpt lat="42.89554" lon="1.22801">
        <ele>691.257</ele>
        <time>2023-05-29T11:17:40Z</time>
      </trkpt>
      <trkpt lat="42.89556" lon="1.228">
        <ele>692.163</ele>
        <time>2023-05-29T11:17:41Z</time>
      </trkpt>
      <trkpt lat="42.89557" lon="1.22799">
        <ele>692.141</ele>
        <time>2023-05-29T11:17:42Z</time>
      </trkpt>
      <trkpt lat="42.89558" lon="1.22797">
        <ele>691.688</ele>
        <time>2023-05-29T11:17:43Z</time>
      </trkpt>
      <trkpt lat="42.89559" lon="1.22795">
        <ele>690.941</ele>
        <time>2023-05-29T11:17:44Z</time>
      </trkpt>
      <trkpt lat="42.8956" lon="1.22794">
        <ele>692.161</ele>
        <time>2023-05-29T11:17:45Z</time>
      </trkpt>
      <trkpt lat="42.8956" lon="1.22793">
        <ele>691.679</ele>
        <time>2023-05-29T11:17:46Z</time>
      </trkpt>
      <trkpt lat="42.89561" lon="1.22792">
        <ele>693.36</ele>
        <time>2023-05-29T11:17:47Z</time>
      </trkpt>
      <trkpt lat="42.89562" lon="1.2279">
        <ele>693.197</ele>
        <time>2023-05-29T11:17:48Z</time>
      </trkpt>
      <trkpt lat="42.89563" lon="1.22789">
        <ele>694.959</ele>
        <time>2023-05-29T11:17:49Z</time>
      </trkpt>
      <trkpt lat="42.89564" lon="1.22788">
        <ele>695.719</ele>
        <time>2023-05-29T11:17:50Z</time>
      </trkpt>
      <trkpt lat="42.89565" lon="1.22786">
        <ele>696.221</ele>
        <time>2023-05-29T11:17:51Z</time>
      </trkpt>
      <trkpt lat="42.89566" lon="1.22785">
        <ele>695.121</ele>
        <time>2023-05-29T11:17:52Z</time>
      </trkpt>
      <trkpt lat="42.89567" lon="1.22784">
        <ele>697.163</ele>
        <time>2023-05-29T11:17:53Z</time>
      </trkpt>
      <trkpt lat="42.89568" lon="1.22782">
        <ele>697.1</ele>
        <time>2023-05-29T11:17:54Z</time>
      </trkpt>
      <trkpt lat="42.89569" lon="1.2278">
        <ele>697.303</ele>
        <time>2023-05-29T11:17:55Z</time>
      </trkpt>
      <trkpt lat="42.8957" lon="1.22779">
        <ele>697.69</ele>
        <time>2023-05-29T11:17:56Z</time>
      </trkpt>
      <trkpt lat="42.89571" lon="1.22777">
        <ele>697.123</ele>
        <time>2023-05-29T11:17:57Z</time>
      </trkpt>
      <trkpt lat="42.89572" lon="1.22775">
        <ele>696.114</ele>
        <time>2023-05-29T11:17:58Z</time>
      </trkpt>
      <trkpt lat="42.89573" lon="1.22773">
        <ele>696.492</ele>
        <time>2023-05-29T11:17:59Z</time>
      </trkpt>
      <trkpt lat="42.89574" lon="1.22771">
        <ele>696.774</ele>
        <time>2023-05-29T11:18:00Z</time>
      </trkpt>
      <trkpt lat="42.89575" lon="1.22768">
        <ele>696.997</ele>
        <time>2023-05-29T11:18:01Z</time>
      </trkpt>
      <trkpt lat="42.89575" lon="1.22766">
        <ele>698.37</ele>
        <time>2023-05-29T11:18:02Z</time>
      </trkpt>
      <trkpt lat="42.89576" lon="1.22764">
        <ele>698.535</ele>
        <time>2023-05-29T11:18:03Z</time>
      </trkpt>
      <trkpt lat="42.89577" lon="1.22762">
        <ele>699.135</ele>
        <time>2023-05-29T11:18:04Z</time>
      </trkpt>
      <trkpt lat="42.89577" lon="1.2276">
        <ele>699.494</ele>
        <time>2023-05-29T11:18:05Z</time>
      </trkpt>
      <trkpt lat="42.89578" lon="1.22757">
        <ele>699.076</ele>
        <time>2023-05-29T11:18:06Z</time>
      </trkpt>
      <trkpt lat="42.89579" lon="1.22755">
        <ele>699.49</ele>
        <time>2023-05-29T11:18:07Z</time>
      </trkpt>
      <trkpt lat="42.8958" lon="1.22753">
        <ele>700.047</ele>
        <time>2023-05-29T11:18:08Z</time>
      </trkpt>
      <trkpt lat="42.8958" lon="1.22752">
        <ele>700.866</ele>
        <time>2023-05-29T11:18:09Z</time>
      </trkpt>
      <trkpt lat="42.89581" lon="1.2275">
        <ele>702.118</ele>
        <time>2023-05-29T11:18:10Z</time>
      </trkpt>
      <trkpt lat="42.89582" lon="1.22748">
        <ele>702.326</ele>
        <time>2023-05-29T11:18:11Z</time>
      </trkpt>
      <trkpt lat="42.89583" lon="1.22746">
        <ele>703.744</ele>
        <time>2023-05-29T11:18:12Z</time>
      </trkpt>
      <trkpt lat="42.89583" lon="1.22744">
        <ele>705.033</ele>
        <time>2023-05-29T11:18:13Z</time>
      </trkpt>
      <trkpt lat="42.89584" lon="1.22742">
        <ele>706.533</ele>
        <time>2023-05-29T11:18:14Z</time>
      </trkpt>
      <trkpt lat="42.89585" lon="1.22739">
        <ele>706.595</ele>
        <time>2023-05-29T11:18:15Z</time>
      </trkpt>
      <trkpt lat="42.89585" lon="1.22737">
        <ele>708.958</ele>
        <time>2023-05-29T11:18:16Z</time>
      </trkpt>
      <trkpt lat="42.89586" lon="1.22736">
        <ele>711.6</ele>
        <time>2023-05-29T11:18:17Z</time>
      </trkpt>
      <trkpt lat="42.89586" lon="1.22734">
        <ele>711.938</ele>
        <time>2023-05-29T11:18:18Z</time>
      </trkpt>
      <trkpt lat="42.89585" lon="1.22732">
        <ele>710.994</ele>
        <time>2023-05-29T11:18:19Z</time>
      </trkpt>
      <trkpt lat="42.89586" lon="1.22729">
        <ele>711.602</ele>
        <time>2023-05-29T11:18:20Z</time>
      </trkpt>
      <trkpt lat="42.89586" lon="1.22727">
        <ele>710.432</ele>
        <time>2023-05-29T11:18:21Z</time>
      </trkpt>
      <trkpt lat="42.89587" lon="1.22724">
        <ele>709.09</ele>
        <time>2023-05-29T11:18:22Z</time>
      </trkpt>
      <trkpt lat="42.89588" lon="1.22722">
        <ele>707.592</ele>
        <time>2023-05-29T11:18:23Z</time>
      </trkpt>
      <trkpt lat="42.89589" lon="1.22719">
        <ele>708.105</ele>
        <time>2023-05-29T11:18:24Z</time>
      </trkpt>
      <trkpt lat="42.89591" lon="1.22716">
        <ele>706.985</ele>
        <time>2023-05-29T11:18:25Z</time>
      </trkpt>
      <trkpt lat="42.89593" lon="1.22714">
        <ele>703.496</ele>
        <time>2023-05-29T11:18:26Z</time>
      </trkpt>
      <trkpt lat="42.89595" lon="1.22711">
        <ele>700.602</ele>
        <time>2023-05-29T11:18:27Z</time>
      </trkpt>
      <trkpt lat="42.89597" lon="1.22708">
        <ele>698.369</ele>
        <time>2023-05-29T11:18:28Z</time>
      </trkpt>
      <trkpt lat="42.89599" lon="1.22706">
        <ele>694.829</ele>
        <time>2023-05-29T11:18:29Z</time>
      </trkpt>
      <trkpt lat="42.89601" lon="1.22703">
        <ele>690.062</ele>
        <time>2023-05-29T11:18:30Z</time>
      </trkpt>
      <trkpt lat="42.89603" lon="1.227">
        <ele>688.013</ele>
        <time>2023-05-29T11:18:31Z</time>
      </trkpt>
      <trkpt lat="42.89605" lon="1.22698">
        <ele>685.314</ele>
        <time>2023-05-29T11:18:32Z</time>
      </trkpt>
      <trkpt lat="42.89607" lon="1.22696">
        <ele>682.999</ele>
        <time>2023-05-29T11:18:33Z</time>
      </trkpt>
      <trkpt lat="42.89609" lon="1.22694">
        <ele>680.991</ele>
        <time>2023-05-29T11:18:34Z</time>
      </trkpt>
      <trkpt lat="42.89611" lon="1.22691">
        <ele>677.888</ele>
        <time>2023-05-29T11:18:35Z</time>
      </trkpt>
      <trkpt lat="42.89613" lon="1.22689">
        <ele>676.911</ele>
        <time>2023-05-29T11:18:36Z</time>
      </trkpt>
      <trkpt lat="42.89613" lon="1.22687">
        <ele>676.031</ele>
        <time>2023-05-29T11:18:37Z</time>
      </trkpt>
      <trkpt lat="42.89615" lon="1.22684">
        <ele>674.032</ele>
        <time>2023-05-29T11:18:38Z</time>
      </trkpt>
      <trkpt lat="42.8962" lon="1.22678">
        <ele>672.339</ele>
        <time>2023-05-29T11:18:39Z</time>
      </trkpt>
      <trkpt lat="42.89622" lon="1.22675">
        <ele>672.312</ele>
        <time>2023-05-29T11:18:40Z</time>
      </trkpt>
      <trkpt lat="42.89623" lon="1.22673">
        <ele>669.714</ele>
        <time>2023-05-29T11:18:41Z</time>
      </trkpt>
      <trkpt lat="42.89626" lon="1.22671">
        <ele>667.301</ele>
        <time>2023-05-29T11:18:42Z</time>
      </trkpt>
      <trkpt lat="42.89628" lon="1.2267">
        <ele>665.142</ele>
        <time>2023-05-29T11:18:43Z</time>
      </trkpt>
      <trkpt lat="42.89629" lon="1.22668">
        <ele>660.421</ele>
        <time>2023-05-29T11:18:44Z</time>
      </trkpt>
      <trkpt lat="42.89701" lon="1.22481">
        <ele>692.015</ele>
        <time>2023-05-29T11:18:49Z</time>
      </trkpt>
      <trkpt lat="42.89705" lon="1.22474">
        <ele>691.621</ele>
        <time>2023-05-29T11:18:50Z</time>
      </trkpt>
      <trkpt lat="42.89712" lon="1.22468">
        <ele>690.384</ele>
        <time>2023-05-29T11:18:51Z</time>
      </trkpt>
      <trkpt lat="42.8972" lon="1.22462">
        <ele>689.619</ele>
        <time>2023-05-29T11:18:52Z</time>
      </trkpt>
      <trkpt lat="42.89726" lon="1.22458">
        <ele>688.168</ele>
        <time>2023-05-29T11:18:53Z</time>
      </trkpt>
      <trkpt lat="42.89733" lon="1.22454">
        <ele>687.526</ele>
        <time>2023-05-29T11:18:54Z</time>
      </trkpt>
      <trkpt lat="42.8974" lon="1.22449">
        <ele>686.846</ele>
        <time>2023-05-29T11:18:55Z</time>
      </trkpt>
      <trkpt lat="42.89746" lon="1.22444">
        <ele>686.306</ele>
        <time>2023-05-29T11:18:56Z</time>
      </trkpt>
      <trkpt lat="42.89754" lon="1.22439">
        <ele>685.218</ele>
        <time>2023-05-29T11:18:57Z</time>
      </trkpt>
      <trkpt lat="42.8976" lon="1.22434">
        <ele>684.683</ele>
        <time>2023-05-29T11:18:58Z</time>
      </trkpt>
      <trkpt lat="42.89768" lon="1.22428">
        <ele>683.959</ele>
        <time>2023-05-29T11:18:59Z</time>
      </trkpt>
      <trkpt lat="42.89775" lon="1.22423">
        <ele>683.089</ele>
        <time>2023-05-29T11:19:00Z</time>
      </trkpt>
      <trkpt lat="42.89781" lon="1.22419">
        <ele>682.254</ele>
        <time>2023-05-29T11:19:01Z</time>
      </trkpt>
      <trkpt lat="42.89787" lon="1.22415">
        <ele>681.739</ele>
        <time>2023-05-29T11:19:02Z</time>
      </trkpt>
      <trkpt lat="42.89792" lon="1.22411">
        <ele>681.097</ele>
        <time>2023-05-29T11:19:03Z</time>
      </trkpt>
      <trkpt lat="42.89797" lon="1.22407">
        <ele>680.569</ele>
        <time>2023-05-29T11:19:04Z</time>
      </trkpt>
      <trkpt lat="42.89799" lon="1.22401">
        <ele>680.39</ele>
        <time>2023-05-29T11:19:05Z</time>
      </trkpt>
      <trkpt lat="42.898" lon="1.22395">
        <ele>679.708</ele>
        <time>2023-05-29T11:19:06Z</time>
      </trkpt>
      <trkpt lat="42.89798" lon="1.22392">
        <ele>680.849</ele>
        <time>2023-05-29T11:19:07Z</time>
      </trkpt>
      <trkpt lat="42.89799" lon="1.22387">
        <ele>680.923</ele>
        <time>2023-05-29T11:19:08Z</time>
      </trkpt>
      <trkpt lat="42.89798" lon="1.22387">
        <ele>680.881</ele>
        <time>2023-05-29T11:19:09Z</time>
      </trkpt>
      <trkpt lat="42.89797" lon="1.22385">
        <ele>681.013</ele>
        <time>2023-05-29T11:19:10Z</time>
      </trkpt>
      <trkpt lat="42.89794" lon="1.22384">
        <ele>681.351</ele>
        <time>2023-05-29T11:19:11Z</time>
      </trkpt>
      <trkpt lat="42.89792" lon="1.22382">
        <ele>680.969</ele>
        <time>2023-05-29T11:19:12Z</time>
      </trkpt>
      <trkpt lat="42.8979" lon="1.2238">
        <ele>682.199</ele>
        <time>2023-05-29T11:19:13Z</time>
      </trkpt>
      <trkpt lat="42.89788" lon="1.22378">
        <ele>682.244</ele>
        <time>2023-05-29T11:19:14Z</time>
      </trkpt>
      <trkpt lat="42.89785" lon="1.22376">
        <ele>679.993</ele>
        <time>2023-05-29T11:19:15Z</time>
      </trkpt>
      <trkpt lat="42.89782" lon="1.22374">
        <ele>680.865</ele>
        <time>2023-05-29T11:19:16Z</time>
      </trkpt>
      <trkpt lat="42.89779" lon="1.22372">
        <ele>679.597</ele>
        <time>2023-05-29T11:19:17Z</time>
      </trkpt>
      <trkpt lat="42.89774" lon="1.22369">
        <ele>679.275</ele>
        <time>2023-05-29T11:19:18Z</time>
      </trkpt>
      <trkpt lat="42.89769" lon="1.22364">
        <ele>677.976</ele>
        <time>2023-05-29T11:19:19Z</time>
      </trkpt>
      <trkpt lat="42.89764" lon="1.22361">
        <ele>677.206</ele>
        <time>2023-05-29T11:19:20Z</time>
      </trkpt>
      <trkpt lat="42.8976" lon="1.22357">
        <ele>676.168</ele>
        <time>2023-05-29T11:19:21Z</time>
      </trkpt>
      <trkpt lat="42.89757" lon="1.22355">
        <ele>673.722</ele>
        <time>2023-05-29T11:19:22Z</time>
      </trkpt>
      <trkpt lat="42.89753" lon="1.22354">
        <ele>672.461</ele>
        <time>2023-05-29T11:19:23Z</time>
      </trkpt>
      <trkpt lat="42.89747" lon="1.22352">
        <ele>672.66</ele>
        <time>2023-05-29T11:19:24Z</time>
      </trkpt>
      <trkpt lat="42.89743" lon="1.22354">
        <ele>671.308</ele>
        <time>2023-05-29T11:19:25Z</time>
      </trkpt>
      <trkpt lat="42.89738" lon="1.22352">
        <ele>670.587</ele>
        <time>2023-05-29T11:19:26Z</time>
      </trkpt>
      <trkpt lat="42.89733" lon="1.22351">
        <ele>670.648</ele>
        <time>2023-05-29T11:19:27Z</time>
      </trkpt>
      <trkpt lat="42.89728" lon="1.22349">
        <ele>669.423</ele>
        <time>2023-05-29T11:19:28Z</time>
      </trkpt>
      <trkpt lat="42.89722" lon="1.22349">
        <ele>667.935</ele>
        <time>2023-05-29T11:19:29Z</time>
      </trkpt>
      <trkpt lat="42.89715" lon="1.22348">
        <ele>667.542</ele>
        <time>2023-05-29T11:19:30Z</time>
      </trkpt>
      <trkpt lat="42.89708" lon="1.22347">
        <ele>666.308</ele>
        <time>2023-05-29T11:19:31Z</time>
      </trkpt>
      <trkpt lat="42.897" lon="1.22347">
        <ele>666.149</ele>
        <time>2023-05-29T11:19:32Z</time>
      </trkpt>
      <trkpt lat="42.89692" lon="1.22347">
        <ele>665.627</ele>
        <time>2023-05-29T11:19:33Z</time>
      </trkpt>
      <trkpt lat="42.89685" lon="1.22347">
        <ele>665.032</ele>
        <time>2023-05-29T11:19:34Z</time>
      </trkpt>
      <trkpt lat="42.89677" lon="1.22347">
        <ele>665.112</ele>
        <time>2023-05-29T11:19:35Z</time>
      </trkpt>
      <trkpt lat="42.89669" lon="1.22347">
        <ele>664.343</ele>
        <time>2023-05-29T11:19:36Z</time>
      </trkpt>
      <trkpt lat="42.89662" lon="1.22347">
        <ele>664.478</ele>
        <time>2023-05-29T11:19:37Z</time>
      </trkpt>
      <trkpt lat="42.89656" lon="1.22346">
        <ele>663.2</ele>
        <time>2023-05-29T11:19:38Z</time>
      </trkpt>
      <trkpt lat="42.8965" lon="1.22346">
        <ele>661.965</ele>
        <time>2023-05-29T11:19:39Z</time>
      </trkpt>
      <trkpt lat="42.89644" lon="1.22342">
        <ele>663.116</ele>
        <time>2023-05-29T11:19:40Z</time>
      </trkpt>
      <trkpt lat="42.89639" lon="1.22335">
        <ele>663.841</ele>
        <time>2023-05-29T11:19:41Z</time>
      </trkpt>
      <trkpt lat="42.89634" lon="1.22329">
        <ele>664.146</ele>
        <time>2023-05-29T11:19:42Z</time>
      </trkpt>
      <trkpt lat="42.8963" lon="1.22321">
        <ele>663.135</ele>
        <time>2023-05-29T11:19:43Z</time>
      </trkpt>
      <trkpt lat="42.89627" lon="1.22314">
        <ele>661.62</ele>
        <time>2023-05-29T11:19:44Z</time>
      </trkpt>
      <trkpt lat="42.89624" lon="1.22307">
        <ele>661.712</ele>
        <time>2023-05-29T11:19:45Z</time>
      </trkpt>
      <trkpt lat="42.89622" lon="1.22304">
        <ele>660.534</ele>
        <time>2023-05-29T11:19:46Z</time>
      </trkpt>
      <trkpt lat="42.89616" lon="1.22299">
        <ele>659.623</ele>
        <time>2023-05-29T11:19:47Z</time>
      </trkpt>
      <trkpt lat="42.89613" lon="1.22298">
        <ele>659.357</ele>
        <time>2023-05-29T11:19:48Z</time>
      </trkpt>
      <trkpt lat="42.89614" lon="1.22298">
        <ele>658.704</ele>
        <time>2023-05-29T11:19:49Z</time>
      </trkpt>
      <trkpt lat="42.89613" lon="1.22296">
        <ele>658.535</ele>
        <time>2023-05-29T11:19:50Z</time>
      </trkpt>
      <trkpt lat="42.89613" lon="1.22296">
        <ele>658.775</ele>
        <time>2023-05-29T11:19:51Z</time>
      </trkpt>
      <trkpt lat="42.89614" lon="1.22297">
        <ele>658.823</ele>
        <time>2023-05-29T11:19:52Z</time>
      </trkpt>
      <trkpt lat="42.89614" lon="1.22297">
        <ele>658.294</ele>
        <time>2023-05-29T11:19:53Z</time>
      </trkpt>
      <trkpt lat="42.89614" lon="1.22298">
        <ele>658.565</ele>
        <time>2023-05-29T11:19:54Z</time>
      </trkpt>
      <trkpt lat="42.89615" lon="1.22298">
        <ele>658.305</ele>
        <time>2023-05-29T11:19:55Z</time>
      </trkpt>
      <trkpt lat="42.89614" lon="1.22298">
        <ele>658.15</ele>
        <time>2023-05-29T11:19:56Z</time>
      </trkpt>
      <trkpt lat="42.89614" lon="1.22298">
        <ele>657.944</ele>
        <time>2023-05-29T11:19:57Z</time>
      </trkpt>
      <trkpt lat="42.89614" lon="1.22298">
        <ele>657.975</ele>
        <time>2023-05-29T11:19:58Z</time>
      </trkpt>
      <trkpt lat="42.89614" lon="1.22298">
        <ele>658.109</ele>
        <time>2023-05-29T11:19:59Z</time>
      </trkpt>
      <trkpt lat="42.89614" lon="1.22298">
        <ele>658.303</ele>
        <time>2023-05-29T11:20:00Z</time>
      </trkpt>
      <trkpt lat="42.89614" lon="1.22298">
        <ele>657.959</ele>
        <time>2023-05-29T11:20:01Z</time>
      </trkpt>
      <trkpt lat="42.89612" lon="1.22297">
        <ele>658.2</ele>
        <time>2023-05-29T11:20:02Z</time>
      </trkpt>
      <trkpt lat="42.8961" lon="1.22295">
        <ele>658.117</ele>
        <time>2023-05-29T11:20:03Z</time>
      </trkpt>
      <trkpt lat="42.89607" lon="1.22294">
        <ele>657.804</ele>
        <time>2023-05-29T11:20:04Z</time>
      </trkpt>
      <trkpt lat="42.89604" lon="1.22292">
        <ele>657.231</ele>
        <time>2023-05-29T11:20:05Z</time>
      </trkpt>
      <trkpt lat="42.896" lon="1.2229">
        <ele>657.018</ele>
        <time>2023-05-29T11:20:06Z</time>
      </trkpt>
      <trkpt lat="42.89596" lon="1.22288">
        <ele>656.54</ele>
        <time>2023-05-29T11:20:07Z</time>
      </trkpt>
      <trkpt lat="42.89591" lon="1.22285">
        <ele>655.539</ele>
        <time>2023-05-29T11:20:08Z</time>
      </trkpt>
      <trkpt lat="42.89587" lon="1.22282">
        <ele>655.687</ele>
        <time>2023-05-29T11:20:09Z</time>
      </trkpt>
      <trkpt lat="42.89583" lon="1.22282">
        <ele>654.751</ele>
        <time>2023-05-29T11:20:10Z</time>
      </trkpt>
      <trkpt lat="42.89578" lon="1.22279">
        <ele>654.231</ele>
        <time>2023-05-29T11:20:11Z</time>
      </trkpt>
      <trkpt lat="42.89573" lon="1.22276">
        <ele>653.399</ele>
        <time>2023-05-29T11:20:12Z</time>
      </trkpt>
      <trkpt lat="42.89569" lon="1.22272">
        <ele>652.975</ele>
        <time>2023-05-29T11:20:13Z</time>
      </trkpt>
      <trkpt lat="42.89566" lon="1.22268">
        <ele>651.39</ele>
        <time>2023-05-29T11:20:14Z</time>
      </trkpt>
      <trkpt lat="42.89563" lon="1.22264">
        <ele>650.304</ele>
        <time>2023-05-29T11:20:15Z</time>
      </trkpt>
      <trkpt lat="42.89561" lon="1.22261">
        <ele>648.068</ele>
        <time>2023-05-29T11:20:16Z</time>
      </trkpt>
      <trkpt lat="42.89559" lon="1.22258">
        <ele>646.916</ele>
        <time>2023-05-29T11:20:17Z</time>
      </trkpt>
      <trkpt lat="42.89557" lon="1.22255">
        <ele>646.026</ele>
        <time>2023-05-29T11:20:18Z</time>
      </trkpt>
      <trkpt lat="42.89556" lon="1.22254">
        <ele>645.098</ele>
        <time>2023-05-29T11:20:19Z</time>
      </trkpt>
      <trkpt lat="42.89556" lon="1.22252">
        <ele>645.493</ele>
        <time>2023-05-29T11:20:20Z</time>
      </trkpt>
      <trkpt lat="42.89556" lon="1.22252">
        <ele>646.678</ele>
        <time>2023-05-29T11:20:21Z</time>
      </trkpt>
      <trkpt lat="42.89556" lon="1.22253">
        <ele>645.95</ele>
        <time>2023-05-29T11:20:22Z</time>
      </trkpt>
      <trkpt lat="42.89556" lon="1.22253">
        <ele>646.089</ele>
        <time>2023-05-29T11:20:23Z</time>
      </trkpt>
      <trkpt lat="42.89556" lon="1.22253">
        <ele>646.293</ele>
        <time>2023-05-29T11:20:24Z</time>
      </trkpt>
      <trkpt lat="42.89556" lon="1.22253">
        <ele>646.394</ele>
        <time>2023-05-29T11:20:25Z</time>
      </trkpt>
      <trkpt lat="42.89556" lon="1.22253">
        <ele>646.218</ele>
        <time>2023-05-29T11:20:26Z</time>
      </trkpt>
      <trkpt lat="42.89556" lon="1.22253">
        <ele>646.134</ele>
        <time>2023-05-29T11:20:27Z</time>
      </trkpt>
      <trkpt lat="42.89556" lon="1.22253">
        <ele>646.369</ele>
        <time>2023-05-29T11:20:28Z</time>
      </trkpt>
      <trkpt lat="42.89556" lon="1.22252">
        <ele>646.463</ele>
        <time>2023-05-29T11:20:29Z</time>
      </trkpt>
      <trkpt lat="42.89556" lon="1.22252">
        <ele>646.226</ele>
        <time>2023-05-29T11:20:30Z</time>
      </trkpt>
      <trkpt lat="42.89556" lon="1.22252">
        <ele>646.266</ele>
        <time>2023-05-29T11:20:31Z</time>
      </trkpt>
      <trkpt lat="42.89556" lon="1.22252">
        <ele>646.356</ele>
        <time>2023-05-29T11:20:32Z</time>
      </trkpt>
      <trkpt lat="42.89556" lon="1.22252">
        <ele>646.172</ele>
        <time>2023-05-29T11:20:33Z</time>
      </trkpt>
      <trkpt lat="42.89556" lon="1.22251">
        <ele>646.162</ele>
        <time>2023-05-29T11:20:34Z</time>
      </trkpt>
      <trkpt lat="42.89556" lon="1.22251">
        <ele>646.255</ele>
        <time>2023-05-29T11:20:35Z</time>
      </trkpt>
      <trkpt lat="42.89556" lon="1.22251">
        <ele>646.218</ele>
        <time>2023-05-29T11:20:36Z</time>
      </trkpt>
      <trkpt lat="42.89556" lon="1.22251">
        <ele>646.186</ele>
        <time>2023-05-29T11:20:37Z</time>
      </trkpt>
      <trkpt lat="42.89556" lon="1.22251">
        <ele>646.198</ele>
        <time>2023-05-29T11:20:38Z</time>
      </trkpt>
      <trkpt lat="42.89556" lon="1.22251">
        <ele>646.232</ele>
        <time>2023-05-29T11:20:39Z</time>
      </trkpt>
      <trkpt lat="42.89556" lon="1.22251">
        <ele>646.232</ele>
        <time>2023-05-29T11:20:40Z</time>
      </trkpt>
      <trkpt lat="42.89556" lon="1.22251">
        <ele>646.247</ele>
        <time>2023-05-29T11:20:41Z</time>
      </trkpt>
      <trkpt lat="42.89556" lon="1.22251">
        <ele>646.225</ele>
        <time>2023-05-29T11:20:42Z</time>
      </trkpt>
      <trkpt lat="42.89556" lon="1.22251">
        <ele>646.241</ele>
        <time>2023-05-29T11:20:43Z</time>
      </trkpt>
      <trkpt lat="42.89556" lon="1.22251">
        <ele>646.212</ele>
        <time>2023-05-29T11:20:44Z</time>
      </trkpt>
      <trkpt lat="42.89556" lon="1.22251">
        <ele>646.212</ele>
        <time>2023-05-29T11:20:45Z</time>
      </trkpt>
      <trkpt lat="42.89556" lon="1.22251">
        <ele>646.22</ele>
        <time>2023-05-29T11:20:46Z</time>
      </trkpt>
      <trkpt lat="42.89556" lon="1.22251">
        <ele>646.219</ele>
        <time>2023-05-29T11:20:47Z</time>
      </trkpt>
      <trkpt lat="42.89554" lon="1.22248">
        <ele>646.058</ele>
        <time>2023-05-29T11:20:48Z</time>
      </trkpt>
      <trkpt lat="42.89552" lon="1.22243">
        <ele>646.917</ele>
        <time>2023-05-29T11:20:49Z</time>
      </trkpt>
      <trkpt lat="42.89549" lon="1.22238">
        <ele>644.998</ele>
        <time>2023-05-29T11:20:50Z</time>
      </trkpt>
      <trkpt lat="42.89541" lon="1.22233">
        <ele>643.501</ele>
        <time>2023-05-29T11:20:51Z</time>
      </trkpt>
      <trkpt lat="42.89536" lon="1.22227">
        <ele>642.808</ele>
        <time>2023-05-29T11:20:52Z</time>
      </trkpt>
      <trkpt lat="42.89531" lon="1.22222">
        <ele>641.852</ele>
        <time>2023-05-29T11:20:53Z</time>
      </trkpt>
      <trkpt lat="42.89525" lon="1.22213">
        <ele>641.846</ele>
        <time>2023-05-29T11:20:54Z</time>
      </trkpt>
      <trkpt lat="42.8952" lon="1.22205">
        <ele>640.417</ele>
        <time>2023-05-29T11:20:55Z</time>
      </trkpt>
      <trkpt lat="42.89515" lon="1.22196">
        <ele>639.623</ele>
        <time>2023-05-29T11:20:56Z</time>
      </trkpt>
      <trkpt lat="42.89511" lon="1.22187">
        <ele>638.9</ele>
        <time>2023-05-29T11:20:57Z</time>
      </trkpt>
      <trkpt lat="42.89509" lon="1.22178">
        <ele>638.192</ele>
        <time>2023-05-29T11:20:58Z</time>
      </trkpt>
      <trkpt lat="42.89507" lon="1.22169">
        <ele>636.824</ele>
        <time>2023-05-29T11:20:59Z</time>
      </trkpt>
      <trkpt lat="42.89505" lon="1.2216">
        <ele>636.302</ele>
        <time>2023-05-29T11:21:00Z</time>
      </trkpt>
      <trkpt lat="42.895" lon="1.22152">
        <ele>634.917</ele>
        <time>2023-05-29T11:21:01Z</time>
      </trkpt>
      <trkpt lat="42.89496" lon="1.22143">
        <ele>634.478</ele>
        <time>2023-05-29T11:21:02Z</time>
      </trkpt>
      <trkpt lat="42.89492" lon="1.22133">
        <ele>635.111</ele>
        <time>2023-05-29T11:21:03Z</time>
      </trkpt>
      <trkpt lat="42.8949" lon="1.22123">
        <ele>634.084</ele>
        <time>2023-05-29T11:21:04Z</time>
      </trkpt>
      <trkpt lat="42.89488" lon="1.22114">
        <ele>634.828</ele>
        <time>2023-05-29T11:21:05Z</time>
      </trkpt>
      <trkpt lat="42.89489" lon="1.22106">
        <ele>632.14</ele>
        <time>2023-05-29T11:21:06Z</time>
      </trkpt>
      <trkpt lat="42.89489" lon="1.22098">
        <ele>632.075</ele>
        <time>2023-05-29T11:21:07Z</time>
      </trkpt>
      <trkpt lat="42.89492" lon="1.22091">
        <ele>632.074</ele>
        <time>2023-05-29T11:21:08Z</time>
      </trkpt>
      <trkpt lat="42.89495" lon="1.22081">
        <ele>630.796</ele>
        <time>2023-05-29T11:21:09Z</time>
      </trkpt>
      <trkpt lat="42.89494" lon="1.22071">
        <ele>628.513</ele>
        <time>2023-05-29T11:21:10Z</time>
      </trkpt>
      <trkpt lat="42.89493" lon="1.22063">
        <ele>627.723</ele>
        <time>2023-05-29T11:21:11Z</time>
      </trkpt>
      <trkpt lat="42.89492" lon="1.22056">
        <ele>626.739</ele>
        <time>2023-05-29T11:21:12Z</time>
      </trkpt>
      <trkpt lat="42.8949" lon="1.22049">
        <ele>625.698</ele>
        <time>2023-05-29T11:21:13Z</time>
      </trkpt>
      <trkpt lat="42.89487" lon="1.22044">
        <ele>624.017</ele>
        <time>2023-05-29T11:21:14Z</time>
      </trkpt>
      <trkpt lat="42.89489" lon="1.22037">
        <ele>622.774</ele>
        <time>2023-05-29T11:21:15Z</time>
      </trkpt>
      <trkpt lat="42.89486" lon="1.22033">
        <ele>623.291</ele>
        <time>2023-05-29T11:21:16Z</time>
      </trkpt>
      <trkpt lat="42.89489" lon="1.22029">
        <ele>622.745</ele>
        <time>2023-05-29T11:21:17Z</time>
      </trkpt>
      <trkpt lat="42.8949" lon="1.22024">
        <ele>622.779</ele>
        <time>2023-05-29T11:21:18Z</time>
      </trkpt>
      <trkpt lat="42.89491" lon="1.22017">
        <ele>622.154</ele>
        <time>2023-05-29T11:21:19Z</time>
      </trkpt>
      <trkpt lat="42.89492" lon="1.22013">
        <ele>622.084</ele>
        <time>2023-05-29T11:21:20Z</time>
      </trkpt>
      <trkpt lat="42.89496" lon="1.22008">
        <ele>620.64</ele>
        <time>2023-05-29T11:21:21Z</time>
      </trkpt>
      <trkpt lat="42.895" lon="1.22006">
        <ele>619.992</ele>
        <time>2023-05-29T11:21:22Z</time>
      </trkpt>
      <trkpt lat="42.89502" lon="1.22008">
        <ele>620.226</ele>
        <time>2023-05-29T11:21:23Z</time>
      </trkpt>
      <trkpt lat="42.89505" lon="1.2201">
        <ele>620.213</ele>
        <time>2023-05-29T11:21:24Z</time>
      </trkpt>
      <trkpt lat="42.89508" lon="1.22014">
        <ele>619.25</ele>
        <time>2023-05-29T11:21:25Z</time>
      </trkpt>
      <trkpt lat="42.89511" lon="1.22019">
        <ele>617.115</ele>
        <time>2023-05-29T11:21:26Z</time>
      </trkpt>
      <trkpt lat="42.89515" lon="1.22024">
        <ele>616.412</ele>
        <time>2023-05-29T11:21:27Z</time>
      </trkpt>
      <trkpt lat="42.89518" lon="1.22031">
        <ele>616.569</ele>
        <time>2023-05-29T11:21:28Z</time>
      </trkpt>
      <trkpt lat="42.89521" lon="1.22036">
        <ele>617.687</ele>
        <time>2023-05-29T11:21:29Z</time>
      </trkpt>
      <trkpt lat="42.89525" lon="1.22043">
        <ele>617.662</ele>
        <time>2023-05-29T11:21:30Z</time>
      </trkpt>
      <trkpt lat="42.89532" lon="1.22046">
        <ele>617.112</ele>
        <time>2023-05-29T11:21:31Z</time>
      </trkpt>
      <trkpt lat="42.89537" lon="1.22052">
        <ele>616.867</ele>
        <time>2023-05-29T11:21:32Z</time>
      </trkpt>
      <trkpt lat="42.89546" lon="1.22051">
        <ele>616.864</ele>
        <time>2023-05-29T11:21:33Z</time>
      </trkpt>
      <trkpt lat="42.89555" lon="1.22051">
        <ele>616.123</ele>
        <time>2023-05-29T11:21:34Z</time>
      </trkpt>
      <trkpt lat="42.89558" lon="1.22052">
        <ele>616.165</ele>
        <time>2023-05-29T11:21:35Z</time>
      </trkpt>
      <trkpt lat="42.89565" lon="1.22052">
        <ele>616.997</ele>
        <time>2023-05-29T11:21:36Z</time>
      </trkpt>
      <trkpt lat="42.89574" lon="1.22051">
        <ele>615.249</ele>
        <time>2023-05-29T11:21:37Z</time>
      </trkpt>
      <trkpt lat="42.8958" lon="1.22051">
        <ele>615.055</ele>
        <time>2023-05-29T11:21:38Z</time>
      </trkpt>
      <trkpt lat="42.89586" lon="1.22052">
        <ele>614.747</ele>
        <time>2023-05-29T11:21:39Z</time>
      </trkpt>
      <trkpt lat="42.89591" lon="1.22053">
        <ele>615.814</ele>
        <time>2023-05-29T11:21:40Z</time>
      </trkpt>
      <trkpt lat="42.89593" lon="1.22054">
        <ele>615.424</ele>
        <time>2023-05-29T11:21:41Z</time>
      </trkpt>
      <trkpt lat="42.89599" lon="1.22059">
        <ele>615.508</ele>
        <time>2023-05-29T11:21:42Z</time>
      </trkpt>
      <trkpt lat="42.89606" lon="1.22067">
        <ele>612.97</ele>
        <time>2023-05-29T11:21:43Z</time>
      </trkpt>
      <trkpt lat="42.89609" lon="1.22071">
        <ele>611.625</ele>
        <time>2023-05-29T11:21:44Z</time>
      </trkpt>
      <trkpt lat="42.89612" lon="1.22074">
        <ele>611.576</ele>
        <time>2023-05-29T11:21:45Z</time>
      </trkpt>
      <trkpt lat="42.89614" lon="1.22076">
        <ele>610.366</ele>
        <time>2023-05-29T11:21:46Z</time>
      </trkpt>
      <trkpt lat="42.89617" lon="1.22076">
        <ele>609.762</ele>
        <time>2023-05-29T11:21:47Z</time>
      </trkpt>
      <trkpt lat="42.89617" lon="1.22071">
        <ele>609.046</ele>
        <time>2023-05-29T11:21:48Z</time>
      </trkpt>
      <trkpt lat="42.89618" lon="1.22068">
        <ele>609.171</ele>
        <time>2023-05-29T11:21:49Z</time>
      </trkpt>
      <trkpt lat="42.89618" lon="1.22063">
        <ele>607.309</ele>
        <time>2023-05-29T11:21:50Z</time>
      </trkpt>
      <trkpt lat="42.89616" lon="1.22058">
        <ele>605.164</ele>
        <time>2023-05-29T11:21:51Z</time>
      </trkpt>
      <trkpt lat="42.89615" lon="1.22052">
        <ele>603.923</ele>
        <time>2023-05-29T11:21:52Z</time>
      </trkpt>
      <trkpt lat="42.89614" lon="1.22043">
        <ele>605.534</ele>
        <time>2023-05-29T11:21:53Z</time>
      </trkpt>
      <trkpt lat="42.89614" lon="1.22036">
        <ele>604.709</ele>
        <time>2023-05-29T11:21:54Z</time>
      </trkpt>
      <trkpt lat="42.89612" lon="1.2203">
        <ele>605.235</ele>
        <time>2023-05-29T11:21:55Z</time>
      </trkpt>
      <trkpt lat="42.8961" lon="1.22023">
        <ele>601.902</ele>
        <time>2023-05-29T11:21:56Z</time>
      </trkpt>
      <trkpt lat="42.8961" lon="1.22016">
        <ele>599.947</ele>
        <time>2023-05-29T11:21:57Z</time>
      </trkpt>
      <trkpt lat="42.89606" lon="1.22011">
        <ele>597.756</ele>
        <time>2023-05-29T11:21:58Z</time>
      </trkpt>
      <trkpt lat="42.89603" lon="1.22005">
        <ele>599.026</ele>
        <time>2023-05-29T11:21:59Z</time>
      </trkpt>
      <trkpt lat="42.89599" lon="1.22">
        <ele>597.667</ele>
        <time>2023-05-29T11:22:00Z</time>
      </trkpt>
      <trkpt lat="42.89594" lon="1.21995">
        <ele>597.039</ele>
        <time>2023-05-29T11:22:01Z</time>
      </trkpt>
      <trkpt lat="42.8959" lon="1.21993">
        <ele>595.526</ele>
        <time>2023-05-29T11:22:02Z</time>
      </trkpt>
      <trkpt lat="42.89588" lon="1.21988">
        <ele>596.568</ele>
        <time>2023-05-29T11:22:03Z</time>
      </trkpt>
      <trkpt lat="42.89587" lon="1.21983">
        <ele>596.159</ele>
        <time>2023-05-29T11:22:04Z</time>
      </trkpt>
      <trkpt lat="42.89586" lon="1.21977">
        <ele>595.975</ele>
        <time>2023-05-29T11:22:05Z</time>
      </trkpt>
      <trkpt lat="42.89584" lon="1.21969">
        <ele>596.235</ele>
        <time>2023-05-29T11:22:06Z</time>
      </trkpt>
      <trkpt lat="42.89584" lon="1.21959">
        <ele>596.05</ele>
        <time>2023-05-29T11:22:07Z</time>
      </trkpt>
      <trkpt lat="42.89582" lon="1.2195">
        <ele>592.258</ele>
        <time>2023-05-29T11:22:08Z</time>
      </trkpt>
      <trkpt lat="42.89581" lon="1.21938">
        <ele>591.363</ele>
        <time>2023-05-29T11:22:09Z</time>
      </trkpt>
      <trkpt lat="42.89579" lon="1.21928">
        <ele>590.685</ele>
        <time>2023-05-29T11:22:10Z</time>
      </trkpt>
      <trkpt lat="42.89577" lon="1.21919">
        <ele>588.117</ele>
        <time>2023-05-29T11:22:11Z</time>
      </trkpt>
      <trkpt lat="42.89575" lon="1.21909">
        <ele>588.206</ele>
        <time>2023-05-29T11:22:12Z</time>
      </trkpt>
      <trkpt lat="42.89571" lon="1.21898">
        <ele>587.335</ele>
        <time>2023-05-29T11:22:13Z</time>
      </trkpt>
      <trkpt lat="42.89567" lon="1.21886">
        <ele>584.448</ele>
        <time>2023-05-29T11:22:14Z</time>
      </trkpt>
      <trkpt lat="42.89564" lon="1.21879">
        <ele>583.513</ele>
        <time>2023-05-29T11:22:15Z</time>
      </trkpt>
      <trkpt lat="42.8956" lon="1.21873">
        <ele>581.837</ele>
        <time>2023-05-29T11:22:16Z</time>
      </trkpt>
      <trkpt lat="42.89554" lon="1.21869">
        <ele>579.254</ele>
        <time>2023-05-29T11:22:17Z</time>
      </trkpt>
      <trkpt lat="42.89553" lon="1.21866">
        <ele>577.695</ele>
        <time>2023-05-29T11:22:18Z</time>
      </trkpt>
      <trkpt lat="42.89553" lon="1.21863">
        <ele>578.28</ele>
        <time>2023-05-29T11:22:19Z</time>
      </trkpt>
      <trkpt lat="42.89551" lon="1.21867">
        <ele>575.03</ele>
        <time>2023-05-29T11:22:20Z</time>
      </trkpt>
      <trkpt lat="42.89553" lon="1.2187">
        <ele>573.574</ele>
        <time>2023-05-29T11:22:21Z</time>
      </trkpt>
      <trkpt lat="42.89555" lon="1.21872">
        <ele>572.612</ele>
        <time>2023-05-29T11:22:22Z</time>
      </trkpt>
      <trkpt lat="42.89557" lon="1.21875">
        <ele>572.861</ele>
        <time>2023-05-29T11:22:23Z</time>
      </trkpt>
      <trkpt lat="42.8956" lon="1.21878">
        <ele>571.261</ele>
        <time>2023-05-29T11:22:24Z</time>
      </trkpt>
      <trkpt lat="42.89562" lon="1.21881">
        <ele>571.496</ele>
        <time>2023-05-29T11:22:25Z</time>
      </trkpt>
      <trkpt lat="42.89565" lon="1.21885">
        <ele>571.332</ele>
        <time>2023-05-29T11:22:26Z</time>
      </trkpt>
      <trkpt lat="42.89567" lon="1.2189">
        <ele>571.924</ele>
        <time>2023-05-29T11:22:27Z</time>
      </trkpt>
      <trkpt lat="42.89569" lon="1.21896">
        <ele>572.223</ele>
        <time>2023-05-29T11:22:28Z</time>
      </trkpt>
      <trkpt lat="42.89572" lon="1.21901">
        <ele>571.299</ele>
        <time>2023-05-29T11:22:29Z</time>
      </trkpt>
      <trkpt lat="42.89575" lon="1.21906">
        <ele>570.91</ele>
        <time>2023-05-29T11:22:30Z</time>
      </trkpt>
      <trkpt lat="42.89578" lon="1.21911">
        <ele>570.768</ele>
        <time>2023-05-29T11:22:31Z</time>
      </trkpt>
      <trkpt lat="42.89581" lon="1.21916">
        <ele>568.842</ele>
        <time>2023-05-29T11:22:32Z</time>
      </trkpt>
      <trkpt lat="42.89583" lon="1.2192">
        <ele>565.638</ele>
        <time>2023-05-29T11:22:33Z</time>
      </trkpt>
      <trkpt lat="42.89584" lon="1.21922">
        <ele>566.838</ele>
        <time>2023-05-29T11:22:34Z</time>
      </trkpt>
      <trkpt lat="42.89585" lon="1.21925">
        <ele>566.665</ele>
        <time>2023-05-29T11:22:35Z</time>
      </trkpt>
      <trkpt lat="42.89586" lon="1.21925">
        <ele>566.791</ele>
        <time>2023-05-29T11:22:36Z</time>
      </trkpt>
      <trkpt lat="42.89587" lon="1.21922">
        <ele>565.86</ele>
        <time>2023-05-29T11:22:37Z</time>
      </trkpt>
      <trkpt lat="42.89589" lon="1.2192">
        <ele>563.604</ele>
        <time>2023-05-29T11:22:38Z</time>
      </trkpt>
      <trkpt lat="42.8959" lon="1.21916">
        <ele>562.459</ele>
        <time>2023-05-29T11:22:39Z</time>
      </trkpt>
      <trkpt lat="42.8959" lon="1.21911">
        <ele>561.928</ele>
        <time>2023-05-29T11:22:40Z</time>
      </trkpt>
      <trkpt lat="42.8959" lon="1.21903">
        <ele>560.652</ele>
        <time>2023-05-29T11:22:41Z</time>
      </trkpt>
      <trkpt lat="42.8959" lon="1.21897">
        <ele>559.34</ele>
        <time>2023-05-29T11:22:42Z</time>
      </trkpt>
      <trkpt lat="42.89589" lon="1.21889">
        <ele>559.729</ele>
        <time>2023-05-29T11:22:43Z</time>
      </trkpt>
      <trkpt lat="42.89587" lon="1.2188">
        <ele>559.763</ele>
        <time>2023-05-29T11:22:44Z</time>
      </trkpt>
      <trkpt lat="42.89586" lon="1.21873">
        <ele>557.967</ele>
        <time>2023-05-29T11:22:45Z</time>
      </trkpt>
      <trkpt lat="42.89584" lon="1.21865">
        <ele>557.448</ele>
        <time>2023-05-29T11:22:46Z</time>
      </trkpt>
      <trkpt lat="42.89581" lon="1.21857">
        <ele>554.575</ele>
        <time>2023-05-29T11:22:47Z</time>
      </trkpt>
      <trkpt lat="42.89578" lon="1.21851">
        <ele>553.909</ele>
        <time>2023-05-29T11:22:48Z</time>
      </trkpt>
      <trkpt lat="42.89574" lon="1.21843">
        <ele>552.859</ele>
        <time>2023-05-29T11:22:49Z</time>
      </trkpt>
      <trkpt lat="42.89572" lon="1.21832">
        <ele>551.233</ele>
        <time>2023-05-29T11:22:50Z</time>
      </trkpt>
      <trkpt lat="42.89569" lon="1.21824">
        <ele>549.441</ele>
        <time>2023-05-29T11:22:51Z</time>
      </trkpt>
      <trkpt lat="42.89565" lon="1.21814">
        <ele>549.514</ele>
        <time>2023-05-29T11:22:52Z</time>
      </trkpt>
      <trkpt lat="42.89561" lon="1.21803">
        <ele>546.894</ele>
        <time>2023-05-29T11:22:53Z</time>
      </trkpt>
      <trkpt lat="42.89556" lon="1.21794">
        <ele>543.436</ele>
        <time>2023-05-29T11:22:54Z</time>
      </trkpt>
      <trkpt lat="42.89553" lon="1.21786">
        <ele>542.002</ele>
        <time>2023-05-29T11:22:55Z</time>
      </trkpt>
      <trkpt lat="42.89549" lon="1.21778">
        <ele>542.04</ele>
        <time>2023-05-29T11:22:56Z</time>
      </trkpt>
      <trkpt lat="42.89547" lon="1.2177">
        <ele>541.889</ele>
        <time>2023-05-29T11:22:57Z</time>
      </trkpt>
      <trkpt lat="42.89546" lon="1.21764">
        <ele>542.575</ele>
        <time>2023-05-29T11:22:58Z</time>
      </trkpt>
      <trkpt lat="42.89543" lon="1.21761">
        <ele>541.839</ele>
        <time>2023-05-29T11:22:59Z</time>
      </trkpt>
      <trkpt lat="42.89541" lon="1.21757">
        <ele>542.425</ele>
        <time>2023-05-29T11:23:00Z</time>
      </trkpt>
      <trkpt lat="42.89543" lon="1.21756">
        <ele>542.945</ele>
        <time>2023-05-29T11:23:01Z</time>
      </trkpt>
      <trkpt lat="42.89544" lon="1.21756">
        <ele>542.696</ele>
        <time>2023-05-29T11:23:02Z</time>
      </trkpt>
      <trkpt lat="42.89545" lon="1.21758">
        <ele>543.108</ele>
        <time>2023-05-29T11:23:03Z</time>
      </trkpt>
      <trkpt lat="42.89545" lon="1.2176">
        <ele>543.148</ele>
        <time>2023-05-29T11:23:04Z</time>
      </trkpt>
      <trkpt lat="42.89546" lon="1.21761">
        <ele>542.759</ele>
        <time>2023-05-29T11:23:05Z</time>
      </trkpt>
      <trkpt lat="42.89548" lon="1.21763">
        <ele>542.587</ele>
        <time>2023-05-29T11:23:06Z</time>
      </trkpt>
      <trkpt lat="42.8955" lon="1.21767">
        <ele>542.225</ele>
        <time>2023-05-29T11:23:07Z</time>
      </trkpt>
      <trkpt lat="42.89551" lon="1.2177">
        <ele>540.702</ele>
        <time>2023-05-29T11:23:08Z</time>
      </trkpt>
      <trkpt lat="42.89554" lon="1.21772">
        <ele>540.814</ele>
        <time>2023-05-29T11:23:09Z</time>
      </trkpt>
      <trkpt lat="42.89556" lon="1.21774">
        <ele>540.217</ele>
        <time>2023-05-29T11:23:10Z</time>
      </trkpt>
      <trkpt lat="42.89559" lon="1.21776">
        <ele>539.039</ele>
        <time>2023-05-29T11:23:11Z</time>
      </trkpt>
      <trkpt lat="42.89561" lon="1.21778">
        <ele>539.238</ele>
        <time>2023-05-29T11:23:12Z</time>
      </trkpt>
      <trkpt lat="42.89563" lon="1.2178">
        <ele>538.998</ele>
        <time>2023-05-29T11:23:13Z</time>
      </trkpt>
      <trkpt lat="42.89564" lon="1.2178">
        <ele>540.32</ele>
        <time>2023-05-29T11:23:14Z</time>
      </trkpt>
      <trkpt lat="42.89565" lon="1.21777">
        <ele>541.227</ele>
        <time>2023-05-29T11:23:15Z</time>
      </trkpt>
      <trkpt lat="42.89564" lon="1.21773">
        <ele>539.031</ele>
        <time>2023-05-29T11:23:16Z</time>
      </trkpt>
      <trkpt lat="42.89562" lon="1.21769">
        <ele>538.305</ele>
        <time>2023-05-29T11:23:17Z</time>
      </trkpt>
      <trkpt lat="42.8956" lon="1.21766">
        <ele>537.567</ele>
        <time>2023-05-29T11:23:18Z</time>
      </trkpt>
      <trkpt lat="42.89558" lon="1.21758">
        <ele>536.929</ele>
        <time>2023-05-29T11:23:19Z</time>
      </trkpt>
      <trkpt lat="42.89555" lon="1.21751">
        <ele>536.619</ele>
        <time>2023-05-29T11:23:20Z</time>
      </trkpt>
      <trkpt lat="42.89551" lon="1.21744">
        <ele>536.007</ele>
        <time>2023-05-29T11:23:21Z</time>
      </trkpt>
      <trkpt lat="42.89548" lon="1.21738">
        <ele>533.827</ele>
        <time>2023-05-29T11:23:22Z</time>
      </trkpt>
      <trkpt lat="42.89546" lon="1.21731">
        <ele>532.354</ele>
        <time>2023-05-29T11:23:23Z</time>
      </trkpt>
      <trkpt lat="42.89543" lon="1.21726">
        <ele>531.788</ele>
        <time>2023-05-29T11:23:24Z</time>
      </trkpt>
      <trkpt lat="42.89541" lon="1.21721">
        <ele>530.245</ele>
        <time>2023-05-29T11:23:25Z</time>
      </trkpt>
      <trkpt lat="42.89539" lon="1.21712">
        <ele>530.409</ele>
        <time>2023-05-29T11:23:26Z</time>
      </trkpt>
      <trkpt lat="42.89534" lon="1.21705">
        <ele>528.968</ele>
        <time>2023-05-29T11:23:27Z</time>
      </trkpt>
      <trkpt lat="42.8953" lon="1.21696">
        <ele>528.212</ele>
        <time>2023-05-29T11:23:28Z</time>
      </trkpt>
      <trkpt lat="42.89527" lon="1.21686">
        <ele>527.346</ele>
        <time>2023-05-29T11:23:29Z</time>
      </trkpt>
      <trkpt lat="42.89524" lon="1.21676">
        <ele>526.407</ele>
        <time>2023-05-29T11:23:30Z</time>
      </trkpt>
      <trkpt lat="42.89521" lon="1.21667">
        <ele>524.67</ele>
        <time>2023-05-29T11:23:31Z</time>
      </trkpt>
      <trkpt lat="42.89518" lon="1.21659">
        <ele>524.224</ele>
        <time>2023-05-29T11:23:32Z</time>
      </trkpt>
      <trkpt lat="42.89517" lon="1.2165">
        <ele>522.102</ele>
        <time>2023-05-29T11:23:33Z</time>
      </trkpt>
      <trkpt lat="42.89514" lon="1.2164">
        <ele>521.477</ele>
        <time>2023-05-29T11:23:34Z</time>
      </trkpt>
      <trkpt lat="42.89516" lon="1.21639">
        <ele>522.841</ele>
        <time>2023-05-29T11:23:35Z</time>
      </trkpt>
      <trkpt lat="42.89514" lon="1.21631">
        <ele>521.628</ele>
        <time>2023-05-29T11:23:36Z</time>
      </trkpt>
      <trkpt lat="42.89512" lon="1.21622">
        <ele>520.954</ele>
        <time>2023-05-29T11:23:37Z</time>
      </trkpt>
      <trkpt lat="42.89512" lon="1.2162">
        <ele>517.719</ele>
        <time>2023-05-29T11:23:38Z</time>
      </trkpt>
      <trkpt lat="42.89509" lon="1.21612">
        <ele>518.372</ele>
        <time>2023-05-29T11:23:39Z</time>
      </trkpt>
      <trkpt lat="42.89506" lon="1.21607">
        <ele>517.577</ele>
        <time>2023-05-29T11:23:40Z</time>
      </trkpt>
      <trkpt lat="42.89502" lon="1.21602">
        <ele>516.81</ele>
        <time>2023-05-29T11:23:41Z</time>
      </trkpt>
      <trkpt lat="42.89498" lon="1.216">
        <ele>516.803</ele>
        <time>2023-05-29T11:23:42Z</time>
      </trkpt>
      <trkpt lat="42.89493" lon="1.21597">
        <ele>513.876</ele>
        <time>2023-05-29T11:23:43Z</time>
      </trkpt>
      <trkpt lat="42.89488" lon="1.21597">
        <ele>512.664</ele>
        <time>2023-05-29T11:23:44Z</time>
      </trkpt>
      <trkpt lat="42.89481" lon="1.21595">
        <ele>510.97</ele>
        <time>2023-05-29T11:23:45Z</time>
      </trkpt>
      <trkpt lat="42.89475" lon="1.21597">
        <ele>509.629</ele>
        <time>2023-05-29T11:23:46Z</time>
      </trkpt>
      <trkpt lat="42.8947" lon="1.21597">
        <ele>507.211</ele>
        <time>2023-05-29T11:23:47Z</time>
      </trkpt>
      <trkpt lat="42.89463" lon="1.21596">
        <ele>506.181</ele>
        <time>2023-05-29T11:23:48Z</time>
      </trkpt>
      <trkpt lat="42.89456" lon="1.21596">
        <ele>504.907</ele>
        <time>2023-05-29T11:23:49Z</time>
      </trkpt>
      <trkpt lat="42.89449" lon="1.21597">
        <ele>505.58</ele>
        <time>2023-05-29T11:23:50Z</time>
      </trkpt>
      <trkpt lat="42.89442" lon="1.21597">
        <ele>504.134</ele>
        <time>2023-05-29T11:23:51Z</time>
      </trkpt>
      <trkpt lat="42.89435" lon="1.21597">
        <ele>504.017</ele>
        <time>2023-05-29T11:23:52Z</time>
      </trkpt>
      <trkpt lat="42.89428" lon="1.21598">
        <ele>503.738</ele>
        <time>2023-05-29T11:23:53Z</time>
      </trkpt>
      <trkpt lat="42.89421" lon="1.21599">
        <ele>503.397</ele>
        <time>2023-05-29T11:23:54Z</time>
      </trkpt>
      <trkpt lat="42.89413" lon="1.21599">
        <ele>502.599</ele>
        <time>2023-05-29T11:23:55Z</time>
      </trkpt>
      <trkpt lat="42.89407" lon="1.21597">
        <ele>502.046</ele>
        <time>2023-05-29T11:23:56Z</time>
      </trkpt>
      <trkpt lat="42.89401" lon="1.216">
        <ele>500.513</ele>
        <time>2023-05-29T11:23:57Z</time>
      </trkpt>
      <trkpt lat="42.89395" lon="1.216">
        <ele>502.239</ele>
        <time>2023-05-29T11:23:58Z</time>
      </trkpt>
      <trkpt lat="42.89391" lon="1.21601">
        <ele>503.346</ele>
        <time>2023-05-29T11:23:59Z</time>
      </trkpt>
      <trkpt lat="42.89386" lon="1.21604">
        <ele>503.346</ele>
        <time>2023-05-29T11:24:00Z</time>
      </trkpt>
      <trkpt lat="42.8938" lon="1.21608">
        <ele>502.63</ele>
        <time>2023-05-29T11:24:01Z</time>
      </trkpt>
      <trkpt lat="42.89379" lon="1.21612">
        <ele>503.64</ele>
        <time>2023-05-29T11:24:02Z</time>
      </trkpt>
      <trkpt lat="42.89374" lon="1.21613">
        <ele>505.16</ele>
        <time>2023-05-29T11:24:03Z</time>
      </trkpt>
      <trkpt lat="42.89372" lon="1.21615">
        <ele>504.806</ele>
        <time>2023-05-29T11:24:04Z</time>
      </trkpt>
      <trkpt lat="42.89368" lon="1.21617">
        <ele>506.515</ele>
        <time>2023-05-29T11:24:05Z</time>
      </trkpt>
      <trkpt lat="42.89365" lon="1.21619">
        <ele>506.315</ele>
        <time>2023-05-29T11:24:06Z</time>
      </trkpt>
      <trkpt lat="42.89363" lon="1.21621">
        <ele>506.878</ele>
        <time>2023-05-29T11:24:07Z</time>
      </trkpt>
      <trkpt lat="42.8936" lon="1.21624">
        <ele>507.321</ele>
        <time>2023-05-29T11:24:08Z</time>
      </trkpt>
      <trkpt lat="42.89357" lon="1.21626">
        <ele>506.323</ele>
        <time>2023-05-29T11:24:09Z</time>
      </trkpt>
      <trkpt lat="42.89354" lon="1.21628">
        <ele>505.813</ele>
        <time>2023-05-29T11:24:10Z</time>
      </trkpt>
      <trkpt lat="42.8935" lon="1.21632">
        <ele>505.118</ele>
        <time>2023-05-29T11:24:11Z</time>
      </trkpt>
      <trkpt lat="42.89346" lon="1.21635">
        <ele>505.278</ele>
        <time>2023-05-29T11:24:12Z</time>
      </trkpt>
      <trkpt lat="42.89341" lon="1.21637">
        <ele>505.016</ele>
        <time>2023-05-29T11:24:13Z</time>
      </trkpt>
      <trkpt lat="42.89337" lon="1.21637">
        <ele>504.564</ele>
        <time>2023-05-29T11:24:14Z</time>
      </trkpt>
      <trkpt lat="42.89334" lon="1.21635">
        <ele>505.715</ele>
        <time>2023-05-29T11:24:15Z</time>
      </trkpt>
      <trkpt lat="42.8933" lon="1.21632">
        <ele>505.174</ele>
        <time>2023-05-29T11:24:16Z</time>
      </trkpt>
      <trkpt lat="42.89326" lon="1.21629">
        <ele>504.746</ele>
        <time>2023-05-29T11:24:17Z</time>
      </trkpt>
      <trkpt lat="42.89319" lon="1.21627">
        <ele>502.836</ele>
        <time>2023-05-29T11:24:18Z</time>
      </trkpt>
      <trkpt lat="42.89313" lon="1.21623">
        <ele>502.867</ele>
        <time>2023-05-29T11:24:19Z</time>
      </trkpt>
      <trkpt lat="42.89306" lon="1.21618">
        <ele>503.202</ele>
        <time>2023-05-29T11:24:20Z</time>
      </trkpt>
      <trkpt lat="42.89303" lon="1.21616">
        <ele>504.245</ele>
        <time>2023-05-29T11:24:21Z</time>
      </trkpt>
      <trkpt lat="42.89299" lon="1.21609">
        <ele>502.492</ele>
        <time>2023-05-29T11:24:22Z</time>
      </trkpt>
      <trkpt lat="42.89294" lon="1.21602">
        <ele>501.591</ele>
        <time>2023-05-29T11:24:23Z</time>
      </trkpt>
      <trkpt lat="42.89294" lon="1.21594">
        <ele>499.968</ele>
        <time>2023-05-29T11:24:24Z</time>
      </trkpt>
      <trkpt lat="42.89291" lon="1.21585">
        <ele>498.471</ele>
        <time>2023-05-29T11:24:25Z</time>
      </trkpt>
      <trkpt lat="42.89288" lon="1.21577">
        <ele>494.286</ele>
        <time>2023-05-29T11:24:26Z</time>
      </trkpt>
      <trkpt lat="42.89286" lon="1.2157">
        <ele>493.494</ele>
        <time>2023-05-29T11:24:27Z</time>
      </trkpt>
      <trkpt lat="42.89283" lon="1.21562">
        <ele>493.185</ele>
        <time>2023-05-29T11:24:28Z</time>
      </trkpt>
      <trkpt lat="42.8928" lon="1.21556">
        <ele>492.267</ele>
        <time>2023-05-29T11:24:29Z</time>
      </trkpt>
      <trkpt lat="42.89276" lon="1.2155">
        <ele>491.867</ele>
        <time>2023-05-29T11:24:30Z</time>
      </trkpt>
      <trkpt lat="42.89272" lon="1.21546">
        <ele>491.451</ele>
        <time>2023-05-29T11:24:31Z</time>
      </trkpt>
      <trkpt lat="42.89268" lon="1.21542">
        <ele>491.919</ele>
        <time>2023-05-29T11:24:32Z</time>
      </trkpt>
      <trkpt lat="42.89263" lon="1.2154">
        <ele>491.525</ele>
        <time>2023-05-29T11:24:33Z</time>
      </trkpt>
      <trkpt lat="42.89259" lon="1.21538">
        <ele>491.189</ele>
        <time>2023-05-29T11:24:34Z</time>
      </trkpt>
      <trkpt lat="42.89255" lon="1.21535">
        <ele>490.748</ele>
        <time>2023-05-29T11:24:35Z</time>
      </trkpt>
      <trkpt lat="42.8925" lon="1.21533">
        <ele>490.573</ele>
        <time>2023-05-29T11:24:36Z</time>
      </trkpt>
      <trkpt lat="42.89246" lon="1.21531">
        <ele>490.096</ele>
        <time>2023-05-29T11:24:37Z</time>
      </trkpt>
      <trkpt lat="42.89241" lon="1.21529">
        <ele>490.111</ele>
        <time>2023-05-29T11:24:38Z</time>
      </trkpt>
      <trkpt lat="42.89237" lon="1.21526">
        <ele>490.902</ele>
        <time>2023-05-29T11:24:39Z</time>
      </trkpt>
      <trkpt lat="42.89232" lon="1.21524">
        <ele>491.098</ele>
        <time>2023-05-29T11:24:40Z</time>
      </trkpt>
      <trkpt lat="42.89226" lon="1.21522">
        <ele>489.489</ele>
        <time>2023-05-29T11:24:41Z</time>
      </trkpt>
      <trkpt lat="42.89221" lon="1.21521">
        <ele>489.057</ele>
        <time>2023-05-29T11:24:42Z</time>
      </trkpt>
      <trkpt lat="42.89216" lon="1.21519">
        <ele>488.734</ele>
        <time>2023-05-29T11:24:43Z</time>
      </trkpt>
      <trkpt lat="42.8921" lon="1.21518">
        <ele>487.669</ele>
        <time>2023-05-29T11:24:44Z</time>
      </trkpt>
      <trkpt lat="42.89205" lon="1.21517">
        <ele>487.237</ele>
        <time>2023-05-29T11:24:45Z</time>
      </trkpt>
      <trkpt lat="42.89199" lon="1.21517">
        <ele>486.943</ele>
        <time>2023-05-29T11:24:46Z</time>
      </trkpt>
      <trkpt lat="42.89193" lon="1.21517">
        <ele>487.016</ele>
        <time>2023-05-29T11:24:47Z</time>
      </trkpt>
      <trkpt lat="42.89189" lon="1.21518">
        <ele>486.127</ele>
        <time>2023-05-29T11:24:48Z</time>
      </trkpt>
      <trkpt lat="42.89185" lon="1.21519">
        <ele>485.144</ele>
        <time>2023-05-29T11:24:49Z</time>
      </trkpt>
      <trkpt lat="42.89182" lon="1.21519">
        <ele>485.022</ele>
        <time>2023-05-29T11:24:50Z</time>
      </trkpt>
      <trkpt lat="42.89181" lon="1.21519">
        <ele>484.034</ele>
        <time>2023-05-29T11:24:51Z</time>
      </trkpt>
      <trkpt lat="42.8918" lon="1.21519">
        <ele>484.969</ele>
        <time>2023-05-29T11:24:52Z</time>
      </trkpt>
      <trkpt lat="42.89179" lon="1.21517">
        <ele>486.247</ele>
        <time>2023-05-29T11:24:53Z</time>
      </trkpt>
      <trkpt lat="42.89178" lon="1.21518">
        <ele>486.983</ele>
        <time>2023-05-29T11:24:54Z</time>
      </trkpt>
      <trkpt lat="42.89178" lon="1.21518">
        <ele>486.821</ele>
        <time>2023-05-29T11:24:55Z</time>
      </trkpt>
      <trkpt lat="42.89178" lon="1.21519">
        <ele>486.641</ele>
        <time>2023-05-29T11:24:56Z</time>
      </trkpt>
      <trkpt lat="42.89177" lon="1.21519">
        <ele>486.256</ele>
        <time>2023-05-29T11:24:57Z</time>
      </trkpt>
      <trkpt lat="42.89177" lon="1.2152">
        <ele>486.68</ele>
        <time>2023-05-29T11:24:58Z</time>
      </trkpt>
      <trkpt lat="42.89177" lon="1.2152">
        <ele>487.109</ele>
        <time>2023-05-29T11:24:59Z</time>
      </trkpt>
      <trkpt lat="42.89176" lon="1.2152">
        <ele>486.532</ele>
        <time>2023-05-29T11:25:00Z</time>
      </trkpt>
      <trkpt lat="42.89175" lon="1.2152">
        <ele>486.086</ele>
        <time>2023-05-29T11:25:01Z</time>
      </trkpt>
      <trkpt lat="42.89175" lon="1.2152">
        <ele>486.363</ele>
        <time>2023-05-29T11:25:02Z</time>
      </trkpt>
      <trkpt lat="42.89175" lon="1.21519">
        <ele>486.222</ele>
        <time>2023-05-29T11:25:03Z</time>
      </trkpt>
      <trkpt lat="42.89175" lon="1.21519">
        <ele>485.951</ele>
        <time>2023-05-29T11:25:04Z</time>
      </trkpt>
      <trkpt lat="42.89175" lon="1.21519">
        <ele>485.819</ele>
        <time>2023-05-29T11:25:05Z</time>
      </trkpt>
      <trkpt lat="42.89174" lon="1.21519">
        <ele>486.114</ele>
        <time>2023-05-29T11:25:06Z</time>
      </trkpt>
      <trkpt lat="42.89174" lon="1.21519">
        <ele>486.653</ele>
        <time>2023-05-29T11:25:07Z</time>
      </trkpt>
      <trkpt lat="42.89174" lon="1.21519">
        <ele>486.737</ele>
        <time>2023-05-29T11:25:08Z</time>
      </trkpt>
      <trkpt lat="42.89174" lon="1.21518">
        <ele>486.931</ele>
        <time>2023-05-29T11:25:09Z</time>
      </trkpt>
      <trkpt lat="42.89174" lon="1.21518">
        <ele>486.856</ele>
        <time>2023-05-29T11:25:10Z</time>
      </trkpt>
      <trkpt lat="42.89174" lon="1.21518">
        <ele>487.135</ele>
        <time>2023-05-29T11:25:11Z</time>
      </trkpt>
      <trkpt lat="42.89174" lon="1.21518">
        <ele>486.486</ele>
        <time>2023-05-29T11:25:12Z</time>
      </trkpt>
      <trkpt lat="42.89174" lon="1.21518">
        <ele>486.609</ele>
        <time>2023-05-29T11:25:13Z</time>
      </trkpt>
      <trkpt lat="42.89174" lon="1.21517">
        <ele>486.594</ele>
        <time>2023-05-29T11:25:14Z</time>
      </trkpt>
      <trkpt lat="42.89173" lon="1.21517">
        <ele>486.591</ele>
        <time>2023-05-29T11:25:15Z</time>
      </trkpt>
      <trkpt lat="42.89173" lon="1.21517">
        <ele>486.576</ele>
        <time>2023-05-29T11:25:16Z</time>
      </trkpt>
      <trkpt lat="42.89173" lon="1.21517">
        <ele>486.576</ele>
        <time>2023-05-29T11:25:17Z</time>
      </trkpt>
      <trkpt lat="42.89173" lon="1.21517">
        <ele>486.576</ele>
        <time>2023-05-29T11:25:18Z</time>
      </trkpt>
      <trkpt lat="42.89173" lon="1.21517">
        <ele>486.574</ele>
        <time>2023-05-29T11:25:19Z</time>
      </trkpt>
      <trkpt lat="42.89173" lon="1.21517">
        <ele>486.573</ele>
        <time>2023-05-29T11:25:20Z</time>
      </trkpt>
      <trkpt lat="42.89173" lon="1.21517">
        <ele>486.575</ele>
        <time>2023-05-29T11:25:21Z</time>
      </trkpt>
      <trkpt lat="42.89173" lon="1.21517">
        <ele>486.571</ele>
        <time>2023-05-29T11:25:22Z</time>
      </trkpt>
      <trkpt lat="42.89173" lon="1.21517">
        <ele>486.569</ele>
        <time>2023-05-29T11:25:23Z</time>
      </trkpt>
      <trkpt lat="42.89173" lon="1.21517">
        <ele>486.57</ele>
        <time>2023-05-29T11:25:24Z</time>
      </trkpt>
      <trkpt lat="42.89173" lon="1.21517">
        <ele>486.57</ele>
        <time>2023-05-29T11:25:25Z</time>
      </trkpt>
      <trkpt lat="42.89173" lon="1.21517">
        <ele>486.614</ele>
        <time>2023-05-29T11:25:26Z</time>
      </trkpt>
      <trkpt lat="42.89173" lon="1.21517">
        <ele>486.652</ele>
        <time>2023-05-29T11:25:27Z</time>
      </trkpt>
      <trkpt lat="42.89173" lon="1.21517">
        <ele>486.658</ele>
        <time>2023-05-29T11:25:28Z</time>
      </trkpt>
      <trkpt lat="42.89173" lon="1.21517">
        <ele>486.659</ele>
        <time>2023-05-29T11:25:29Z</time>
      </trkpt>
      <trkpt lat="42.89173" lon="1.21517">
        <ele>486.655</ele>
        <time>2023-05-29T11:25:30Z</time>
      </trkpt>
      <trkpt lat="42.89173" lon="1.21517">
        <ele>486.656</ele>
        <time>2023-05-29T11:25:31Z</time>
      </trkpt>
      <trkpt lat="42.89173" lon="1.21517">
        <ele>486.654</ele>
        <time>2023-05-29T11:25:32Z</time>
      </trkpt>
      <trkpt lat="42.89173" lon="1.21517">
        <ele>486.652</ele>
        <time>2023-05-29T11:25:33Z</time>
      </trkpt>
      <trkpt lat="42.89173" lon="1.21517">
        <ele>486.655</ele>
        <time>2023-05-29T11:25:34Z</time>
      </trkpt>
      <trkpt lat="42.89173" lon="1.21517">
        <ele>486.659</ele>
        <time>2023-05-29T11:25:35Z</time>
      </trkpt>
      <trkpt lat="42.89173" lon="1.21517">
        <ele>486.662</ele>
        <time>2023-05-29T11:25:36Z</time>
      </trkpt>
      <trkpt lat="42.89173" lon="1.21517">
        <ele>486.663</ele>
        <time>2023-05-29T11:25:37Z</time>
      </trkpt>
      <trkpt lat="42.89173" lon="1.21517">
        <ele>486.665</ele>
        <time>2023-05-29T11:25:38Z</time>
      </trkpt>
      <trkpt lat="42.89173" lon="1.21517">
        <ele>486.663</ele>
        <time>2023-05-29T11:25:39Z</time>
      </trkpt>
      <trkpt lat="42.89173" lon="1.21517">
        <ele>486.493</ele>
        <time>2023-05-29T11:25:40Z</time>
      </trkpt>
      <trkpt lat="42.89172" lon="1.21516">
        <ele>486.813</ele>
        <time>2023-05-29T11:25:41Z</time>
      </trkpt>
      <trkpt lat="42.8917" lon="1.21515">
        <ele>486.976</ele>
        <time>2023-05-29T11:25:42Z</time>
      </trkpt>
      <trkpt lat="42.89168" lon="1.21513">
        <ele>487.585</ele>
        <time>2023-05-29T11:25:43Z</time>
      </trkpt>
      <trkpt lat="42.89165" lon="1.21511">
        <ele>486.636</ele>
        <time>2023-05-29T11:25:44Z</time>
      </trkpt>
      <trkpt lat="42.89161" lon="1.21509">
        <ele>486.558</ele>
        <time>2023-05-29T11:25:45Z</time>
      </trkpt>
      <trkpt lat="42.89158" lon="1.21505">
        <ele>486.53</ele>
        <time>2023-05-29T11:25:46Z</time>
      </trkpt>
      <trkpt lat="42.89154" lon="1.21499">
        <ele>486.537</ele>
        <time>2023-05-29T11:25:47Z</time>
      </trkpt>
      <trkpt lat="42.8915" lon="1.21493">
        <ele>486.673</ele>
        <time>2023-05-29T11:25:48Z</time>
      </trkpt>
      <trkpt lat="42.89148" lon="1.21488">
        <ele>486.015</ele>
        <time>2023-05-29T11:25:49Z</time>
      </trkpt>
      <trkpt lat="42.89149" lon="1.21485">
        <ele>485.947</ele>
        <time>2023-05-29T11:25:50Z</time>
      </trkpt>
      <trkpt lat="42.89149" lon="1.21483">
        <ele>485.391</ele>
        <time>2023-05-29T11:25:51Z</time>
      </trkpt>
      <trkpt lat="42.89151" lon="1.21483">
        <ele>484.803</ele>
        <time>2023-05-29T11:25:52Z</time>
      </trkpt>
      <trkpt lat="42.89152" lon="1.21481">
        <ele>484.364</ele>
        <time>2023-05-29T11:25:53Z</time>
      </trkpt>
      <trkpt lat="42.89155" lon="1.21478">
        <ele>483.767</ele>
        <time>2023-05-29T11:25:54Z</time>
      </trkpt>
      <trkpt lat="42.89156" lon="1.21474">
        <ele>483.554</ele>
        <time>2023-05-29T11:25:55Z</time>
      </trkpt>
      <trkpt lat="42.89158" lon="1.21469">
        <ele>483.344</ele>
        <time>2023-05-29T11:25:56Z</time>
      </trkpt>
      <trkpt lat="42.8916" lon="1.21464">
        <ele>483.787</ele>
        <time>2023-05-29T11:25:57Z</time>
      </trkpt>
      <trkpt lat="42.89162" lon="1.21459">
        <ele>483.345</ele>
        <time>2023-05-29T11:25:58Z</time>
      </trkpt>
      <trkpt lat="42.89165" lon="1.21456">
        <ele>483.162</ele>
        <time>2023-05-29T11:25:59Z</time>
      </trkpt>
      <trkpt lat="42.8917" lon="1.21452">
        <ele>481.968</ele>
        <time>2023-05-29T11:26:00Z</time>
      </trkpt>
      <trkpt lat="42.89175" lon="1.21449">
        <ele>482.038</ele>
        <time>2023-05-29T11:26:01Z</time>
      </trkpt>
      <trkpt lat="42.8918" lon="1.21447">
        <ele>481.512</ele>
        <time>2023-05-29T11:26:02Z</time>
      </trkpt>
      <trkpt lat="42.89184" lon="1.21446">
        <ele>481.389</ele>
        <time>2023-05-29T11:26:03Z</time>
      </trkpt>
      <trkpt lat="42.89189" lon="1.21445">
        <ele>481.629</ele>
        <time>2023-05-29T11:26:04Z</time>
      </trkpt>
      <trkpt lat="42.89194" lon="1.21442">
        <ele>481.166</ele>
        <time>2023-05-29T11:26:05Z</time>
      </trkpt>
      <trkpt lat="42.89198" lon="1.21441">
        <ele>480.685</ele>
        <time>2023-05-29T11:26:06Z</time>
      </trkpt>
      <trkpt lat="42.89202" lon="1.21439">
        <ele>480.276</ele>
        <time>2023-05-29T11:26:07Z</time>
      </trkpt>
      <trkpt lat="42.89207" lon="1.21438">
        <ele>479.432</ele>
        <time>2023-05-29T11:26:08Z</time>
      </trkpt>
      <trkpt lat="42.89212" lon="1.21437">
        <ele>479.688</ele>
        <time>2023-05-29T11:26:09Z</time>
      </trkpt>
      <trkpt lat="42.89217" lon="1.21436">
        <ele>480.411</ele>
        <time>2023-05-29T11:26:10Z</time>
      </trkpt>
      <trkpt lat="42.8922" lon="1.21435">
        <ele>479.832</ele>
        <time>2023-05-29T11:26:11Z</time>
      </trkpt>
      <trkpt lat="42.89224" lon="1.21435">
        <ele>479.705</ele>
        <time>2023-05-29T11:26:12Z</time>
      </trkpt>
      <trkpt lat="42.89229" lon="1.21429">
        <ele>479.892</ele>
        <time>2023-05-29T11:26:13Z</time>
      </trkpt>
      <trkpt lat="42.89232" lon="1.21424">
        <ele>480.079</ele>
        <time>2023-05-29T11:26:14Z</time>
      </trkpt>
      <trkpt lat="42.89235" lon="1.2142">
        <ele>480.105</ele>
        <time>2023-05-29T11:26:15Z</time>
      </trkpt>
      <trkpt lat="42.89237" lon="1.21416">
        <ele>480.209</ele>
        <time>2023-05-29T11:26:16Z</time>
      </trkpt>
      <trkpt lat="42.8924" lon="1.21412">
        <ele>480.018</ele>
        <time>2023-05-29T11:26:17Z</time>
      </trkpt>
      <trkpt lat="42.89242" lon="1.21407">
        <ele>480.302</ele>
        <time>2023-05-29T11:26:18Z</time>
      </trkpt>
      <trkpt lat="42.89245" lon="1.21404">
        <ele>478.478</ele>
        <time>2023-05-29T11:26:19Z</time>
      </trkpt>
      <trkpt lat="42.89248" lon="1.214">
        <ele>479.605</ele>
        <time>2023-05-29T11:26:20Z</time>
      </trkpt>
      <trkpt lat="42.89251" lon="1.21396">
        <ele>479.177</ele>
        <time>2023-05-29T11:26:21Z</time>
      </trkpt>
      <trkpt lat="42.89253" lon="1.21391">
        <ele>478.978</ele>
        <time>2023-05-29T11:26:22Z</time>
      </trkpt>
      <trkpt lat="42.89256" lon="1.21387">
        <ele>478.253</ele>
        <time>2023-05-29T11:26:23Z</time>
      </trkpt>
      <trkpt lat="42.89259" lon="1.21383">
        <ele>477.779</ele>
        <time>2023-05-29T11:26:24Z</time>
      </trkpt>
      <trkpt lat="42.89261" lon="1.21378">
        <ele>478.185</ele>
        <time>2023-05-29T11:26:25Z</time>
      </trkpt>
      <trkpt lat="42.89263" lon="1.21372">
        <ele>477.679</ele>
        <time>2023-05-29T11:26:26Z</time>
      </trkpt>
      <trkpt lat="42.89262" lon="1.21365">
        <ele>477.921</ele>
        <time>2023-05-29T11:26:27Z</time>
      </trkpt>
      <trkpt lat="42.89261" lon="1.21358">
        <ele>478.478</ele>
        <time>2023-05-29T11:26:28Z</time>
      </trkpt>
      <trkpt lat="42.8926" lon="1.21352">
        <ele>476.998</ele>
        <time>2023-05-29T11:26:29Z</time>
      </trkpt>
      <trkpt lat="42.8926" lon="1.21344">
        <ele>476.769</ele>
        <time>2023-05-29T11:26:30Z</time>
      </trkpt>
      <trkpt lat="42.89259" lon="1.21339">
        <ele>476.838</ele>
        <time>2023-05-29T11:26:31Z</time>
      </trkpt>
      <trkpt lat="42.89261" lon="1.21336">
        <ele>476.961</ele>
        <time>2023-05-29T11:26:32Z</time>
      </trkpt>
      <trkpt lat="42.89262" lon="1.21335">
        <ele>477.441</ele>
        <time>2023-05-29T11:26:33Z</time>
      </trkpt>
      <trkpt lat="42.89265" lon="1.21334">
        <ele>477.678</ele>
        <time>2023-05-29T11:26:34Z</time>
      </trkpt>
      <trkpt lat="42.89267" lon="1.21335">
        <ele>477.151</ele>
        <time>2023-05-29T11:26:35Z</time>
      </trkpt>
      <trkpt lat="42.89269" lon="1.21336">
        <ele>477.144</ele>
        <time>2023-05-29T11:26:36Z</time>
      </trkpt>
      <trkpt lat="42.8927" lon="1.21339">
        <ele>476.834</ele>
        <time>2023-05-29T11:26:37Z</time>
      </trkpt>
      <trkpt lat="42.89273" lon="1.21342">
        <ele>476.42</ele>
        <time>2023-05-29T11:26:38Z</time>
      </trkpt>
    </trkseg>
  </trk>
</gpx>